<?xml version="1.0" encoding="UTF-8" standalone="no" ?>
<gpx xmlns="http://www.topografix.com/GPX/1/1" xmlns:xsi="http://www.w3.org/2001/XMLSchema-instance" xsi:schemaLocation="http://www.topografix.com/GPX/1/1 http://www.topografix.com/GPX/1/1/gpx.xsd" version="1.1" creator="VisuGPX - https://www.visugpx.com">
  <metadata>
    <name>Fourcat</name>
    <desc><![CDATA[Rando vers etang fourcat]]></desc>
  </metadata>
  <trk>
    <name><![CDATA[Randocourse]]></name>
    <cmt><![CDATA[Fourcat-goueille]]></cmt>
    <trkseg>
      <trkpt lat="42.71745" lon="1.48783">
        <ele>1156.6032714844</ele>
        <time>2010-07-14T06:24:56Z</time>
      </trkpt>
      <trkpt lat="42.71745" lon="1.48783">
        <ele>1156.1225585938</ele>
        <time>2010-07-14T06:25:03Z</time>
      </trkpt>
      <trkpt lat="42.71743" lon="1.48782">
        <ele>1155.6420898438</ele>
        <time>2010-07-14T06:25:14Z</time>
      </trkpt>
      <trkpt lat="42.7174" lon="1.4878">
        <ele>1156.1225585938</ele>
        <time>2010-07-14T06:25:20Z</time>
      </trkpt>
      <trkpt lat="42.71735" lon="1.48778">
        <ele>1157.083984375</ele>
        <time>2010-07-14T06:25:29Z</time>
      </trkpt>
      <trkpt lat="42.71728" lon="1.48776">
        <ele>1157.083984375</ele>
        <time>2010-07-14T06:25:37Z</time>
      </trkpt>
      <trkpt lat="42.71721" lon="1.48775">
        <ele>1158.0454101562</ele>
        <time>2010-07-14T06:25:45Z</time>
      </trkpt>
      <trkpt lat="42.71716" lon="1.48775">
        <ele>1159.0065917969</ele>
        <time>2010-07-14T06:25:50Z</time>
      </trkpt>
      <trkpt lat="42.71713" lon="1.48775">
        <ele>1159.4873046875</ele>
        <time>2010-07-14T06:25:53Z</time>
      </trkpt>
      <trkpt lat="42.71708" lon="1.48776">
        <ele>1160.9291992188</ele>
        <time>2010-07-14T06:25:57Z</time>
      </trkpt>
      <trkpt lat="42.71699" lon="1.48782">
        <ele>1162.8518066406</ele>
        <time>2010-07-14T06:26:06Z</time>
      </trkpt>
      <trkpt lat="42.71695" lon="1.48788">
        <ele>1164.2939453125</ele>
        <time>2010-07-14T06:26:12Z</time>
      </trkpt>
      <trkpt lat="42.71694" lon="1.4879">
        <ele>1164.2939453125</ele>
        <time>2010-07-14T06:26:14Z</time>
      </trkpt>
      <trkpt lat="42.71696" lon="1.48797">
        <ele>1163.8129882812</ele>
        <time>2010-07-14T06:26:19Z</time>
      </trkpt>
      <trkpt lat="42.717" lon="1.48799">
        <ele>1164.7746582031</ele>
        <time>2010-07-14T06:26:24Z</time>
      </trkpt>
      <trkpt lat="42.71709" lon="1.48799">
        <ele>1164.2939453125</ele>
        <time>2010-07-14T06:26:32Z</time>
      </trkpt>
      <trkpt lat="42.71717" lon="1.48799">
        <ele>1165.7360839844</ele>
        <time>2010-07-14T06:26:39Z</time>
      </trkpt>
      <trkpt lat="42.71725" lon="1.48803">
        <ele>1165.2553710938</ele>
        <time>2010-07-14T06:26:47Z</time>
      </trkpt>
      <trkpt lat="42.71733" lon="1.4881">
        <ele>1165.2553710938</ele>
        <time>2010-07-14T06:26:55Z</time>
      </trkpt>
      <trkpt lat="42.71743" lon="1.48817">
        <ele>1166.697265625</ele>
        <time>2010-07-14T06:27:04Z</time>
      </trkpt>
      <trkpt lat="42.7175" lon="1.48823">
        <ele>1167.6584472656</ele>
        <time>2010-07-14T06:27:11Z</time>
      </trkpt>
      <trkpt lat="42.71758" lon="1.48825">
        <ele>1165.7360839844</ele>
        <time>2010-07-14T06:27:18Z</time>
      </trkpt>
      <trkpt lat="42.7176" lon="1.48826">
        <ele>1165.7360839844</ele>
        <time>2010-07-14T06:27:20Z</time>
      </trkpt>
      <trkpt lat="42.71768" lon="1.48828">
        <ele>1167.6584472656</ele>
        <time>2010-07-14T06:27:26Z</time>
      </trkpt>
      <trkpt lat="42.71768" lon="1.48832">
        <ele>1170.5424804688</ele>
        <time>2010-07-14T06:27:30Z</time>
      </trkpt>
      <trkpt lat="42.71761" lon="1.48833">
        <ele>1171.0231933594</ele>
        <time>2010-07-14T06:27:36Z</time>
      </trkpt>
      <trkpt lat="42.71756" lon="1.48833">
        <ele>1171.5036621094</ele>
        <time>2010-07-14T06:27:40Z</time>
      </trkpt>
      <trkpt lat="42.71748" lon="1.48832">
        <ele>1172.9458007812</ele>
        <time>2010-07-14T06:27:48Z</time>
      </trkpt>
      <trkpt lat="42.71738" lon="1.48832">
        <ele>1175.3488769531</ele>
        <time>2010-07-14T06:27:56Z</time>
      </trkpt>
      <trkpt lat="42.71731" lon="1.48835">
        <ele>1174.8684082031</ele>
        <time>2010-07-14T06:28:02Z</time>
      </trkpt>
      <trkpt lat="42.71723" lon="1.4884">
        <ele>1173.4265136719</ele>
        <time>2010-07-14T06:28:10Z</time>
      </trkpt>
      <trkpt lat="42.71719" lon="1.48841">
        <ele>1173.4265136719</ele>
        <time>2010-07-14T06:28:13Z</time>
      </trkpt>
      <trkpt lat="42.71712" lon="1.48846">
        <ele>1171.5036621094</ele>
        <time>2010-07-14T06:28:20Z</time>
      </trkpt>
      <trkpt lat="42.71705" lon="1.48853">
        <ele>1168.6198730469</ele>
        <time>2010-07-14T06:28:23Z</time>
      </trkpt>
      <trkpt lat="42.71701" lon="1.48856">
        <ele>1168.1391601562</ele>
        <time>2010-07-14T06:28:25Z</time>
      </trkpt>
      <trkpt lat="42.71695" lon="1.48858">
        <ele>1170.5424804688</ele>
        <time>2010-07-14T06:28:32Z</time>
      </trkpt>
      <trkpt lat="42.7169" lon="1.48862">
        <ele>1175.8295898438</ele>
        <time>2010-07-14T06:28:38Z</time>
      </trkpt>
      <trkpt lat="42.71687" lon="1.48864">
        <ele>1176.791015625</ele>
        <time>2010-07-14T06:28:40Z</time>
      </trkpt>
      <trkpt lat="42.7168" lon="1.48869">
        <ele>1179.1940917969</ele>
        <time>2010-07-14T06:28:47Z</time>
      </trkpt>
      <trkpt lat="42.71674" lon="1.48874">
        <ele>1177.7521972656</ele>
        <time>2010-07-14T06:28:52Z</time>
      </trkpt>
      <trkpt lat="42.71671" lon="1.48876">
        <ele>1178.2329101562</ele>
        <time>2010-07-14T06:28:55Z</time>
      </trkpt>
      <trkpt lat="42.71662" lon="1.48886">
        <ele>1178.2329101562</ele>
        <time>2010-07-14T06:29:04Z</time>
      </trkpt>
      <trkpt lat="42.71652" lon="1.48896">
        <ele>1176.3103027344</ele>
        <time>2010-07-14T06:29:14Z</time>
      </trkpt>
      <trkpt lat="42.7165" lon="1.48898">
        <ele>1176.3103027344</ele>
        <time>2010-07-14T06:29:16Z</time>
      </trkpt>
      <trkpt lat="42.71644" lon="1.48905">
        <ele>1176.3103027344</ele>
        <time>2010-07-14T06:29:23Z</time>
      </trkpt>
      <trkpt lat="42.71638" lon="1.48911">
        <ele>1173.9069824219</ele>
        <time>2010-07-14T06:29:30Z</time>
      </trkpt>
      <trkpt lat="42.71632" lon="1.48917">
        <ele>1175.8295898438</ele>
        <time>2010-07-14T06:29:37Z</time>
      </trkpt>
      <trkpt lat="42.71623" lon="1.48925">
        <ele>1175.8295898438</ele>
        <time>2010-07-14T06:29:45Z</time>
      </trkpt>
      <trkpt lat="42.71615" lon="1.48933">
        <ele>1176.3103027344</ele>
        <time>2010-07-14T06:29:51Z</time>
      </trkpt>
      <trkpt lat="42.71606" lon="1.48943">
        <ele>1174.3876953125</ele>
        <time>2010-07-14T06:29:59Z</time>
      </trkpt>
      <trkpt lat="42.71594" lon="1.4895">
        <ele>1176.3103027344</ele>
        <time>2010-07-14T06:30:09Z</time>
      </trkpt>
      <trkpt lat="42.71584" lon="1.48959">
        <ele>1176.791015625</ele>
        <time>2010-07-14T06:30:19Z</time>
      </trkpt>
      <trkpt lat="42.71576" lon="1.48966">
        <ele>1178.2329101562</ele>
        <time>2010-07-14T06:30:27Z</time>
      </trkpt>
      <trkpt lat="42.71568" lon="1.48975">
        <ele>1177.7521972656</ele>
        <time>2010-07-14T06:30:36Z</time>
      </trkpt>
      <trkpt lat="42.7156" lon="1.48982">
        <ele>1179.1940917969</ele>
        <time>2010-07-14T06:30:44Z</time>
      </trkpt>
      <trkpt lat="42.7155" lon="1.48989">
        <ele>1183.0395507812</ele>
        <time>2010-07-14T06:30:54Z</time>
      </trkpt>
      <trkpt lat="42.71545" lon="1.48991">
        <ele>1184.4816894531</ele>
        <time>2010-07-14T06:30:58Z</time>
      </trkpt>
      <trkpt lat="42.71539" lon="1.48991">
        <ele>1186.404296875</ele>
        <time>2010-07-14T06:31:03Z</time>
      </trkpt>
      <trkpt lat="42.71529" lon="1.48992">
        <ele>1187.8461914062</ele>
        <time>2010-07-14T06:31:11Z</time>
      </trkpt>
      <trkpt lat="42.71519" lon="1.4899">
        <ele>1189.2880859375</ele>
        <time>2010-07-14T06:31:19Z</time>
      </trkpt>
      <trkpt lat="42.7151" lon="1.48986">
        <ele>1189.2880859375</ele>
        <time>2010-07-14T06:31:27Z</time>
      </trkpt>
      <trkpt lat="42.71499" lon="1.4898">
        <ele>1189.2880859375</ele>
        <time>2010-07-14T06:31:36Z</time>
      </trkpt>
      <trkpt lat="42.71489" lon="1.48972">
        <ele>1188.8076171875</ele>
        <time>2010-07-14T06:31:45Z</time>
      </trkpt>
      <trkpt lat="42.71484" lon="1.48969">
        <ele>1187.8461914062</ele>
        <time>2010-07-14T06:31:49Z</time>
      </trkpt>
      <trkpt lat="42.71479" lon="1.48973">
        <ele>1187.8461914062</ele>
        <time>2010-07-14T06:31:54Z</time>
      </trkpt>
      <trkpt lat="42.7147" lon="1.48979">
        <ele>1189.2880859375</ele>
        <time>2010-07-14T06:32:02Z</time>
      </trkpt>
      <trkpt lat="42.71458" lon="1.48987">
        <ele>1190.7299804688</ele>
        <time>2010-07-14T06:32:11Z</time>
      </trkpt>
      <trkpt lat="42.7145" lon="1.48993">
        <ele>1191.69140625</ele>
        <time>2010-07-14T06:32:18Z</time>
      </trkpt>
      <trkpt lat="42.71439" lon="1.49">
        <ele>1191.2106933594</ele>
        <time>2010-07-14T06:32:27Z</time>
      </trkpt>
      <trkpt lat="42.71431" lon="1.49005">
        <ele>1190.2495117188</ele>
        <time>2010-07-14T06:32:34Z</time>
      </trkpt>
      <trkpt lat="42.71421" lon="1.4901">
        <ele>1189.7687988281</ele>
        <time>2010-07-14T06:32:42Z</time>
      </trkpt>
      <trkpt lat="42.71409" lon="1.49013">
        <ele>1189.7687988281</ele>
        <time>2010-07-14T06:32:51Z</time>
      </trkpt>
      <trkpt lat="42.71395" lon="1.49011">
        <ele>1190.2495117188</ele>
        <time>2010-07-14T06:33:01Z</time>
      </trkpt>
      <trkpt lat="42.71384" lon="1.49014">
        <ele>1190.7299804688</ele>
        <time>2010-07-14T06:33:09Z</time>
      </trkpt>
      <trkpt lat="42.71375" lon="1.4902">
        <ele>1191.2106933594</ele>
        <time>2010-07-14T06:33:17Z</time>
      </trkpt>
      <trkpt lat="42.71363" lon="1.49026">
        <ele>1193.6140136719</ele>
        <time>2010-07-14T06:33:26Z</time>
      </trkpt>
      <trkpt lat="42.71355" lon="1.4903">
        <ele>1195.0559082031</ele>
        <time>2010-07-14T06:33:32Z</time>
      </trkpt>
      <trkpt lat="42.71346" lon="1.49032">
        <ele>1195.5366210938</ele>
        <time>2010-07-14T06:33:39Z</time>
      </trkpt>
      <trkpt lat="42.71338" lon="1.49036">
        <ele>1195.5366210938</ele>
        <time>2010-07-14T06:33:45Z</time>
      </trkpt>
      <trkpt lat="42.71329" lon="1.49042">
        <ele>1197.4594726562</ele>
        <time>2010-07-14T06:33:52Z</time>
      </trkpt>
      <trkpt lat="42.7132" lon="1.4905">
        <ele>1200.8239746094</ele>
        <time>2010-07-14T06:34:00Z</time>
      </trkpt>
      <trkpt lat="42.71315" lon="1.49056">
        <ele>1201.3046875</ele>
        <time>2010-07-14T06:34:05Z</time>
      </trkpt>
      <trkpt lat="42.71306" lon="1.49067">
        <ele>1202.2658691406</ele>
        <time>2010-07-14T06:34:14Z</time>
      </trkpt>
      <trkpt lat="42.71302" lon="1.49071">
        <ele>1203.2272949219</ele>
        <time>2010-07-14T06:34:19Z</time>
      </trkpt>
      <trkpt lat="42.71295" lon="1.4908">
        <ele>1205.6306152344</ele>
        <time>2010-07-14T06:34:26Z</time>
      </trkpt>
      <trkpt lat="42.71287" lon="1.49089">
        <ele>1208.9951171875</ele>
        <time>2010-07-14T06:34:35Z</time>
      </trkpt>
      <trkpt lat="42.71285" lon="1.49092">
        <ele>1209.4758300781</ele>
        <time>2010-07-14T06:34:37Z</time>
      </trkpt>
      <trkpt lat="42.71288" lon="1.49099">
        <ele>1210.4370117188</ele>
        <time>2010-07-14T06:34:43Z</time>
      </trkpt>
      <trkpt lat="42.71291" lon="1.49098">
        <ele>1210.9177246094</ele>
        <time>2010-07-14T06:34:46Z</time>
      </trkpt>
      <trkpt lat="42.71301" lon="1.49089">
        <ele>1212.3598632812</ele>
        <time>2010-07-14T06:34:55Z</time>
      </trkpt>
      <trkpt lat="42.7131" lon="1.49087">
        <ele>1213.8017578125</ele>
        <time>2010-07-14T06:35:02Z</time>
      </trkpt>
      <trkpt lat="42.71312" lon="1.49087">
        <ele>1213.8017578125</ele>
        <time>2010-07-14T06:35:03Z</time>
      </trkpt>
      <trkpt lat="42.71314" lon="1.49094">
        <ele>1214.7631835938</ele>
        <time>2010-07-14T06:35:10Z</time>
      </trkpt>
      <trkpt lat="42.71313" lon="1.49099">
        <ele>1216.6857910156</ele>
        <time>2010-07-14T06:35:16Z</time>
      </trkpt>
      <trkpt lat="42.71309" lon="1.49105">
        <ele>1217.1665039062</ele>
        <time>2010-07-14T06:35:23Z</time>
      </trkpt>
      <trkpt lat="42.71308" lon="1.4911">
        <ele>1218.1276855469</ele>
        <time>2010-07-14T06:35:28Z</time>
      </trkpt>
      <trkpt lat="42.71308" lon="1.49116">
        <ele>1218.6083984375</ele>
        <time>2010-07-14T06:35:33Z</time>
      </trkpt>
      <trkpt lat="42.71304" lon="1.49123">
        <ele>1220.0502929688</ele>
        <time>2010-07-14T06:35:41Z</time>
      </trkpt>
      <trkpt lat="42.71302" lon="1.49128">
        <ele>1221.9729003906</ele>
        <time>2010-07-14T06:35:48Z</time>
      </trkpt>
      <trkpt lat="42.713" lon="1.49134">
        <ele>1223.4150390625</ele>
        <time>2010-07-14T06:35:55Z</time>
      </trkpt>
      <trkpt lat="42.71296" lon="1.49137">
        <ele>1223.4150390625</ele>
        <time>2010-07-14T06:36:01Z</time>
      </trkpt>
      <trkpt lat="42.71294" lon="1.49144">
        <ele>1224.8569335938</ele>
        <time>2010-07-14T06:36:08Z</time>
      </trkpt>
      <trkpt lat="42.71294" lon="1.49153">
        <ele>1226.7795410156</ele>
        <time>2010-07-14T06:36:16Z</time>
      </trkpt>
      <trkpt lat="42.71292" lon="1.49158">
        <ele>1227.7407226562</ele>
        <time>2010-07-14T06:36:22Z</time>
      </trkpt>
      <trkpt lat="42.7129" lon="1.49161">
        <ele>1229.6635742188</ele>
        <time>2010-07-14T06:36:26Z</time>
      </trkpt>
      <trkpt lat="42.71288" lon="1.49167">
        <ele>1231.1057128906</ele>
        <time>2010-07-14T06:36:32Z</time>
      </trkpt>
      <trkpt lat="42.71285" lon="1.49174">
        <ele>1231.5861816406</ele>
        <time>2010-07-14T06:36:37Z</time>
      </trkpt>
      <trkpt lat="42.71283" lon="1.49178">
        <ele>1233.0280761719</ele>
        <time>2010-07-14T06:36:42Z</time>
      </trkpt>
      <trkpt lat="42.71279" lon="1.49183">
        <ele>1234.9509277344</ele>
        <time>2010-07-14T06:36:48Z</time>
      </trkpt>
      <trkpt lat="42.71275" lon="1.49187">
        <ele>1235.4313964844</ele>
        <time>2010-07-14T06:36:53Z</time>
      </trkpt>
      <trkpt lat="42.71271" lon="1.4919">
        <ele>1235.4313964844</ele>
        <time>2010-07-14T06:36:57Z</time>
      </trkpt>
      <trkpt lat="42.71268" lon="1.49193">
        <ele>1236.3928222656</ele>
        <time>2010-07-14T06:37:01Z</time>
      </trkpt>
      <trkpt lat="42.71262" lon="1.49203">
        <ele>1238.7961425781</ele>
        <time>2010-07-14T06:37:10Z</time>
      </trkpt>
      <trkpt lat="42.7126" lon="1.49207">
        <ele>1240.2380371094</ele>
        <time>2010-07-14T06:37:15Z</time>
      </trkpt>
      <trkpt lat="42.71254" lon="1.49213">
        <ele>1241.6799316406</ele>
        <time>2010-07-14T06:37:22Z</time>
      </trkpt>
      <trkpt lat="42.7125" lon="1.49219">
        <ele>1242.1606445312</ele>
        <time>2010-07-14T06:37:28Z</time>
      </trkpt>
      <trkpt lat="42.71247" lon="1.49228">
        <ele>1243.6025390625</ele>
        <time>2010-07-14T06:37:35Z</time>
      </trkpt>
      <trkpt lat="42.71244" lon="1.49234">
        <ele>1244.0834960938</ele>
        <time>2010-07-14T06:37:40Z</time>
      </trkpt>
      <trkpt lat="42.71236" lon="1.49235">
        <ele>1244.0834960938</ele>
        <time>2010-07-14T06:37:48Z</time>
      </trkpt>
      <trkpt lat="42.71231" lon="1.49236">
        <ele>1244.0834960938</ele>
        <time>2010-07-14T06:37:53Z</time>
      </trkpt>
      <trkpt lat="42.71224" lon="1.49245">
        <ele>1245.525390625</ele>
        <time>2010-07-14T06:38:02Z</time>
      </trkpt>
      <trkpt lat="42.71217" lon="1.49252">
        <ele>1246.9672851562</ele>
        <time>2010-07-14T06:38:09Z</time>
      </trkpt>
      <trkpt lat="42.71214" lon="1.49255">
        <ele>1246.9672851562</ele>
        <time>2010-07-14T06:38:13Z</time>
      </trkpt>
      <trkpt lat="42.71209" lon="1.4926">
        <ele>1247.9287109375</ele>
        <time>2010-07-14T06:38:19Z</time>
      </trkpt>
      <trkpt lat="42.71204" lon="1.4926">
        <ele>1249.3706054688</ele>
        <time>2010-07-14T06:38:24Z</time>
      </trkpt>
      <trkpt lat="42.71199" lon="1.49264">
        <ele>1251.7739257812</ele>
        <time>2010-07-14T06:38:31Z</time>
      </trkpt>
      <trkpt lat="42.71193" lon="1.4927">
        <ele>1253.2158203125</ele>
        <time>2010-07-14T06:38:38Z</time>
      </trkpt>
      <trkpt lat="42.71188" lon="1.49276">
        <ele>1254.6577148438</ele>
        <time>2010-07-14T06:38:45Z</time>
      </trkpt>
      <trkpt lat="42.71184" lon="1.49279">
        <ele>1255.619140625</ele>
        <time>2010-07-14T06:38:50Z</time>
      </trkpt>
      <trkpt lat="42.71181" lon="1.49281">
        <ele>1256.5803222656</ele>
        <time>2010-07-14T06:38:54Z</time>
      </trkpt>
      <trkpt lat="42.71176" lon="1.49279">
        <ele>1257.5417480469</ele>
        <time>2010-07-14T06:39:00Z</time>
      </trkpt>
      <trkpt lat="42.71174" lon="1.49281">
        <ele>1259.9448242188</ele>
        <time>2010-07-14T06:39:05Z</time>
      </trkpt>
      <trkpt lat="42.71169" lon="1.49287">
        <ele>1259.4643554688</ele>
        <time>2010-07-14T06:39:08Z</time>
      </trkpt>
      <trkpt lat="42.71166" lon="1.49285">
        <ele>1261.3872070312</ele>
        <time>2010-07-14T06:39:14Z</time>
      </trkpt>
      <trkpt lat="42.71164" lon="1.49286">
        <ele>1262.8291015625</ele>
        <time>2010-07-14T06:39:18Z</time>
      </trkpt>
      <trkpt lat="42.71161" lon="1.49287">
        <ele>1264.2709960938</ele>
        <time>2010-07-14T06:39:23Z</time>
      </trkpt>
      <trkpt lat="42.71159" lon="1.4929">
        <ele>1267.6354980469</ele>
        <time>2010-07-14T06:39:29Z</time>
      </trkpt>
      <trkpt lat="42.71156" lon="1.49295">
        <ele>1270.51953125</ele>
        <time>2010-07-14T06:39:36Z</time>
      </trkpt>
      <trkpt lat="42.71153" lon="1.49297">
        <ele>1270.51953125</ele>
        <time>2010-07-14T06:39:41Z</time>
      </trkpt>
      <trkpt lat="42.71147" lon="1.493">
        <ele>1270.0388183594</ele>
        <time>2010-07-14T06:39:47Z</time>
      </trkpt>
      <trkpt lat="42.71145" lon="1.49301">
        <ele>1269.5583496094</ele>
        <time>2010-07-14T06:39:49Z</time>
      </trkpt>
      <trkpt lat="42.7114" lon="1.49304">
        <ele>1269.0776367188</ele>
        <time>2010-07-14T06:39:53Z</time>
      </trkpt>
      <trkpt lat="42.71135" lon="1.49307">
        <ele>1270.0388183594</ele>
        <time>2010-07-14T06:40:00Z</time>
      </trkpt>
      <trkpt lat="42.71127" lon="1.49315">
        <ele>1271.4807128906</ele>
        <time>2010-07-14T06:40:08Z</time>
      </trkpt>
      <trkpt lat="42.71126" lon="1.49318">
        <ele>1272.4421386719</ele>
        <time>2010-07-14T06:40:11Z</time>
      </trkpt>
      <trkpt lat="42.7112" lon="1.49321">
        <ele>1275.3259277344</ele>
        <time>2010-07-14T06:40:18Z</time>
      </trkpt>
      <trkpt lat="42.71116" lon="1.49326">
        <ele>1278.2102050781</ele>
        <time>2010-07-14T06:40:24Z</time>
      </trkpt>
      <trkpt lat="42.71114" lon="1.4933">
        <ele>1280.1328125</ele>
        <time>2010-07-14T06:40:29Z</time>
      </trkpt>
      <trkpt lat="42.71109" lon="1.49335">
        <ele>1281.5747070312</ele>
        <time>2010-07-14T06:40:36Z</time>
      </trkpt>
      <trkpt lat="42.71104" lon="1.49337">
        <ele>1279.6520996094</ele>
        <time>2010-07-14T06:40:44Z</time>
      </trkpt>
      <trkpt lat="42.711" lon="1.49339">
        <ele>1279.6520996094</ele>
        <time>2010-07-14T06:40:49Z</time>
      </trkpt>
      <trkpt lat="42.71096" lon="1.49338">
        <ele>1282.0554199219</ele>
        <time>2010-07-14T06:40:54Z</time>
      </trkpt>
      <trkpt lat="42.71094" lon="1.49336">
        <ele>1283.9780273438</ele>
        <time>2010-07-14T06:40:59Z</time>
      </trkpt>
      <trkpt lat="42.71092" lon="1.49339">
        <ele>1285.419921875</ele>
        <time>2010-07-14T06:41:03Z</time>
      </trkpt>
      <trkpt lat="42.71089" lon="1.49342">
        <ele>1286.3813476562</ele>
        <time>2010-07-14T06:41:07Z</time>
      </trkpt>
      <trkpt lat="42.71084" lon="1.49345">
        <ele>1287.3425292969</ele>
        <time>2010-07-14T06:41:12Z</time>
      </trkpt>
      <trkpt lat="42.71078" lon="1.4935">
        <ele>1289.2651367188</ele>
        <time>2010-07-14T06:41:19Z</time>
      </trkpt>
      <trkpt lat="42.71075" lon="1.49354">
        <ele>1289.2651367188</ele>
        <time>2010-07-14T06:41:23Z</time>
      </trkpt>
      <trkpt lat="42.71072" lon="1.49356">
        <ele>1289.2651367188</ele>
        <time>2010-07-14T06:41:26Z</time>
      </trkpt>
      <trkpt lat="42.71067" lon="1.49357">
        <ele>1291.1877441406</ele>
        <time>2010-07-14T06:41:33Z</time>
      </trkpt>
      <trkpt lat="42.71064" lon="1.49359">
        <ele>1292.6301269531</ele>
        <time>2010-07-14T06:41:38Z</time>
      </trkpt>
      <trkpt lat="42.7106" lon="1.4936">
        <ele>1292.6301269531</ele>
        <time>2010-07-14T06:41:43Z</time>
      </trkpt>
      <trkpt lat="42.71056" lon="1.49359">
        <ele>1292.1494140625</ele>
        <time>2010-07-14T06:41:48Z</time>
      </trkpt>
      <trkpt lat="42.71051" lon="1.49359">
        <ele>1290.2265625</ele>
        <time>2010-07-14T06:41:54Z</time>
      </trkpt>
      <trkpt lat="42.71051" lon="1.49358">
        <ele>1291.1877441406</ele>
        <time>2010-07-14T06:42:01Z</time>
      </trkpt>
      <trkpt lat="42.71052" lon="1.49359">
        <ele>1295.9946289062</ele>
        <time>2010-07-14T06:42:13Z</time>
      </trkpt>
      <trkpt lat="42.7105" lon="1.49365">
        <ele>1298.8784179688</ele>
        <time>2010-07-14T06:42:19Z</time>
      </trkpt>
      <trkpt lat="42.71046" lon="1.49368">
        <ele>1298.3977050781</ele>
        <time>2010-07-14T06:42:22Z</time>
      </trkpt>
      <trkpt lat="42.71044" lon="1.49369">
        <ele>1298.8784179688</ele>
        <time>2010-07-14T06:42:24Z</time>
      </trkpt>
      <trkpt lat="42.71042" lon="1.49373">
        <ele>1299.83984375</ele>
        <time>2010-07-14T06:42:28Z</time>
      </trkpt>
      <trkpt lat="42.71037" lon="1.49378">
        <ele>1300.3205566406</ele>
        <time>2010-07-14T06:42:34Z</time>
      </trkpt>
      <trkpt lat="42.71031" lon="1.49387">
        <ele>1300.8010253906</ele>
        <time>2010-07-14T06:42:41Z</time>
      </trkpt>
      <trkpt lat="42.71027" lon="1.49387">
        <ele>1299.83984375</ele>
        <time>2010-07-14T06:42:45Z</time>
      </trkpt>
      <trkpt lat="42.71024" lon="1.49395">
        <ele>1302.7236328125</ele>
        <time>2010-07-14T06:42:51Z</time>
      </trkpt>
      <trkpt lat="42.71019" lon="1.494">
        <ele>1305.6076660156</ele>
        <time>2010-07-14T06:42:57Z</time>
      </trkpt>
      <trkpt lat="42.71017" lon="1.49405">
        <ele>1308.0112304688</ele>
        <time>2010-07-14T06:43:03Z</time>
      </trkpt>
      <trkpt lat="42.71014" lon="1.49408">
        <ele>1309.93359375</ele>
        <time>2010-07-14T06:43:09Z</time>
      </trkpt>
      <trkpt lat="42.71011" lon="1.49415">
        <ele>1310.4143066406</ele>
        <time>2010-07-14T06:43:16Z</time>
      </trkpt>
      <trkpt lat="42.7101" lon="1.49421">
        <ele>1312.8176269531</ele>
        <time>2010-07-14T06:43:21Z</time>
      </trkpt>
      <trkpt lat="42.71007" lon="1.49424">
        <ele>1312.8176269531</ele>
        <time>2010-07-14T06:43:24Z</time>
      </trkpt>
      <trkpt lat="42.71" lon="1.49432">
        <ele>1313.2983398438</ele>
        <time>2010-07-14T06:43:30Z</time>
      </trkpt>
      <trkpt lat="42.70999" lon="1.49434">
        <ele>1313.7788085938</ele>
        <time>2010-07-14T06:43:32Z</time>
      </trkpt>
      <trkpt lat="42.70995" lon="1.49438">
        <ele>1313.2983398438</ele>
        <time>2010-07-14T06:43:36Z</time>
      </trkpt>
      <trkpt lat="42.70987" lon="1.49443">
        <ele>1313.2983398438</ele>
        <time>2010-07-14T06:43:43Z</time>
      </trkpt>
      <trkpt lat="42.70984" lon="1.49445">
        <ele>1314.740234375</ele>
        <time>2010-07-14T06:43:48Z</time>
      </trkpt>
      <trkpt lat="42.70979" lon="1.49447">
        <ele>1313.2983398438</ele>
        <time>2010-07-14T06:43:52Z</time>
      </trkpt>
      <trkpt lat="42.70974" lon="1.4945">
        <ele>1311.8564453125</ele>
        <time>2010-07-14T06:43:57Z</time>
      </trkpt>
      <trkpt lat="42.70966" lon="1.49456">
        <ele>1312.8176269531</ele>
        <time>2010-07-14T06:44:04Z</time>
      </trkpt>
      <trkpt lat="42.70966" lon="1.49457">
        <ele>1312.8176269531</ele>
        <time>2010-07-14T06:44:05Z</time>
      </trkpt>
      <trkpt lat="42.7096" lon="1.49462">
        <ele>1313.7788085938</ele>
        <time>2010-07-14T06:44:11Z</time>
      </trkpt>
      <trkpt lat="42.70959" lon="1.49464">
        <ele>1313.7788085938</ele>
        <time>2010-07-14T06:44:14Z</time>
      </trkpt>
      <trkpt lat="42.70951" lon="1.49471">
        <ele>1312.3369140625</ele>
        <time>2010-07-14T06:44:23Z</time>
      </trkpt>
      <trkpt lat="42.70946" lon="1.49471">
        <ele>1313.7788085938</ele>
        <time>2010-07-14T06:44:29Z</time>
      </trkpt>
      <trkpt lat="42.70943" lon="1.49471">
        <ele>1314.740234375</ele>
        <time>2010-07-14T06:44:34Z</time>
      </trkpt>
      <trkpt lat="42.70939" lon="1.49469">
        <ele>1316.6628417969</ele>
        <time>2010-07-14T06:44:40Z</time>
      </trkpt>
      <trkpt lat="42.70932" lon="1.49469">
        <ele>1318.1047363281</ele>
        <time>2010-07-14T06:44:47Z</time>
      </trkpt>
      <trkpt lat="42.70926" lon="1.4947">
        <ele>1319.546875</ele>
        <time>2010-07-14T06:44:54Z</time>
      </trkpt>
      <trkpt lat="42.70923" lon="1.4947">
        <ele>1319.0661621094</ele>
        <time>2010-07-14T06:44:59Z</time>
      </trkpt>
      <trkpt lat="42.70919" lon="1.49469">
        <ele>1319.0661621094</ele>
        <time>2010-07-14T06:45:07Z</time>
      </trkpt>
      <trkpt lat="42.70916" lon="1.49468">
        <ele>1319.0661621094</ele>
        <time>2010-07-14T06:45:12Z</time>
      </trkpt>
      <trkpt lat="42.70914" lon="1.49466">
        <ele>1323.3920898438</ele>
        <time>2010-07-14T06:45:20Z</time>
      </trkpt>
      <trkpt lat="42.7091" lon="1.49462">
        <ele>1325.3146972656</ele>
        <time>2010-07-14T06:45:27Z</time>
      </trkpt>
      <trkpt lat="42.70905" lon="1.4946">
        <ele>1326.7568359375</ele>
        <time>2010-07-14T06:45:33Z</time>
      </trkpt>
      <trkpt lat="42.70904" lon="1.49459">
        <ele>1326.7568359375</ele>
        <time>2010-07-14T06:45:40Z</time>
      </trkpt>
      <trkpt lat="42.70901" lon="1.49458">
        <ele>1327.2375488281</ele>
        <time>2010-07-14T06:45:50Z</time>
      </trkpt>
      <trkpt lat="42.70897" lon="1.49456">
        <ele>1328.1987304688</ele>
        <time>2010-07-14T06:45:56Z</time>
      </trkpt>
      <trkpt lat="42.70892" lon="1.49458">
        <ele>1330.1213378906</ele>
        <time>2010-07-14T06:46:02Z</time>
      </trkpt>
      <trkpt lat="42.70892" lon="1.49461">
        <ele>1333.4858398438</ele>
        <time>2010-07-14T06:46:07Z</time>
      </trkpt>
      <trkpt lat="42.70896" lon="1.49465">
        <ele>1334.447265625</ele>
        <time>2010-07-14T06:46:12Z</time>
      </trkpt>
      <trkpt lat="42.70898" lon="1.49468">
        <ele>1333.9665527344</ele>
        <time>2010-07-14T06:46:15Z</time>
      </trkpt>
      <trkpt lat="42.70901" lon="1.49472">
        <ele>1334.9279785156</ele>
        <time>2010-07-14T06:46:19Z</time>
      </trkpt>
      <trkpt lat="42.70903" lon="1.49479">
        <ele>1335.4084472656</ele>
        <time>2010-07-14T06:46:26Z</time>
      </trkpt>
      <trkpt lat="42.70902" lon="1.49484">
        <ele>1336.3698730469</ele>
        <time>2010-07-14T06:46:32Z</time>
      </trkpt>
      <trkpt lat="42.70898" lon="1.49484">
        <ele>1338.2924804688</ele>
        <time>2010-07-14T06:46:38Z</time>
      </trkpt>
      <trkpt lat="42.70895" lon="1.49486">
        <ele>1339.734375</ele>
        <time>2010-07-14T06:46:43Z</time>
      </trkpt>
      <trkpt lat="42.70891" lon="1.49483">
        <ele>1341.1765136719</ele>
        <time>2010-07-14T06:46:48Z</time>
      </trkpt>
      <trkpt lat="42.70888" lon="1.49481">
        <ele>1341.6572265625</ele>
        <time>2010-07-14T06:46:52Z</time>
      </trkpt>
      <trkpt lat="42.70883" lon="1.49478">
        <ele>1342.1379394531</ele>
        <time>2010-07-14T06:46:58Z</time>
      </trkpt>
      <trkpt lat="42.70881" lon="1.49476">
        <ele>1342.6186523438</ele>
        <time>2010-07-14T06:47:00Z</time>
      </trkpt>
      <trkpt lat="42.70876" lon="1.49473">
        <ele>1342.6186523438</ele>
        <time>2010-07-14T06:47:05Z</time>
      </trkpt>
      <trkpt lat="42.70869" lon="1.49471">
        <ele>1343.0991210938</ele>
        <time>2010-07-14T06:47:11Z</time>
      </trkpt>
      <trkpt lat="42.70864" lon="1.49467">
        <ele>1345.9831542969</ele>
        <time>2010-07-14T06:47:19Z</time>
      </trkpt>
      <trkpt lat="42.70859" lon="1.49466">
        <ele>1347.9057617188</ele>
        <time>2010-07-14T06:47:24Z</time>
      </trkpt>
      <trkpt lat="42.70856" lon="1.49466">
        <ele>1351.2702636719</ele>
        <time>2010-07-14T06:47:30Z</time>
      </trkpt>
      <trkpt lat="42.7085" lon="1.49465">
        <ele>1354.634765625</ele>
        <time>2010-07-14T06:47:36Z</time>
      </trkpt>
      <trkpt lat="42.70846" lon="1.49467">
        <ele>1355.5961914062</ele>
        <time>2010-07-14T06:47:41Z</time>
      </trkpt>
      <trkpt lat="42.7084" lon="1.49466">
        <ele>1354.154296875</ele>
        <time>2010-07-14T06:47:47Z</time>
      </trkpt>
      <trkpt lat="42.70834" lon="1.49466">
        <ele>1355.5961914062</ele>
        <time>2010-07-14T06:47:54Z</time>
      </trkpt>
      <trkpt lat="42.7083" lon="1.49466">
        <ele>1358.4802246094</ele>
        <time>2010-07-14T06:48:00Z</time>
      </trkpt>
      <trkpt lat="42.70826" lon="1.49468">
        <ele>1359.4416503906</ele>
        <time>2010-07-14T06:48:05Z</time>
      </trkpt>
      <trkpt lat="42.70819" lon="1.49465">
        <ele>1359.9221191406</ele>
        <time>2010-07-14T06:48:12Z</time>
      </trkpt>
      <trkpt lat="42.70816" lon="1.49464">
        <ele>1360.8835449219</ele>
        <time>2010-07-14T06:48:16Z</time>
      </trkpt>
      <trkpt lat="42.70808" lon="1.49463">
        <ele>1361.3642578125</ele>
        <time>2010-07-14T06:48:23Z</time>
      </trkpt>
      <trkpt lat="42.70803" lon="1.49465">
        <ele>1362.3254394531</ele>
        <time>2010-07-14T06:48:30Z</time>
      </trkpt>
      <trkpt lat="42.70798" lon="1.49465">
        <ele>1363.2868652344</ele>
        <time>2010-07-14T06:48:36Z</time>
      </trkpt>
      <trkpt lat="42.70792" lon="1.49462">
        <ele>1363.7673339844</ele>
        <time>2010-07-14T06:48:42Z</time>
      </trkpt>
      <trkpt lat="42.70787" lon="1.49461">
        <ele>1364.248046875</ele>
        <time>2010-07-14T06:48:48Z</time>
      </trkpt>
      <trkpt lat="42.70782" lon="1.49463">
        <ele>1365.2094726562</ele>
        <time>2010-07-14T06:48:54Z</time>
      </trkpt>
      <trkpt lat="42.70774" lon="1.49466">
        <ele>1367.1320800781</ele>
        <time>2010-07-14T06:49:02Z</time>
      </trkpt>
      <trkpt lat="42.7077" lon="1.4947">
        <ele>1368.5739746094</ele>
        <time>2010-07-14T06:49:08Z</time>
      </trkpt>
      <trkpt lat="42.70766" lon="1.49476">
        <ele>1369.5354003906</ele>
        <time>2010-07-14T06:49:15Z</time>
      </trkpt>
      <trkpt lat="42.70762" lon="1.4948">
        <ele>1370.0158691406</ele>
        <time>2010-07-14T06:49:20Z</time>
      </trkpt>
      <trkpt lat="42.7076" lon="1.49485">
        <ele>1370.9772949219</ele>
        <time>2010-07-14T06:49:25Z</time>
      </trkpt>
      <trkpt lat="42.70759" lon="1.49489">
        <ele>1371.9384765625</ele>
        <time>2010-07-14T06:49:29Z</time>
      </trkpt>
      <trkpt lat="42.70756" lon="1.49496">
        <ele>1373.861328125</ele>
        <time>2010-07-14T06:49:37Z</time>
      </trkpt>
      <trkpt lat="42.70753" lon="1.49499">
        <ele>1374.8227539062</ele>
        <time>2010-07-14T06:49:41Z</time>
      </trkpt>
      <trkpt lat="42.70747" lon="1.49502">
        <ele>1376.2646484375</ele>
        <time>2010-07-14T06:49:48Z</time>
      </trkpt>
      <trkpt lat="42.70741" lon="1.49504">
        <ele>1376.7453613281</ele>
        <time>2010-07-14T06:49:54Z</time>
      </trkpt>
      <trkpt lat="42.70736" lon="1.49506">
        <ele>1377.7065429688</ele>
        <time>2010-07-14T06:50:00Z</time>
      </trkpt>
      <trkpt lat="42.70729" lon="1.49509">
        <ele>1377.2260742188</ele>
        <time>2010-07-14T06:50:07Z</time>
      </trkpt>
      <trkpt lat="42.70728" lon="1.4951">
        <ele>1377.2260742188</ele>
        <time>2010-07-14T06:50:08Z</time>
      </trkpt>
      <trkpt lat="42.70723" lon="1.49516">
        <ele>1378.1872558594</ele>
        <time>2010-07-14T06:50:15Z</time>
      </trkpt>
      <trkpt lat="42.70719" lon="1.49521">
        <ele>1376.7453613281</ele>
        <time>2010-07-14T06:50:20Z</time>
      </trkpt>
      <trkpt lat="42.7071" lon="1.49526">
        <ele>1379.1484375</ele>
        <time>2010-07-14T06:50:28Z</time>
      </trkpt>
      <trkpt lat="42.70704" lon="1.4953">
        <ele>1378.66796875</ele>
        <time>2010-07-14T06:50:34Z</time>
      </trkpt>
      <trkpt lat="42.70697" lon="1.49532">
        <ele>1378.1872558594</ele>
        <time>2010-07-14T06:50:41Z</time>
      </trkpt>
      <trkpt lat="42.70696" lon="1.49532">
        <ele>1379.1484375</ele>
        <time>2010-07-14T06:50:42Z</time>
      </trkpt>
      <trkpt lat="42.70691" lon="1.49537">
        <ele>1380.1098632812</ele>
        <time>2010-07-14T06:50:49Z</time>
      </trkpt>
      <trkpt lat="42.70687" lon="1.4954">
        <ele>1381.5517578125</ele>
        <time>2010-07-14T06:50:56Z</time>
      </trkpt>
      <trkpt lat="42.70683" lon="1.49543">
        <ele>1382.9936523438</ele>
        <time>2010-07-14T06:51:03Z</time>
      </trkpt>
      <trkpt lat="42.7068" lon="1.49547">
        <ele>1385.8776855469</ele>
        <time>2010-07-14T06:51:08Z</time>
      </trkpt>
      <trkpt lat="42.70678" lon="1.49551">
        <ele>1387.8002929688</ele>
        <time>2010-07-14T06:51:13Z</time>
      </trkpt>
      <trkpt lat="42.70674" lon="1.49555">
        <ele>1388.28125</ele>
        <time>2010-07-14T06:51:18Z</time>
      </trkpt>
      <trkpt lat="42.70672" lon="1.49557">
        <ele>1389.7231445312</ele>
        <time>2010-07-14T06:51:22Z</time>
      </trkpt>
      <trkpt lat="42.7067" lon="1.49562">
        <ele>1390.2038574219</ele>
        <time>2010-07-14T06:51:28Z</time>
      </trkpt>
      <trkpt lat="42.70668" lon="1.49567">
        <ele>1391.1650390625</ele>
        <time>2010-07-14T06:51:33Z</time>
      </trkpt>
      <trkpt lat="42.70666" lon="1.49573">
        <ele>1389.7231445312</ele>
        <time>2010-07-14T06:51:39Z</time>
      </trkpt>
      <trkpt lat="42.70662" lon="1.49578">
        <ele>1390.2038574219</ele>
        <time>2010-07-14T06:51:44Z</time>
      </trkpt>
      <trkpt lat="42.70659" lon="1.49579">
        <ele>1391.1650390625</ele>
        <time>2010-07-14T06:51:50Z</time>
      </trkpt>
      <trkpt lat="42.70657" lon="1.49583">
        <ele>1392.6071777344</ele>
        <time>2010-07-14T06:51:55Z</time>
      </trkpt>
      <trkpt lat="42.70654" lon="1.49587">
        <ele>1393.0876464844</ele>
        <time>2010-07-14T06:52:01Z</time>
      </trkpt>
      <trkpt lat="42.7065" lon="1.4959">
        <ele>1393.0876464844</ele>
        <time>2010-07-14T06:52:06Z</time>
      </trkpt>
      <trkpt lat="42.70644" lon="1.49587">
        <ele>1395.4909667969</ele>
        <time>2010-07-14T06:52:12Z</time>
      </trkpt>
      <trkpt lat="42.70641" lon="1.49584">
        <ele>1397.4135742188</ele>
        <time>2010-07-14T06:52:18Z</time>
      </trkpt>
      <trkpt lat="42.70638" lon="1.49587">
        <ele>1399.8168945312</ele>
        <time>2010-07-14T06:52:24Z</time>
      </trkpt>
      <trkpt lat="42.70635" lon="1.49589">
        <ele>1401.7395019531</ele>
        <time>2010-07-14T06:52:30Z</time>
      </trkpt>
      <trkpt lat="42.70633" lon="1.49593">
        <ele>1403.662109375</ele>
        <time>2010-07-14T06:52:35Z</time>
      </trkpt>
      <trkpt lat="42.70631" lon="1.496">
        <ele>1402.7006835938</ele>
        <time>2010-07-14T06:52:41Z</time>
      </trkpt>
      <trkpt lat="42.70628" lon="1.49603">
        <ele>1402.7006835938</ele>
        <time>2010-07-14T06:52:46Z</time>
      </trkpt>
      <trkpt lat="42.70623" lon="1.49607">
        <ele>1403.662109375</ele>
        <time>2010-07-14T06:52:52Z</time>
      </trkpt>
      <trkpt lat="42.70618" lon="1.49606">
        <ele>1406.5461425781</ele>
        <time>2010-07-14T06:52:57Z</time>
      </trkpt>
      <trkpt lat="42.70612" lon="1.49607">
        <ele>1406.5461425781</ele>
        <time>2010-07-14T06:53:04Z</time>
      </trkpt>
      <trkpt lat="42.70609" lon="1.49604">
        <ele>1408.9494628906</ele>
        <time>2010-07-14T06:53:10Z</time>
      </trkpt>
      <trkpt lat="42.70605" lon="1.49601">
        <ele>1411.8334960938</ele>
        <time>2010-07-14T06:53:15Z</time>
      </trkpt>
      <trkpt lat="42.70602" lon="1.49604">
        <ele>1413.275390625</ele>
        <time>2010-07-14T06:53:21Z</time>
      </trkpt>
      <trkpt lat="42.70598" lon="1.49607">
        <ele>1414.2365722656</ele>
        <time>2010-07-14T06:53:27Z</time>
      </trkpt>
      <trkpt lat="42.70592" lon="1.4961">
        <ele>1416.1591796875</ele>
        <time>2010-07-14T06:53:33Z</time>
      </trkpt>
      <trkpt lat="42.70587" lon="1.49612">
        <ele>1416.6398925781</ele>
        <time>2010-07-14T06:53:38Z</time>
      </trkpt>
      <trkpt lat="42.7058" lon="1.49616">
        <ele>1417.6010742188</ele>
        <time>2010-07-14T06:53:45Z</time>
      </trkpt>
      <trkpt lat="42.70577" lon="1.49617">
        <ele>1418.0817871094</ele>
        <time>2010-07-14T06:53:47Z</time>
      </trkpt>
      <trkpt lat="42.70575" lon="1.49619">
        <ele>1418.0817871094</ele>
        <time>2010-07-14T06:53:49Z</time>
      </trkpt>
      <trkpt lat="42.70569" lon="1.49622">
        <ele>1419.0432128906</ele>
        <time>2010-07-14T06:53:56Z</time>
      </trkpt>
      <trkpt lat="42.70565" lon="1.49621">
        <ele>1420.0046386719</ele>
        <time>2010-07-14T06:54:02Z</time>
      </trkpt>
      <trkpt lat="42.70559" lon="1.49623">
        <ele>1420.4853515625</ele>
        <time>2010-07-14T06:54:07Z</time>
      </trkpt>
      <trkpt lat="42.70555" lon="1.49623">
        <ele>1420.9660644531</ele>
        <time>2010-07-14T06:54:11Z</time>
      </trkpt>
      <trkpt lat="42.7055" lon="1.49626">
        <ele>1422.888671875</ele>
        <time>2010-07-14T06:54:17Z</time>
      </trkpt>
      <trkpt lat="42.70546" lon="1.49629">
        <ele>1426.2531738281</ele>
        <time>2010-07-14T06:54:23Z</time>
      </trkpt>
      <trkpt lat="42.7054" lon="1.49629">
        <ele>1427.2145996094</ele>
        <time>2010-07-14T06:54:29Z</time>
      </trkpt>
      <trkpt lat="42.70536" lon="1.49632">
        <ele>1430.5791015625</ele>
        <time>2010-07-14T06:54:34Z</time>
      </trkpt>
      <trkpt lat="42.70532" lon="1.49635">
        <ele>1432.5017089844</ele>
        <time>2010-07-14T06:54:38Z</time>
      </trkpt>
      <trkpt lat="42.70529" lon="1.49639">
        <ele>1434.4243164062</ele>
        <time>2010-07-14T06:54:43Z</time>
      </trkpt>
      <trkpt lat="42.70525" lon="1.49642">
        <ele>1435.8662109375</ele>
        <time>2010-07-14T06:54:48Z</time>
      </trkpt>
      <trkpt lat="42.70521" lon="1.49644">
        <ele>1437.3083496094</ele>
        <time>2010-07-14T06:54:53Z</time>
      </trkpt>
      <trkpt lat="42.70515" lon="1.49644">
        <ele>1439.7116699219</ele>
        <time>2010-07-14T06:54:58Z</time>
      </trkpt>
      <trkpt lat="42.70512" lon="1.49644">
        <ele>1440.6728515625</ele>
        <time>2010-07-14T06:55:01Z</time>
      </trkpt>
      <trkpt lat="42.70505" lon="1.49651">
        <ele>1439.7116699219</ele>
        <time>2010-07-14T06:55:09Z</time>
      </trkpt>
      <trkpt lat="42.70499" lon="1.49653">
        <ele>1439.7116699219</ele>
        <time>2010-07-14T06:55:16Z</time>
      </trkpt>
      <trkpt lat="42.70493" lon="1.4966">
        <ele>1440.6728515625</ele>
        <time>2010-07-14T06:55:24Z</time>
      </trkpt>
      <trkpt lat="42.7049" lon="1.49665">
        <ele>1441.1535644531</ele>
        <time>2010-07-14T06:55:29Z</time>
      </trkpt>
      <trkpt lat="42.70487" lon="1.4967">
        <ele>1441.1535644531</ele>
        <time>2010-07-14T06:55:34Z</time>
      </trkpt>
      <trkpt lat="42.70483" lon="1.49675">
        <ele>1443.5568847656</ele>
        <time>2010-07-14T06:55:41Z</time>
      </trkpt>
      <trkpt lat="42.70482" lon="1.49673">
        <ele>1447.4020996094</ele>
        <time>2010-07-14T06:55:47Z</time>
      </trkpt>
      <trkpt lat="42.70476" lon="1.49674">
        <ele>1448.8439941406</ele>
        <time>2010-07-14T06:55:55Z</time>
      </trkpt>
      <trkpt lat="42.70474" lon="1.49679">
        <ele>1450.2861328125</ele>
        <time>2010-07-14T06:56:00Z</time>
      </trkpt>
      <trkpt lat="42.70471" lon="1.49685">
        <ele>1450.7666015625</ele>
        <time>2010-07-14T06:56:06Z</time>
      </trkpt>
      <trkpt lat="42.70468" lon="1.49686">
        <ele>1451.2473144531</ele>
        <time>2010-07-14T06:56:11Z</time>
      </trkpt>
      <trkpt lat="42.70464" lon="1.49688">
        <ele>1451.2473144531</ele>
        <time>2010-07-14T06:56:17Z</time>
      </trkpt>
      <trkpt lat="42.70462" lon="1.49692">
        <ele>1452.2087402344</ele>
        <time>2010-07-14T06:56:22Z</time>
      </trkpt>
      <trkpt lat="42.70459" lon="1.49695">
        <ele>1453.1701660156</ele>
        <time>2010-07-14T06:56:29Z</time>
      </trkpt>
      <trkpt lat="42.70454" lon="1.49696">
        <ele>1454.6120605469</ele>
        <time>2010-07-14T06:56:35Z</time>
      </trkpt>
      <trkpt lat="42.70452" lon="1.49696">
        <ele>1456.0539550781</ele>
        <time>2010-07-14T06:56:39Z</time>
      </trkpt>
      <trkpt lat="42.70449" lon="1.49695">
        <ele>1457.49609375</ele>
        <time>2010-07-14T06:56:45Z</time>
      </trkpt>
      <trkpt lat="42.70444" lon="1.49697">
        <ele>1458.4572753906</ele>
        <time>2010-07-14T06:56:51Z</time>
      </trkpt>
      <trkpt lat="42.7044" lon="1.497">
        <ele>1459.8991699219</ele>
        <time>2010-07-14T06:56:57Z</time>
      </trkpt>
      <trkpt lat="42.70435" lon="1.49701">
        <ele>1463.2639160156</ele>
        <time>2010-07-14T06:57:02Z</time>
      </trkpt>
      <trkpt lat="42.70431" lon="1.49702">
        <ele>1465.6672363281</ele>
        <time>2010-07-14T06:57:07Z</time>
      </trkpt>
      <trkpt lat="42.70428" lon="1.49704">
        <ele>1466.6284179688</ele>
        <time>2010-07-14T06:57:11Z</time>
      </trkpt>
      <trkpt lat="42.70425" lon="1.49703">
        <ele>1467.5895996094</ele>
        <time>2010-07-14T06:57:17Z</time>
      </trkpt>
      <trkpt lat="42.70422" lon="1.49703">
        <ele>1469.5126953125</ele>
        <time>2010-07-14T06:57:33Z</time>
      </trkpt>
      <trkpt lat="42.70418" lon="1.49706">
        <ele>1469.9931640625</ele>
        <time>2010-07-14T06:57:40Z</time>
      </trkpt>
      <trkpt lat="42.70414" lon="1.49709">
        <ele>1470.9545898438</ele>
        <time>2010-07-14T06:57:46Z</time>
      </trkpt>
      <trkpt lat="42.7041" lon="1.49709">
        <ele>1471.4350585938</ele>
        <time>2010-07-14T06:57:52Z</time>
      </trkpt>
      <trkpt lat="42.70406" lon="1.4971">
        <ele>1472.396484375</ele>
        <time>2010-07-14T06:57:58Z</time>
      </trkpt>
      <trkpt lat="42.70401" lon="1.49706">
        <ele>1472.8771972656</ele>
        <time>2010-07-14T06:58:05Z</time>
      </trkpt>
      <trkpt lat="42.70397" lon="1.49712">
        <ele>1475.7609863281</ele>
        <time>2010-07-14T06:58:12Z</time>
      </trkpt>
      <trkpt lat="42.70393" lon="1.49714">
        <ele>1477.68359375</ele>
        <time>2010-07-14T06:58:17Z</time>
      </trkpt>
      <trkpt lat="42.70391" lon="1.49719">
        <ele>1478.6450195312</ele>
        <time>2010-07-14T06:58:22Z</time>
      </trkpt>
      <trkpt lat="42.70387" lon="1.49723">
        <ele>1479.6062011719</ele>
        <time>2010-07-14T06:58:27Z</time>
      </trkpt>
      <trkpt lat="42.70385" lon="1.49728">
        <ele>1480.5676269531</ele>
        <time>2010-07-14T06:58:31Z</time>
      </trkpt>
      <trkpt lat="42.7038" lon="1.49734">
        <ele>1481.5288085938</ele>
        <time>2010-07-14T06:58:38Z</time>
      </trkpt>
      <trkpt lat="42.70374" lon="1.49738">
        <ele>1482.490234375</ele>
        <time>2010-07-14T06:58:46Z</time>
      </trkpt>
      <trkpt lat="42.7037" lon="1.49741">
        <ele>1483.9321289062</ele>
        <time>2010-07-14T06:58:53Z</time>
      </trkpt>
      <trkpt lat="42.70367" lon="1.49743">
        <ele>1484.8937988281</ele>
        <time>2010-07-14T06:58:58Z</time>
      </trkpt>
      <trkpt lat="42.70362" lon="1.49743">
        <ele>1486.3356933594</ele>
        <time>2010-07-14T06:59:04Z</time>
      </trkpt>
      <trkpt lat="42.70359" lon="1.49743">
        <ele>1486.8161621094</ele>
        <time>2010-07-14T06:59:10Z</time>
      </trkpt>
      <trkpt lat="42.70356" lon="1.49748">
        <ele>1488.7390136719</ele>
        <time>2010-07-14T06:59:17Z</time>
      </trkpt>
      <trkpt lat="42.70352" lon="1.4975">
        <ele>1489.7001953125</ele>
        <time>2010-07-14T06:59:22Z</time>
      </trkpt>
      <trkpt lat="42.70348" lon="1.4975">
        <ele>1490.6613769531</ele>
        <time>2010-07-14T06:59:28Z</time>
      </trkpt>
      <trkpt lat="42.70345" lon="1.49754">
        <ele>1491.6228027344</ele>
        <time>2010-07-14T06:59:33Z</time>
      </trkpt>
      <trkpt lat="42.70338" lon="1.49757">
        <ele>1493.5454101562</ele>
        <time>2010-07-14T06:59:41Z</time>
      </trkpt>
      <trkpt lat="42.70333" lon="1.49756">
        <ele>1494.9873046875</ele>
        <time>2010-07-14T06:59:47Z</time>
      </trkpt>
      <trkpt lat="42.7033" lon="1.49757">
        <ele>1496.4294433594</ele>
        <time>2010-07-14T06:59:53Z</time>
      </trkpt>
      <trkpt lat="42.70327" lon="1.4976">
        <ele>1497.390625</ele>
        <time>2010-07-14T06:59:59Z</time>
      </trkpt>
      <trkpt lat="42.70321" lon="1.49758">
        <ele>1498.8325195312</ele>
        <time>2010-07-14T07:00:07Z</time>
      </trkpt>
      <trkpt lat="42.70317" lon="1.49758">
        <ele>1499.7939453125</ele>
        <time>2010-07-14T07:00:13Z</time>
      </trkpt>
      <trkpt lat="42.70313" lon="1.49755">
        <ele>1499.7939453125</ele>
        <time>2010-07-14T07:00:19Z</time>
      </trkpt>
      <trkpt lat="42.70308" lon="1.49755">
        <ele>1501.2360839844</ele>
        <time>2010-07-14T07:00:25Z</time>
      </trkpt>
      <trkpt lat="42.70301" lon="1.49752">
        <ele>1502.197265625</ele>
        <time>2010-07-14T07:00:31Z</time>
      </trkpt>
      <trkpt lat="42.70301" lon="1.49752">
        <ele>1502.197265625</ele>
        <time>2010-07-14T07:00:32Z</time>
      </trkpt>
      <trkpt lat="42.70295" lon="1.49753">
        <ele>1503.1586914062</ele>
        <time>2010-07-14T07:00:37Z</time>
      </trkpt>
      <trkpt lat="42.70288" lon="1.49755">
        <ele>1504.1201171875</ele>
        <time>2010-07-14T07:00:44Z</time>
      </trkpt>
      <trkpt lat="42.70288" lon="1.49757">
        <ele>1505.0812988281</ele>
        <time>2010-07-14T07:00:50Z</time>
      </trkpt>
      <trkpt lat="42.70284" lon="1.49757">
        <ele>1507.00390625</ele>
        <time>2010-07-14T07:01:01Z</time>
      </trkpt>
      <trkpt lat="42.7028" lon="1.49757">
        <ele>1507.9653320312</ele>
        <time>2010-07-14T07:01:05Z</time>
      </trkpt>
      <trkpt lat="42.70278" lon="1.49753">
        <ele>1509.4072265625</ele>
        <time>2010-07-14T07:01:10Z</time>
      </trkpt>
      <trkpt lat="42.70277" lon="1.49748">
        <ele>1511.3298339844</ele>
        <time>2010-07-14T07:01:16Z</time>
      </trkpt>
      <trkpt lat="42.70275" lon="1.49745">
        <ele>1512.291015625</ele>
        <time>2010-07-14T07:01:22Z</time>
      </trkpt>
      <trkpt lat="42.70272" lon="1.49747">
        <ele>1515.1750488281</ele>
        <time>2010-07-14T07:01:26Z</time>
      </trkpt>
      <trkpt lat="42.70271" lon="1.49752">
        <ele>1517.0979003906</ele>
        <time>2010-07-14T07:01:31Z</time>
      </trkpt>
      <trkpt lat="42.70269" lon="1.49753">
        <ele>1517.5783691406</ele>
        <time>2010-07-14T07:01:36Z</time>
      </trkpt>
      <trkpt lat="42.70268" lon="1.49751">
        <ele>1520.4624023438</ele>
        <time>2010-07-14T07:01:41Z</time>
      </trkpt>
      <trkpt lat="42.70266" lon="1.49753">
        <ele>1522.3850097656</ele>
        <time>2010-07-14T07:01:46Z</time>
      </trkpt>
      <trkpt lat="42.70266" lon="1.49759">
        <ele>1522.3850097656</ele>
        <time>2010-07-14T07:01:52Z</time>
      </trkpt>
      <trkpt lat="42.70263" lon="1.49756">
        <ele>1521.904296875</ele>
        <time>2010-07-14T07:01:58Z</time>
      </trkpt>
      <trkpt lat="42.7026" lon="1.49754">
        <ele>1522.8657226562</ele>
        <time>2010-07-14T07:02:04Z</time>
      </trkpt>
      <trkpt lat="42.70257" lon="1.49753">
        <ele>1525.7495117188</ele>
        <time>2010-07-14T07:02:10Z</time>
      </trkpt>
      <trkpt lat="42.70255" lon="1.49755">
        <ele>1527.1916503906</ele>
        <time>2010-07-14T07:02:15Z</time>
      </trkpt>
      <trkpt lat="42.70255" lon="1.49758">
        <ele>1527.6721191406</ele>
        <time>2010-07-14T07:02:21Z</time>
      </trkpt>
      <trkpt lat="42.70251" lon="1.4976">
        <ele>1526.7109375</ele>
        <time>2010-07-14T07:02:27Z</time>
      </trkpt>
      <trkpt lat="42.70247" lon="1.49757">
        <ele>1527.1916503906</ele>
        <time>2010-07-14T07:02:33Z</time>
      </trkpt>
      <trkpt lat="42.70243" lon="1.49757">
        <ele>1527.6721191406</ele>
        <time>2010-07-14T07:02:40Z</time>
      </trkpt>
      <trkpt lat="42.70241" lon="1.49761">
        <ele>1529.1140136719</ele>
        <time>2010-07-14T07:02:47Z</time>
      </trkpt>
      <trkpt lat="42.70238" lon="1.49759">
        <ele>1529.5947265625</ele>
        <time>2010-07-14T07:02:53Z</time>
      </trkpt>
      <trkpt lat="42.70234" lon="1.49758">
        <ele>1531.0368652344</ele>
        <time>2010-07-14T07:02:59Z</time>
      </trkpt>
      <trkpt lat="42.70229" lon="1.49755">
        <ele>1532.4790039062</ele>
        <time>2010-07-14T07:03:04Z</time>
      </trkpt>
      <trkpt lat="42.70226" lon="1.49752">
        <ele>1533.4401855469</ele>
        <time>2010-07-14T07:03:10Z</time>
      </trkpt>
      <trkpt lat="42.70222" lon="1.49755">
        <ele>1534.4016113281</ele>
        <time>2010-07-14T07:03:15Z</time>
      </trkpt>
      <trkpt lat="42.7022" lon="1.49755">
        <ele>1535.3627929688</ele>
        <time>2010-07-14T07:03:17Z</time>
      </trkpt>
      <trkpt lat="42.70214" lon="1.49751">
        <ele>1534.8823242188</ele>
        <time>2010-07-14T07:03:23Z</time>
      </trkpt>
      <trkpt lat="42.70213" lon="1.49745">
        <ele>1535.8435058594</ele>
        <time>2010-07-14T07:03:31Z</time>
      </trkpt>
      <trkpt lat="42.7021" lon="1.49745">
        <ele>1536.8046875</ele>
        <time>2010-07-14T07:03:37Z</time>
      </trkpt>
      <trkpt lat="42.70207" lon="1.49746">
        <ele>1537.2854003906</ele>
        <time>2010-07-14T07:03:43Z</time>
      </trkpt>
      <trkpt lat="42.70203" lon="1.49746">
        <ele>1538.2468261719</ele>
        <time>2010-07-14T07:03:49Z</time>
      </trkpt>
      <trkpt lat="42.702" lon="1.49746">
        <ele>1539.6887207031</ele>
        <time>2010-07-14T07:03:54Z</time>
      </trkpt>
      <trkpt lat="42.70197" lon="1.4975">
        <ele>1540.6499023438</ele>
        <time>2010-07-14T07:04:00Z</time>
      </trkpt>
      <trkpt lat="42.70192" lon="1.49748">
        <ele>1541.611328125</ele>
        <time>2010-07-14T07:04:06Z</time>
      </trkpt>
      <trkpt lat="42.70187" lon="1.49744">
        <ele>1542.5727539062</ele>
        <time>2010-07-14T07:04:12Z</time>
      </trkpt>
      <trkpt lat="42.70183" lon="1.49741">
        <ele>1543.0532226562</ele>
        <time>2010-07-14T07:04:17Z</time>
      </trkpt>
      <trkpt lat="42.70177" lon="1.49738">
        <ele>1544.0146484375</ele>
        <time>2010-07-14T07:04:23Z</time>
      </trkpt>
      <trkpt lat="42.70175" lon="1.49738">
        <ele>1544.0146484375</ele>
        <time>2010-07-14T07:04:25Z</time>
      </trkpt>
      <trkpt lat="42.70168" lon="1.49734">
        <ele>1544.9758300781</ele>
        <time>2010-07-14T07:04:33Z</time>
      </trkpt>
      <trkpt lat="42.70161" lon="1.49731">
        <ele>1545.4565429688</ele>
        <time>2010-07-14T07:04:40Z</time>
      </trkpt>
      <trkpt lat="42.70155" lon="1.49728">
        <ele>1545.9372558594</ele>
        <time>2010-07-14T07:04:46Z</time>
      </trkpt>
      <trkpt lat="42.70151" lon="1.49726">
        <ele>1546.41796875</ele>
        <time>2010-07-14T07:04:51Z</time>
      </trkpt>
      <trkpt lat="42.70145" lon="1.4972">
        <ele>1546.41796875</ele>
        <time>2010-07-14T07:04:58Z</time>
      </trkpt>
      <trkpt lat="42.70139" lon="1.49719">
        <ele>1548.3405761719</ele>
        <time>2010-07-14T07:05:06Z</time>
      </trkpt>
      <trkpt lat="42.70132" lon="1.49718">
        <ele>1548.8212890625</ele>
        <time>2010-07-14T07:05:13Z</time>
      </trkpt>
      <trkpt lat="42.70131" lon="1.49718">
        <ele>1549.3020019531</ele>
        <time>2010-07-14T07:05:14Z</time>
      </trkpt>
      <trkpt lat="42.70123" lon="1.49713">
        <ele>1550.2634277344</ele>
        <time>2010-07-14T07:05:22Z</time>
      </trkpt>
      <trkpt lat="42.70116" lon="1.49711">
        <ele>1550.2634277344</ele>
        <time>2010-07-14T07:05:29Z</time>
      </trkpt>
      <trkpt lat="42.70107" lon="1.49709">
        <ele>1551.224609375</ele>
        <time>2010-07-14T07:05:37Z</time>
      </trkpt>
      <trkpt lat="42.70105" lon="1.49709">
        <ele>1551.7053222656</ele>
        <time>2010-07-14T07:05:39Z</time>
      </trkpt>
      <trkpt lat="42.701" lon="1.49708">
        <ele>1552.6665039062</ele>
        <time>2010-07-14T07:05:44Z</time>
      </trkpt>
      <trkpt lat="42.70091" lon="1.4971">
        <ele>1554.5891113281</ele>
        <time>2010-07-14T07:05:53Z</time>
      </trkpt>
      <trkpt lat="42.70085" lon="1.49711">
        <ele>1556.0310058594</ele>
        <time>2010-07-14T07:05:59Z</time>
      </trkpt>
      <trkpt lat="42.70078" lon="1.49711">
        <ele>1557.4731445312</ele>
        <time>2010-07-14T07:06:06Z</time>
      </trkpt>
      <trkpt lat="42.70073" lon="1.4971">
        <ele>1559.3957519531</ele>
        <time>2010-07-14T07:06:12Z</time>
      </trkpt>
      <trkpt lat="42.70068" lon="1.49708">
        <ele>1559.8762207031</ele>
        <time>2010-07-14T07:06:17Z</time>
      </trkpt>
      <trkpt lat="42.70059" lon="1.49704">
        <ele>1560.3569335938</ele>
        <time>2010-07-14T07:06:25Z</time>
      </trkpt>
      <trkpt lat="42.70053" lon="1.49701">
        <ele>1561.7990722656</ele>
        <time>2010-07-14T07:06:32Z</time>
      </trkpt>
      <trkpt lat="42.70049" lon="1.49702">
        <ele>1562.7602539062</ele>
        <time>2010-07-14T07:06:38Z</time>
      </trkpt>
      <trkpt lat="42.70045" lon="1.497">
        <ele>1563.7214355469</ele>
        <time>2010-07-14T07:06:43Z</time>
      </trkpt>
      <trkpt lat="42.70041" lon="1.49698">
        <ele>1564.6831054688</ele>
        <time>2010-07-14T07:06:49Z</time>
      </trkpt>
      <trkpt lat="42.70037" lon="1.49695">
        <ele>1564.6831054688</ele>
        <time>2010-07-14T07:06:55Z</time>
      </trkpt>
      <trkpt lat="42.70035" lon="1.49689">
        <ele>1564.6831054688</ele>
        <time>2010-07-14T07:07:01Z</time>
      </trkpt>
      <trkpt lat="42.70034" lon="1.49681">
        <ele>1565.64453125</ele>
        <time>2010-07-14T07:07:09Z</time>
      </trkpt>
      <trkpt lat="42.7003" lon="1.49677">
        <ele>1566.125</ele>
        <time>2010-07-14T07:07:15Z</time>
      </trkpt>
      <trkpt lat="42.70026" lon="1.49675">
        <ele>1567.0864257812</ele>
        <time>2010-07-14T07:07:20Z</time>
      </trkpt>
      <trkpt lat="42.7002" lon="1.49674">
        <ele>1568.5283203125</ele>
        <time>2010-07-14T07:07:27Z</time>
      </trkpt>
      <trkpt lat="42.70015" lon="1.49674">
        <ele>1569.9702148438</ele>
        <time>2010-07-14T07:07:33Z</time>
      </trkpt>
      <trkpt lat="42.7001" lon="1.49671">
        <ele>1571.412109375</ele>
        <time>2010-07-14T07:07:40Z</time>
      </trkpt>
      <trkpt lat="42.70006" lon="1.49676">
        <ele>1573.3349609375</ele>
        <time>2010-07-14T07:07:47Z</time>
      </trkpt>
      <trkpt lat="42.70002" lon="1.49675">
        <ele>1573.8154296875</ele>
        <time>2010-07-14T07:07:52Z</time>
      </trkpt>
      <trkpt lat="42.69998" lon="1.49677">
        <ele>1575.2573242188</ele>
        <time>2010-07-14T07:07:57Z</time>
      </trkpt>
      <trkpt lat="42.69991" lon="1.49675">
        <ele>1577.6606445312</ele>
        <time>2010-07-14T07:08:05Z</time>
      </trkpt>
      <trkpt lat="42.69985" lon="1.49675">
        <ele>1579.1025390625</ele>
        <time>2010-07-14T07:08:11Z</time>
      </trkpt>
      <trkpt lat="42.69979" lon="1.49676">
        <ele>1580.544921875</ele>
        <time>2010-07-14T07:08:18Z</time>
      </trkpt>
      <trkpt lat="42.69975" lon="1.49674">
        <ele>1581.9868164062</ele>
        <time>2010-07-14T07:08:23Z</time>
      </trkpt>
      <trkpt lat="42.6997" lon="1.49674">
        <ele>1582.9479980469</ele>
        <time>2010-07-14T07:08:29Z</time>
      </trkpt>
      <trkpt lat="42.69964" lon="1.49673">
        <ele>1584.3901367188</ele>
        <time>2010-07-14T07:08:36Z</time>
      </trkpt>
      <trkpt lat="42.69958" lon="1.49671">
        <ele>1585.3513183594</ele>
        <time>2010-07-14T07:08:42Z</time>
      </trkpt>
      <trkpt lat="42.69953" lon="1.49673">
        <ele>1586.3127441406</ele>
        <time>2010-07-14T07:08:48Z</time>
      </trkpt>
      <trkpt lat="42.69948" lon="1.49673">
        <ele>1587.2739257812</ele>
        <time>2010-07-14T07:08:54Z</time>
      </trkpt>
      <trkpt lat="42.69943" lon="1.49674">
        <ele>1588.2353515625</ele>
        <time>2010-07-14T07:09:00Z</time>
      </trkpt>
      <trkpt lat="42.69937" lon="1.49672">
        <ele>1588.7160644531</ele>
        <time>2010-07-14T07:09:07Z</time>
      </trkpt>
      <trkpt lat="42.69928" lon="1.49669">
        <ele>1588.7160644531</ele>
        <time>2010-07-14T07:09:15Z</time>
      </trkpt>
      <trkpt lat="42.69921" lon="1.49668">
        <ele>1589.6772460938</ele>
        <time>2010-07-14T07:09:22Z</time>
      </trkpt>
      <trkpt lat="42.69915" lon="1.49668">
        <ele>1590.6384277344</ele>
        <time>2010-07-14T07:09:29Z</time>
      </trkpt>
      <trkpt lat="42.6991" lon="1.49671">
        <ele>1592.5612792969</ele>
        <time>2010-07-14T07:09:35Z</time>
      </trkpt>
      <trkpt lat="42.69905" lon="1.49672">
        <ele>1593.0417480469</ele>
        <time>2010-07-14T07:09:42Z</time>
      </trkpt>
      <trkpt lat="42.69899" lon="1.4967">
        <ele>1593.0417480469</ele>
        <time>2010-07-14T07:09:48Z</time>
      </trkpt>
      <trkpt lat="42.69898" lon="1.4967">
        <ele>1593.0417480469</ele>
        <time>2010-07-14T07:09:49Z</time>
      </trkpt>
      <trkpt lat="42.69889" lon="1.49675">
        <ele>1594.9643554688</ele>
        <time>2010-07-14T07:09:58Z</time>
      </trkpt>
      <trkpt lat="42.69888" lon="1.49675">
        <ele>1595.4450683594</ele>
        <time>2010-07-14T07:09:59Z</time>
      </trkpt>
      <trkpt lat="42.69882" lon="1.49677">
        <ele>1597.8486328125</ele>
        <time>2010-07-14T07:10:07Z</time>
      </trkpt>
      <trkpt lat="42.69878" lon="1.49674">
        <ele>1598.8098144531</ele>
        <time>2010-07-14T07:10:13Z</time>
      </trkpt>
      <trkpt lat="42.6987" lon="1.49672">
        <ele>1600.732421875</ele>
        <time>2010-07-14T07:10:21Z</time>
      </trkpt>
      <trkpt lat="42.69865" lon="1.49674">
        <ele>1601.6938476562</ele>
        <time>2010-07-14T07:10:27Z</time>
      </trkpt>
      <trkpt lat="42.69857" lon="1.49675">
        <ele>1603.1357421875</ele>
        <time>2010-07-14T07:10:36Z</time>
      </trkpt>
      <trkpt lat="42.69853" lon="1.49676">
        <ele>1604.0971679688</ele>
        <time>2010-07-14T07:10:42Z</time>
      </trkpt>
      <trkpt lat="42.69848" lon="1.49678">
        <ele>1605.5390625</ele>
        <time>2010-07-14T07:10:48Z</time>
      </trkpt>
      <trkpt lat="42.69843" lon="1.49682">
        <ele>1606.9809570312</ele>
        <time>2010-07-14T07:10:55Z</time>
      </trkpt>
      <trkpt lat="42.6984" lon="1.49683">
        <ele>1607.9423828125</ele>
        <time>2010-07-14T07:11:00Z</time>
      </trkpt>
      <trkpt lat="42.69835" lon="1.4968">
        <ele>1609.8647460938</ele>
        <time>2010-07-14T07:11:07Z</time>
      </trkpt>
      <trkpt lat="42.69833" lon="1.49675">
        <ele>1610.3454589844</ele>
        <time>2010-07-14T07:11:12Z</time>
      </trkpt>
      <trkpt lat="42.69833" lon="1.4967">
        <ele>1611.3068847656</ele>
        <time>2010-07-14T07:11:18Z</time>
      </trkpt>
      <trkpt lat="42.69831" lon="1.49668">
        <ele>1611.7875976562</ele>
        <time>2010-07-14T07:11:23Z</time>
      </trkpt>
      <trkpt lat="42.69827" lon="1.49667">
        <ele>1613.2297363281</ele>
        <time>2010-07-14T07:11:29Z</time>
      </trkpt>
      <trkpt lat="42.69823" lon="1.49664">
        <ele>1614.1909179688</ele>
        <time>2010-07-14T07:11:35Z</time>
      </trkpt>
      <trkpt lat="42.69819" lon="1.49663">
        <ele>1615.6330566406</ele>
        <time>2010-07-14T07:11:41Z</time>
      </trkpt>
      <trkpt lat="42.69815" lon="1.49658">
        <ele>1615.6330566406</ele>
        <time>2010-07-14T07:11:47Z</time>
      </trkpt>
      <trkpt lat="42.6981" lon="1.49655">
        <ele>1616.1135253906</ele>
        <time>2010-07-14T07:11:52Z</time>
      </trkpt>
      <trkpt lat="42.69803" lon="1.49652">
        <ele>1616.5942382812</ele>
        <time>2010-07-14T07:11:58Z</time>
      </trkpt>
      <trkpt lat="42.69796" lon="1.49651">
        <ele>1617.5554199219</ele>
        <time>2010-07-14T07:12:05Z</time>
      </trkpt>
      <trkpt lat="42.6979" lon="1.49652">
        <ele>1618.5168457031</ele>
        <time>2010-07-14T07:12:12Z</time>
      </trkpt>
      <trkpt lat="42.69786" lon="1.49655">
        <ele>1619.4782714844</ele>
        <time>2010-07-14T07:12:17Z</time>
      </trkpt>
      <trkpt lat="42.69781" lon="1.49655">
        <ele>1620.439453125</ele>
        <time>2010-07-14T07:12:23Z</time>
      </trkpt>
      <trkpt lat="42.69773" lon="1.49658">
        <ele>1621.4006347656</ele>
        <time>2010-07-14T07:12:31Z</time>
      </trkpt>
      <trkpt lat="42.69768" lon="1.49659">
        <ele>1622.3620605469</ele>
        <time>2010-07-14T07:12:37Z</time>
      </trkpt>
      <trkpt lat="42.69761" lon="1.4966">
        <ele>1623.3234863281</ele>
        <time>2010-07-14T07:12:45Z</time>
      </trkpt>
      <trkpt lat="42.69756" lon="1.49664">
        <ele>1624.7653808594</ele>
        <time>2010-07-14T07:12:51Z</time>
      </trkpt>
      <trkpt lat="42.69751" lon="1.49668">
        <ele>1625.7265625</ele>
        <time>2010-07-14T07:12:56Z</time>
      </trkpt>
      <trkpt lat="42.69749" lon="1.4967">
        <ele>1626.2072753906</ele>
        <time>2010-07-14T07:12:58Z</time>
      </trkpt>
      <trkpt lat="42.6974" lon="1.49675">
        <ele>1627.6491699219</ele>
        <time>2010-07-14T07:13:07Z</time>
      </trkpt>
      <trkpt lat="42.69732" lon="1.49681">
        <ele>1629.0913085938</ele>
        <time>2010-07-14T07:13:15Z</time>
      </trkpt>
      <trkpt lat="42.69724" lon="1.49688">
        <ele>1630.052734375</ele>
        <time>2010-07-14T07:13:23Z</time>
      </trkpt>
      <trkpt lat="42.69717" lon="1.49693">
        <ele>1631.0141601562</ele>
        <time>2010-07-14T07:13:30Z</time>
      </trkpt>
      <trkpt lat="42.69712" lon="1.497">
        <ele>1631.4946289062</ele>
        <time>2010-07-14T07:13:37Z</time>
      </trkpt>
      <trkpt lat="42.69708" lon="1.49704">
        <ele>1631.9753417969</ele>
        <time>2010-07-14T07:13:41Z</time>
      </trkpt>
      <trkpt lat="42.69701" lon="1.49705">
        <ele>1631.0141601562</ele>
        <time>2010-07-14T07:13:48Z</time>
      </trkpt>
      <trkpt lat="42.69696" lon="1.49709">
        <ele>1631.0141601562</ele>
        <time>2010-07-14T07:13:54Z</time>
      </trkpt>
      <trkpt lat="42.6969" lon="1.49712">
        <ele>1631.4946289062</ele>
        <time>2010-07-14T07:14:00Z</time>
      </trkpt>
      <trkpt lat="42.69685" lon="1.49715">
        <ele>1631.9753417969</ele>
        <time>2010-07-14T07:14:06Z</time>
      </trkpt>
      <trkpt lat="42.6968" lon="1.49718">
        <ele>1632.4560546875</ele>
        <time>2010-07-14T07:14:10Z</time>
      </trkpt>
      <trkpt lat="42.69672" lon="1.49721">
        <ele>1632.9365234375</ele>
        <time>2010-07-14T07:14:18Z</time>
      </trkpt>
      <trkpt lat="42.6967" lon="1.49722">
        <ele>1632.4560546875</ele>
        <time>2010-07-14T07:14:20Z</time>
      </trkpt>
      <trkpt lat="42.69665" lon="1.49725">
        <ele>1633.8979492188</ele>
        <time>2010-07-14T07:14:26Z</time>
      </trkpt>
      <trkpt lat="42.6966" lon="1.49725">
        <ele>1634.3786621094</ele>
        <time>2010-07-14T07:14:32Z</time>
      </trkpt>
      <trkpt lat="42.69655" lon="1.49729">
        <ele>1635.33984375</ele>
        <time>2010-07-14T07:14:37Z</time>
      </trkpt>
      <trkpt lat="42.69649" lon="1.49736">
        <ele>1635.33984375</ele>
        <time>2010-07-14T07:14:44Z</time>
      </trkpt>
      <trkpt lat="42.69642" lon="1.49741">
        <ele>1635.8205566406</ele>
        <time>2010-07-14T07:14:52Z</time>
      </trkpt>
      <trkpt lat="42.69637" lon="1.49744">
        <ele>1636.3012695312</ele>
        <time>2010-07-14T07:14:58Z</time>
      </trkpt>
      <trkpt lat="42.69632" lon="1.49748">
        <ele>1636.7817382812</ele>
        <time>2010-07-14T07:15:05Z</time>
      </trkpt>
      <trkpt lat="42.69626" lon="1.49753">
        <ele>1636.7817382812</ele>
        <time>2010-07-14T07:15:11Z</time>
      </trkpt>
      <trkpt lat="42.69623" lon="1.49754">
        <ele>1636.7817382812</ele>
        <time>2010-07-14T07:15:14Z</time>
      </trkpt>
      <trkpt lat="42.69619" lon="1.49757">
        <ele>1637.2624511719</ele>
        <time>2010-07-14T07:15:19Z</time>
      </trkpt>
      <trkpt lat="42.69615" lon="1.49759">
        <ele>1637.7431640625</ele>
        <time>2010-07-14T07:15:25Z</time>
      </trkpt>
      <trkpt lat="42.6961" lon="1.49762">
        <ele>1638.7045898438</ele>
        <time>2010-07-14T07:15:30Z</time>
      </trkpt>
      <trkpt lat="42.69606" lon="1.49764">
        <ele>1639.6657714844</ele>
        <time>2010-07-14T07:15:35Z</time>
      </trkpt>
      <trkpt lat="42.696" lon="1.49767">
        <ele>1640.626953125</ele>
        <time>2010-07-14T07:15:41Z</time>
      </trkpt>
      <trkpt lat="42.69598" lon="1.49768">
        <ele>1641.1076660156</ele>
        <time>2010-07-14T07:15:43Z</time>
      </trkpt>
      <trkpt lat="42.69592" lon="1.4977">
        <ele>1641.1076660156</ele>
        <time>2010-07-14T07:15:49Z</time>
      </trkpt>
      <trkpt lat="42.69586" lon="1.49775">
        <ele>1642.5498046875</ele>
        <time>2010-07-14T07:15:56Z</time>
      </trkpt>
      <trkpt lat="42.6958" lon="1.49778">
        <ele>1643.0302734375</ele>
        <time>2010-07-14T07:16:03Z</time>
      </trkpt>
      <trkpt lat="42.69574" lon="1.49779">
        <ele>1643.9916992188</ele>
        <time>2010-07-14T07:16:08Z</time>
      </trkpt>
      <trkpt lat="42.69567" lon="1.4978">
        <ele>1643.9916992188</ele>
        <time>2010-07-14T07:16:15Z</time>
      </trkpt>
      <trkpt lat="42.69564" lon="1.49781">
        <ele>1644.4724121094</ele>
        <time>2010-07-14T07:16:17Z</time>
      </trkpt>
      <trkpt lat="42.69561" lon="1.49785">
        <ele>1646.3952636719</ele>
        <time>2010-07-14T07:16:23Z</time>
      </trkpt>
      <trkpt lat="42.69558" lon="1.49792">
        <ele>1647.8371582031</ele>
        <time>2010-07-14T07:16:29Z</time>
      </trkpt>
      <trkpt lat="42.69553" lon="1.49797">
        <ele>1648.7983398438</ele>
        <time>2010-07-14T07:16:35Z</time>
      </trkpt>
      <trkpt lat="42.69553" lon="1.49798">
        <ele>1648.7983398438</ele>
        <time>2010-07-14T07:16:36Z</time>
      </trkpt>
      <trkpt lat="42.69544" lon="1.49801">
        <ele>1648.7983398438</ele>
        <time>2010-07-14T07:16:44Z</time>
      </trkpt>
      <trkpt lat="42.69534" lon="1.49801">
        <ele>1649.759765625</ele>
        <time>2010-07-14T07:16:53Z</time>
      </trkpt>
      <trkpt lat="42.69528" lon="1.49801">
        <ele>1650.7209472656</ele>
        <time>2010-07-14T07:17:01Z</time>
      </trkpt>
      <trkpt lat="42.69524" lon="1.49803">
        <ele>1651.2016601562</ele>
        <time>2010-07-14T07:17:06Z</time>
      </trkpt>
      <trkpt lat="42.6952" lon="1.49805">
        <ele>1651.6823730469</ele>
        <time>2010-07-14T07:17:11Z</time>
      </trkpt>
      <trkpt lat="42.69513" lon="1.49804">
        <ele>1650.2404785156</ele>
        <time>2010-07-14T07:17:17Z</time>
      </trkpt>
      <trkpt lat="42.69504" lon="1.49805">
        <ele>1650.7209472656</ele>
        <time>2010-07-14T07:17:24Z</time>
      </trkpt>
      <trkpt lat="42.69502" lon="1.49805">
        <ele>1651.2016601562</ele>
        <time>2010-07-14T07:17:26Z</time>
      </trkpt>
      <trkpt lat="42.69501" lon="1.49808">
        <ele>1652.6435546875</ele>
        <time>2010-07-14T07:17:31Z</time>
      </trkpt>
      <trkpt lat="42.695" lon="1.49813">
        <ele>1653.1242675781</ele>
        <time>2010-07-14T07:17:36Z</time>
      </trkpt>
      <trkpt lat="42.69497" lon="1.49811">
        <ele>1654.0856933594</ele>
        <time>2010-07-14T07:17:41Z</time>
      </trkpt>
      <trkpt lat="42.69492" lon="1.49809">
        <ele>1654.5661621094</ele>
        <time>2010-07-14T07:17:46Z</time>
      </trkpt>
      <trkpt lat="42.69489" lon="1.4981">
        <ele>1655.046875</ele>
        <time>2010-07-14T07:17:52Z</time>
      </trkpt>
      <trkpt lat="42.69484" lon="1.49811">
        <ele>1656.4887695312</ele>
        <time>2010-07-14T07:17:58Z</time>
      </trkpt>
      <trkpt lat="42.6948" lon="1.49813">
        <ele>1657.9309082031</ele>
        <time>2010-07-14T07:18:04Z</time>
      </trkpt>
      <trkpt lat="42.69476" lon="1.49816">
        <ele>1658.8920898438</ele>
        <time>2010-07-14T07:18:10Z</time>
      </trkpt>
      <trkpt lat="42.69471" lon="1.4982">
        <ele>1659.8532714844</ele>
        <time>2010-07-14T07:18:17Z</time>
      </trkpt>
      <trkpt lat="42.69467" lon="1.4982">
        <ele>1661.2956542969</ele>
        <time>2010-07-14T07:18:24Z</time>
      </trkpt>
      <trkpt lat="42.69461" lon="1.4982">
        <ele>1664.66015625</ele>
        <time>2010-07-14T07:18:30Z</time>
      </trkpt>
      <trkpt lat="42.69456" lon="1.4982">
        <ele>1666.1020507812</ele>
        <time>2010-07-14T07:18:36Z</time>
      </trkpt>
      <trkpt lat="42.69451" lon="1.49822">
        <ele>1667.0634765625</ele>
        <time>2010-07-14T07:18:42Z</time>
      </trkpt>
      <trkpt lat="42.69446" lon="1.49823">
        <ele>1668.9860839844</ele>
        <time>2010-07-14T07:18:48Z</time>
      </trkpt>
      <trkpt lat="42.69442" lon="1.49824">
        <ele>1669.947265625</ele>
        <time>2010-07-14T07:18:54Z</time>
      </trkpt>
      <trkpt lat="42.69435" lon="1.49828">
        <ele>1670.9086914062</ele>
        <time>2010-07-14T07:19:01Z</time>
      </trkpt>
      <trkpt lat="42.69433" lon="1.49829">
        <ele>1671.3891601562</ele>
        <time>2010-07-14T07:19:03Z</time>
      </trkpt>
      <trkpt lat="42.69427" lon="1.49829">
        <ele>1670.4279785156</ele>
        <time>2010-07-14T07:19:08Z</time>
      </trkpt>
      <trkpt lat="42.69424" lon="1.4983">
        <ele>1669.947265625</ele>
        <time>2010-07-14T07:19:11Z</time>
      </trkpt>
      <trkpt lat="42.69416" lon="1.49834">
        <ele>1668.5053710938</ele>
        <time>2010-07-14T07:19:18Z</time>
      </trkpt>
      <trkpt lat="42.69408" lon="1.49835">
        <ele>1667.0634765625</ele>
        <time>2010-07-14T07:19:24Z</time>
      </trkpt>
      <trkpt lat="42.69403" lon="1.49836">
        <ele>1666.1020507812</ele>
        <time>2010-07-14T07:19:29Z</time>
      </trkpt>
      <trkpt lat="42.69399" lon="1.49837">
        <ele>1665.6215820312</ele>
        <time>2010-07-14T07:19:33Z</time>
      </trkpt>
      <trkpt lat="42.69394" lon="1.49834">
        <ele>1665.1408691406</ele>
        <time>2010-07-14T07:19:39Z</time>
      </trkpt>
      <trkpt lat="42.69389" lon="1.49836">
        <ele>1665.6215820312</ele>
        <time>2010-07-14T07:19:43Z</time>
      </trkpt>
      <trkpt lat="42.69388" lon="1.49837">
        <ele>1666.1020507812</ele>
        <time>2010-07-14T07:19:44Z</time>
      </trkpt>
      <trkpt lat="42.69386" lon="1.49838">
        <ele>1666.5827636719</ele>
        <time>2010-07-14T07:19:46Z</time>
      </trkpt>
      <trkpt lat="42.69379" lon="1.49839">
        <ele>1666.1020507812</ele>
        <time>2010-07-14T07:19:50Z</time>
      </trkpt>
      <trkpt lat="42.69372" lon="1.49834">
        <ele>1665.6215820312</ele>
        <time>2010-07-14T07:19:56Z</time>
      </trkpt>
      <trkpt lat="42.69369" lon="1.49834">
        <ele>1665.1408691406</ele>
        <time>2010-07-14T07:19:59Z</time>
      </trkpt>
      <trkpt lat="42.69357" lon="1.49833">
        <ele>1664.1794433594</ele>
        <time>2010-07-14T07:20:09Z</time>
      </trkpt>
      <trkpt lat="42.69345" lon="1.49836">
        <ele>1666.5827636719</ele>
        <time>2010-07-14T07:20:17Z</time>
      </trkpt>
      <trkpt lat="42.69336" lon="1.49836">
        <ele>1665.1408691406</ele>
        <time>2010-07-14T07:20:25Z</time>
      </trkpt>
      <trkpt lat="42.69326" lon="1.49834">
        <ele>1664.66015625</ele>
        <time>2010-07-14T07:20:33Z</time>
      </trkpt>
      <trkpt lat="42.69319" lon="1.49835">
        <ele>1663.6987304688</ele>
        <time>2010-07-14T07:20:38Z</time>
      </trkpt>
      <trkpt lat="42.69316" lon="1.49835">
        <ele>1663.6987304688</ele>
        <time>2010-07-14T07:20:40Z</time>
      </trkpt>
      <trkpt lat="42.6931" lon="1.49835">
        <ele>1663.6987304688</ele>
        <time>2010-07-14T07:20:44Z</time>
      </trkpt>
      <trkpt lat="42.69307" lon="1.49835">
        <ele>1664.1794433594</ele>
        <time>2010-07-14T07:20:47Z</time>
      </trkpt>
      <trkpt lat="42.69302" lon="1.49838">
        <ele>1663.2182617188</ele>
        <time>2010-07-14T07:20:52Z</time>
      </trkpt>
      <trkpt lat="42.69299" lon="1.49839">
        <ele>1663.6987304688</ele>
        <time>2010-07-14T07:20:58Z</time>
      </trkpt>
      <trkpt lat="42.69297" lon="1.49839">
        <ele>1663.6987304688</ele>
        <time>2010-07-14T07:20:59Z</time>
      </trkpt>
      <trkpt lat="42.69294" lon="1.49838">
        <ele>1663.2182617188</ele>
        <time>2010-07-14T07:21:05Z</time>
      </trkpt>
      <trkpt lat="42.69289" lon="1.4984">
        <ele>1662.2568359375</ele>
        <time>2010-07-14T07:21:11Z</time>
      </trkpt>
      <trkpt lat="42.69288" lon="1.49839">
        <ele>1662.2568359375</ele>
        <time>2010-07-14T07:21:12Z</time>
      </trkpt>
      <trkpt lat="42.69282" lon="1.49841">
        <ele>1662.7375488281</ele>
        <time>2010-07-14T07:21:18Z</time>
      </trkpt>
      <trkpt lat="42.69275" lon="1.49844">
        <ele>1662.7375488281</ele>
        <time>2010-07-14T07:21:25Z</time>
      </trkpt>
      <trkpt lat="42.6927" lon="1.49843">
        <ele>1661.7763671875</ele>
        <time>2010-07-14T07:21:28Z</time>
      </trkpt>
      <trkpt lat="42.69262" lon="1.49845">
        <ele>1659.3728027344</ele>
        <time>2010-07-14T07:21:35Z</time>
      </trkpt>
      <trkpt lat="42.69259" lon="1.49846">
        <ele>1658.4113769531</ele>
        <time>2010-07-14T07:21:37Z</time>
      </trkpt>
      <trkpt lat="42.69255" lon="1.49849">
        <ele>1657.4501953125</ele>
        <time>2010-07-14T07:21:40Z</time>
      </trkpt>
      <trkpt lat="42.69254" lon="1.49849">
        <ele>1657.4501953125</ele>
        <time>2010-07-14T07:21:42Z</time>
      </trkpt>
      <trkpt lat="42.69248" lon="1.49851">
        <ele>1656.4887695312</ele>
        <time>2010-07-14T07:21:49Z</time>
      </trkpt>
      <trkpt lat="42.69245" lon="1.49855">
        <ele>1656.4887695312</ele>
        <time>2010-07-14T07:21:55Z</time>
      </trkpt>
      <trkpt lat="42.69243" lon="1.49858">
        <ele>1656.9694824219</ele>
        <time>2010-07-14T07:21:59Z</time>
      </trkpt>
      <trkpt lat="42.69242" lon="1.49859">
        <ele>1657.4501953125</ele>
        <time>2010-07-14T07:22:00Z</time>
      </trkpt>
      <trkpt lat="42.69239" lon="1.49863">
        <ele>1657.4501953125</ele>
        <time>2010-07-14T07:22:08Z</time>
      </trkpt>
      <trkpt lat="42.69234" lon="1.49865">
        <ele>1656.0080566406</ele>
        <time>2010-07-14T07:22:13Z</time>
      </trkpt>
      <trkpt lat="42.69231" lon="1.49867">
        <ele>1655.046875</ele>
        <time>2010-07-14T07:22:15Z</time>
      </trkpt>
      <trkpt lat="42.69227" lon="1.49872">
        <ele>1656.0080566406</ele>
        <time>2010-07-14T07:22:19Z</time>
      </trkpt>
      <trkpt lat="42.69223" lon="1.49874">
        <ele>1656.4887695312</ele>
        <time>2010-07-14T07:22:24Z</time>
      </trkpt>
      <trkpt lat="42.69217" lon="1.49873">
        <ele>1656.0080566406</ele>
        <time>2010-07-14T07:22:31Z</time>
      </trkpt>
      <trkpt lat="42.69211" lon="1.49871">
        <ele>1655.046875</ele>
        <time>2010-07-14T07:22:36Z</time>
      </trkpt>
      <trkpt lat="42.69208" lon="1.49872">
        <ele>1655.046875</ele>
        <time>2010-07-14T07:22:41Z</time>
      </trkpt>
      <trkpt lat="42.69202" lon="1.49873">
        <ele>1655.046875</ele>
        <time>2010-07-14T07:22:46Z</time>
      </trkpt>
      <trkpt lat="42.69196" lon="1.49879">
        <ele>1655.046875</ele>
        <time>2010-07-14T07:22:51Z</time>
      </trkpt>
      <trkpt lat="42.69188" lon="1.49884">
        <ele>1655.5275878906</ele>
        <time>2010-07-14T07:22:57Z</time>
      </trkpt>
      <trkpt lat="42.69187" lon="1.49885">
        <ele>1655.046875</ele>
        <time>2010-07-14T07:22:58Z</time>
      </trkpt>
      <trkpt lat="42.69184" lon="1.49884">
        <ele>1654.0856933594</ele>
        <time>2010-07-14T07:23:01Z</time>
      </trkpt>
      <trkpt lat="42.69179" lon="1.49887">
        <ele>1651.2016601562</ele>
        <time>2010-07-14T07:23:07Z</time>
      </trkpt>
      <trkpt lat="42.69172" lon="1.49894">
        <ele>1649.759765625</ele>
        <time>2010-07-14T07:23:14Z</time>
      </trkpt>
      <trkpt lat="42.69167" lon="1.499">
        <ele>1648.3176269531</ele>
        <time>2010-07-14T07:23:19Z</time>
      </trkpt>
      <trkpt lat="42.69161" lon="1.49908">
        <ele>1648.3176269531</ele>
        <time>2010-07-14T07:23:26Z</time>
      </trkpt>
      <trkpt lat="42.69153" lon="1.49918">
        <ele>1649.2790527344</ele>
        <time>2010-07-14T07:23:34Z</time>
      </trkpt>
      <trkpt lat="42.69147" lon="1.49922">
        <ele>1649.2790527344</ele>
        <time>2010-07-14T07:23:40Z</time>
      </trkpt>
      <trkpt lat="42.69141" lon="1.49931">
        <ele>1649.759765625</ele>
        <time>2010-07-14T07:23:48Z</time>
      </trkpt>
      <trkpt lat="42.69136" lon="1.49935">
        <ele>1649.759765625</ele>
        <time>2010-07-14T07:23:54Z</time>
      </trkpt>
      <trkpt lat="42.69134" lon="1.49938">
        <ele>1649.2790527344</ele>
        <time>2010-07-14T07:23:59Z</time>
      </trkpt>
      <trkpt lat="42.69131" lon="1.49941">
        <ele>1648.7983398438</ele>
        <time>2010-07-14T07:24:09Z</time>
      </trkpt>
      <trkpt lat="42.69128" lon="1.49948">
        <ele>1649.2790527344</ele>
        <time>2010-07-14T07:24:17Z</time>
      </trkpt>
      <trkpt lat="42.69127" lon="1.4995">
        <ele>1649.2790527344</ele>
        <time>2010-07-14T07:24:22Z</time>
      </trkpt>
      <trkpt lat="42.69123" lon="1.49955">
        <ele>1649.2790527344</ele>
        <time>2010-07-14T07:24:28Z</time>
      </trkpt>
      <trkpt lat="42.6912" lon="1.49956">
        <ele>1649.2790527344</ele>
        <time>2010-07-14T07:24:33Z</time>
      </trkpt>
      <trkpt lat="42.69115" lon="1.49961">
        <ele>1649.759765625</ele>
        <time>2010-07-14T07:24:40Z</time>
      </trkpt>
      <trkpt lat="42.69111" lon="1.49963">
        <ele>1649.759765625</ele>
        <time>2010-07-14T07:24:46Z</time>
      </trkpt>
      <trkpt lat="42.69107" lon="1.49961">
        <ele>1651.2016601562</ele>
        <time>2010-07-14T07:24:51Z</time>
      </trkpt>
      <trkpt lat="42.69105" lon="1.4996">
        <ele>1654.5661621094</ele>
        <time>2010-07-14T07:24:57Z</time>
      </trkpt>
      <trkpt lat="42.69102" lon="1.49961">
        <ele>1654.0856933594</ele>
        <time>2010-07-14T07:25:01Z</time>
      </trkpt>
      <trkpt lat="42.69104" lon="1.49966">
        <ele>1654.5661621094</ele>
        <time>2010-07-14T07:25:10Z</time>
      </trkpt>
      <trkpt lat="42.69104" lon="1.49967">
        <ele>1656.4887695312</ele>
        <time>2010-07-14T07:25:26Z</time>
      </trkpt>
      <trkpt lat="42.69102" lon="1.49967">
        <ele>1656.9694824219</ele>
        <time>2010-07-14T07:25:32Z</time>
      </trkpt>
      <trkpt lat="42.691" lon="1.49969">
        <ele>1656.9694824219</ele>
        <time>2010-07-14T07:25:41Z</time>
      </trkpt>
      <trkpt lat="42.69096" lon="1.49971">
        <ele>1656.4887695312</ele>
        <time>2010-07-14T07:25:47Z</time>
      </trkpt>
      <trkpt lat="42.69093" lon="1.4997">
        <ele>1655.5275878906</ele>
        <time>2010-07-14T07:25:56Z</time>
      </trkpt>
      <trkpt lat="42.69092" lon="1.49969">
        <ele>1653.6049804688</ele>
        <time>2010-07-14T07:26:03Z</time>
      </trkpt>
      <trkpt lat="42.69092" lon="1.49969">
        <ele>1651.6823730469</ele>
        <time>2010-07-14T07:26:12Z</time>
      </trkpt>
      <trkpt lat="42.69091" lon="1.49968">
        <ele>1650.7209472656</ele>
        <time>2010-07-14T07:26:17Z</time>
      </trkpt>
      <trkpt lat="42.69088" lon="1.49968">
        <ele>1650.2404785156</ele>
        <time>2010-07-14T07:26:22Z</time>
      </trkpt>
      <trkpt lat="42.69083" lon="1.49968">
        <ele>1649.2790527344</ele>
        <time>2010-07-14T07:26:29Z</time>
      </trkpt>
      <trkpt lat="42.69078" lon="1.49968">
        <ele>1648.7983398438</ele>
        <time>2010-07-14T07:26:36Z</time>
      </trkpt>
      <trkpt lat="42.69073" lon="1.49971">
        <ele>1649.759765625</ele>
        <time>2010-07-14T07:26:41Z</time>
      </trkpt>
      <trkpt lat="42.6907" lon="1.4997">
        <ele>1649.2790527344</ele>
        <time>2010-07-14T07:26:45Z</time>
      </trkpt>
      <trkpt lat="42.69069" lon="1.49969">
        <ele>1648.7983398438</ele>
        <time>2010-07-14T07:26:46Z</time>
      </trkpt>
      <trkpt lat="42.69064" lon="1.49969">
        <ele>1649.2790527344</ele>
        <time>2010-07-14T07:26:50Z</time>
      </trkpt>
      <trkpt lat="42.6906" lon="1.49969">
        <ele>1649.2790527344</ele>
        <time>2010-07-14T07:26:54Z</time>
      </trkpt>
      <trkpt lat="42.69057" lon="1.49969">
        <ele>1649.2790527344</ele>
        <time>2010-07-14T07:26:57Z</time>
      </trkpt>
      <trkpt lat="42.69051" lon="1.49971">
        <ele>1649.759765625</ele>
        <time>2010-07-14T07:27:05Z</time>
      </trkpt>
      <trkpt lat="42.69046" lon="1.49973">
        <ele>1651.2016601562</ele>
        <time>2010-07-14T07:27:12Z</time>
      </trkpt>
      <trkpt lat="42.69042" lon="1.49975">
        <ele>1651.6823730469</ele>
        <time>2010-07-14T07:27:18Z</time>
      </trkpt>
      <trkpt lat="42.69039" lon="1.49975">
        <ele>1651.2016601562</ele>
        <time>2010-07-14T07:27:23Z</time>
      </trkpt>
      <trkpt lat="42.69036" lon="1.49975">
        <ele>1650.2404785156</ele>
        <time>2010-07-14T07:27:27Z</time>
      </trkpt>
      <trkpt lat="42.69033" lon="1.49974">
        <ele>1649.2790527344</ele>
        <time>2010-07-14T07:27:31Z</time>
      </trkpt>
      <trkpt lat="42.69027" lon="1.49976">
        <ele>1649.2790527344</ele>
        <time>2010-07-14T07:27:38Z</time>
      </trkpt>
      <trkpt lat="42.69024" lon="1.49977">
        <ele>1649.2790527344</ele>
        <time>2010-07-14T07:27:42Z</time>
      </trkpt>
      <trkpt lat="42.69021" lon="1.4998">
        <ele>1649.759765625</ele>
        <time>2010-07-14T07:27:47Z</time>
      </trkpt>
      <trkpt lat="42.69017" lon="1.49982">
        <ele>1650.7209472656</ele>
        <time>2010-07-14T07:27:53Z</time>
      </trkpt>
      <trkpt lat="42.69015" lon="1.49984">
        <ele>1651.2016601562</ele>
        <time>2010-07-14T07:27:57Z</time>
      </trkpt>
      <trkpt lat="42.69012" lon="1.49985">
        <ele>1651.6823730469</ele>
        <time>2010-07-14T07:28:03Z</time>
      </trkpt>
      <trkpt lat="42.6901" lon="1.49986">
        <ele>1651.6823730469</ele>
        <time>2010-07-14T07:28:09Z</time>
      </trkpt>
      <trkpt lat="42.69006" lon="1.49989">
        <ele>1652.1628417969</ele>
        <time>2010-07-14T07:28:15Z</time>
      </trkpt>
      <trkpt lat="42.69003" lon="1.4999">
        <ele>1652.6435546875</ele>
        <time>2010-07-14T07:28:20Z</time>
      </trkpt>
      <trkpt lat="42.68999" lon="1.49992">
        <ele>1652.1628417969</ele>
        <time>2010-07-14T07:28:26Z</time>
      </trkpt>
      <trkpt lat="42.68997" lon="1.49994">
        <ele>1653.1242675781</ele>
        <time>2010-07-14T07:28:31Z</time>
      </trkpt>
      <trkpt lat="42.68995" lon="1.49995">
        <ele>1653.1242675781</ele>
        <time>2010-07-14T07:28:34Z</time>
      </trkpt>
      <trkpt lat="42.68991" lon="1.49998">
        <ele>1652.6435546875</ele>
        <time>2010-07-14T07:28:38Z</time>
      </trkpt>
      <trkpt lat="42.68985" lon="1.50001">
        <ele>1653.1242675781</ele>
        <time>2010-07-14T07:28:44Z</time>
      </trkpt>
      <trkpt lat="42.68982" lon="1.50003">
        <ele>1654.0856933594</ele>
        <time>2010-07-14T07:28:50Z</time>
      </trkpt>
      <trkpt lat="42.68977" lon="1.50005">
        <ele>1655.046875</ele>
        <time>2010-07-14T07:28:57Z</time>
      </trkpt>
      <trkpt lat="42.68972" lon="1.50009">
        <ele>1654.5661621094</ele>
        <time>2010-07-14T07:29:03Z</time>
      </trkpt>
      <trkpt lat="42.68969" lon="1.50011">
        <ele>1654.0856933594</ele>
        <time>2010-07-14T07:29:07Z</time>
      </trkpt>
      <trkpt lat="42.68967" lon="1.50014">
        <ele>1653.1242675781</ele>
        <time>2010-07-14T07:29:15Z</time>
      </trkpt>
      <trkpt lat="42.68962" lon="1.50016">
        <ele>1653.6049804688</ele>
        <time>2010-07-14T07:29:22Z</time>
      </trkpt>
      <trkpt lat="42.68959" lon="1.50018">
        <ele>1652.6435546875</ele>
        <time>2010-07-14T07:29:27Z</time>
      </trkpt>
      <trkpt lat="42.68953" lon="1.50023">
        <ele>1653.1242675781</ele>
        <time>2010-07-14T07:29:34Z</time>
      </trkpt>
      <trkpt lat="42.68946" lon="1.50028">
        <ele>1653.6049804688</ele>
        <time>2010-07-14T07:29:40Z</time>
      </trkpt>
      <trkpt lat="42.6894" lon="1.50032">
        <ele>1653.1242675781</ele>
        <time>2010-07-14T07:29:48Z</time>
      </trkpt>
      <trkpt lat="42.68935" lon="1.50035">
        <ele>1652.6435546875</ele>
        <time>2010-07-14T07:29:53Z</time>
      </trkpt>
      <trkpt lat="42.68928" lon="1.50041">
        <ele>1653.1242675781</ele>
        <time>2010-07-14T07:30:00Z</time>
      </trkpt>
      <trkpt lat="42.68924" lon="1.50045">
        <ele>1655.046875</ele>
        <time>2010-07-14T07:30:04Z</time>
      </trkpt>
      <trkpt lat="42.68921" lon="1.5005">
        <ele>1656.0080566406</ele>
        <time>2010-07-14T07:30:10Z</time>
      </trkpt>
      <trkpt lat="42.68917" lon="1.50051">
        <ele>1655.5275878906</ele>
        <time>2010-07-14T07:30:14Z</time>
      </trkpt>
      <trkpt lat="42.68914" lon="1.50052">
        <ele>1655.046875</ele>
        <time>2010-07-14T07:30:19Z</time>
      </trkpt>
      <trkpt lat="42.6891" lon="1.50052">
        <ele>1655.046875</ele>
        <time>2010-07-14T07:30:23Z</time>
      </trkpt>
      <trkpt lat="42.68908" lon="1.50053">
        <ele>1655.046875</ele>
        <time>2010-07-14T07:30:25Z</time>
      </trkpt>
      <trkpt lat="42.689" lon="1.50059">
        <ele>1655.046875</ele>
        <time>2010-07-14T07:30:32Z</time>
      </trkpt>
      <trkpt lat="42.68895" lon="1.50062">
        <ele>1656.9694824219</ele>
        <time>2010-07-14T07:30:39Z</time>
      </trkpt>
      <trkpt lat="42.68892" lon="1.50064">
        <ele>1658.4113769531</ele>
        <time>2010-07-14T07:30:45Z</time>
      </trkpt>
      <trkpt lat="42.68888" lon="1.50067">
        <ele>1658.4113769531</ele>
        <time>2010-07-14T07:30:49Z</time>
      </trkpt>
      <trkpt lat="42.68886" lon="1.50069">
        <ele>1659.3728027344</ele>
        <time>2010-07-14T07:30:53Z</time>
      </trkpt>
      <trkpt lat="42.68885" lon="1.50068">
        <ele>1658.4113769531</ele>
        <time>2010-07-14T07:30:59Z</time>
      </trkpt>
      <trkpt lat="42.6888" lon="1.50074">
        <ele>1658.8920898438</ele>
        <time>2010-07-14T07:31:22Z</time>
      </trkpt>
      <trkpt lat="42.68877" lon="1.50076">
        <ele>1658.8920898438</ele>
        <time>2010-07-14T07:31:26Z</time>
      </trkpt>
      <trkpt lat="42.68873" lon="1.50082">
        <ele>1659.8532714844</ele>
        <time>2010-07-14T07:31:33Z</time>
      </trkpt>
      <trkpt lat="42.6887" lon="1.50084">
        <ele>1660.3342285156</ele>
        <time>2010-07-14T07:31:38Z</time>
      </trkpt>
      <trkpt lat="42.68866" lon="1.50088">
        <ele>1659.8532714844</ele>
        <time>2010-07-14T07:31:45Z</time>
      </trkpt>
      <trkpt lat="42.68864" lon="1.50091">
        <ele>1659.3728027344</ele>
        <time>2010-07-14T07:31:51Z</time>
      </trkpt>
      <trkpt lat="42.68861" lon="1.50095">
        <ele>1659.3728027344</ele>
        <time>2010-07-14T07:31:57Z</time>
      </trkpt>
      <trkpt lat="42.68857" lon="1.50099">
        <ele>1658.8920898438</ele>
        <time>2010-07-14T07:32:02Z</time>
      </trkpt>
      <trkpt lat="42.68853" lon="1.50101">
        <ele>1658.4113769531</ele>
        <time>2010-07-14T07:32:07Z</time>
      </trkpt>
      <trkpt lat="42.68848" lon="1.50103">
        <ele>1658.8920898438</ele>
        <time>2010-07-14T07:32:12Z</time>
      </trkpt>
      <trkpt lat="42.68838" lon="1.50103">
        <ele>1658.8920898438</ele>
        <time>2010-07-14T07:32:20Z</time>
      </trkpt>
      <trkpt lat="42.68833" lon="1.50105">
        <ele>1658.4113769531</ele>
        <time>2010-07-14T07:32:25Z</time>
      </trkpt>
      <trkpt lat="42.68831" lon="1.50106">
        <ele>1657.9309082031</ele>
        <time>2010-07-14T07:32:29Z</time>
      </trkpt>
      <trkpt lat="42.68828" lon="1.50105">
        <ele>1656.9694824219</ele>
        <time>2010-07-14T07:32:34Z</time>
      </trkpt>
      <trkpt lat="42.68824" lon="1.50104">
        <ele>1656.4887695312</ele>
        <time>2010-07-14T07:32:41Z</time>
      </trkpt>
      <trkpt lat="42.68822" lon="1.50102">
        <ele>1656.4887695312</ele>
        <time>2010-07-14T07:32:46Z</time>
      </trkpt>
      <trkpt lat="42.68819" lon="1.50101">
        <ele>1656.0080566406</ele>
        <time>2010-07-14T07:32:51Z</time>
      </trkpt>
      <trkpt lat="42.68815" lon="1.50101">
        <ele>1655.5275878906</ele>
        <time>2010-07-14T07:32:56Z</time>
      </trkpt>
      <trkpt lat="42.6881" lon="1.50101">
        <ele>1653.6049804688</ele>
        <time>2010-07-14T07:33:03Z</time>
      </trkpt>
      <trkpt lat="42.68807" lon="1.50104">
        <ele>1653.1242675781</ele>
        <time>2010-07-14T07:33:08Z</time>
      </trkpt>
      <trkpt lat="42.688" lon="1.50104">
        <ele>1652.1628417969</ele>
        <time>2010-07-14T07:33:13Z</time>
      </trkpt>
      <trkpt lat="42.68797" lon="1.50105">
        <ele>1651.6823730469</ele>
        <time>2010-07-14T07:33:16Z</time>
      </trkpt>
      <trkpt lat="42.68787" lon="1.50108">
        <ele>1651.2016601562</ele>
        <time>2010-07-14T07:33:24Z</time>
      </trkpt>
      <trkpt lat="42.68782" lon="1.50111">
        <ele>1652.1628417969</ele>
        <time>2010-07-14T07:33:28Z</time>
      </trkpt>
      <trkpt lat="42.68775" lon="1.50116">
        <ele>1653.1242675781</ele>
        <time>2010-07-14T07:33:34Z</time>
      </trkpt>
      <trkpt lat="42.68768" lon="1.50117">
        <ele>1655.046875</ele>
        <time>2010-07-14T07:33:39Z</time>
      </trkpt>
      <trkpt lat="42.68763" lon="1.50117">
        <ele>1655.046875</ele>
        <time>2010-07-14T07:33:43Z</time>
      </trkpt>
      <trkpt lat="42.68754" lon="1.50119">
        <ele>1654.0856933594</ele>
        <time>2010-07-14T07:33:49Z</time>
      </trkpt>
      <trkpt lat="42.68748" lon="1.50124">
        <ele>1654.0856933594</ele>
        <time>2010-07-14T07:33:54Z</time>
      </trkpt>
      <trkpt lat="42.6874" lon="1.50127">
        <ele>1653.6049804688</ele>
        <time>2010-07-14T07:34:01Z</time>
      </trkpt>
      <trkpt lat="42.68732" lon="1.50129">
        <ele>1653.1242675781</ele>
        <time>2010-07-14T07:34:07Z</time>
      </trkpt>
      <trkpt lat="42.68724" lon="1.50133">
        <ele>1652.6435546875</ele>
        <time>2010-07-14T07:34:14Z</time>
      </trkpt>
      <trkpt lat="42.6872" lon="1.50137">
        <ele>1652.1628417969</ele>
        <time>2010-07-14T07:34:18Z</time>
      </trkpt>
      <trkpt lat="42.68715" lon="1.50137">
        <ele>1651.6823730469</ele>
        <time>2010-07-14T07:34:24Z</time>
      </trkpt>
      <trkpt lat="42.6871" lon="1.5014">
        <ele>1653.1242675781</ele>
        <time>2010-07-14T07:34:31Z</time>
      </trkpt>
      <trkpt lat="42.68705" lon="1.50141">
        <ele>1655.046875</ele>
        <time>2010-07-14T07:34:36Z</time>
      </trkpt>
      <trkpt lat="42.687" lon="1.5014">
        <ele>1655.5275878906</ele>
        <time>2010-07-14T07:34:42Z</time>
      </trkpt>
      <trkpt lat="42.68698" lon="1.50141">
        <ele>1655.046875</ele>
        <time>2010-07-14T07:34:44Z</time>
      </trkpt>
      <trkpt lat="42.68689" lon="1.50141">
        <ele>1654.5661621094</ele>
        <time>2010-07-14T07:34:51Z</time>
      </trkpt>
      <trkpt lat="42.68681" lon="1.50143">
        <ele>1653.6049804688</ele>
        <time>2010-07-14T07:34:58Z</time>
      </trkpt>
      <trkpt lat="42.68674" lon="1.50144">
        <ele>1654.0856933594</ele>
        <time>2010-07-14T07:35:04Z</time>
      </trkpt>
      <trkpt lat="42.68665" lon="1.50145">
        <ele>1653.1242675781</ele>
        <time>2010-07-14T07:35:11Z</time>
      </trkpt>
      <trkpt lat="42.68657" lon="1.50144">
        <ele>1652.6435546875</ele>
        <time>2010-07-14T07:35:18Z</time>
      </trkpt>
      <trkpt lat="42.68656" lon="1.50144">
        <ele>1652.6435546875</ele>
        <time>2010-07-14T07:35:19Z</time>
      </trkpt>
      <trkpt lat="42.6865" lon="1.50143">
        <ele>1651.6823730469</ele>
        <time>2010-07-14T07:35:26Z</time>
      </trkpt>
      <trkpt lat="42.68644" lon="1.50142">
        <ele>1649.759765625</ele>
        <time>2010-07-14T07:35:36Z</time>
      </trkpt>
      <trkpt lat="42.68641" lon="1.50141">
        <ele>1650.2404785156</ele>
        <time>2010-07-14T07:35:39Z</time>
      </trkpt>
      <trkpt lat="42.68637" lon="1.50142">
        <ele>1651.2016601562</ele>
        <time>2010-07-14T07:35:43Z</time>
      </trkpt>
      <trkpt lat="42.68634" lon="1.50141">
        <ele>1650.7209472656</ele>
        <time>2010-07-14T07:35:48Z</time>
      </trkpt>
      <trkpt lat="42.68633" lon="1.5014">
        <ele>1651.6823730469</ele>
        <time>2010-07-14T07:35:56Z</time>
      </trkpt>
      <trkpt lat="42.6863" lon="1.50143">
        <ele>1652.1628417969</ele>
        <time>2010-07-14T07:36:01Z</time>
      </trkpt>
      <trkpt lat="42.68628" lon="1.50146">
        <ele>1652.1628417969</ele>
        <time>2010-07-14T07:36:05Z</time>
      </trkpt>
      <trkpt lat="42.68623" lon="1.50146">
        <ele>1651.6823730469</ele>
        <time>2010-07-14T07:36:11Z</time>
      </trkpt>
      <trkpt lat="42.68618" lon="1.50145">
        <ele>1651.6823730469</ele>
        <time>2010-07-14T07:36:16Z</time>
      </trkpt>
      <trkpt lat="42.68615" lon="1.50145">
        <ele>1651.6823730469</ele>
        <time>2010-07-14T07:36:21Z</time>
      </trkpt>
      <trkpt lat="42.6861" lon="1.50143">
        <ele>1651.2016601562</ele>
        <time>2010-07-14T07:36:26Z</time>
      </trkpt>
      <trkpt lat="42.68607" lon="1.50143">
        <ele>1651.2016601562</ele>
        <time>2010-07-14T07:36:28Z</time>
      </trkpt>
      <trkpt lat="42.68602" lon="1.50141">
        <ele>1650.7209472656</ele>
        <time>2010-07-14T07:36:34Z</time>
      </trkpt>
      <trkpt lat="42.68597" lon="1.50137">
        <ele>1648.7983398438</ele>
        <time>2010-07-14T07:36:40Z</time>
      </trkpt>
      <trkpt lat="42.6859" lon="1.50132">
        <ele>1648.3176269531</ele>
        <time>2010-07-14T07:36:47Z</time>
      </trkpt>
      <trkpt lat="42.68587" lon="1.5013">
        <ele>1648.3176269531</ele>
        <time>2010-07-14T07:36:50Z</time>
      </trkpt>
      <trkpt lat="42.68583" lon="1.50128">
        <ele>1648.7983398438</ele>
        <time>2010-07-14T07:36:55Z</time>
      </trkpt>
      <trkpt lat="42.68575" lon="1.50123">
        <ele>1648.7983398438</ele>
        <time>2010-07-14T07:37:03Z</time>
      </trkpt>
      <trkpt lat="42.68567" lon="1.50119">
        <ele>1649.2790527344</ele>
        <time>2010-07-14T07:37:11Z</time>
      </trkpt>
      <trkpt lat="42.68561" lon="1.50113">
        <ele>1649.2790527344</ele>
        <time>2010-07-14T07:37:17Z</time>
      </trkpt>
      <trkpt lat="42.68554" lon="1.50113">
        <ele>1650.2404785156</ele>
        <time>2010-07-14T07:37:23Z</time>
      </trkpt>
      <trkpt lat="42.6855" lon="1.50111">
        <ele>1651.2016601562</ele>
        <time>2010-07-14T07:37:27Z</time>
      </trkpt>
      <trkpt lat="42.68548" lon="1.50107">
        <ele>1651.6823730469</ele>
        <time>2010-07-14T07:37:31Z</time>
      </trkpt>
      <trkpt lat="42.68543" lon="1.50098">
        <ele>1653.1242675781</ele>
        <time>2010-07-14T07:37:38Z</time>
      </trkpt>
      <trkpt lat="42.68541" lon="1.50095">
        <ele>1653.1242675781</ele>
        <time>2010-07-14T07:37:41Z</time>
      </trkpt>
      <trkpt lat="42.68535" lon="1.50092">
        <ele>1653.6049804688</ele>
        <time>2010-07-14T07:37:46Z</time>
      </trkpt>
      <trkpt lat="42.68527" lon="1.50087">
        <ele>1653.1242675781</ele>
        <time>2010-07-14T07:37:53Z</time>
      </trkpt>
      <trkpt lat="42.68524" lon="1.50086">
        <ele>1653.1242675781</ele>
        <time>2010-07-14T07:37:56Z</time>
      </trkpt>
      <trkpt lat="42.68513" lon="1.50081">
        <ele>1652.1628417969</ele>
        <time>2010-07-14T07:38:05Z</time>
      </trkpt>
      <trkpt lat="42.68503" lon="1.5008">
        <ele>1652.1628417969</ele>
        <time>2010-07-14T07:38:13Z</time>
      </trkpt>
      <trkpt lat="42.68495" lon="1.50078">
        <ele>1652.1628417969</ele>
        <time>2010-07-14T07:38:20Z</time>
      </trkpt>
      <trkpt lat="42.68493" lon="1.50077">
        <ele>1651.6823730469</ele>
        <time>2010-07-14T07:38:23Z</time>
      </trkpt>
      <trkpt lat="42.68486" lon="1.50075">
        <ele>1652.1628417969</ele>
        <time>2010-07-14T07:38:29Z</time>
      </trkpt>
      <trkpt lat="42.68482" lon="1.5007">
        <ele>1651.2016601562</ele>
        <time>2010-07-14T07:38:35Z</time>
      </trkpt>
      <trkpt lat="42.68477" lon="1.50064">
        <ele>1650.2404785156</ele>
        <time>2010-07-14T07:38:41Z</time>
      </trkpt>
      <trkpt lat="42.68475" lon="1.50061">
        <ele>1651.2016601562</ele>
        <time>2010-07-14T07:38:46Z</time>
      </trkpt>
      <trkpt lat="42.68474" lon="1.50062">
        <ele>1653.6049804688</ele>
        <time>2010-07-14T07:38:50Z</time>
      </trkpt>
      <trkpt lat="42.68471" lon="1.50059">
        <ele>1656.0080566406</ele>
        <time>2010-07-14T07:38:55Z</time>
      </trkpt>
      <trkpt lat="42.68468" lon="1.50058">
        <ele>1659.3728027344</ele>
        <time>2010-07-14T07:39:05Z</time>
      </trkpt>
      <trkpt lat="42.68468" lon="1.50056">
        <ele>1659.8532714844</ele>
        <time>2010-07-14T07:39:09Z</time>
      </trkpt>
      <trkpt lat="42.68467" lon="1.50047">
        <ele>1662.7375488281</ele>
        <time>2010-07-14T07:39:24Z</time>
      </trkpt>
      <trkpt lat="42.68465" lon="1.50044">
        <ele>1663.2182617188</ele>
        <time>2010-07-14T07:39:29Z</time>
      </trkpt>
      <trkpt lat="42.68463" lon="1.50041">
        <ele>1665.6215820312</ele>
        <time>2010-07-14T07:39:32Z</time>
      </trkpt>
      <trkpt lat="42.68461" lon="1.50038">
        <ele>1666.5827636719</ele>
        <time>2010-07-14T07:39:36Z</time>
      </trkpt>
      <trkpt lat="42.68461" lon="1.50032">
        <ele>1668.0246582031</ele>
        <time>2010-07-14T07:39:43Z</time>
      </trkpt>
      <trkpt lat="42.68463" lon="1.50027">
        <ele>1667.0634765625</ele>
        <time>2010-07-14T07:39:50Z</time>
      </trkpt>
      <trkpt lat="42.68464" lon="1.50023">
        <ele>1666.5827636719</ele>
        <time>2010-07-14T07:39:54Z</time>
      </trkpt>
      <trkpt lat="42.68464" lon="1.50018">
        <ele>1666.1020507812</ele>
        <time>2010-07-14T07:39:58Z</time>
      </trkpt>
      <trkpt lat="42.68464" lon="1.50015">
        <ele>1665.6215820312</ele>
        <time>2010-07-14T07:40:00Z</time>
      </trkpt>
      <trkpt lat="42.6846" lon="1.50007">
        <ele>1662.7375488281</ele>
        <time>2010-07-14T07:40:05Z</time>
      </trkpt>
      <trkpt lat="42.68459" lon="1.50003">
        <ele>1662.7375488281</ele>
        <time>2010-07-14T07:40:07Z</time>
      </trkpt>
      <trkpt lat="42.68457" lon="1.49993">
        <ele>1662.2568359375</ele>
        <time>2010-07-14T07:40:13Z</time>
      </trkpt>
      <trkpt lat="42.68452" lon="1.49986">
        <ele>1661.2956542969</ele>
        <time>2010-07-14T07:40:20Z</time>
      </trkpt>
      <trkpt lat="42.68451" lon="1.49983">
        <ele>1661.2956542969</ele>
        <time>2010-07-14T07:40:22Z</time>
      </trkpt>
      <trkpt lat="42.68447" lon="1.49981">
        <ele>1660.3342285156</ele>
        <time>2010-07-14T07:40:25Z</time>
      </trkpt>
      <trkpt lat="42.68439" lon="1.4998">
        <ele>1660.3342285156</ele>
        <time>2010-07-14T07:40:32Z</time>
      </trkpt>
      <trkpt lat="42.68434" lon="1.49976">
        <ele>1659.8532714844</ele>
        <time>2010-07-14T07:40:39Z</time>
      </trkpt>
      <trkpt lat="42.6843" lon="1.49974">
        <ele>1660.8149414062</ele>
        <time>2010-07-14T07:40:43Z</time>
      </trkpt>
      <trkpt lat="42.68428" lon="1.49972">
        <ele>1660.3342285156</ele>
        <time>2010-07-14T07:40:48Z</time>
      </trkpt>
      <trkpt lat="42.68427" lon="1.49969">
        <ele>1659.3728027344</ele>
        <time>2010-07-14T07:40:53Z</time>
      </trkpt>
      <trkpt lat="42.68427" lon="1.49966">
        <ele>1658.4113769531</ele>
        <time>2010-07-14T07:41:00Z</time>
      </trkpt>
      <trkpt lat="42.68427" lon="1.49963">
        <ele>1657.9309082031</ele>
        <time>2010-07-14T07:41:05Z</time>
      </trkpt>
      <trkpt lat="42.68426" lon="1.4996">
        <ele>1657.9309082031</ele>
        <time>2010-07-14T07:41:09Z</time>
      </trkpt>
      <trkpt lat="42.68427" lon="1.49956">
        <ele>1657.4501953125</ele>
        <time>2010-07-14T07:41:15Z</time>
      </trkpt>
      <trkpt lat="42.68427" lon="1.49952">
        <ele>1658.8920898438</ele>
        <time>2010-07-14T07:41:38Z</time>
      </trkpt>
      <trkpt lat="42.68427" lon="1.49946">
        <ele>1659.3728027344</ele>
        <time>2010-07-14T07:41:44Z</time>
      </trkpt>
      <trkpt lat="42.68425" lon="1.4994">
        <ele>1660.8149414062</ele>
        <time>2010-07-14T07:41:50Z</time>
      </trkpt>
      <trkpt lat="42.68425" lon="1.49933">
        <ele>1660.8149414062</ele>
        <time>2010-07-14T07:41:55Z</time>
      </trkpt>
      <trkpt lat="42.68426" lon="1.49926">
        <ele>1662.2568359375</ele>
        <time>2010-07-14T07:42:02Z</time>
      </trkpt>
      <trkpt lat="42.68428" lon="1.49923">
        <ele>1663.6987304688</ele>
        <time>2010-07-14T07:42:07Z</time>
      </trkpt>
      <trkpt lat="42.68427" lon="1.49918">
        <ele>1664.66015625</ele>
        <time>2010-07-14T07:42:13Z</time>
      </trkpt>
      <trkpt lat="42.68424" lon="1.49916">
        <ele>1666.1020507812</ele>
        <time>2010-07-14T07:42:17Z</time>
      </trkpt>
      <trkpt lat="42.68422" lon="1.49914">
        <ele>1666.1020507812</ele>
        <time>2010-07-14T07:42:21Z</time>
      </trkpt>
      <trkpt lat="42.68419" lon="1.49908">
        <ele>1667.5439453125</ele>
        <time>2010-07-14T07:42:27Z</time>
      </trkpt>
      <trkpt lat="42.68415" lon="1.49906">
        <ele>1667.5439453125</ele>
        <time>2010-07-14T07:42:31Z</time>
      </trkpt>
      <trkpt lat="42.6841" lon="1.49901">
        <ele>1668.5053710938</ele>
        <time>2010-07-14T07:42:37Z</time>
      </trkpt>
      <trkpt lat="42.68409" lon="1.49897">
        <ele>1668.5053710938</ele>
        <time>2010-07-14T07:42:40Z</time>
      </trkpt>
      <trkpt lat="42.68405" lon="1.4989">
        <ele>1670.4279785156</ele>
        <time>2010-07-14T07:42:47Z</time>
      </trkpt>
      <trkpt lat="42.68403" lon="1.49887">
        <ele>1671.3891601562</ele>
        <time>2010-07-14T07:42:52Z</time>
      </trkpt>
      <trkpt lat="42.68401" lon="1.49884">
        <ele>1672.3505859375</ele>
        <time>2010-07-14T07:42:56Z</time>
      </trkpt>
      <trkpt lat="42.68401" lon="1.49877">
        <ele>1671.3891601562</ele>
        <time>2010-07-14T07:43:01Z</time>
      </trkpt>
      <trkpt lat="42.68401" lon="1.49874">
        <ele>1670.9086914062</ele>
        <time>2010-07-14T07:43:03Z</time>
      </trkpt>
      <trkpt lat="42.68401" lon="1.49868">
        <ele>1669.947265625</ele>
        <time>2010-07-14T07:43:07Z</time>
      </trkpt>
      <trkpt lat="42.684" lon="1.49863">
        <ele>1669.466796875</ele>
        <time>2010-07-14T07:43:11Z</time>
      </trkpt>
      <trkpt lat="42.68401" lon="1.4986">
        <ele>1668.9860839844</ele>
        <time>2010-07-14T07:43:14Z</time>
      </trkpt>
      <trkpt lat="42.68402" lon="1.49856">
        <ele>1668.9860839844</ele>
        <time>2010-07-14T07:43:19Z</time>
      </trkpt>
      <trkpt lat="42.68399" lon="1.49852">
        <ele>1666.5827636719</ele>
        <time>2010-07-14T07:43:26Z</time>
      </trkpt>
      <trkpt lat="42.684" lon="1.49849">
        <ele>1665.1408691406</ele>
        <time>2010-07-14T07:43:30Z</time>
      </trkpt>
      <trkpt lat="42.68398" lon="1.49845">
        <ele>1663.6987304688</ele>
        <time>2010-07-14T07:43:35Z</time>
      </trkpt>
      <trkpt lat="42.68396" lon="1.49841">
        <ele>1662.2568359375</ele>
        <time>2010-07-14T07:43:41Z</time>
      </trkpt>
      <trkpt lat="42.68391" lon="1.49838">
        <ele>1660.8149414062</ele>
        <time>2010-07-14T07:43:47Z</time>
      </trkpt>
      <trkpt lat="42.68387" lon="1.49836">
        <ele>1659.3728027344</ele>
        <time>2010-07-14T07:43:52Z</time>
      </trkpt>
      <trkpt lat="42.68385" lon="1.49835">
        <ele>1658.8920898438</ele>
        <time>2010-07-14T07:43:54Z</time>
      </trkpt>
      <trkpt lat="42.68379" lon="1.4983">
        <ele>1657.9309082031</ele>
        <time>2010-07-14T07:44:00Z</time>
      </trkpt>
      <trkpt lat="42.68375" lon="1.49826">
        <ele>1658.4113769531</ele>
        <time>2010-07-14T07:44:05Z</time>
      </trkpt>
      <trkpt lat="42.68372" lon="1.49823">
        <ele>1658.4113769531</ele>
        <time>2010-07-14T07:44:10Z</time>
      </trkpt>
      <trkpt lat="42.68369" lon="1.49819">
        <ele>1659.8532714844</ele>
        <time>2010-07-14T07:44:16Z</time>
      </trkpt>
      <trkpt lat="42.68369" lon="1.49815">
        <ele>1658.8920898438</ele>
        <time>2010-07-14T07:44:21Z</time>
      </trkpt>
      <trkpt lat="42.6837" lon="1.4981">
        <ele>1657.9309082031</ele>
        <time>2010-07-14T07:44:27Z</time>
      </trkpt>
      <trkpt lat="42.68369" lon="1.49807">
        <ele>1658.4113769531</ele>
        <time>2010-07-14T07:44:30Z</time>
      </trkpt>
      <trkpt lat="42.68366" lon="1.49804">
        <ele>1658.4113769531</ele>
        <time>2010-07-14T07:44:34Z</time>
      </trkpt>
      <trkpt lat="42.68364" lon="1.49802">
        <ele>1658.8920898438</ele>
        <time>2010-07-14T07:44:41Z</time>
      </trkpt>
      <trkpt lat="42.68363" lon="1.49797">
        <ele>1659.8532714844</ele>
        <time>2010-07-14T07:44:45Z</time>
      </trkpt>
      <trkpt lat="42.68363" lon="1.49793">
        <ele>1660.3342285156</ele>
        <time>2010-07-14T07:44:51Z</time>
      </trkpt>
      <trkpt lat="42.68361" lon="1.49789">
        <ele>1660.8149414062</ele>
        <time>2010-07-14T07:44:56Z</time>
      </trkpt>
      <trkpt lat="42.68359" lon="1.49788">
        <ele>1660.8149414062</ele>
        <time>2010-07-14T07:45:00Z</time>
      </trkpt>
      <trkpt lat="42.68355" lon="1.49785">
        <ele>1662.2568359375</ele>
        <time>2010-07-14T07:45:05Z</time>
      </trkpt>
      <trkpt lat="42.68349" lon="1.4978">
        <ele>1663.2182617188</ele>
        <time>2010-07-14T07:45:12Z</time>
      </trkpt>
      <trkpt lat="42.68347" lon="1.49777">
        <ele>1663.6987304688</ele>
        <time>2010-07-14T07:45:17Z</time>
      </trkpt>
      <trkpt lat="42.68344" lon="1.49774">
        <ele>1664.66015625</ele>
        <time>2010-07-14T07:45:23Z</time>
      </trkpt>
      <trkpt lat="42.68342" lon="1.49771">
        <ele>1665.1408691406</ele>
        <time>2010-07-14T07:45:29Z</time>
      </trkpt>
      <trkpt lat="42.68338" lon="1.4977">
        <ele>1665.6215820312</ele>
        <time>2010-07-14T07:45:34Z</time>
      </trkpt>
      <trkpt lat="42.68335" lon="1.49767">
        <ele>1666.1020507812</ele>
        <time>2010-07-14T07:45:39Z</time>
      </trkpt>
      <trkpt lat="42.68333" lon="1.49763">
        <ele>1667.5439453125</ele>
        <time>2010-07-14T07:45:45Z</time>
      </trkpt>
      <trkpt lat="42.68329" lon="1.4976">
        <ele>1670.4279785156</ele>
        <time>2010-07-14T07:45:52Z</time>
      </trkpt>
      <trkpt lat="42.68324" lon="1.49759">
        <ele>1671.3891601562</ele>
        <time>2010-07-14T07:45:59Z</time>
      </trkpt>
      <trkpt lat="42.68322" lon="1.49761">
        <ele>1672.8312988281</ele>
        <time>2010-07-14T07:46:05Z</time>
      </trkpt>
      <trkpt lat="42.6832" lon="1.49762">
        <ele>1674.75390625</ele>
        <time>2010-07-14T07:46:10Z</time>
      </trkpt>
      <trkpt lat="42.68319" lon="1.49764">
        <ele>1677.1574707031</ele>
        <time>2010-07-14T07:46:14Z</time>
      </trkpt>
      <trkpt lat="42.68315" lon="1.49767">
        <ele>1679.560546875</ele>
        <time>2010-07-14T07:46:20Z</time>
      </trkpt>
      <trkpt lat="42.6831" lon="1.49767">
        <ele>1679.560546875</ele>
        <time>2010-07-14T07:46:25Z</time>
      </trkpt>
      <trkpt lat="42.68307" lon="1.49764">
        <ele>1680.0412597656</ele>
        <time>2010-07-14T07:46:29Z</time>
      </trkpt>
      <trkpt lat="42.68304" lon="1.49763">
        <ele>1682.9250488281</ele>
        <time>2010-07-14T07:46:33Z</time>
      </trkpt>
      <trkpt lat="42.68301" lon="1.49761">
        <ele>1686.2897949219</ele>
        <time>2010-07-14T07:46:38Z</time>
      </trkpt>
      <trkpt lat="42.68299" lon="1.49758">
        <ele>1686.2897949219</ele>
        <time>2010-07-14T07:46:43Z</time>
      </trkpt>
      <trkpt lat="42.68293" lon="1.49755">
        <ele>1683.8864746094</ele>
        <time>2010-07-14T07:46:49Z</time>
      </trkpt>
      <trkpt lat="42.68288" lon="1.49751">
        <ele>1685.8090820312</ele>
        <time>2010-07-14T07:46:58Z</time>
      </trkpt>
      <trkpt lat="42.68286" lon="1.4975">
        <ele>1686.7702636719</ele>
        <time>2010-07-14T07:47:01Z</time>
      </trkpt>
      <trkpt lat="42.68287" lon="1.49745">
        <ele>1694.9416503906</ele>
        <time>2010-07-14T07:47:06Z</time>
      </trkpt>
      <trkpt lat="42.68285" lon="1.49742">
        <ele>1698.3061523438</ele>
        <time>2010-07-14T07:47:10Z</time>
      </trkpt>
      <trkpt lat="42.68279" lon="1.49739">
        <ele>1701.6708984375</ele>
        <time>2010-07-14T07:47:20Z</time>
      </trkpt>
      <trkpt lat="42.68276" lon="1.49736">
        <ele>1701.6708984375</ele>
        <time>2010-07-14T07:47:25Z</time>
      </trkpt>
      <trkpt lat="42.68272" lon="1.49736">
        <ele>1702.1513671875</ele>
        <time>2010-07-14T07:47:29Z</time>
      </trkpt>
      <trkpt lat="42.68268" lon="1.49733">
        <ele>1702.1513671875</ele>
        <time>2010-07-14T07:47:34Z</time>
      </trkpt>
      <trkpt lat="42.68265" lon="1.49733">
        <ele>1702.1513671875</ele>
        <time>2010-07-14T07:47:38Z</time>
      </trkpt>
      <trkpt lat="42.68262" lon="1.49731">
        <ele>1702.1513671875</ele>
        <time>2010-07-14T07:47:42Z</time>
      </trkpt>
      <trkpt lat="42.68256" lon="1.4973">
        <ele>1701.6708984375</ele>
        <time>2010-07-14T07:47:49Z</time>
      </trkpt>
      <trkpt lat="42.68251" lon="1.49728">
        <ele>1701.6708984375</ele>
        <time>2010-07-14T07:47:54Z</time>
      </trkpt>
      <trkpt lat="42.68247" lon="1.49728">
        <ele>1701.1901855469</ele>
        <time>2010-07-14T07:48:01Z</time>
      </trkpt>
      <trkpt lat="42.68243" lon="1.49726">
        <ele>1701.1901855469</ele>
        <time>2010-07-14T07:48:06Z</time>
      </trkpt>
      <trkpt lat="42.68238" lon="1.49724">
        <ele>1700.7094726562</ele>
        <time>2010-07-14T07:48:10Z</time>
      </trkpt>
      <trkpt lat="42.68229" lon="1.49717">
        <ele>1700.2290039062</ele>
        <time>2010-07-14T07:48:17Z</time>
      </trkpt>
      <trkpt lat="42.68229" lon="1.49714">
        <ele>1700.2290039062</ele>
        <time>2010-07-14T07:48:23Z</time>
      </trkpt>
      <trkpt lat="42.68228" lon="1.49716">
        <ele>1698.7868652344</ele>
        <time>2010-07-14T07:48:34Z</time>
      </trkpt>
      <trkpt lat="42.68224" lon="1.49715">
        <ele>1698.3061523438</ele>
        <time>2010-07-14T07:48:39Z</time>
      </trkpt>
      <trkpt lat="42.68218" lon="1.49717">
        <ele>1697.3449707031</ele>
        <time>2010-07-14T07:48:49Z</time>
      </trkpt>
      <trkpt lat="42.68214" lon="1.49723">
        <ele>1696.3837890625</ele>
        <time>2010-07-14T07:48:55Z</time>
      </trkpt>
      <trkpt lat="42.68211" lon="1.49727">
        <ele>1695.9030761719</ele>
        <time>2010-07-14T07:49:01Z</time>
      </trkpt>
      <trkpt lat="42.68209" lon="1.4973">
        <ele>1695.4223632812</ele>
        <time>2010-07-14T07:49:07Z</time>
      </trkpt>
      <trkpt lat="42.68207" lon="1.49734">
        <ele>1694.9416503906</ele>
        <time>2010-07-14T07:49:12Z</time>
      </trkpt>
      <trkpt lat="42.68206" lon="1.49738">
        <ele>1694.4609375</ele>
        <time>2010-07-14T07:49:16Z</time>
      </trkpt>
      <trkpt lat="42.68204" lon="1.49743">
        <ele>1693.98046875</ele>
        <time>2010-07-14T07:49:21Z</time>
      </trkpt>
      <trkpt lat="42.68201" lon="1.49748">
        <ele>1693.4997558594</ele>
        <time>2010-07-14T07:49:27Z</time>
      </trkpt>
      <trkpt lat="42.682" lon="1.49752">
        <ele>1693.4997558594</ele>
        <time>2010-07-14T07:49:33Z</time>
      </trkpt>
      <trkpt lat="42.68198" lon="1.49754">
        <ele>1693.0190429688</ele>
        <time>2010-07-14T07:49:37Z</time>
      </trkpt>
      <trkpt lat="42.68197" lon="1.49758">
        <ele>1693.0190429688</ele>
        <time>2010-07-14T07:49:41Z</time>
      </trkpt>
      <trkpt lat="42.68194" lon="1.49764">
        <ele>1693.0190429688</ele>
        <time>2010-07-14T07:49:49Z</time>
      </trkpt>
      <trkpt lat="42.6819" lon="1.49764">
        <ele>1693.0190429688</ele>
        <time>2010-07-14T07:49:55Z</time>
      </trkpt>
      <trkpt lat="42.68187" lon="1.49763">
        <ele>1692.5385742188</ele>
        <time>2010-07-14T07:50:00Z</time>
      </trkpt>
      <trkpt lat="42.68184" lon="1.49761">
        <ele>1693.0190429688</ele>
        <time>2010-07-14T07:50:05Z</time>
      </trkpt>
      <trkpt lat="42.68179" lon="1.49758">
        <ele>1693.4997558594</ele>
        <time>2010-07-14T07:50:13Z</time>
      </trkpt>
      <trkpt lat="42.68177" lon="1.49755">
        <ele>1693.4997558594</ele>
        <time>2010-07-14T07:50:17Z</time>
      </trkpt>
      <trkpt lat="42.68175" lon="1.49754">
        <ele>1693.4997558594</ele>
        <time>2010-07-14T07:50:21Z</time>
      </trkpt>
      <trkpt lat="42.68172" lon="1.49751">
        <ele>1693.4997558594</ele>
        <time>2010-07-14T07:50:26Z</time>
      </trkpt>
      <trkpt lat="42.68169" lon="1.4975">
        <ele>1693.4997558594</ele>
        <time>2010-07-14T07:50:31Z</time>
      </trkpt>
      <trkpt lat="42.68163" lon="1.49751">
        <ele>1693.4997558594</ele>
        <time>2010-07-14T07:50:41Z</time>
      </trkpt>
      <trkpt lat="42.68161" lon="1.49748">
        <ele>1693.4997558594</ele>
        <time>2010-07-14T07:50:45Z</time>
      </trkpt>
      <trkpt lat="42.68157" lon="1.49747">
        <ele>1694.9416503906</ele>
        <time>2010-07-14T07:50:55Z</time>
      </trkpt>
      <trkpt lat="42.68153" lon="1.49747">
        <ele>1696.3837890625</ele>
        <time>2010-07-14T07:51:04Z</time>
      </trkpt>
      <trkpt lat="42.6815" lon="1.49748">
        <ele>1697.3449707031</ele>
        <time>2010-07-14T07:51:12Z</time>
      </trkpt>
      <trkpt lat="42.68147" lon="1.49753">
        <ele>1698.7868652344</ele>
        <time>2010-07-14T07:51:23Z</time>
      </trkpt>
      <trkpt lat="42.68145" lon="1.49757">
        <ele>1699.7482910156</ele>
        <time>2010-07-14T07:51:29Z</time>
      </trkpt>
      <trkpt lat="42.68142" lon="1.49755">
        <ele>1700.2290039062</ele>
        <time>2010-07-14T07:51:33Z</time>
      </trkpt>
      <trkpt lat="42.68141" lon="1.49761">
        <ele>1701.6708984375</ele>
        <time>2010-07-14T07:51:44Z</time>
      </trkpt>
      <trkpt lat="42.68137" lon="1.49765">
        <ele>1702.1513671875</ele>
        <time>2010-07-14T07:51:51Z</time>
      </trkpt>
      <trkpt lat="42.68134" lon="1.49765">
        <ele>1703.1127929688</ele>
        <time>2010-07-14T07:51:57Z</time>
      </trkpt>
      <trkpt lat="42.68132" lon="1.49771">
        <ele>1703.5935058594</ele>
        <time>2010-07-14T07:52:04Z</time>
      </trkpt>
      <trkpt lat="42.6813" lon="1.49771">
        <ele>1703.5935058594</ele>
        <time>2010-07-14T07:52:08Z</time>
      </trkpt>
      <trkpt lat="42.68126" lon="1.49771">
        <ele>1705.5161132812</ele>
        <time>2010-07-14T07:52:22Z</time>
      </trkpt>
      <trkpt lat="42.68123" lon="1.49769">
        <ele>1705.9965820312</ele>
        <time>2010-07-14T07:52:26Z</time>
      </trkpt>
      <trkpt lat="42.68121" lon="1.49767">
        <ele>1706.4772949219</ele>
        <time>2010-07-14T07:52:30Z</time>
      </trkpt>
      <trkpt lat="42.68118" lon="1.49762">
        <ele>1707.4387207031</ele>
        <time>2010-07-14T07:52:38Z</time>
      </trkpt>
      <trkpt lat="42.68115" lon="1.49766">
        <ele>1708.880859375</ele>
        <time>2010-07-14T07:52:46Z</time>
      </trkpt>
      <trkpt lat="42.68115" lon="1.49771">
        <ele>1709.8420410156</ele>
        <time>2010-07-14T07:52:50Z</time>
      </trkpt>
      <trkpt lat="42.68115" lon="1.49775">
        <ele>1709.8420410156</ele>
        <time>2010-07-14T07:52:54Z</time>
      </trkpt>
      <trkpt lat="42.68114" lon="1.49779">
        <ele>1709.8420410156</ele>
        <time>2010-07-14T07:52:58Z</time>
      </trkpt>
      <trkpt lat="42.68112" lon="1.4978">
        <ele>1710.3227539062</ele>
        <time>2010-07-14T07:53:02Z</time>
      </trkpt>
      <trkpt lat="42.68109" lon="1.49779">
        <ele>1710.8034667969</ele>
        <time>2010-07-14T07:53:08Z</time>
      </trkpt>
      <trkpt lat="42.68106" lon="1.49776">
        <ele>1711.2841796875</ele>
        <time>2010-07-14T07:53:15Z</time>
      </trkpt>
      <trkpt lat="42.68105" lon="1.49774">
        <ele>1711.2841796875</ele>
        <time>2010-07-14T07:53:18Z</time>
      </trkpt>
      <trkpt lat="42.68098" lon="1.49779">
        <ele>1716.5712890625</ele>
        <time>2010-07-14T07:53:42Z</time>
      </trkpt>
      <trkpt lat="42.68097" lon="1.49784">
        <ele>1717.5324707031</ele>
        <time>2010-07-14T07:53:47Z</time>
      </trkpt>
      <trkpt lat="42.68094" lon="1.49784">
        <ele>1718.4938964844</ele>
        <time>2010-07-14T07:53:51Z</time>
      </trkpt>
      <trkpt lat="42.68092" lon="1.49778">
        <ele>1719.4553222656</ele>
        <time>2010-07-14T07:53:58Z</time>
      </trkpt>
      <trkpt lat="42.6809" lon="1.49774">
        <ele>1720.4165039062</ele>
        <time>2010-07-14T07:54:04Z</time>
      </trkpt>
      <trkpt lat="42.68089" lon="1.49774">
        <ele>1720.8972167969</ele>
        <time>2010-07-14T07:54:10Z</time>
      </trkpt>
      <trkpt lat="42.68087" lon="1.49778">
        <ele>1721.8583984375</ele>
        <time>2010-07-14T07:54:15Z</time>
      </trkpt>
      <trkpt lat="42.68085" lon="1.49782">
        <ele>1722.3391113281</ele>
        <time>2010-07-14T07:54:20Z</time>
      </trkpt>
      <trkpt lat="42.68084" lon="1.49786">
        <ele>1722.8198242188</ele>
        <time>2010-07-14T07:54:24Z</time>
      </trkpt>
      <trkpt lat="42.68082" lon="1.49788">
        <ele>1723.7810058594</ele>
        <time>2010-07-14T07:54:30Z</time>
      </trkpt>
      <trkpt lat="42.68079" lon="1.49784">
        <ele>1724.2619628906</ele>
        <time>2010-07-14T07:54:35Z</time>
      </trkpt>
      <trkpt lat="42.68074" lon="1.4978">
        <ele>1728.1071777344</ele>
        <time>2010-07-14T07:54:54Z</time>
      </trkpt>
      <trkpt lat="42.68072" lon="1.49784">
        <ele>1728.587890625</ele>
        <time>2010-07-14T07:54:58Z</time>
      </trkpt>
      <trkpt lat="42.6807" lon="1.49788">
        <ele>1729.5490722656</ele>
        <time>2010-07-14T07:55:05Z</time>
      </trkpt>
      <trkpt lat="42.68068" lon="1.49792">
        <ele>1730.5104980469</ele>
        <time>2010-07-14T07:55:12Z</time>
      </trkpt>
      <trkpt lat="42.68065" lon="1.49793">
        <ele>1731.4716796875</ele>
        <time>2010-07-14T07:55:18Z</time>
      </trkpt>
      <trkpt lat="42.68064" lon="1.4979">
        <ele>1731.9523925781</ele>
        <time>2010-07-14T07:55:22Z</time>
      </trkpt>
      <trkpt lat="42.68063" lon="1.49787">
        <ele>1733.3942871094</ele>
        <time>2010-07-14T07:55:26Z</time>
      </trkpt>
      <trkpt lat="42.68063" lon="1.49782">
        <ele>1734.3557128906</ele>
        <time>2010-07-14T07:55:31Z</time>
      </trkpt>
      <trkpt lat="42.6806" lon="1.49786">
        <ele>1735.7976074219</ele>
        <time>2010-07-14T07:55:40Z</time>
      </trkpt>
      <trkpt lat="42.68056" lon="1.49794">
        <ele>1736.2783203125</ele>
        <time>2010-07-14T07:55:49Z</time>
      </trkpt>
      <trkpt lat="42.68055" lon="1.49798">
        <ele>1736.7587890625</ele>
        <time>2010-07-14T07:55:53Z</time>
      </trkpt>
      <trkpt lat="42.68053" lon="1.49799">
        <ele>1737.7202148438</ele>
        <time>2010-07-14T07:55:58Z</time>
      </trkpt>
      <trkpt lat="42.6805" lon="1.49793">
        <ele>1740.1237792969</ele>
        <time>2010-07-14T07:56:10Z</time>
      </trkpt>
      <trkpt lat="42.68051" lon="1.49786">
        <ele>1741.5656738281</ele>
        <time>2010-07-14T07:56:16Z</time>
      </trkpt>
      <trkpt lat="42.68052" lon="1.4978">
        <ele>1743.0075683594</ele>
        <time>2010-07-14T07:56:22Z</time>
      </trkpt>
      <trkpt lat="42.68048" lon="1.49785">
        <ele>1744.9301757812</ele>
        <time>2010-07-14T07:56:31Z</time>
      </trkpt>
      <trkpt lat="42.68044" lon="1.49791">
        <ele>1747.8142089844</ele>
        <time>2010-07-14T07:56:43Z</time>
      </trkpt>
      <trkpt lat="42.68041" lon="1.49795">
        <ele>1749.2561035156</ele>
        <time>2010-07-14T07:56:50Z</time>
      </trkpt>
      <trkpt lat="42.68036" lon="1.49792">
        <ele>1754.5432128906</ele>
        <time>2010-07-14T07:57:13Z</time>
      </trkpt>
      <trkpt lat="42.68034" lon="1.49785">
        <ele>1756.9467773438</ele>
        <time>2010-07-14T07:57:23Z</time>
      </trkpt>
      <trkpt lat="42.68036" lon="1.49779">
        <ele>1758.388671875</ele>
        <time>2010-07-14T07:57:28Z</time>
      </trkpt>
      <trkpt lat="42.68036" lon="1.49777">
        <ele>1758.8693847656</ele>
        <time>2010-07-14T07:57:33Z</time>
      </trkpt>
      <trkpt lat="42.68032" lon="1.4978">
        <ele>1761.2727050781</ele>
        <time>2010-07-14T07:57:43Z</time>
      </trkpt>
      <trkpt lat="42.68031" lon="1.49783">
        <ele>1761.7534179688</ele>
        <time>2010-07-14T07:57:47Z</time>
      </trkpt>
      <trkpt lat="42.68028" lon="1.49785">
        <ele>1764.1564941406</ele>
        <time>2010-07-14T07:57:53Z</time>
      </trkpt>
      <trkpt lat="42.68022" lon="1.49794">
        <ele>1769.4438476562</ele>
        <time>2010-07-14T07:58:14Z</time>
      </trkpt>
      <trkpt lat="42.6802" lon="1.49793">
        <ele>1770.4050292969</ele>
        <time>2010-07-14T07:58:18Z</time>
      </trkpt>
      <trkpt lat="42.68021" lon="1.49785">
        <ele>1772.3278808594</ele>
        <time>2010-07-14T07:58:26Z</time>
      </trkpt>
      <trkpt lat="42.68021" lon="1.49781">
        <ele>1772.3278808594</ele>
        <time>2010-07-14T07:58:30Z</time>
      </trkpt>
      <trkpt lat="42.68021" lon="1.49776">
        <ele>1773.7697753906</ele>
        <time>2010-07-14T07:58:35Z</time>
      </trkpt>
      <trkpt lat="42.68023" lon="1.49767">
        <ele>1775.6923828125</ele>
        <time>2010-07-14T07:58:44Z</time>
      </trkpt>
      <trkpt lat="42.6802" lon="1.49766">
        <ele>1780.4990234375</ele>
        <time>2010-07-14T07:59:03Z</time>
      </trkpt>
      <trkpt lat="42.68018" lon="1.4977">
        <ele>1781.9409179688</ele>
        <time>2010-07-14T07:59:08Z</time>
      </trkpt>
      <trkpt lat="42.68016" lon="1.49774">
        <ele>1782.9020996094</ele>
        <time>2010-07-14T07:59:12Z</time>
      </trkpt>
      <trkpt lat="42.68013" lon="1.49775">
        <ele>1781.4602050781</ele>
        <time>2010-07-14T07:59:18Z</time>
      </trkpt>
      <trkpt lat="42.68011" lon="1.49776">
        <ele>1781.4602050781</ele>
        <time>2010-07-14T07:59:24Z</time>
      </trkpt>
      <trkpt lat="42.68009" lon="1.49781">
        <ele>1781.4602050781</ele>
        <time>2010-07-14T07:59:28Z</time>
      </trkpt>
      <trkpt lat="42.68007" lon="1.49784">
        <ele>1781.9409179688</ele>
        <time>2010-07-14T07:59:33Z</time>
      </trkpt>
      <trkpt lat="42.68005" lon="1.49786">
        <ele>1782.4216308594</ele>
        <time>2010-07-14T07:59:37Z</time>
      </trkpt>
      <trkpt lat="42.68003" lon="1.49789">
        <ele>1782.9020996094</ele>
        <time>2010-07-14T07:59:41Z</time>
      </trkpt>
      <trkpt lat="42.68001" lon="1.49793">
        <ele>1783.8635253906</ele>
        <time>2010-07-14T07:59:47Z</time>
      </trkpt>
      <trkpt lat="42.67998" lon="1.49801">
        <ele>1786.2668457031</ele>
        <time>2010-07-14T08:00:00Z</time>
      </trkpt>
      <trkpt lat="42.67995" lon="1.49804">
        <ele>1787.2280273438</ele>
        <time>2010-07-14T08:00:06Z</time>
      </trkpt>
      <trkpt lat="42.67995" lon="1.49799">
        <ele>1788.6704101562</ele>
        <time>2010-07-14T08:00:11Z</time>
      </trkpt>
      <trkpt lat="42.67996" lon="1.49794">
        <ele>1789.6315917969</ele>
        <time>2010-07-14T08:00:15Z</time>
      </trkpt>
      <trkpt lat="42.67997" lon="1.49788">
        <ele>1791.0734863281</ele>
        <time>2010-07-14T08:00:20Z</time>
      </trkpt>
      <trkpt lat="42.67998" lon="1.49782">
        <ele>1792.99609375</ele>
        <time>2010-07-14T08:00:26Z</time>
      </trkpt>
      <trkpt lat="42.68" lon="1.49772">
        <ele>1794.9187011719</ele>
        <time>2010-07-14T08:00:37Z</time>
      </trkpt>
      <trkpt lat="42.68" lon="1.49768">
        <ele>1796.8413085938</ele>
        <time>2010-07-14T08:00:42Z</time>
      </trkpt>
      <trkpt lat="42.67997" lon="1.49769">
        <ele>1799.2446289062</ele>
        <time>2010-07-14T08:00:56Z</time>
      </trkpt>
      <trkpt lat="42.67995" lon="1.49773">
        <ele>1799.7253417969</ele>
        <time>2010-07-14T08:01:00Z</time>
      </trkpt>
      <trkpt lat="42.67994" lon="1.49773">
        <ele>1800.6865234375</ele>
        <time>2010-07-14T08:01:04Z</time>
      </trkpt>
      <trkpt lat="42.67995" lon="1.49765">
        <ele>1803.08984375</ele>
        <time>2010-07-14T08:01:13Z</time>
      </trkpt>
      <trkpt lat="42.67994" lon="1.49764">
        <ele>1804.5319824219</ele>
        <time>2010-07-14T08:01:19Z</time>
      </trkpt>
      <trkpt lat="42.67993" lon="1.49768">
        <ele>1805.4934082031</ele>
        <time>2010-07-14T08:01:26Z</time>
      </trkpt>
      <trkpt lat="42.67988" lon="1.49776">
        <ele>1808.3771972656</ele>
        <time>2010-07-14T08:01:42Z</time>
      </trkpt>
      <trkpt lat="42.67986" lon="1.49779">
        <ele>1808.8579101562</ele>
        <time>2010-07-14T08:01:46Z</time>
      </trkpt>
      <trkpt lat="42.67983" lon="1.49785">
        <ele>1810.2998046875</ele>
        <time>2010-07-14T08:01:55Z</time>
      </trkpt>
      <trkpt lat="42.67981" lon="1.49783">
        <ele>1811.7419433594</ele>
        <time>2010-07-14T08:02:00Z</time>
      </trkpt>
      <trkpt lat="42.67981" lon="1.49779">
        <ele>1812.2224121094</ele>
        <time>2010-07-14T08:02:04Z</time>
      </trkpt>
      <trkpt lat="42.67981" lon="1.49775">
        <ele>1813.6643066406</ele>
        <time>2010-07-14T08:02:08Z</time>
      </trkpt>
      <trkpt lat="42.67981" lon="1.49771">
        <ele>1814.6257324219</ele>
        <time>2010-07-14T08:02:13Z</time>
      </trkpt>
      <trkpt lat="42.67974" lon="1.49773">
        <ele>1817.990234375</ele>
        <time>2010-07-14T08:02:31Z</time>
      </trkpt>
      <trkpt lat="42.67969" lon="1.49778">
        <ele>1820.8745117188</ele>
        <time>2010-07-14T08:02:48Z</time>
      </trkpt>
      <trkpt lat="42.67964" lon="1.49778">
        <ele>1827.123046875</ele>
        <time>2010-07-14T08:03:13Z</time>
      </trkpt>
      <trkpt lat="42.67962" lon="1.49785">
        <ele>1828.5649414062</ele>
        <time>2010-07-14T08:03:20Z</time>
      </trkpt>
      <trkpt lat="42.67961" lon="1.49789">
        <ele>1829.0454101562</ele>
        <time>2010-07-14T08:03:24Z</time>
      </trkpt>
      <trkpt lat="42.67961" lon="1.49792">
        <ele>1829.5261230469</ele>
        <time>2010-07-14T08:03:27Z</time>
      </trkpt>
      <trkpt lat="42.67959" lon="1.49795">
        <ele>1830.9682617188</ele>
        <time>2010-07-14T08:03:31Z</time>
      </trkpt>
      <trkpt lat="42.67956" lon="1.49788">
        <ele>1833.3713378906</ele>
        <time>2010-07-14T08:03:44Z</time>
      </trkpt>
      <trkpt lat="42.67955" lon="1.49776">
        <ele>1839.6201171875</ele>
        <time>2010-07-14T08:04:04Z</time>
      </trkpt>
      <trkpt lat="42.6795" lon="1.49782">
        <ele>1847.7912597656</ele>
        <time>2010-07-14T08:04:32Z</time>
      </trkpt>
      <trkpt lat="42.67948" lon="1.49784">
        <ele>1849.2331542969</ele>
        <time>2010-07-14T08:04:38Z</time>
      </trkpt>
      <trkpt lat="42.67947" lon="1.49788">
        <ele>1850.6750488281</ele>
        <time>2010-07-14T08:04:42Z</time>
      </trkpt>
      <trkpt lat="42.67944" lon="1.49792">
        <ele>1851.6364746094</ele>
        <time>2010-07-14T08:04:47Z</time>
      </trkpt>
      <trkpt lat="42.67943" lon="1.49783">
        <ele>1855.0012207031</ele>
        <time>2010-07-14T08:05:00Z</time>
      </trkpt>
      <trkpt lat="42.67939" lon="1.49786">
        <ele>1857.8852539062</ele>
        <time>2010-07-14T08:05:14Z</time>
      </trkpt>
      <trkpt lat="42.67937" lon="1.49789">
        <ele>1858.3657226562</ele>
        <time>2010-07-14T08:05:18Z</time>
      </trkpt>
      <trkpt lat="42.67935" lon="1.49791">
        <ele>1859.3271484375</ele>
        <time>2010-07-14T08:05:22Z</time>
      </trkpt>
      <trkpt lat="42.67933" lon="1.49794">
        <ele>1860.2883300781</ele>
        <time>2010-07-14T08:05:26Z</time>
      </trkpt>
      <trkpt lat="42.67928" lon="1.49798">
        <ele>1861.2497558594</ele>
        <time>2010-07-14T08:05:32Z</time>
      </trkpt>
      <trkpt lat="42.67927" lon="1.49801">
        <ele>1861.73046875</ele>
        <time>2010-07-14T08:05:36Z</time>
      </trkpt>
      <trkpt lat="42.67923" lon="1.49804">
        <ele>1862.6916503906</ele>
        <time>2010-07-14T08:05:42Z</time>
      </trkpt>
      <trkpt lat="42.67921" lon="1.49805">
        <ele>1864.1335449219</ele>
        <time>2010-07-14T08:05:46Z</time>
      </trkpt>
      <trkpt lat="42.67916" lon="1.49811">
        <ele>1865.5756835938</ele>
        <time>2010-07-14T08:05:56Z</time>
      </trkpt>
      <trkpt lat="42.67914" lon="1.49813">
        <ele>1866.5368652344</ele>
        <time>2010-07-14T08:06:00Z</time>
      </trkpt>
      <trkpt lat="42.67911" lon="1.49816">
        <ele>1867.9787597656</ele>
        <time>2010-07-14T08:06:06Z</time>
      </trkpt>
      <trkpt lat="42.67902" lon="1.49825">
        <ele>1871.82421875</ele>
        <time>2010-07-14T08:06:27Z</time>
      </trkpt>
      <trkpt lat="42.679" lon="1.49827">
        <ele>1871.82421875</ele>
        <time>2010-07-14T08:06:31Z</time>
      </trkpt>
      <trkpt lat="42.67896" lon="1.4983">
        <ele>1872.3049316406</ele>
        <time>2010-07-14T08:06:37Z</time>
      </trkpt>
      <trkpt lat="42.67893" lon="1.49832">
        <ele>1874.7082519531</ele>
        <time>2010-07-14T08:06:43Z</time>
      </trkpt>
      <trkpt lat="42.67894" lon="1.49828">
        <ele>1877.5920410156</ele>
        <time>2010-07-14T08:06:48Z</time>
      </trkpt>
      <trkpt lat="42.67896" lon="1.49824">
        <ele>1879.9953613281</ele>
        <time>2010-07-14T08:06:52Z</time>
      </trkpt>
      <trkpt lat="42.67894" lon="1.49826">
        <ele>1886.724609375</ele>
        <time>2010-07-14T08:07:05Z</time>
      </trkpt>
      <trkpt lat="42.67892" lon="1.49828">
        <ele>1888.6474609375</ele>
        <time>2010-07-14T08:07:09Z</time>
      </trkpt>
      <trkpt lat="42.67889" lon="1.49833">
        <ele>1890.0893554688</ele>
        <time>2010-07-14T08:07:14Z</time>
      </trkpt>
      <trkpt lat="42.67884" lon="1.49839">
        <ele>1891.53125</ele>
        <time>2010-07-14T08:07:23Z</time>
      </trkpt>
      <trkpt lat="42.6788" lon="1.49845">
        <ele>1891.53125</ele>
        <time>2010-07-14T08:07:29Z</time>
      </trkpt>
      <trkpt lat="42.67876" lon="1.49849">
        <ele>1892.9731445312</ele>
        <time>2010-07-14T08:07:35Z</time>
      </trkpt>
      <trkpt lat="42.67867" lon="1.49857">
        <ele>1897.7797851562</ele>
        <time>2010-07-14T08:07:55Z</time>
      </trkpt>
      <trkpt lat="42.67862" lon="1.49856">
        <ele>1902.5864257812</ele>
        <time>2010-07-14T08:08:10Z</time>
      </trkpt>
      <trkpt lat="42.67854" lon="1.4986">
        <ele>1905.9509277344</ele>
        <time>2010-07-14T08:08:27Z</time>
      </trkpt>
      <trkpt lat="42.67846" lon="1.49865">
        <ele>1910.2768554688</ele>
        <time>2010-07-14T08:08:43Z</time>
      </trkpt>
      <trkpt lat="42.67842" lon="1.49868">
        <ele>1912.6801757812</ele>
        <time>2010-07-14T08:08:56Z</time>
      </trkpt>
      <trkpt lat="42.67838" lon="1.4987">
        <ele>1913.6413574219</ele>
        <time>2010-07-14T08:09:02Z</time>
      </trkpt>
      <trkpt lat="42.67834" lon="1.49869">
        <ele>1915.5642089844</ele>
        <time>2010-07-14T08:09:08Z</time>
      </trkpt>
      <trkpt lat="42.67806" lon="1.49864">
        <ele>1926.138671875</ele>
        <time>2010-07-14T08:10:18Z</time>
      </trkpt>
      <trkpt lat="42.67799" lon="1.49861">
        <ele>1927.1000976562</ele>
        <time>2010-07-14T08:10:43Z</time>
      </trkpt>
      <trkpt lat="42.67795" lon="1.49857">
        <ele>1927.1000976562</ele>
        <time>2010-07-14T08:11:01Z</time>
      </trkpt>
      <trkpt lat="42.67793" lon="1.49857">
        <ele>1926.6193847656</ele>
        <time>2010-07-14T08:11:06Z</time>
      </trkpt>
      <trkpt lat="42.6779" lon="1.49861">
        <ele>1927.1000976562</ele>
        <time>2010-07-14T08:11:10Z</time>
      </trkpt>
      <trkpt lat="42.67786" lon="1.49863">
        <ele>1926.138671875</ele>
        <time>2010-07-14T08:11:13Z</time>
      </trkpt>
      <trkpt lat="42.67777" lon="1.49862">
        <ele>1928.0612792969</ele>
        <time>2010-07-14T08:11:18Z</time>
      </trkpt>
      <trkpt lat="42.6777" lon="1.49859">
        <ele>1930.4645996094</ele>
        <time>2010-07-14T08:11:24Z</time>
      </trkpt>
      <trkpt lat="42.67765" lon="1.49855">
        <ele>1930.4645996094</ele>
        <time>2010-07-14T08:11:31Z</time>
      </trkpt>
      <trkpt lat="42.67764" lon="1.4985">
        <ele>1929.9838867188</ele>
        <time>2010-07-14T08:11:35Z</time>
      </trkpt>
      <trkpt lat="42.67762" lon="1.49845">
        <ele>1929.5031738281</ele>
        <time>2010-07-14T08:11:39Z</time>
      </trkpt>
      <trkpt lat="42.67758" lon="1.49837">
        <ele>1929.5031738281</ele>
        <time>2010-07-14T08:11:45Z</time>
      </trkpt>
      <trkpt lat="42.67752" lon="1.49833">
        <ele>1926.6193847656</ele>
        <time>2010-07-14T08:11:51Z</time>
      </trkpt>
      <trkpt lat="42.67751" lon="1.49831">
        <ele>1926.6193847656</ele>
        <time>2010-07-14T08:11:54Z</time>
      </trkpt>
      <trkpt lat="42.67746" lon="1.49828">
        <ele>1924.2160644531</ele>
        <time>2010-07-14T08:12:00Z</time>
      </trkpt>
      <trkpt lat="42.67742" lon="1.49827">
        <ele>1924.6967773438</ele>
        <time>2010-07-14T08:12:06Z</time>
      </trkpt>
      <trkpt lat="42.67741" lon="1.49824">
        <ele>1925.6579589844</ele>
        <time>2010-07-14T08:12:10Z</time>
      </trkpt>
      <trkpt lat="42.67741" lon="1.49818">
        <ele>1925.6579589844</ele>
        <time>2010-07-14T08:12:15Z</time>
      </trkpt>
      <trkpt lat="42.67743" lon="1.49814">
        <ele>1925.6579589844</ele>
        <time>2010-07-14T08:12:19Z</time>
      </trkpt>
      <trkpt lat="42.67746" lon="1.4981">
        <ele>1926.138671875</ele>
        <time>2010-07-14T08:12:23Z</time>
      </trkpt>
      <trkpt lat="42.6775" lon="1.498">
        <ele>1925.6579589844</ele>
        <time>2010-07-14T08:12:31Z</time>
      </trkpt>
      <trkpt lat="42.67754" lon="1.49802">
        <ele>1926.138671875</ele>
        <time>2010-07-14T08:12:40Z</time>
      </trkpt>
      <trkpt lat="42.67758" lon="1.49807">
        <ele>1928.0612792969</ele>
        <time>2010-07-14T08:12:46Z</time>
      </trkpt>
      <trkpt lat="42.67759" lon="1.49811">
        <ele>1927.5805664062</ele>
        <time>2010-07-14T08:12:50Z</time>
      </trkpt>
      <trkpt lat="42.6776" lon="1.49813">
        <ele>1927.1000976562</ele>
        <time>2010-07-14T08:12:55Z</time>
      </trkpt>
      <trkpt lat="42.67761" lon="1.49816">
        <ele>1928.0612792969</ele>
        <time>2010-07-14T08:12:59Z</time>
      </trkpt>
      <trkpt lat="42.67757" lon="1.49809">
        <ele>1910.2768554688</ele>
        <time>2010-07-14T08:13:24Z</time>
      </trkpt>
      <trkpt lat="42.67756" lon="1.49805">
        <ele>1920.3708496094</ele>
        <time>2010-07-14T08:13:30Z</time>
      </trkpt>
      <trkpt lat="42.67755" lon="1.49802">
        <ele>1923.2548828125</ele>
        <time>2010-07-14T08:13:34Z</time>
      </trkpt>
      <trkpt lat="42.67757" lon="1.49797">
        <ele>1930.9453125</ele>
        <time>2010-07-14T08:13:46Z</time>
      </trkpt>
      <trkpt lat="42.67762" lon="1.49794">
        <ele>1933.3486328125</ele>
        <time>2010-07-14T08:13:53Z</time>
      </trkpt>
      <trkpt lat="42.67768" lon="1.49796">
        <ele>1931.9064941406</ele>
        <time>2010-07-14T08:14:22Z</time>
      </trkpt>
      <trkpt lat="42.67767" lon="1.4979">
        <ele>1924.2160644531</ele>
        <time>2010-07-14T08:14:53Z</time>
      </trkpt>
      <trkpt lat="42.67765" lon="1.49785">
        <ele>1924.2160644531</ele>
        <time>2010-07-14T08:14:59Z</time>
      </trkpt>
      <trkpt lat="42.67763" lon="1.49781">
        <ele>1924.6967773438</ele>
        <time>2010-07-14T08:15:03Z</time>
      </trkpt>
      <trkpt lat="42.67761" lon="1.49775">
        <ele>1926.138671875</ele>
        <time>2010-07-14T08:15:09Z</time>
      </trkpt>
      <trkpt lat="42.6776" lon="1.4977">
        <ele>1928.0612792969</ele>
        <time>2010-07-14T08:15:14Z</time>
      </trkpt>
      <trkpt lat="42.67762" lon="1.49764">
        <ele>1928.5419921875</ele>
        <time>2010-07-14T08:15:19Z</time>
      </trkpt>
      <trkpt lat="42.67762" lon="1.49756">
        <ele>1933.3486328125</ele>
        <time>2010-07-14T08:15:33Z</time>
      </trkpt>
      <trkpt lat="42.6776" lon="1.4975">
        <ele>1935.751953125</ele>
        <time>2010-07-14T08:15:38Z</time>
      </trkpt>
      <trkpt lat="42.67759" lon="1.49746">
        <ele>1935.2712402344</ele>
        <time>2010-07-14T08:15:43Z</time>
      </trkpt>
      <trkpt lat="42.67758" lon="1.4974">
        <ele>1942.9616699219</ele>
        <time>2010-07-14T08:15:54Z</time>
      </trkpt>
      <trkpt lat="42.67754" lon="1.49736">
        <ele>1942.0004882812</ele>
        <time>2010-07-14T08:16:00Z</time>
      </trkpt>
      <trkpt lat="42.67751" lon="1.49732">
        <ele>1942.0004882812</ele>
        <time>2010-07-14T08:16:04Z</time>
      </trkpt>
      <trkpt lat="42.67751" lon="1.49733">
        <ele>1940.5583496094</ele>
        <time>2010-07-14T08:16:07Z</time>
      </trkpt>
      <trkpt lat="42.67744" lon="1.4973">
        <ele>1939.5971679688</ele>
        <time>2010-07-14T08:16:13Z</time>
      </trkpt>
      <trkpt lat="42.6774" lon="1.49725">
        <ele>1938.6359863281</ele>
        <time>2010-07-14T08:16:19Z</time>
      </trkpt>
      <trkpt lat="42.67736" lon="1.49725">
        <ele>1938.6359863281</ele>
        <time>2010-07-14T08:16:23Z</time>
      </trkpt>
      <trkpt lat="42.67733" lon="1.49726">
        <ele>1938.1552734375</ele>
        <time>2010-07-14T08:16:27Z</time>
      </trkpt>
      <trkpt lat="42.67731" lon="1.4973">
        <ele>1937.6745605469</ele>
        <time>2010-07-14T08:16:31Z</time>
      </trkpt>
      <trkpt lat="42.67725" lon="1.49728">
        <ele>1939.1164550781</ele>
        <time>2010-07-14T08:16:39Z</time>
      </trkpt>
      <trkpt lat="42.67723" lon="1.49725">
        <ele>1940.0778808594</ele>
        <time>2010-07-14T08:16:44Z</time>
      </trkpt>
      <trkpt lat="42.67723" lon="1.49722">
        <ele>1940.5583496094</ele>
        <time>2010-07-14T08:16:48Z</time>
      </trkpt>
      <trkpt lat="42.67722" lon="1.49719">
        <ele>1942.4812011719</ele>
        <time>2010-07-14T08:16:53Z</time>
      </trkpt>
      <trkpt lat="42.6772" lon="1.49714">
        <ele>1941.0390625</ele>
        <time>2010-07-14T08:16:59Z</time>
      </trkpt>
      <trkpt lat="42.67717" lon="1.4971">
        <ele>1944.4035644531</ele>
        <time>2010-07-14T08:17:05Z</time>
      </trkpt>
      <trkpt lat="42.67715" lon="1.49704">
        <ele>1945.3649902344</ele>
        <time>2010-07-14T08:17:12Z</time>
      </trkpt>
      <trkpt lat="42.67713" lon="1.49699">
        <ele>1946.3264160156</ele>
        <time>2010-07-14T08:17:18Z</time>
      </trkpt>
      <trkpt lat="42.67711" lon="1.497">
        <ele>1949.6911621094</ele>
        <time>2010-07-14T08:17:24Z</time>
      </trkpt>
      <trkpt lat="42.67709" lon="1.49705">
        <ele>1954.0170898438</ele>
        <time>2010-07-14T08:17:31Z</time>
      </trkpt>
      <trkpt lat="42.67707" lon="1.49709">
        <ele>1956.4201660156</ele>
        <time>2010-07-14T08:17:35Z</time>
      </trkpt>
      <trkpt lat="42.67704" lon="1.49715">
        <ele>1957.8623046875</ele>
        <time>2010-07-14T08:17:42Z</time>
      </trkpt>
      <trkpt lat="42.677" lon="1.49719">
        <ele>1959.7846679688</ele>
        <time>2010-07-14T08:17:48Z</time>
      </trkpt>
      <trkpt lat="42.67697" lon="1.49719">
        <ele>1961.2268066406</ele>
        <time>2010-07-14T08:17:54Z</time>
      </trkpt>
      <trkpt lat="42.67694" lon="1.49723">
        <ele>1961.7075195312</ele>
        <time>2010-07-14T08:18:00Z</time>
      </trkpt>
      <trkpt lat="42.67692" lon="1.49727">
        <ele>1963.1494140625</ele>
        <time>2010-07-14T08:18:05Z</time>
      </trkpt>
      <trkpt lat="42.6769" lon="1.49731">
        <ele>1963.1494140625</ele>
        <time>2010-07-14T08:18:09Z</time>
      </trkpt>
      <trkpt lat="42.67686" lon="1.49732">
        <ele>1964.1108398438</ele>
        <time>2010-07-14T08:18:14Z</time>
      </trkpt>
      <trkpt lat="42.67685" lon="1.49727">
        <ele>1966.5141601562</ele>
        <time>2010-07-14T08:18:18Z</time>
      </trkpt>
      <trkpt lat="42.67686" lon="1.49723">
        <ele>1967.9560546875</ele>
        <time>2010-07-14T08:18:23Z</time>
      </trkpt>
      <trkpt lat="42.67685" lon="1.49718">
        <ele>1968.9174804688</ele>
        <time>2010-07-14T08:18:28Z</time>
      </trkpt>
      <trkpt lat="42.67683" lon="1.49714">
        <ele>1970.8400878906</ele>
        <time>2010-07-14T08:18:34Z</time>
      </trkpt>
      <trkpt lat="42.67682" lon="1.4971">
        <ele>1971.8012695312</ele>
        <time>2010-07-14T08:18:39Z</time>
      </trkpt>
      <trkpt lat="42.67679" lon="1.49708">
        <ele>1973.2434082031</ele>
        <time>2010-07-14T08:18:44Z</time>
      </trkpt>
      <trkpt lat="42.67677" lon="1.49705">
        <ele>1973.7238769531</ele>
        <time>2010-07-14T08:18:48Z</time>
      </trkpt>
      <trkpt lat="42.67677" lon="1.49701">
        <ele>1975.1657714844</ele>
        <time>2010-07-14T08:18:52Z</time>
      </trkpt>
      <trkpt lat="42.67674" lon="1.49699">
        <ele>1976.6079101562</ele>
        <time>2010-07-14T08:18:59Z</time>
      </trkpt>
      <trkpt lat="42.67671" lon="1.49701">
        <ele>1980.4533691406</ele>
        <time>2010-07-14T08:19:05Z</time>
      </trkpt>
      <trkpt lat="42.6767" lon="1.49698">
        <ele>1982.3759765625</ele>
        <time>2010-07-14T08:19:10Z</time>
      </trkpt>
      <trkpt lat="42.67669" lon="1.49695">
        <ele>1983.8178710938</ele>
        <time>2010-07-14T08:19:14Z</time>
      </trkpt>
      <trkpt lat="42.67667" lon="1.49697">
        <ele>1985.259765625</ele>
        <time>2010-07-14T08:19:20Z</time>
      </trkpt>
      <trkpt lat="42.67665" lon="1.49702">
        <ele>1986.7016601562</ele>
        <time>2010-07-14T08:19:26Z</time>
      </trkpt>
      <trkpt lat="42.67661" lon="1.49703">
        <ele>1987.6630859375</ele>
        <time>2010-07-14T08:19:33Z</time>
      </trkpt>
      <trkpt lat="42.67659" lon="1.49698">
        <ele>1990.06640625</ele>
        <time>2010-07-14T08:19:39Z</time>
      </trkpt>
      <trkpt lat="42.67657" lon="1.497">
        <ele>1991.0275878906</ele>
        <time>2010-07-14T08:19:43Z</time>
      </trkpt>
      <trkpt lat="42.67654" lon="1.49699">
        <ele>1992.4697265625</ele>
        <time>2010-07-14T08:19:49Z</time>
      </trkpt>
      <trkpt lat="42.67651" lon="1.49699">
        <ele>1993.4309082031</ele>
        <time>2010-07-14T08:19:54Z</time>
      </trkpt>
      <trkpt lat="42.67647" lon="1.49697">
        <ele>1994.3920898438</ele>
        <time>2010-07-14T08:20:00Z</time>
      </trkpt>
      <trkpt lat="42.67643" lon="1.49698">
        <ele>1994.3920898438</ele>
        <time>2010-07-14T08:20:06Z</time>
      </trkpt>
      <trkpt lat="42.67636" lon="1.49698">
        <ele>1996.3151855469</ele>
        <time>2010-07-14T08:20:13Z</time>
      </trkpt>
      <trkpt lat="42.67632" lon="1.49701">
        <ele>1997.2763671875</ele>
        <time>2010-07-14T08:20:18Z</time>
      </trkpt>
      <trkpt lat="42.67627" lon="1.49704">
        <ele>1998.7182617188</ele>
        <time>2010-07-14T08:20:24Z</time>
      </trkpt>
      <trkpt lat="42.67626" lon="1.49704">
        <ele>1999.1989746094</ele>
        <time>2010-07-14T08:20:25Z</time>
      </trkpt>
      <trkpt lat="42.6762" lon="1.49707">
        <ele>1999.1989746094</ele>
        <time>2010-07-14T08:20:30Z</time>
      </trkpt>
      <trkpt lat="42.67613" lon="1.49712">
        <ele>1999.1989746094</ele>
        <time>2010-07-14T08:20:37Z</time>
      </trkpt>
      <trkpt lat="42.67611" lon="1.49713">
        <ele>1999.6796875</ele>
        <time>2010-07-14T08:20:39Z</time>
      </trkpt>
      <trkpt lat="42.67606" lon="1.49715">
        <ele>2000.1604003906</ele>
        <time>2010-07-14T08:20:46Z</time>
      </trkpt>
      <trkpt lat="42.676" lon="1.49715">
        <ele>2001.1215820312</ele>
        <time>2010-07-14T08:20:51Z</time>
      </trkpt>
      <trkpt lat="42.67594" lon="1.49712">
        <ele>2002.5634765625</ele>
        <time>2010-07-14T08:20:57Z</time>
      </trkpt>
      <trkpt lat="42.67592" lon="1.49711">
        <ele>2002.5634765625</ele>
        <time>2010-07-14T08:20:59Z</time>
      </trkpt>
      <trkpt lat="42.67587" lon="1.49713">
        <ele>2004.4860839844</ele>
        <time>2010-07-14T08:21:06Z</time>
      </trkpt>
      <trkpt lat="42.67583" lon="1.49714">
        <ele>2005.9279785156</ele>
        <time>2010-07-14T08:21:12Z</time>
      </trkpt>
      <trkpt lat="42.67579" lon="1.49714">
        <ele>2006.8894042969</ele>
        <time>2010-07-14T08:21:18Z</time>
      </trkpt>
      <trkpt lat="42.67577" lon="1.49717">
        <ele>2007.3701171875</ele>
        <time>2010-07-14T08:21:23Z</time>
      </trkpt>
      <trkpt lat="42.67574" lon="1.49723">
        <ele>2007.8508300781</ele>
        <time>2010-07-14T08:21:28Z</time>
      </trkpt>
      <trkpt lat="42.67568" lon="1.49728">
        <ele>2009.2927246094</ele>
        <time>2010-07-14T08:21:35Z</time>
      </trkpt>
      <trkpt lat="42.67565" lon="1.49728">
        <ele>2011.2153320312</ele>
        <time>2010-07-14T08:21:40Z</time>
      </trkpt>
      <trkpt lat="42.67561" lon="1.49723">
        <ele>2012.6574707031</ele>
        <time>2010-07-14T08:21:47Z</time>
      </trkpt>
      <trkpt lat="42.67558" lon="1.49719">
        <ele>2013.1381835938</ele>
        <time>2010-07-14T08:21:52Z</time>
      </trkpt>
      <trkpt lat="42.67554" lon="1.49715">
        <ele>2014.580078125</ele>
        <time>2010-07-14T08:21:58Z</time>
      </trkpt>
      <trkpt lat="42.67551" lon="1.4971">
        <ele>2016.5026855469</ele>
        <time>2010-07-14T08:22:05Z</time>
      </trkpt>
      <trkpt lat="42.67546" lon="1.4971">
        <ele>2017.4638671875</ele>
        <time>2010-07-14T08:22:11Z</time>
      </trkpt>
      <trkpt lat="42.67543" lon="1.49707">
        <ele>2019.8671875</ele>
        <time>2010-07-14T08:22:17Z</time>
      </trkpt>
      <trkpt lat="42.67539" lon="1.49706">
        <ele>2021.3090820312</ele>
        <time>2010-07-14T08:22:23Z</time>
      </trkpt>
      <trkpt lat="42.67536" lon="1.49704">
        <ele>2022.2705078125</ele>
        <time>2010-07-14T08:22:28Z</time>
      </trkpt>
      <trkpt lat="42.67535" lon="1.49699">
        <ele>2022.7512207031</ele>
        <time>2010-07-14T08:22:33Z</time>
      </trkpt>
      <trkpt lat="42.67535" lon="1.49693">
        <ele>2023.2319335938</ele>
        <time>2010-07-14T08:22:39Z</time>
      </trkpt>
      <trkpt lat="42.67534" lon="1.49687">
        <ele>2025.154296875</ele>
        <time>2010-07-14T08:22:44Z</time>
      </trkpt>
      <trkpt lat="42.67534" lon="1.4968">
        <ele>2026.5964355469</ele>
        <time>2010-07-14T08:22:50Z</time>
      </trkpt>
      <trkpt lat="42.67533" lon="1.49674">
        <ele>2026.5964355469</ele>
        <time>2010-07-14T08:22:55Z</time>
      </trkpt>
      <trkpt lat="42.67534" lon="1.49669">
        <ele>2026.5964355469</ele>
        <time>2010-07-14T08:22:58Z</time>
      </trkpt>
      <trkpt lat="42.67536" lon="1.49656">
        <ele>2027.0771484375</ele>
        <time>2010-07-14T08:23:06Z</time>
      </trkpt>
      <trkpt lat="42.67538" lon="1.49648">
        <ele>2026.5964355469</ele>
        <time>2010-07-14T08:23:12Z</time>
      </trkpt>
      <trkpt lat="42.6754" lon="1.4964">
        <ele>2027.0771484375</ele>
        <time>2010-07-14T08:23:18Z</time>
      </trkpt>
      <trkpt lat="42.6754" lon="1.49636">
        <ele>2028.0385742188</ele>
        <time>2010-07-14T08:23:21Z</time>
      </trkpt>
      <trkpt lat="42.67542" lon="1.49627">
        <ele>2029.9611816406</ele>
        <time>2010-07-14T08:23:28Z</time>
      </trkpt>
      <trkpt lat="42.67543" lon="1.4962">
        <ele>2030.9226074219</ele>
        <time>2010-07-14T08:23:33Z</time>
      </trkpt>
      <trkpt lat="42.67546" lon="1.49614">
        <ele>2032.3645019531</ele>
        <time>2010-07-14T08:23:39Z</time>
      </trkpt>
      <trkpt lat="42.6755" lon="1.49605">
        <ele>2032.8449707031</ele>
        <time>2010-07-14T08:23:46Z</time>
      </trkpt>
      <trkpt lat="42.67552" lon="1.496">
        <ele>2033.8063964844</ele>
        <time>2010-07-14T08:23:52Z</time>
      </trkpt>
      <trkpt lat="42.67555" lon="1.49596">
        <ele>2034.7678222656</ele>
        <time>2010-07-14T08:23:57Z</time>
      </trkpt>
      <trkpt lat="42.67559" lon="1.4959">
        <ele>2035.2482910156</ele>
        <time>2010-07-14T08:24:04Z</time>
      </trkpt>
      <trkpt lat="42.6756" lon="1.49584">
        <ele>2036.2097167969</ele>
        <time>2010-07-14T08:24:09Z</time>
      </trkpt>
      <trkpt lat="42.67561" lon="1.49575">
        <ele>2037.1708984375</ele>
        <time>2010-07-14T08:24:15Z</time>
      </trkpt>
      <trkpt lat="42.67564" lon="1.49568">
        <ele>2038.1323242188</ele>
        <time>2010-07-14T08:24:21Z</time>
      </trkpt>
      <trkpt lat="42.67567" lon="1.4956">
        <ele>2039.0935058594</ele>
        <time>2010-07-14T08:24:28Z</time>
      </trkpt>
      <trkpt lat="42.67567" lon="1.49554">
        <ele>2039.57421875</ele>
        <time>2010-07-14T08:24:33Z</time>
      </trkpt>
      <trkpt lat="42.67569" lon="1.49548">
        <ele>2040.0549316406</ele>
        <time>2010-07-14T08:24:38Z</time>
      </trkpt>
      <trkpt lat="42.67569" lon="1.49541">
        <ele>2041.0161132812</ele>
        <time>2010-07-14T08:24:44Z</time>
      </trkpt>
      <trkpt lat="42.67568" lon="1.49534">
        <ele>2042.4582519531</ele>
        <time>2010-07-14T08:24:50Z</time>
      </trkpt>
      <trkpt lat="42.67569" lon="1.49528">
        <ele>2042.9387207031</ele>
        <time>2010-07-14T08:24:56Z</time>
      </trkpt>
      <trkpt lat="42.67567" lon="1.49522">
        <ele>2043.9001464844</ele>
        <time>2010-07-14T08:25:01Z</time>
      </trkpt>
      <trkpt lat="42.67565" lon="1.49516">
        <ele>2045.8229980469</ele>
        <time>2010-07-14T08:25:07Z</time>
      </trkpt>
      <trkpt lat="42.67568" lon="1.49512">
        <ele>2046.7841796875</ele>
        <time>2010-07-14T08:25:12Z</time>
      </trkpt>
      <trkpt lat="42.67569" lon="1.49506">
        <ele>2047.7456054688</ele>
        <time>2010-07-14T08:25:18Z</time>
      </trkpt>
      <trkpt lat="42.67565" lon="1.49503">
        <ele>2049.1875</ele>
        <time>2010-07-14T08:25:24Z</time>
      </trkpt>
      <trkpt lat="42.67563" lon="1.495">
        <ele>2050.1489257812</ele>
        <time>2010-07-14T08:25:29Z</time>
      </trkpt>
      <trkpt lat="42.67565" lon="1.49495">
        <ele>2051.1101074219</ele>
        <time>2010-07-14T08:25:35Z</time>
      </trkpt>
      <trkpt lat="42.67562" lon="1.49493">
        <ele>2052.0712890625</ele>
        <time>2010-07-14T08:25:40Z</time>
      </trkpt>
      <trkpt lat="42.67559" lon="1.49494">
        <ele>2052.5520019531</ele>
        <time>2010-07-14T08:25:45Z</time>
      </trkpt>
      <trkpt lat="42.67555" lon="1.49492">
        <ele>2053.5134277344</ele>
        <time>2010-07-14T08:25:50Z</time>
      </trkpt>
      <trkpt lat="42.67556" lon="1.49486">
        <ele>2054.9553222656</ele>
        <time>2010-07-14T08:25:55Z</time>
      </trkpt>
      <trkpt lat="42.67554" lon="1.49481">
        <ele>2056.3972167969</ele>
        <time>2010-07-14T08:26:01Z</time>
      </trkpt>
      <trkpt lat="42.67551" lon="1.49481">
        <ele>2056.8779296875</ele>
        <time>2010-07-14T08:26:06Z</time>
      </trkpt>
      <trkpt lat="42.67548" lon="1.49479">
        <ele>2057.8393554688</ele>
        <time>2010-07-14T08:26:10Z</time>
      </trkpt>
      <trkpt lat="42.67546" lon="1.49474">
        <ele>2059.76171875</ele>
        <time>2010-07-14T08:26:16Z</time>
      </trkpt>
      <trkpt lat="42.67544" lon="1.49474">
        <ele>2060.7233886719</ele>
        <time>2010-07-14T08:26:20Z</time>
      </trkpt>
      <trkpt lat="42.6754" lon="1.49476">
        <ele>2060.7233886719</ele>
        <time>2010-07-14T08:26:26Z</time>
      </trkpt>
      <trkpt lat="42.67535" lon="1.49481">
        <ele>2062.1652832031</ele>
        <time>2010-07-14T08:26:32Z</time>
      </trkpt>
      <trkpt lat="42.6753" lon="1.49486">
        <ele>2064.087890625</ele>
        <time>2010-07-14T08:26:40Z</time>
      </trkpt>
      <trkpt lat="42.67528" lon="1.49488">
        <ele>2064.5686035156</ele>
        <time>2010-07-14T08:26:44Z</time>
      </trkpt>
      <trkpt lat="42.67525" lon="1.49491">
        <ele>2067.9331054688</ele>
        <time>2010-07-14T08:26:49Z</time>
      </trkpt>
      <trkpt lat="42.67522" lon="1.49493">
        <ele>2068.4138183594</ele>
        <time>2010-07-14T08:26:54Z</time>
      </trkpt>
      <trkpt lat="42.67517" lon="1.49494">
        <ele>2070.3364257812</ele>
        <time>2010-07-14T08:27:02Z</time>
      </trkpt>
      <trkpt lat="42.67516" lon="1.4949">
        <ele>2071.7783203125</ele>
        <time>2010-07-14T08:27:07Z</time>
      </trkpt>
      <trkpt lat="42.67517" lon="1.49483">
        <ele>2073.2204589844</ele>
        <time>2010-07-14T08:27:14Z</time>
      </trkpt>
      <trkpt lat="42.67516" lon="1.49478">
        <ele>2074.6623535156</ele>
        <time>2010-07-14T08:27:20Z</time>
      </trkpt>
      <trkpt lat="42.67514" lon="1.49473">
        <ele>2075.1428222656</ele>
        <time>2010-07-14T08:27:26Z</time>
      </trkpt>
      <trkpt lat="42.67514" lon="1.49468">
        <ele>2076.1044921875</ele>
        <time>2010-07-14T08:27:31Z</time>
      </trkpt>
      <trkpt lat="42.67512" lon="1.49463">
        <ele>2077.5463867188</ele>
        <time>2010-07-14T08:27:37Z</time>
      </trkpt>
      <trkpt lat="42.67511" lon="1.49465">
        <ele>2078.0270996094</ele>
        <time>2010-07-14T08:27:42Z</time>
      </trkpt>
      <trkpt lat="42.67506" lon="1.49471">
        <ele>2078.5078125</ele>
        <time>2010-07-14T08:27:49Z</time>
      </trkpt>
      <trkpt lat="42.67503" lon="1.49474">
        <ele>2080.4304199219</ele>
        <time>2010-07-14T08:27:55Z</time>
      </trkpt>
      <trkpt lat="42.67499" lon="1.49475">
        <ele>2081.3916015625</ele>
        <time>2010-07-14T08:28:00Z</time>
      </trkpt>
      <trkpt lat="42.67494" lon="1.49477">
        <ele>2082.3530273438</ele>
        <time>2010-07-14T08:28:07Z</time>
      </trkpt>
      <trkpt lat="42.67493" lon="1.49479">
        <ele>2083.794921875</ele>
        <time>2010-07-14T08:28:14Z</time>
      </trkpt>
      <trkpt lat="42.67488" lon="1.49479">
        <ele>2083.794921875</ele>
        <time>2010-07-14T08:28:20Z</time>
      </trkpt>
      <trkpt lat="42.67482" lon="1.49483">
        <ele>2085.7175292969</ele>
        <time>2010-07-14T08:28:27Z</time>
      </trkpt>
      <trkpt lat="42.67477" lon="1.49485">
        <ele>2086.6787109375</ele>
        <time>2010-07-14T08:28:32Z</time>
      </trkpt>
      <trkpt lat="42.67471" lon="1.49487">
        <ele>2088.1208496094</ele>
        <time>2010-07-14T08:28:38Z</time>
      </trkpt>
      <trkpt lat="42.67466" lon="1.49488">
        <ele>2088.6015625</ele>
        <time>2010-07-14T08:28:43Z</time>
      </trkpt>
      <trkpt lat="42.67461" lon="1.4949">
        <ele>2090.5239257812</ele>
        <time>2010-07-14T08:28:49Z</time>
      </trkpt>
      <trkpt lat="42.67457" lon="1.49494">
        <ele>2091.4853515625</ele>
        <time>2010-07-14T08:28:54Z</time>
      </trkpt>
      <trkpt lat="42.67454" lon="1.49494">
        <ele>2093.408203125</ele>
        <time>2010-07-14T08:28:59Z</time>
      </trkpt>
      <trkpt lat="42.67453" lon="1.49487">
        <ele>2096.2922363281</ele>
        <time>2010-07-14T08:29:04Z</time>
      </trkpt>
      <trkpt lat="42.67453" lon="1.49484">
        <ele>2097.2534179688</ele>
        <time>2010-07-14T08:29:09Z</time>
      </trkpt>
      <trkpt lat="42.67452" lon="1.49481">
        <ele>2098.2145996094</ele>
        <time>2010-07-14T08:29:15Z</time>
      </trkpt>
      <trkpt lat="42.6745" lon="1.49479">
        <ele>2099.6567382812</ele>
        <time>2010-07-14T08:29:20Z</time>
      </trkpt>
      <trkpt lat="42.67447" lon="1.49478">
        <ele>2101.0986328125</ele>
        <time>2010-07-14T08:29:24Z</time>
      </trkpt>
      <trkpt lat="42.67444" lon="1.49478">
        <ele>2102.0598144531</ele>
        <time>2010-07-14T08:29:30Z</time>
      </trkpt>
      <trkpt lat="42.67442" lon="1.49485">
        <ele>2103.501953125</ele>
        <time>2010-07-14T08:29:36Z</time>
      </trkpt>
      <trkpt lat="42.67441" lon="1.4949">
        <ele>2104.9438476562</ele>
        <time>2010-07-14T08:29:41Z</time>
      </trkpt>
      <trkpt lat="42.6744" lon="1.49498">
        <ele>2106.8664550781</ele>
        <time>2010-07-14T08:29:47Z</time>
      </trkpt>
      <trkpt lat="42.67436" lon="1.49502">
        <ele>2108.30859375</ele>
        <time>2010-07-14T08:29:52Z</time>
      </trkpt>
      <trkpt lat="42.67433" lon="1.49505">
        <ele>2110.2312011719</ele>
        <time>2010-07-14T08:29:57Z</time>
      </trkpt>
      <trkpt lat="42.6743" lon="1.49506">
        <ele>2110.2312011719</ele>
        <time>2010-07-14T08:30:02Z</time>
      </trkpt>
      <trkpt lat="42.67429" lon="1.49509">
        <ele>2108.7893066406</ele>
        <time>2010-07-14T08:30:11Z</time>
      </trkpt>
      <trkpt lat="42.67426" lon="1.49514">
        <ele>2110.2312011719</ele>
        <time>2010-07-14T08:30:17Z</time>
      </trkpt>
      <trkpt lat="42.67424" lon="1.49519">
        <ele>2110.7119140625</ele>
        <time>2010-07-14T08:30:24Z</time>
      </trkpt>
      <trkpt lat="42.67422" lon="1.49522">
        <ele>2111.1926269531</ele>
        <time>2010-07-14T08:30:30Z</time>
      </trkpt>
      <trkpt lat="42.6742" lon="1.49527">
        <ele>2113.595703125</ele>
        <time>2010-07-14T08:30:37Z</time>
      </trkpt>
      <trkpt lat="42.67418" lon="1.4953">
        <ele>2113.595703125</ele>
        <time>2010-07-14T08:30:41Z</time>
      </trkpt>
      <trkpt lat="42.67416" lon="1.49535">
        <ele>2115.5185546875</ele>
        <time>2010-07-14T08:30:47Z</time>
      </trkpt>
      <trkpt lat="42.67416" lon="1.49539">
        <ele>2116.9604492188</ele>
        <time>2010-07-14T08:30:52Z</time>
      </trkpt>
      <trkpt lat="42.67415" lon="1.49543">
        <ele>2117.9216308594</ele>
        <time>2010-07-14T08:30:56Z</time>
      </trkpt>
      <trkpt lat="42.67414" lon="1.49541">
        <ele>2118.8830566406</ele>
        <time>2010-07-14T08:31:00Z</time>
      </trkpt>
      <trkpt lat="42.67414" lon="1.49537">
        <ele>2118.8830566406</ele>
        <time>2010-07-14T08:31:06Z</time>
      </trkpt>
      <trkpt lat="42.67412" lon="1.49534">
        <ele>2118.40234375</ele>
        <time>2010-07-14T08:31:10Z</time>
      </trkpt>
      <trkpt lat="42.67408" lon="1.49531">
        <ele>2117.9216308594</ele>
        <time>2010-07-14T08:31:16Z</time>
      </trkpt>
      <trkpt lat="42.67414" lon="1.49523">
        <ele>2123.208984375</ele>
        <time>2010-07-14T08:31:24Z</time>
      </trkpt>
      <trkpt lat="42.67413" lon="1.49519">
        <ele>2124.6511230469</ele>
        <time>2010-07-14T08:31:30Z</time>
      </trkpt>
      <trkpt lat="42.67414" lon="1.49516">
        <ele>2126.0930175781</ele>
        <time>2010-07-14T08:31:34Z</time>
      </trkpt>
      <trkpt lat="42.67415" lon="1.49516">
        <ele>2126.5737304688</ele>
        <time>2010-07-14T08:31:44Z</time>
      </trkpt>
      <trkpt lat="42.67412" lon="1.49516">
        <ele>2129.9382324219</ele>
        <time>2010-07-14T08:31:53Z</time>
      </trkpt>
      <trkpt lat="42.67411" lon="1.49512">
        <ele>2130.8996582031</ele>
        <time>2010-07-14T08:31:58Z</time>
      </trkpt>
      <trkpt lat="42.67414" lon="1.49507">
        <ele>2132.3415527344</ele>
        <time>2010-07-14T08:32:04Z</time>
      </trkpt>
      <trkpt lat="42.67411" lon="1.49504">
        <ele>2134.2641601562</ele>
        <time>2010-07-14T08:32:09Z</time>
      </trkpt>
      <trkpt lat="42.67412" lon="1.49499">
        <ele>2135.7060546875</ele>
        <time>2010-07-14T08:32:15Z</time>
      </trkpt>
      <trkpt lat="42.67413" lon="1.49491">
        <ele>2136.1867675781</ele>
        <time>2010-07-14T08:32:22Z</time>
      </trkpt>
      <trkpt lat="42.67411" lon="1.49489">
        <ele>2137.1479492188</ele>
        <time>2010-07-14T08:32:28Z</time>
      </trkpt>
      <trkpt lat="42.67408" lon="1.49494">
        <ele>2137.6286621094</ele>
        <time>2010-07-14T08:32:34Z</time>
      </trkpt>
      <trkpt lat="42.67406" lon="1.49497">
        <ele>2138.109375</ele>
        <time>2010-07-14T08:32:39Z</time>
      </trkpt>
      <trkpt lat="42.67403" lon="1.49499">
        <ele>2138.5900878906</ele>
        <time>2010-07-14T08:32:44Z</time>
      </trkpt>
      <trkpt lat="42.67402" lon="1.49501">
        <ele>2138.5900878906</ele>
        <time>2010-07-14T08:32:51Z</time>
      </trkpt>
      <trkpt lat="42.67404" lon="1.49503">
        <ele>2140.0322265625</ele>
        <time>2010-07-14T08:32:55Z</time>
      </trkpt>
      <trkpt lat="42.674" lon="1.49505">
        <ele>2137.1479492188</ele>
        <time>2010-07-14T08:33:12Z</time>
      </trkpt>
      <trkpt lat="42.67402" lon="1.49511">
        <ele>2139.5512695312</ele>
        <time>2010-07-14T08:33:18Z</time>
      </trkpt>
      <trkpt lat="42.67403" lon="1.49518">
        <ele>2140.9934082031</ele>
        <time>2010-07-14T08:33:26Z</time>
      </trkpt>
      <trkpt lat="42.67403" lon="1.4952">
        <ele>2141.9548339844</ele>
        <time>2010-07-14T08:33:33Z</time>
      </trkpt>
      <trkpt lat="42.67402" lon="1.49524">
        <ele>2142.435546875</ele>
        <time>2010-07-14T08:33:38Z</time>
      </trkpt>
      <trkpt lat="42.674" lon="1.49528">
        <ele>2142.435546875</ele>
        <time>2010-07-14T08:33:43Z</time>
      </trkpt>
      <trkpt lat="42.67397" lon="1.49525">
        <ele>2144.8386230469</ele>
        <time>2010-07-14T08:33:48Z</time>
      </trkpt>
      <trkpt lat="42.67396" lon="1.49527">
        <ele>2146.2807617188</ele>
        <time>2010-07-14T08:33:53Z</time>
      </trkpt>
      <trkpt lat="42.67393" lon="1.49529">
        <ele>2147.72265625</ele>
        <time>2010-07-14T08:33:58Z</time>
      </trkpt>
      <trkpt lat="42.67391" lon="1.49524">
        <ele>2147.72265625</ele>
        <time>2010-07-14T08:34:05Z</time>
      </trkpt>
      <trkpt lat="42.67391" lon="1.49521">
        <ele>2148.203125</ele>
        <time>2010-07-14T08:34:09Z</time>
      </trkpt>
      <trkpt lat="42.67389" lon="1.49518">
        <ele>2148.6838378906</ele>
        <time>2010-07-14T08:34:13Z</time>
      </trkpt>
      <trkpt lat="42.6739" lon="1.49514">
        <ele>2151.0871582031</ele>
        <time>2010-07-14T08:34:20Z</time>
      </trkpt>
      <trkpt lat="42.6739" lon="1.49511">
        <ele>2153.009765625</ele>
        <time>2010-07-14T08:34:25Z</time>
      </trkpt>
      <trkpt lat="42.67389" lon="1.4951">
        <ele>2154.9323730469</ele>
        <time>2010-07-14T08:34:30Z</time>
      </trkpt>
      <trkpt lat="42.67386" lon="1.49513">
        <ele>2155.8935546875</ele>
        <time>2010-07-14T08:34:36Z</time>
      </trkpt>
      <trkpt lat="42.67386" lon="1.49518">
        <ele>2157.8166503906</ele>
        <time>2010-07-14T08:34:43Z</time>
      </trkpt>
      <trkpt lat="42.67386" lon="1.49522">
        <ele>2158.2971191406</ele>
        <time>2010-07-14T08:34:48Z</time>
      </trkpt>
      <trkpt lat="42.67386" lon="1.49527">
        <ele>2158.7778320312</ele>
        <time>2010-07-14T08:34:54Z</time>
      </trkpt>
      <trkpt lat="42.67384" lon="1.49535">
        <ele>2159.2585449219</ele>
        <time>2010-07-14T08:35:00Z</time>
      </trkpt>
      <trkpt lat="42.67383" lon="1.49543">
        <ele>2160.7004394531</ele>
        <time>2010-07-14T08:35:07Z</time>
      </trkpt>
      <trkpt lat="42.67382" lon="1.49547">
        <ele>2161.6618652344</ele>
        <time>2010-07-14T08:35:12Z</time>
      </trkpt>
      <trkpt lat="42.67376" lon="1.49554">
        <ele>2161.6618652344</ele>
        <time>2010-07-14T08:35:21Z</time>
      </trkpt>
      <trkpt lat="42.67371" lon="1.4956">
        <ele>2164.0649414062</ele>
        <time>2010-07-14T08:35:28Z</time>
      </trkpt>
      <trkpt lat="42.67368" lon="1.49563">
        <ele>2165.0263671875</ele>
        <time>2010-07-14T08:35:34Z</time>
      </trkpt>
      <trkpt lat="42.67363" lon="1.49569">
        <ele>2168.8715820312</ele>
        <time>2010-07-14T08:35:42Z</time>
      </trkpt>
      <trkpt lat="42.67359" lon="1.49568">
        <ele>2169.3522949219</ele>
        <time>2010-07-14T08:35:48Z</time>
      </trkpt>
      <trkpt lat="42.67354" lon="1.49569">
        <ele>2170.3134765625</ele>
        <time>2010-07-14T08:35:55Z</time>
      </trkpt>
      <trkpt lat="42.67348" lon="1.49566">
        <ele>2171.2746582031</ele>
        <time>2010-07-14T08:36:01Z</time>
      </trkpt>
      <trkpt lat="42.67343" lon="1.49565">
        <ele>2174.1589355469</ele>
        <time>2010-07-14T08:36:08Z</time>
      </trkpt>
      <trkpt lat="42.67338" lon="1.49566">
        <ele>2177.04296875</ele>
        <time>2010-07-14T08:36:14Z</time>
      </trkpt>
      <trkpt lat="42.67338" lon="1.49562">
        <ele>2176.5622558594</ele>
        <time>2010-07-14T08:36:18Z</time>
      </trkpt>
      <trkpt lat="42.67342" lon="1.49559">
        <ele>2178.0041503906</ele>
        <time>2010-07-14T08:36:23Z</time>
      </trkpt>
      <trkpt lat="42.67345" lon="1.49554">
        <ele>2178.4848632812</ele>
        <time>2010-07-14T08:36:29Z</time>
      </trkpt>
      <trkpt lat="42.67347" lon="1.49551">
        <ele>2179.4460449219</ele>
        <time>2010-07-14T08:36:36Z</time>
      </trkpt>
      <trkpt lat="42.67344" lon="1.4955">
        <ele>2181.8493652344</ele>
        <time>2010-07-14T08:36:42Z</time>
      </trkpt>
      <trkpt lat="42.6734" lon="1.49549">
        <ele>2181.3686523438</ele>
        <time>2010-07-14T08:36:48Z</time>
      </trkpt>
      <trkpt lat="42.67336" lon="1.49547">
        <ele>2180.8881835938</ele>
        <time>2010-07-14T08:36:54Z</time>
      </trkpt>
      <trkpt lat="42.67339" lon="1.49545">
        <ele>2180.8881835938</ele>
        <time>2010-07-14T08:36:58Z</time>
      </trkpt>
      <trkpt lat="42.6734" lon="1.49543">
        <ele>2182.330078125</ele>
        <time>2010-07-14T08:37:02Z</time>
      </trkpt>
      <trkpt lat="42.67337" lon="1.49541">
        <ele>2181.8493652344</ele>
        <time>2010-07-14T08:37:07Z</time>
      </trkpt>
      <trkpt lat="42.67334" lon="1.4954">
        <ele>2181.8493652344</ele>
        <time>2010-07-14T08:37:11Z</time>
      </trkpt>
      <trkpt lat="42.67332" lon="1.49537">
        <ele>2181.3686523438</ele>
        <time>2010-07-14T08:37:16Z</time>
      </trkpt>
      <trkpt lat="42.67333" lon="1.49534">
        <ele>2180.4074707031</ele>
        <time>2010-07-14T08:37:23Z</time>
      </trkpt>
      <trkpt lat="42.67337" lon="1.49531">
        <ele>2182.810546875</ele>
        <time>2010-07-14T08:37:33Z</time>
      </trkpt>
      <trkpt lat="42.67333" lon="1.49528">
        <ele>2183.7719726562</ele>
        <time>2010-07-14T08:37:43Z</time>
      </trkpt>
      <trkpt lat="42.67332" lon="1.49527">
        <ele>2184.2526855469</ele>
        <time>2010-07-14T08:37:50Z</time>
      </trkpt>
      <trkpt lat="42.6733" lon="1.49525">
        <ele>2183.7719726562</ele>
        <time>2010-07-14T08:37:54Z</time>
      </trkpt>
      <trkpt lat="42.67327" lon="1.49524">
        <ele>2185.6945800781</ele>
        <time>2010-07-14T08:37:59Z</time>
      </trkpt>
      <trkpt lat="42.67324" lon="1.49523">
        <ele>2188.0981445312</ele>
        <time>2010-07-14T08:38:04Z</time>
      </trkpt>
      <trkpt lat="42.67321" lon="1.49524">
        <ele>2195.7885742188</ele>
        <time>2010-07-14T08:38:10Z</time>
      </trkpt>
      <trkpt lat="42.67318" lon="1.49523">
        <ele>2202.9982910156</ele>
        <time>2010-07-14T08:38:18Z</time>
      </trkpt>
      <trkpt lat="42.67321" lon="1.4952">
        <ele>2202.9982910156</ele>
        <time>2010-07-14T08:38:23Z</time>
      </trkpt>
      <trkpt lat="42.67322" lon="1.49519">
        <ele>2203.4790039062</ele>
        <time>2010-07-14T08:38:25Z</time>
      </trkpt>
      <trkpt lat="42.67325" lon="1.49516">
        <ele>2202.9982910156</ele>
        <time>2010-07-14T08:38:30Z</time>
      </trkpt>
      <trkpt lat="42.67327" lon="1.49514">
        <ele>2201.5563964844</ele>
        <time>2010-07-14T08:38:34Z</time>
      </trkpt>
      <trkpt lat="42.6733" lon="1.49513">
        <ele>2201.5563964844</ele>
        <time>2010-07-14T08:38:39Z</time>
      </trkpt>
      <trkpt lat="42.67333" lon="1.49513">
        <ele>2202.517578125</ele>
        <time>2010-07-14T08:38:45Z</time>
      </trkpt>
      <trkpt lat="42.67331" lon="1.4951">
        <ele>2203.9597167969</ele>
        <time>2010-07-14T08:38:51Z</time>
      </trkpt>
      <trkpt lat="42.67328" lon="1.49509">
        <ele>2206.84375</ele>
        <time>2010-07-14T08:38:57Z</time>
      </trkpt>
      <trkpt lat="42.67327" lon="1.49506">
        <ele>2209.2470703125</ele>
        <time>2010-07-14T08:39:03Z</time>
      </trkpt>
      <trkpt lat="42.67323" lon="1.49504">
        <ele>2211.650390625</ele>
        <time>2010-07-14T08:39:09Z</time>
      </trkpt>
      <trkpt lat="42.6732" lon="1.49502">
        <ele>2212.6115722656</ele>
        <time>2010-07-14T08:39:14Z</time>
      </trkpt>
      <trkpt lat="42.67316" lon="1.49498">
        <ele>2213.0922851562</ele>
        <time>2010-07-14T08:39:21Z</time>
      </trkpt>
      <trkpt lat="42.67312" lon="1.49495">
        <ele>2214.0534667969</ele>
        <time>2010-07-14T08:39:27Z</time>
      </trkpt>
      <trkpt lat="42.67307" lon="1.49494">
        <ele>2216.4567871094</ele>
        <time>2010-07-14T08:39:33Z</time>
      </trkpt>
      <trkpt lat="42.67303" lon="1.49494">
        <ele>2217.8986816406</ele>
        <time>2010-07-14T08:39:38Z</time>
      </trkpt>
      <trkpt lat="42.67298" lon="1.49492">
        <ele>2218.8601074219</ele>
        <time>2010-07-14T08:39:45Z</time>
      </trkpt>
      <trkpt lat="42.67297" lon="1.49491">
        <ele>2218.8601074219</ele>
        <time>2010-07-14T08:39:50Z</time>
      </trkpt>
      <trkpt lat="42.67295" lon="1.4949">
        <ele>2217.8986816406</ele>
        <time>2010-07-14T08:40:15Z</time>
      </trkpt>
      <trkpt lat="42.67296" lon="1.4949">
        <ele>2216.9375</ele>
        <time>2010-07-14T08:40:28Z</time>
      </trkpt>
      <trkpt lat="42.67296" lon="1.49491">
        <ele>2215.0148925781</ele>
        <time>2010-07-14T08:40:50Z</time>
      </trkpt>
      <trkpt lat="42.67297" lon="1.4949">
        <ele>2216.4567871094</ele>
        <time>2010-07-14T08:41:02Z</time>
      </trkpt>
      <trkpt lat="42.67295" lon="1.4949">
        <ele>2215.4956054688</ele>
        <time>2010-07-14T08:41:21Z</time>
      </trkpt>
      <trkpt lat="42.67295" lon="1.49491">
        <ele>2212.6115722656</ele>
        <time>2010-07-14T08:41:52Z</time>
      </trkpt>
      <trkpt lat="42.67295" lon="1.49491">
        <ele>2215.4956054688</ele>
        <time>2010-07-14T08:42:33Z</time>
      </trkpt>
      <trkpt lat="42.67292" lon="1.49491">
        <ele>2213.5727539062</ele>
        <time>2010-07-14T08:42:45Z</time>
      </trkpt>
      <trkpt lat="42.67297" lon="1.4949">
        <ele>2216.9375</ele>
        <time>2010-07-14T08:43:25Z</time>
      </trkpt>
      <trkpt lat="42.67297" lon="1.49491">
        <ele>2215.9760742188</ele>
        <time>2010-07-14T08:43:34Z</time>
      </trkpt>
      <trkpt lat="42.67295" lon="1.49491">
        <ele>2214.5341796875</ele>
        <time>2010-07-14T08:44:49Z</time>
      </trkpt>
      <trkpt lat="42.67294" lon="1.49487">
        <ele>2215.0148925781</ele>
        <time>2010-07-14T08:44:56Z</time>
      </trkpt>
      <trkpt lat="42.67296" lon="1.49479">
        <ele>2216.4567871094</ele>
        <time>2010-07-14T08:45:02Z</time>
      </trkpt>
      <trkpt lat="42.67298" lon="1.49476">
        <ele>2217.8986816406</ele>
        <time>2010-07-14T08:45:06Z</time>
      </trkpt>
      <trkpt lat="42.67304" lon="1.49475">
        <ele>2218.3793945312</ele>
        <time>2010-07-14T08:45:12Z</time>
      </trkpt>
      <trkpt lat="42.67306" lon="1.49476">
        <ele>2218.8601074219</ele>
        <time>2010-07-14T08:45:14Z</time>
      </trkpt>
      <trkpt lat="42.67311" lon="1.49474">
        <ele>2219.8212890625</ele>
        <time>2010-07-14T08:45:19Z</time>
      </trkpt>
      <trkpt lat="42.67317" lon="1.49469">
        <ele>2220.7829589844</ele>
        <time>2010-07-14T08:45:25Z</time>
      </trkpt>
      <trkpt lat="42.67318" lon="1.49468">
        <ele>2220.7829589844</ele>
        <time>2010-07-14T08:45:26Z</time>
      </trkpt>
      <trkpt lat="42.67319" lon="1.49463">
        <ele>2221.744140625</ele>
        <time>2010-07-14T08:45:31Z</time>
      </trkpt>
      <trkpt lat="42.67322" lon="1.4945">
        <ele>2222.2248535156</ele>
        <time>2010-07-14T08:45:40Z</time>
      </trkpt>
      <trkpt lat="42.67324" lon="1.49443">
        <ele>2222.7055664062</ele>
        <time>2010-07-14T08:45:45Z</time>
      </trkpt>
      <trkpt lat="42.67325" lon="1.49439">
        <ele>2223.1862792969</ele>
        <time>2010-07-14T08:45:48Z</time>
      </trkpt>
      <trkpt lat="42.67326" lon="1.49433">
        <ele>2224.6281738281</ele>
        <time>2010-07-14T08:45:52Z</time>
      </trkpt>
      <trkpt lat="42.67329" lon="1.49424">
        <ele>2225.5893554688</ele>
        <time>2010-07-14T08:46:00Z</time>
      </trkpt>
      <trkpt lat="42.67329" lon="1.49416">
        <ele>2226.55078125</ele>
        <time>2010-07-14T08:46:06Z</time>
      </trkpt>
      <trkpt lat="42.6733" lon="1.49411">
        <ele>2227.5119628906</ele>
        <time>2010-07-14T08:46:11Z</time>
      </trkpt>
      <trkpt lat="42.67328" lon="1.49404">
        <ele>2229.4345703125</ele>
        <time>2010-07-14T08:46:18Z</time>
      </trkpt>
      <trkpt lat="42.67327" lon="1.49398">
        <ele>2230.3959960938</ele>
        <time>2010-07-14T08:46:24Z</time>
      </trkpt>
      <trkpt lat="42.67325" lon="1.49394">
        <ele>2232.3186035156</ele>
        <time>2010-07-14T08:46:30Z</time>
      </trkpt>
      <trkpt lat="42.67321" lon="1.49393">
        <ele>2233.7604980469</ele>
        <time>2010-07-14T08:46:36Z</time>
      </trkpt>
      <trkpt lat="42.67318" lon="1.49391">
        <ele>2234.7219238281</ele>
        <time>2010-07-14T08:46:41Z</time>
      </trkpt>
      <trkpt lat="42.67315" lon="1.49388">
        <ele>2235.2023925781</ele>
        <time>2010-07-14T08:46:47Z</time>
      </trkpt>
      <trkpt lat="42.67311" lon="1.49389">
        <ele>2235.6831054688</ele>
        <time>2010-07-14T08:46:54Z</time>
      </trkpt>
      <trkpt lat="42.67312" lon="1.49381">
        <ele>2236.64453125</ele>
        <time>2010-07-14T08:47:01Z</time>
      </trkpt>
      <trkpt lat="42.67315" lon="1.49373">
        <ele>2238.5673828125</ele>
        <time>2010-07-14T08:47:08Z</time>
      </trkpt>
      <trkpt lat="42.67318" lon="1.49366">
        <ele>2239.5285644531</ele>
        <time>2010-07-14T08:47:15Z</time>
      </trkpt>
      <trkpt lat="42.67316" lon="1.49363">
        <ele>2240.0092773438</ele>
        <time>2010-07-14T08:47:20Z</time>
      </trkpt>
      <trkpt lat="42.67312" lon="1.49365">
        <ele>2240.4897460938</ele>
        <time>2010-07-14T08:47:25Z</time>
      </trkpt>
      <trkpt lat="42.67307" lon="1.49368">
        <ele>2240.9704589844</ele>
        <time>2010-07-14T08:47:32Z</time>
      </trkpt>
      <trkpt lat="42.67303" lon="1.49371">
        <ele>2241.9318847656</ele>
        <time>2010-07-14T08:47:38Z</time>
      </trkpt>
      <trkpt lat="42.673" lon="1.4937">
        <ele>2243.3737792969</ele>
        <time>2010-07-14T08:47:43Z</time>
      </trkpt>
      <trkpt lat="42.673" lon="1.49363">
        <ele>2245.2963867188</ele>
        <time>2010-07-14T08:47:49Z</time>
      </trkpt>
      <trkpt lat="42.673" lon="1.49357">
        <ele>2247.2189941406</ele>
        <time>2010-07-14T08:47:56Z</time>
      </trkpt>
      <trkpt lat="42.67299" lon="1.49352">
        <ele>2247.6997070312</ele>
        <time>2010-07-14T08:48:01Z</time>
      </trkpt>
      <trkpt lat="42.67296" lon="1.49349">
        <ele>2249.6223144531</ele>
        <time>2010-07-14T08:48:08Z</time>
      </trkpt>
      <trkpt lat="42.67292" lon="1.49354">
        <ele>2250.5834960938</ele>
        <time>2010-07-14T08:48:14Z</time>
      </trkpt>
      <trkpt lat="42.67289" lon="1.49357">
        <ele>2251.544921875</ele>
        <time>2010-07-14T08:48:19Z</time>
      </trkpt>
      <trkpt lat="42.67286" lon="1.4936">
        <ele>2252.0256347656</ele>
        <time>2010-07-14T08:48:25Z</time>
      </trkpt>
      <trkpt lat="42.6728" lon="1.49362">
        <ele>2253.4677734375</ele>
        <time>2010-07-14T08:48:31Z</time>
      </trkpt>
      <trkpt lat="42.67278" lon="1.49359">
        <ele>2254.9096679688</ele>
        <time>2010-07-14T08:48:36Z</time>
      </trkpt>
      <trkpt lat="42.6728" lon="1.4935">
        <ele>2257.3129882812</ele>
        <time>2010-07-14T08:48:44Z</time>
      </trkpt>
      <trkpt lat="42.67278" lon="1.4935">
        <ele>2258.2741699219</ele>
        <time>2010-07-14T08:48:50Z</time>
      </trkpt>
      <trkpt lat="42.67273" lon="1.49353">
        <ele>2259.7160644531</ele>
        <time>2010-07-14T08:48:56Z</time>
      </trkpt>
      <trkpt lat="42.6727" lon="1.49353">
        <ele>2260.6774902344</ele>
        <time>2010-07-14T08:49:01Z</time>
      </trkpt>
      <trkpt lat="42.6727" lon="1.49349">
        <ele>2262.1193847656</ele>
        <time>2010-07-14T08:49:05Z</time>
      </trkpt>
      <trkpt lat="42.67271" lon="1.49341">
        <ele>2262.6000976562</ele>
        <time>2010-07-14T08:49:12Z</time>
      </trkpt>
      <trkpt lat="42.67273" lon="1.49335">
        <ele>2263.5612792969</ele>
        <time>2010-07-14T08:49:18Z</time>
      </trkpt>
      <trkpt lat="42.67272" lon="1.49329">
        <ele>2265.4841308594</ele>
        <time>2010-07-14T08:49:25Z</time>
      </trkpt>
      <trkpt lat="42.67271" lon="1.49325">
        <ele>2266.4453125</ele>
        <time>2010-07-14T08:49:29Z</time>
      </trkpt>
      <trkpt lat="42.6727" lon="1.49321">
        <ele>2268.3681640625</ele>
        <time>2010-07-14T08:49:35Z</time>
      </trkpt>
      <trkpt lat="42.67268" lon="1.49327">
        <ele>2271.251953125</ele>
        <time>2010-07-14T08:49:41Z</time>
      </trkpt>
      <trkpt lat="42.67264" lon="1.49327">
        <ele>2271.7326660156</ele>
        <time>2010-07-14T08:49:47Z</time>
      </trkpt>
      <trkpt lat="42.67264" lon="1.49324">
        <ele>2272.6940917969</ele>
        <time>2010-07-14T08:49:51Z</time>
      </trkpt>
      <trkpt lat="42.67263" lon="1.4932">
        <ele>2274.1359863281</ele>
        <time>2010-07-14T08:49:56Z</time>
      </trkpt>
      <trkpt lat="42.67261" lon="1.49315">
        <ele>2275.0971679688</ele>
        <time>2010-07-14T08:50:02Z</time>
      </trkpt>
      <trkpt lat="42.6726" lon="1.49316">
        <ele>2276.5393066406</ele>
        <time>2010-07-14T08:50:08Z</time>
      </trkpt>
      <trkpt lat="42.67257" lon="1.4932">
        <ele>2277.5004882812</ele>
        <time>2010-07-14T08:50:14Z</time>
      </trkpt>
      <trkpt lat="42.67254" lon="1.4932">
        <ele>2278.4619140625</ele>
        <time>2010-07-14T08:50:19Z</time>
      </trkpt>
      <trkpt lat="42.6725" lon="1.49323">
        <ele>2278.9423828125</ele>
        <time>2010-07-14T08:50:25Z</time>
      </trkpt>
      <trkpt lat="42.67247" lon="1.49324">
        <ele>2279.9038085938</ele>
        <time>2010-07-14T08:50:31Z</time>
      </trkpt>
      <trkpt lat="42.67244" lon="1.49328">
        <ele>2280.865234375</ele>
        <time>2010-07-14T08:50:37Z</time>
      </trkpt>
      <trkpt lat="42.67241" lon="1.4933">
        <ele>2281.8264160156</ele>
        <time>2010-07-14T08:50:43Z</time>
      </trkpt>
      <trkpt lat="42.67238" lon="1.4933">
        <ele>2282.7875976562</ele>
        <time>2010-07-14T08:50:48Z</time>
      </trkpt>
      <trkpt lat="42.67237" lon="1.49326">
        <ele>2284.2299804688</ele>
        <time>2010-07-14T08:50:54Z</time>
      </trkpt>
      <trkpt lat="42.67236" lon="1.49321">
        <ele>2284.7106933594</ele>
        <time>2010-07-14T08:50:59Z</time>
      </trkpt>
      <trkpt lat="42.67236" lon="1.49317">
        <ele>2285.671875</ele>
        <time>2010-07-14T08:51:04Z</time>
      </trkpt>
      <trkpt lat="42.67233" lon="1.49318">
        <ele>2287.5944824219</ele>
        <time>2010-07-14T08:51:10Z</time>
      </trkpt>
      <trkpt lat="42.6723" lon="1.49322">
        <ele>2289.5170898438</ele>
        <time>2010-07-14T08:51:16Z</time>
      </trkpt>
      <trkpt lat="42.67228" lon="1.49325">
        <ele>2290.958984375</ele>
        <time>2010-07-14T08:51:22Z</time>
      </trkpt>
      <trkpt lat="42.67225" lon="1.49325">
        <ele>2291.9204101562</ele>
        <time>2010-07-14T08:51:27Z</time>
      </trkpt>
      <trkpt lat="42.67224" lon="1.49321">
        <ele>2293.3623046875</ele>
        <time>2010-07-14T08:51:33Z</time>
      </trkpt>
      <trkpt lat="42.6722" lon="1.49323">
        <ele>2293.8430175781</ele>
        <time>2010-07-14T08:51:39Z</time>
      </trkpt>
      <trkpt lat="42.67218" lon="1.49323">
        <ele>2294.3234863281</ele>
        <time>2010-07-14T08:51:45Z</time>
      </trkpt>
      <trkpt lat="42.67218" lon="1.49318">
        <ele>2295.2849121094</ele>
        <time>2010-07-14T08:51:51Z</time>
      </trkpt>
      <trkpt lat="42.67218" lon="1.49314">
        <ele>2296.7268066406</ele>
        <time>2010-07-14T08:51:56Z</time>
      </trkpt>
      <trkpt lat="42.67221" lon="1.49312">
        <ele>2297.2075195312</ele>
        <time>2010-07-14T08:52:02Z</time>
      </trkpt>
      <trkpt lat="42.67223" lon="1.49309">
        <ele>2298.6494140625</ele>
        <time>2010-07-14T08:52:19Z</time>
      </trkpt>
      <trkpt lat="42.67223" lon="1.49306">
        <ele>2299.6108398438</ele>
        <time>2010-07-14T08:52:24Z</time>
      </trkpt>
      <trkpt lat="42.67223" lon="1.493">
        <ele>2301.0529785156</ele>
        <time>2010-07-14T08:52:30Z</time>
      </trkpt>
      <trkpt lat="42.6722" lon="1.49295">
        <ele>2302.9755859375</ele>
        <time>2010-07-14T08:52:37Z</time>
      </trkpt>
      <trkpt lat="42.67219" lon="1.49292">
        <ele>2304.4174804688</ele>
        <time>2010-07-14T08:52:43Z</time>
      </trkpt>
      <trkpt lat="42.67215" lon="1.49293">
        <ele>2305.859375</ele>
        <time>2010-07-14T08:52:49Z</time>
      </trkpt>
      <trkpt lat="42.67213" lon="1.49295">
        <ele>2306.8208007812</ele>
        <time>2010-07-14T08:52:55Z</time>
      </trkpt>
      <trkpt lat="42.6721" lon="1.49293">
        <ele>2308.2626953125</ele>
        <time>2010-07-14T08:53:01Z</time>
      </trkpt>
      <trkpt lat="42.67209" lon="1.49287">
        <ele>2309.2241210938</ele>
        <time>2010-07-14T08:53:07Z</time>
      </trkpt>
      <trkpt lat="42.67211" lon="1.49281">
        <ele>2310.666015625</ele>
        <time>2010-07-14T08:53:13Z</time>
      </trkpt>
      <trkpt lat="42.67212" lon="1.49275">
        <ele>2312.5886230469</ele>
        <time>2010-07-14T08:53:20Z</time>
      </trkpt>
      <trkpt lat="42.67211" lon="1.49274">
        <ele>2313.5498046875</ele>
        <time>2010-07-14T08:53:26Z</time>
      </trkpt>
      <trkpt lat="42.67211" lon="1.49275">
        <ele>2314.0305175781</ele>
        <time>2010-07-14T08:53:32Z</time>
      </trkpt>
      <trkpt lat="42.6721" lon="1.49275">
        <ele>2313.0693359375</ele>
        <time>2010-07-14T08:53:48Z</time>
      </trkpt>
      <trkpt lat="42.67205" lon="1.49275">
        <ele>2314.9919433594</ele>
        <time>2010-07-14T08:53:56Z</time>
      </trkpt>
      <trkpt lat="42.67204" lon="1.49273">
        <ele>2315.47265625</ele>
        <time>2010-07-14T08:54:01Z</time>
      </trkpt>
      <trkpt lat="42.67204" lon="1.4927">
        <ele>2315.47265625</ele>
        <time>2010-07-14T08:54:06Z</time>
      </trkpt>
      <trkpt lat="42.67204" lon="1.49264">
        <ele>2315.953125</ele>
        <time>2010-07-14T08:54:12Z</time>
      </trkpt>
      <trkpt lat="42.67203" lon="1.4926">
        <ele>2316.9147949219</ele>
        <time>2010-07-14T08:54:17Z</time>
      </trkpt>
      <trkpt lat="42.67202" lon="1.49255">
        <ele>2319.3181152344</ele>
        <time>2010-07-14T08:54:23Z</time>
      </trkpt>
      <trkpt lat="42.67201" lon="1.49251">
        <ele>2320.279296875</ele>
        <time>2010-07-14T08:54:29Z</time>
      </trkpt>
      <trkpt lat="42.67199" lon="1.49253">
        <ele>2321.7211914062</ele>
        <time>2010-07-14T08:54:34Z</time>
      </trkpt>
      <trkpt lat="42.67196" lon="1.49258">
        <ele>2322.2019042969</ele>
        <time>2010-07-14T08:54:40Z</time>
      </trkpt>
      <trkpt lat="42.67192" lon="1.49256">
        <ele>2324.1245117188</ele>
        <time>2010-07-14T08:54:47Z</time>
      </trkpt>
      <trkpt lat="42.67191" lon="1.49252">
        <ele>2325.56640625</ele>
        <time>2010-07-14T08:54:52Z</time>
      </trkpt>
      <trkpt lat="42.67191" lon="1.49247">
        <ele>2327.0085449219</ele>
        <time>2010-07-14T08:54:58Z</time>
      </trkpt>
      <trkpt lat="42.67191" lon="1.49242">
        <ele>2328.9309082031</ele>
        <time>2010-07-14T08:55:03Z</time>
      </trkpt>
      <trkpt lat="42.6719" lon="1.49242">
        <ele>2330.373046875</ele>
        <time>2010-07-14T08:55:09Z</time>
      </trkpt>
      <trkpt lat="42.67187" lon="1.49244">
        <ele>2331.3342285156</ele>
        <time>2010-07-14T08:55:15Z</time>
      </trkpt>
      <trkpt lat="42.67184" lon="1.49244">
        <ele>2332.7763671875</ele>
        <time>2010-07-14T08:55:21Z</time>
      </trkpt>
      <trkpt lat="42.67184" lon="1.49238">
        <ele>2334.69921875</ele>
        <time>2010-07-14T08:55:28Z</time>
      </trkpt>
      <trkpt lat="42.67182" lon="1.49233">
        <ele>2336.1411132812</ele>
        <time>2010-07-14T08:55:35Z</time>
      </trkpt>
      <trkpt lat="42.67181" lon="1.4923">
        <ele>2336.6215820312</ele>
        <time>2010-07-14T08:55:39Z</time>
      </trkpt>
      <trkpt lat="42.67179" lon="1.49225">
        <ele>2338.5444335938</ele>
        <time>2010-07-14T08:55:45Z</time>
      </trkpt>
      <trkpt lat="42.67179" lon="1.49219">
        <ele>2339.986328125</ele>
        <time>2010-07-14T08:55:51Z</time>
      </trkpt>
      <trkpt lat="42.67177" lon="1.49215">
        <ele>2341.4282226562</ele>
        <time>2010-07-14T08:55:56Z</time>
      </trkpt>
      <trkpt lat="42.67175" lon="1.49212">
        <ele>2342.3896484375</ele>
        <time>2010-07-14T08:56:02Z</time>
      </trkpt>
      <trkpt lat="42.67175" lon="1.49215">
        <ele>2344.3120117188</ele>
        <time>2010-07-14T08:56:09Z</time>
      </trkpt>
      <trkpt lat="42.67175" lon="1.49223">
        <ele>2344.7927246094</ele>
        <time>2010-07-14T08:56:14Z</time>
      </trkpt>
      <trkpt lat="42.67175" lon="1.49233">
        <ele>2345.2734375</ele>
        <time>2010-07-14T08:56:22Z</time>
      </trkpt>
      <trkpt lat="42.67173" lon="1.49241">
        <ele>2346.2348632812</ele>
        <time>2010-07-14T08:56:29Z</time>
      </trkpt>
      <trkpt lat="42.6717" lon="1.49247">
        <ele>2347.1960449219</ele>
        <time>2010-07-14T08:56:36Z</time>
      </trkpt>
      <trkpt lat="42.67168" lon="1.49243">
        <ele>2348.6381835938</ele>
        <time>2010-07-14T08:56:41Z</time>
      </trkpt>
      <trkpt lat="42.67168" lon="1.49239">
        <ele>2350.0803222656</ele>
        <time>2010-07-14T08:56:45Z</time>
      </trkpt>
      <trkpt lat="42.67166" lon="1.49233">
        <ele>2352.4833984375</ele>
        <time>2010-07-14T08:56:51Z</time>
      </trkpt>
      <trkpt lat="42.67165" lon="1.49227">
        <ele>2353.9255371094</ele>
        <time>2010-07-14T08:56:57Z</time>
      </trkpt>
      <trkpt lat="42.67165" lon="1.49223">
        <ele>2354.88671875</ele>
        <time>2010-07-14T08:57:01Z</time>
      </trkpt>
      <trkpt lat="42.67163" lon="1.49224">
        <ele>2355.8479003906</ele>
        <time>2010-07-14T08:57:06Z</time>
      </trkpt>
      <trkpt lat="42.67161" lon="1.4923">
        <ele>2356.8093261719</ele>
        <time>2010-07-14T08:57:12Z</time>
      </trkpt>
      <trkpt lat="42.67159" lon="1.49228">
        <ele>2357.7707519531</ele>
        <time>2010-07-14T08:57:16Z</time>
      </trkpt>
      <trkpt lat="42.67154" lon="1.49224">
        <ele>2359.2126464844</ele>
        <time>2010-07-14T08:57:23Z</time>
      </trkpt>
      <trkpt lat="42.67151" lon="1.4922">
        <ele>2359.6931152344</ele>
        <time>2010-07-14T08:57:29Z</time>
      </trkpt>
      <trkpt lat="42.67144" lon="1.49217">
        <ele>2360.173828125</ele>
        <time>2010-07-14T08:57:38Z</time>
      </trkpt>
      <trkpt lat="42.67138" lon="1.49215">
        <ele>2361.6159667969</ele>
        <time>2010-07-14T08:57:46Z</time>
      </trkpt>
      <trkpt lat="42.67136" lon="1.49212">
        <ele>2361.6159667969</ele>
        <time>2010-07-14T08:57:53Z</time>
      </trkpt>
      <trkpt lat="42.67136" lon="1.49211">
        <ele>2361.6159667969</ele>
        <time>2010-07-14T08:58:02Z</time>
      </trkpt>
      <trkpt lat="42.67136" lon="1.49212">
        <ele>2361.6159667969</ele>
        <time>2010-07-14T08:58:12Z</time>
      </trkpt>
      <trkpt lat="42.67138" lon="1.49212">
        <ele>2361.1352539062</ele>
        <time>2010-07-14T08:58:19Z</time>
      </trkpt>
      <trkpt lat="42.67137" lon="1.49211">
        <ele>2361.1352539062</ele>
        <time>2010-07-14T08:58:27Z</time>
      </trkpt>
      <trkpt lat="42.67134" lon="1.4921">
        <ele>2360.6545410156</ele>
        <time>2010-07-14T08:58:34Z</time>
      </trkpt>
      <trkpt lat="42.67135" lon="1.49212">
        <ele>2364.9807128906</ele>
        <time>2010-07-14T08:58:49Z</time>
      </trkpt>
      <trkpt lat="42.67135" lon="1.49213">
        <ele>2366.4226074219</ele>
        <time>2010-07-14T08:58:59Z</time>
      </trkpt>
      <trkpt lat="42.67134" lon="1.49213">
        <ele>2366.4226074219</ele>
        <time>2010-07-14T08:59:09Z</time>
      </trkpt>
      <trkpt lat="42.67134" lon="1.49213">
        <ele>2364.9807128906</ele>
        <time>2010-07-14T08:59:21Z</time>
      </trkpt>
      <trkpt lat="42.67134" lon="1.49213">
        <ele>2363.0578613281</ele>
        <time>2010-07-14T08:59:31Z</time>
      </trkpt>
      <trkpt lat="42.67134" lon="1.49213">
        <ele>2361.1352539062</ele>
        <time>2010-07-14T08:59:52Z</time>
      </trkpt>
      <trkpt lat="42.67134" lon="1.49212">
        <ele>2359.6931152344</ele>
        <time>2010-07-14T09:00:04Z</time>
      </trkpt>
      <trkpt lat="42.67131" lon="1.49213">
        <ele>2358.2512207031</ele>
        <time>2010-07-14T09:00:13Z</time>
      </trkpt>
      <trkpt lat="42.67125" lon="1.49216">
        <ele>2357.7707519531</ele>
        <time>2010-07-14T09:00:19Z</time>
      </trkpt>
      <trkpt lat="42.67118" lon="1.49213">
        <ele>2356.3286132812</ele>
        <time>2010-07-14T09:00:24Z</time>
      </trkpt>
      <trkpt lat="42.67114" lon="1.49212">
        <ele>2355.8479003906</ele>
        <time>2010-07-14T09:00:27Z</time>
      </trkpt>
      <trkpt lat="42.67108" lon="1.49209">
        <ele>2353.9255371094</ele>
        <time>2010-07-14T09:00:32Z</time>
      </trkpt>
      <trkpt lat="42.67101" lon="1.49209">
        <ele>2353.4448242188</ele>
        <time>2010-07-14T09:00:39Z</time>
      </trkpt>
      <trkpt lat="42.671" lon="1.49209">
        <ele>2353.9255371094</ele>
        <time>2010-07-14T09:00:47Z</time>
      </trkpt>
      <trkpt lat="42.67099" lon="1.49208">
        <ele>2353.9255371094</ele>
        <time>2010-07-14T09:00:56Z</time>
      </trkpt>
      <trkpt lat="42.67099" lon="1.49206">
        <ele>2353.4448242188</ele>
        <time>2010-07-14T09:01:09Z</time>
      </trkpt>
      <trkpt lat="42.67099" lon="1.49205">
        <ele>2353.4448242188</ele>
        <time>2010-07-14T09:01:17Z</time>
      </trkpt>
      <trkpt lat="42.67099" lon="1.49203">
        <ele>2353.9255371094</ele>
        <time>2010-07-14T09:01:22Z</time>
      </trkpt>
      <trkpt lat="42.67102" lon="1.4921">
        <ele>2356.3286132812</ele>
        <time>2010-07-14T09:01:28Z</time>
      </trkpt>
      <trkpt lat="42.67103" lon="1.49212">
        <ele>2356.8093261719</ele>
        <time>2010-07-14T09:01:30Z</time>
      </trkpt>
      <trkpt lat="42.6711" lon="1.49217">
        <ele>2358.2512207031</ele>
        <time>2010-07-14T09:01:38Z</time>
      </trkpt>
      <trkpt lat="42.6711" lon="1.49218">
        <ele>2359.2126464844</ele>
        <time>2010-07-14T09:01:50Z</time>
      </trkpt>
      <trkpt lat="42.67113" lon="1.49219">
        <ele>2363.0578613281</ele>
        <time>2010-07-14T09:02:03Z</time>
      </trkpt>
      <trkpt lat="42.67113" lon="1.49217">
        <ele>2364.5</ele>
        <time>2010-07-14T09:02:26Z</time>
      </trkpt>
      <trkpt lat="42.67112" lon="1.49214">
        <ele>2363.0578613281</ele>
        <time>2010-07-14T09:02:31Z</time>
      </trkpt>
      <trkpt lat="42.6711" lon="1.49212">
        <ele>2361.6159667969</ele>
        <time>2010-07-14T09:02:40Z</time>
      </trkpt>
      <trkpt lat="42.67105" lon="1.4921">
        <ele>2361.1352539062</ele>
        <time>2010-07-14T09:02:45Z</time>
      </trkpt>
      <trkpt lat="42.67104" lon="1.49209">
        <ele>2360.173828125</ele>
        <time>2010-07-14T09:02:47Z</time>
      </trkpt>
      <trkpt lat="42.67097" lon="1.492">
        <ele>2359.6931152344</ele>
        <time>2010-07-14T09:02:54Z</time>
      </trkpt>
      <trkpt lat="42.67091" lon="1.49195">
        <ele>2355.8479003906</ele>
        <time>2010-07-14T09:03:00Z</time>
      </trkpt>
      <trkpt lat="42.67081" lon="1.4919">
        <ele>2353.4448242188</ele>
        <time>2010-07-14T09:03:08Z</time>
      </trkpt>
      <trkpt lat="42.67073" lon="1.49188">
        <ele>2351.5222167969</ele>
        <time>2010-07-14T09:03:15Z</time>
      </trkpt>
      <trkpt lat="42.67067" lon="1.49186">
        <ele>2351.0415039062</ele>
        <time>2010-07-14T09:03:20Z</time>
      </trkpt>
      <trkpt lat="42.67062" lon="1.49186">
        <ele>2350.5607910156</ele>
        <time>2010-07-14T09:03:24Z</time>
      </trkpt>
      <trkpt lat="42.67057" lon="1.49189">
        <ele>2349.1188964844</ele>
        <time>2010-07-14T09:03:29Z</time>
      </trkpt>
      <trkpt lat="42.67047" lon="1.49184">
        <ele>2347.6767578125</ele>
        <time>2010-07-14T09:03:37Z</time>
      </trkpt>
      <trkpt lat="42.67039" lon="1.49179">
        <ele>2348.1574707031</ele>
        <time>2010-07-14T09:03:44Z</time>
      </trkpt>
      <trkpt lat="42.67026" lon="1.49173">
        <ele>2347.1960449219</ele>
        <time>2010-07-14T09:03:54Z</time>
      </trkpt>
      <trkpt lat="42.67019" lon="1.49169">
        <ele>2346.7153320312</ele>
        <time>2010-07-14T09:04:00Z</time>
      </trkpt>
      <trkpt lat="42.67013" lon="1.49163">
        <ele>2346.2348632812</ele>
        <time>2010-07-14T09:04:06Z</time>
      </trkpt>
      <trkpt lat="42.67012" lon="1.49162">
        <ele>2346.7153320312</ele>
        <time>2010-07-14T09:04:07Z</time>
      </trkpt>
      <trkpt lat="42.67003" lon="1.49158">
        <ele>2347.1960449219</ele>
        <time>2010-07-14T09:04:14Z</time>
      </trkpt>
      <trkpt lat="42.67" lon="1.49155">
        <ele>2347.1960449219</ele>
        <time>2010-07-14T09:04:17Z</time>
      </trkpt>
      <trkpt lat="42.66996" lon="1.49149">
        <ele>2349.1188964844</ele>
        <time>2010-07-14T09:04:23Z</time>
      </trkpt>
      <trkpt lat="42.66992" lon="1.49146">
        <ele>2349.599609375</ele>
        <time>2010-07-14T09:04:27Z</time>
      </trkpt>
      <trkpt lat="42.66989" lon="1.49139">
        <ele>2350.0803222656</ele>
        <time>2010-07-14T09:04:32Z</time>
      </trkpt>
      <trkpt lat="42.66982" lon="1.49134">
        <ele>2350.5607910156</ele>
        <time>2010-07-14T09:04:39Z</time>
      </trkpt>
      <trkpt lat="42.66975" lon="1.49126">
        <ele>2352.0026855469</ele>
        <time>2010-07-14T09:04:47Z</time>
      </trkpt>
      <trkpt lat="42.66975" lon="1.49125">
        <ele>2351.5222167969</ele>
        <time>2010-07-14T09:04:48Z</time>
      </trkpt>
      <trkpt lat="42.66968" lon="1.49116">
        <ele>2352.4833984375</ele>
        <time>2010-07-14T09:04:56Z</time>
      </trkpt>
      <trkpt lat="42.66964" lon="1.49109">
        <ele>2352.4833984375</ele>
        <time>2010-07-14T09:05:01Z</time>
      </trkpt>
      <trkpt lat="42.66959" lon="1.49101">
        <ele>2354.88671875</ele>
        <time>2010-07-14T09:05:09Z</time>
      </trkpt>
      <trkpt lat="42.66958" lon="1.49098">
        <ele>2355.3674316406</ele>
        <time>2010-07-14T09:05:11Z</time>
      </trkpt>
      <trkpt lat="42.66955" lon="1.49088">
        <ele>2355.3674316406</ele>
        <time>2010-07-14T09:05:18Z</time>
      </trkpt>
      <trkpt lat="42.66953" lon="1.4908">
        <ele>2356.3286132812</ele>
        <time>2010-07-14T09:05:25Z</time>
      </trkpt>
      <trkpt lat="42.66951" lon="1.49075">
        <ele>2357.7707519531</ele>
        <time>2010-07-14T09:05:31Z</time>
      </trkpt>
      <trkpt lat="42.66945" lon="1.49067">
        <ele>2358.7319335938</ele>
        <time>2010-07-14T09:05:40Z</time>
      </trkpt>
      <trkpt lat="42.66939" lon="1.49062">
        <ele>2360.173828125</ele>
        <time>2010-07-14T09:05:48Z</time>
      </trkpt>
      <trkpt lat="42.66935" lon="1.49059">
        <ele>2360.173828125</ele>
        <time>2010-07-14T09:05:53Z</time>
      </trkpt>
      <trkpt lat="42.66935" lon="1.49056">
        <ele>2361.1352539062</ele>
        <time>2010-07-14T09:05:57Z</time>
      </trkpt>
      <trkpt lat="42.6694" lon="1.49055">
        <ele>2362.0964355469</ele>
        <time>2010-07-14T09:06:04Z</time>
      </trkpt>
      <trkpt lat="42.66946" lon="1.49056">
        <ele>2363.5383300781</ele>
        <time>2010-07-14T09:06:10Z</time>
      </trkpt>
      <trkpt lat="42.66948" lon="1.49054">
        <ele>2364.5</ele>
        <time>2010-07-14T09:06:15Z</time>
      </trkpt>
      <trkpt lat="42.66942" lon="1.49049">
        <ele>2366.9033203125</ele>
        <time>2010-07-14T09:06:23Z</time>
      </trkpt>
      <trkpt lat="42.66938" lon="1.49046">
        <ele>2367.8645019531</ele>
        <time>2010-07-14T09:06:28Z</time>
      </trkpt>
      <trkpt lat="42.66933" lon="1.49042">
        <ele>2368.8259277344</ele>
        <time>2010-07-14T09:06:35Z</time>
      </trkpt>
      <trkpt lat="42.66927" lon="1.49037">
        <ele>2370.2678222656</ele>
        <time>2010-07-14T09:06:44Z</time>
      </trkpt>
      <trkpt lat="42.66923" lon="1.49034">
        <ele>2372.1904296875</ele>
        <time>2010-07-14T09:06:51Z</time>
      </trkpt>
      <trkpt lat="42.66918" lon="1.4903">
        <ele>2373.6323242188</ele>
        <time>2010-07-14T09:06:57Z</time>
      </trkpt>
      <trkpt lat="42.66916" lon="1.49029">
        <ele>2374.1130371094</ele>
        <time>2010-07-14T09:06:59Z</time>
      </trkpt>
      <trkpt lat="42.66906" lon="1.49022">
        <ele>2373.6323242188</ele>
        <time>2010-07-14T09:07:07Z</time>
      </trkpt>
      <trkpt lat="42.66899" lon="1.49018">
        <ele>2373.6323242188</ele>
        <time>2010-07-14T09:07:13Z</time>
      </trkpt>
      <trkpt lat="42.66891" lon="1.49011">
        <ele>2371.7097167969</ele>
        <time>2010-07-14T09:07:20Z</time>
      </trkpt>
      <trkpt lat="42.66884" lon="1.49002">
        <ele>2369.306640625</ele>
        <time>2010-07-14T09:07:27Z</time>
      </trkpt>
      <trkpt lat="42.66878" lon="1.48997">
        <ele>2368.8259277344</ele>
        <time>2010-07-14T09:07:32Z</time>
      </trkpt>
      <trkpt lat="42.66872" lon="1.48991">
        <ele>2368.8259277344</ele>
        <time>2010-07-14T09:07:37Z</time>
      </trkpt>
      <trkpt lat="42.66872" lon="1.4899">
        <ele>2368.3452148438</ele>
        <time>2010-07-14T09:07:38Z</time>
      </trkpt>
      <trkpt lat="42.66864" lon="1.48982">
        <ele>2367.8645019531</ele>
        <time>2010-07-14T09:07:45Z</time>
      </trkpt>
      <trkpt lat="42.66858" lon="1.48977">
        <ele>2367.3837890625</ele>
        <time>2010-07-14T09:07:50Z</time>
      </trkpt>
      <trkpt lat="42.66851" lon="1.48974">
        <ele>2366.9033203125</ele>
        <time>2010-07-14T09:07:55Z</time>
      </trkpt>
      <trkpt lat="42.66846" lon="1.4897">
        <ele>2366.9033203125</ele>
        <time>2010-07-14T09:08:00Z</time>
      </trkpt>
      <trkpt lat="42.66842" lon="1.48967">
        <ele>2366.9033203125</ele>
        <time>2010-07-14T09:08:04Z</time>
      </trkpt>
      <trkpt lat="42.66836" lon="1.48962">
        <ele>2367.3837890625</ele>
        <time>2010-07-14T09:08:09Z</time>
      </trkpt>
      <trkpt lat="42.66829" lon="1.48957">
        <ele>2367.3837890625</ele>
        <time>2010-07-14T09:08:14Z</time>
      </trkpt>
      <trkpt lat="42.66823" lon="1.48953">
        <ele>2366.9033203125</ele>
        <time>2010-07-14T09:08:19Z</time>
      </trkpt>
      <trkpt lat="42.66817" lon="1.48946">
        <ele>2367.3837890625</ele>
        <time>2010-07-14T09:08:25Z</time>
      </trkpt>
      <trkpt lat="42.6681" lon="1.4894">
        <ele>2367.3837890625</ele>
        <time>2010-07-14T09:08:31Z</time>
      </trkpt>
      <trkpt lat="42.66807" lon="1.48936">
        <ele>2367.8645019531</ele>
        <time>2010-07-14T09:08:34Z</time>
      </trkpt>
      <trkpt lat="42.66799" lon="1.48929">
        <ele>2367.8645019531</ele>
        <time>2010-07-14T09:08:42Z</time>
      </trkpt>
      <trkpt lat="42.66793" lon="1.48924">
        <ele>2368.3452148438</ele>
        <time>2010-07-14T09:08:47Z</time>
      </trkpt>
      <trkpt lat="42.66787" lon="1.48918">
        <ele>2368.3452148438</ele>
        <time>2010-07-14T09:08:54Z</time>
      </trkpt>
      <trkpt lat="42.6678" lon="1.48911">
        <ele>2368.8259277344</ele>
        <time>2010-07-14T09:09:01Z</time>
      </trkpt>
      <trkpt lat="42.66774" lon="1.48903">
        <ele>2370.2678222656</ele>
        <time>2010-07-14T09:09:09Z</time>
      </trkpt>
      <trkpt lat="42.66768" lon="1.48896">
        <ele>2370.2678222656</ele>
        <time>2010-07-14T09:09:16Z</time>
      </trkpt>
      <trkpt lat="42.66763" lon="1.48887">
        <ele>2371.7097167969</ele>
        <time>2010-07-14T09:09:23Z</time>
      </trkpt>
      <trkpt lat="42.66759" lon="1.4888">
        <ele>2371.7097167969</ele>
        <time>2010-07-14T09:09:29Z</time>
      </trkpt>
      <trkpt lat="42.66755" lon="1.48875">
        <ele>2371.7097167969</ele>
        <time>2010-07-14T09:09:33Z</time>
      </trkpt>
      <trkpt lat="42.66752" lon="1.48866">
        <ele>2372.1904296875</ele>
        <time>2010-07-14T09:09:39Z</time>
      </trkpt>
      <trkpt lat="42.66748" lon="1.48856">
        <ele>2373.1518554688</ele>
        <time>2010-07-14T09:09:46Z</time>
      </trkpt>
      <trkpt lat="42.66746" lon="1.48851">
        <ele>2373.1518554688</ele>
        <time>2010-07-14T09:09:50Z</time>
      </trkpt>
      <trkpt lat="42.66742" lon="1.4884">
        <ele>2373.1518554688</ele>
        <time>2010-07-14T09:09:57Z</time>
      </trkpt>
      <trkpt lat="42.66738" lon="1.48832">
        <ele>2373.1518554688</ele>
        <time>2010-07-14T09:10:03Z</time>
      </trkpt>
      <trkpt lat="42.66734" lon="1.48826">
        <ele>2374.59375</ele>
        <time>2010-07-14T09:10:09Z</time>
      </trkpt>
      <trkpt lat="42.6673" lon="1.48822">
        <ele>2375.07421875</ele>
        <time>2010-07-14T09:10:13Z</time>
      </trkpt>
      <trkpt lat="42.66725" lon="1.48817">
        <ele>2375.07421875</ele>
        <time>2010-07-14T09:10:18Z</time>
      </trkpt>
      <trkpt lat="42.66719" lon="1.48813">
        <ele>2374.59375</ele>
        <time>2010-07-14T09:10:24Z</time>
      </trkpt>
      <trkpt lat="42.66714" lon="1.4881">
        <ele>2375.07421875</ele>
        <time>2010-07-14T09:10:29Z</time>
      </trkpt>
      <trkpt lat="42.6671" lon="1.48805">
        <ele>2375.07421875</ele>
        <time>2010-07-14T09:10:35Z</time>
      </trkpt>
      <trkpt lat="42.66709" lon="1.48805">
        <ele>2375.5549316406</ele>
        <time>2010-07-14T09:10:36Z</time>
      </trkpt>
      <trkpt lat="42.66705" lon="1.48803">
        <ele>2375.5549316406</ele>
        <time>2010-07-14T09:10:40Z</time>
      </trkpt>
      <trkpt lat="42.66698" lon="1.48803">
        <ele>2375.07421875</ele>
        <time>2010-07-14T09:10:46Z</time>
      </trkpt>
      <trkpt lat="42.66689" lon="1.48805">
        <ele>2375.07421875</ele>
        <time>2010-07-14T09:10:53Z</time>
      </trkpt>
      <trkpt lat="42.66681" lon="1.48804">
        <ele>2374.59375</ele>
        <time>2010-07-14T09:10:59Z</time>
      </trkpt>
      <trkpt lat="42.66672" lon="1.488">
        <ele>2373.6323242188</ele>
        <time>2010-07-14T09:11:06Z</time>
      </trkpt>
      <trkpt lat="42.66665" lon="1.48798">
        <ele>2374.1130371094</ele>
        <time>2010-07-14T09:11:12Z</time>
      </trkpt>
      <trkpt lat="42.66659" lon="1.48797">
        <ele>2375.5549316406</ele>
        <time>2010-07-14T09:11:17Z</time>
      </trkpt>
      <trkpt lat="42.66655" lon="1.48795">
        <ele>2376.0356445312</ele>
        <time>2010-07-14T09:11:21Z</time>
      </trkpt>
      <trkpt lat="42.66648" lon="1.48794">
        <ele>2376.9970703125</ele>
        <time>2010-07-14T09:11:28Z</time>
      </trkpt>
      <trkpt lat="42.66645" lon="1.48791">
        <ele>2379.4001464844</ele>
        <time>2010-07-14T09:11:34Z</time>
      </trkpt>
      <trkpt lat="42.66642" lon="1.48788">
        <ele>2380.3618164062</ele>
        <time>2010-07-14T09:11:38Z</time>
      </trkpt>
      <trkpt lat="42.66639" lon="1.48787">
        <ele>2381.8037109375</ele>
        <time>2010-07-14T09:11:44Z</time>
      </trkpt>
      <trkpt lat="42.66636" lon="1.48785">
        <ele>2382.7648925781</ele>
        <time>2010-07-14T09:11:49Z</time>
      </trkpt>
      <trkpt lat="42.66632" lon="1.48782">
        <ele>2384.20703125</ele>
        <time>2010-07-14T09:11:54Z</time>
      </trkpt>
      <trkpt lat="42.66627" lon="1.48778">
        <ele>2385.1682128906</ele>
        <time>2010-07-14T09:12:00Z</time>
      </trkpt>
      <trkpt lat="42.66623" lon="1.48773">
        <ele>2385.6489257812</ele>
        <time>2010-07-14T09:12:07Z</time>
      </trkpt>
      <trkpt lat="42.66621" lon="1.48768">
        <ele>2386.1296386719</ele>
        <time>2010-07-14T09:12:12Z</time>
      </trkpt>
      <trkpt lat="42.66617" lon="1.48764">
        <ele>2387.0908203125</ele>
        <time>2010-07-14T09:12:20Z</time>
      </trkpt>
      <trkpt lat="42.66613" lon="1.4876">
        <ele>2388.5329589844</ele>
        <time>2010-07-14T09:12:26Z</time>
      </trkpt>
      <trkpt lat="42.66611" lon="1.48757">
        <ele>2389.0134277344</ele>
        <time>2010-07-14T09:12:31Z</time>
      </trkpt>
      <trkpt lat="42.66608" lon="1.48755">
        <ele>2389.9748535156</ele>
        <time>2010-07-14T09:12:36Z</time>
      </trkpt>
      <trkpt lat="42.66604" lon="1.48751">
        <ele>2390.9360351562</ele>
        <time>2010-07-14T09:12:42Z</time>
      </trkpt>
      <trkpt lat="42.66598" lon="1.48751">
        <ele>2391.8974609375</ele>
        <time>2010-07-14T09:12:48Z</time>
      </trkpt>
      <trkpt lat="42.66593" lon="1.4875">
        <ele>2392.8586425781</ele>
        <time>2010-07-14T09:12:53Z</time>
      </trkpt>
      <trkpt lat="42.66587" lon="1.48748">
        <ele>2393.8200683594</ele>
        <time>2010-07-14T09:13:00Z</time>
      </trkpt>
      <trkpt lat="42.6658" lon="1.48747">
        <ele>2395.2619628906</ele>
        <time>2010-07-14T09:13:07Z</time>
      </trkpt>
      <trkpt lat="42.66575" lon="1.48744">
        <ele>2396.2236328125</ele>
        <time>2010-07-14T09:13:12Z</time>
      </trkpt>
      <trkpt lat="42.66571" lon="1.48741">
        <ele>2396.7041015625</ele>
        <time>2010-07-14T09:13:16Z</time>
      </trkpt>
      <trkpt lat="42.66565" lon="1.48737">
        <ele>2396.2236328125</ele>
        <time>2010-07-14T09:13:22Z</time>
      </trkpt>
      <trkpt lat="42.66561" lon="1.48735">
        <ele>2396.7041015625</ele>
        <time>2010-07-14T09:13:27Z</time>
      </trkpt>
      <trkpt lat="42.66556" lon="1.48735">
        <ele>2398.1459960938</ele>
        <time>2010-07-14T09:13:33Z</time>
      </trkpt>
      <trkpt lat="42.6655" lon="1.48738">
        <ele>2399.107421875</ele>
        <time>2010-07-14T09:13:40Z</time>
      </trkpt>
      <trkpt lat="42.66544" lon="1.48739">
        <ele>2401.0300292969</ele>
        <time>2010-07-14T09:13:48Z</time>
      </trkpt>
      <trkpt lat="42.6654" lon="1.48742">
        <ele>2402.4719238281</ele>
        <time>2010-07-14T09:13:54Z</time>
      </trkpt>
      <trkpt lat="42.66535" lon="1.48747">
        <ele>2403.9140625</ele>
        <time>2010-07-14T09:14:00Z</time>
      </trkpt>
      <trkpt lat="42.66531" lon="1.48751">
        <ele>2405.3559570312</ele>
        <time>2010-07-14T09:14:05Z</time>
      </trkpt>
      <trkpt lat="42.66528" lon="1.48751">
        <ele>2406.3171386719</ele>
        <time>2010-07-14T09:14:10Z</time>
      </trkpt>
      <trkpt lat="42.66528" lon="1.4875">
        <ele>2407.7592773438</ele>
        <time>2010-07-14T09:14:24Z</time>
      </trkpt>
      <trkpt lat="42.66528" lon="1.48743">
        <ele>2409.681640625</ele>
        <time>2010-07-14T09:14:30Z</time>
      </trkpt>
      <trkpt lat="42.66528" lon="1.48737">
        <ele>2412.0852050781</ele>
        <time>2010-07-14T09:14:37Z</time>
      </trkpt>
      <trkpt lat="42.66526" lon="1.48735">
        <ele>2413.0466308594</ele>
        <time>2010-07-14T09:14:42Z</time>
      </trkpt>
      <trkpt lat="42.66517" lon="1.48735">
        <ele>2414.0078125</ele>
        <time>2010-07-14T09:14:51Z</time>
      </trkpt>
      <trkpt lat="42.66513" lon="1.48734">
        <ele>2414.4885253906</ele>
        <time>2010-07-14T09:14:57Z</time>
      </trkpt>
      <trkpt lat="42.6651" lon="1.48733">
        <ele>2414.9692382812</ele>
        <time>2010-07-14T09:15:04Z</time>
      </trkpt>
      <trkpt lat="42.66503" lon="1.48732">
        <ele>2415.4499511719</ele>
        <time>2010-07-14T09:15:11Z</time>
      </trkpt>
      <trkpt lat="42.665" lon="1.48732">
        <ele>2415.9304199219</ele>
        <time>2010-07-14T09:15:13Z</time>
      </trkpt>
      <trkpt lat="42.66493" lon="1.48731">
        <ele>2415.4499511719</ele>
        <time>2010-07-14T09:15:19Z</time>
      </trkpt>
      <trkpt lat="42.66487" lon="1.48735">
        <ele>2415.4499511719</ele>
        <time>2010-07-14T09:15:25Z</time>
      </trkpt>
      <trkpt lat="42.66481" lon="1.48743">
        <ele>2415.4499511719</ele>
        <time>2010-07-14T09:15:32Z</time>
      </trkpt>
      <trkpt lat="42.6648" lon="1.48748">
        <ele>2415.4499511719</ele>
        <time>2010-07-14T09:15:37Z</time>
      </trkpt>
      <trkpt lat="42.66478" lon="1.48752">
        <ele>2417.3723144531</ele>
        <time>2010-07-14T09:15:42Z</time>
      </trkpt>
      <trkpt lat="42.66472" lon="1.48747">
        <ele>2419.2951660156</ele>
        <time>2010-07-14T09:15:49Z</time>
      </trkpt>
      <trkpt lat="42.66468" lon="1.48747">
        <ele>2420.7370605469</ele>
        <time>2010-07-14T09:15:55Z</time>
      </trkpt>
      <trkpt lat="42.6647" lon="1.48752">
        <ele>2421.6982421875</ele>
        <time>2010-07-14T09:16:00Z</time>
      </trkpt>
      <trkpt lat="42.66468" lon="1.48757">
        <ele>2422.6596679688</ele>
        <time>2010-07-14T09:16:05Z</time>
      </trkpt>
      <trkpt lat="42.66464" lon="1.48758">
        <ele>2422.6596679688</ele>
        <time>2010-07-14T09:16:10Z</time>
      </trkpt>
      <trkpt lat="42.66458" lon="1.48753">
        <ele>2423.1403808594</ele>
        <time>2010-07-14T09:16:17Z</time>
      </trkpt>
      <trkpt lat="42.66453" lon="1.48746">
        <ele>2424.1015625</ele>
        <time>2010-07-14T09:16:23Z</time>
      </trkpt>
      <trkpt lat="42.66452" lon="1.48744">
        <ele>2424.5822753906</ele>
        <time>2010-07-14T09:16:25Z</time>
      </trkpt>
      <trkpt lat="42.66447" lon="1.48743">
        <ele>2425.5434570312</ele>
        <time>2010-07-14T09:16:29Z</time>
      </trkpt>
      <trkpt lat="42.66441" lon="1.48739">
        <ele>2426.5048828125</ele>
        <time>2010-07-14T09:16:35Z</time>
      </trkpt>
      <trkpt lat="42.66436" lon="1.48745">
        <ele>2427.4660644531</ele>
        <time>2010-07-14T09:16:42Z</time>
      </trkpt>
      <trkpt lat="42.6643" lon="1.48751">
        <ele>2427.9467773438</ele>
        <time>2010-07-14T09:16:49Z</time>
      </trkpt>
      <trkpt lat="42.66429" lon="1.48751">
        <ele>2428.427734375</ele>
        <time>2010-07-14T09:16:50Z</time>
      </trkpt>
      <trkpt lat="42.66423" lon="1.48758">
        <ele>2428.427734375</ele>
        <time>2010-07-14T09:16:57Z</time>
      </trkpt>
      <trkpt lat="42.66423" lon="1.48765">
        <ele>2429.3889160156</ele>
        <time>2010-07-14T09:17:02Z</time>
      </trkpt>
      <trkpt lat="42.66425" lon="1.48779">
        <ele>2429.8696289062</ele>
        <time>2010-07-14T09:17:10Z</time>
      </trkpt>
      <trkpt lat="42.6643" lon="1.4879">
        <ele>2428.427734375</ele>
        <time>2010-07-14T09:17:17Z</time>
      </trkpt>
      <trkpt lat="42.66431" lon="1.48791">
        <ele>2428.427734375</ele>
        <time>2010-07-14T09:17:18Z</time>
      </trkpt>
      <trkpt lat="42.66434" lon="1.48804">
        <ele>2427.9467773438</ele>
        <time>2010-07-14T09:17:25Z</time>
      </trkpt>
      <trkpt lat="42.66441" lon="1.48814">
        <ele>2427.4660644531</ele>
        <time>2010-07-14T09:17:32Z</time>
      </trkpt>
      <trkpt lat="42.66442" lon="1.48817">
        <ele>2427.4660644531</ele>
        <time>2010-07-14T09:17:34Z</time>
      </trkpt>
      <trkpt lat="42.66445" lon="1.48822">
        <ele>2428.908203125</ele>
        <time>2010-07-14T09:17:40Z</time>
      </trkpt>
      <trkpt lat="42.66447" lon="1.48829">
        <ele>2430.8310546875</ele>
        <time>2010-07-14T09:17:46Z</time>
      </trkpt>
      <trkpt lat="42.66449" lon="1.48835">
        <ele>2432.2729492188</ele>
        <time>2010-07-14T09:17:52Z</time>
      </trkpt>
      <trkpt lat="42.66451" lon="1.48844">
        <ele>2433.71484375</ele>
        <time>2010-07-14T09:17:59Z</time>
      </trkpt>
      <trkpt lat="42.66452" lon="1.48846">
        <ele>2433.71484375</ele>
        <time>2010-07-14T09:18:01Z</time>
      </trkpt>
      <trkpt lat="42.66456" lon="1.48854">
        <ele>2433.71484375</ele>
        <time>2010-07-14T09:18:07Z</time>
      </trkpt>
      <trkpt lat="42.66455" lon="1.48862">
        <ele>2435.1567382812</ele>
        <time>2010-07-14T09:18:13Z</time>
      </trkpt>
      <trkpt lat="42.66455" lon="1.48864">
        <ele>2435.6374511719</ele>
        <time>2010-07-14T09:18:14Z</time>
      </trkpt>
      <trkpt lat="42.66453" lon="1.48875">
        <ele>2435.6374511719</ele>
        <time>2010-07-14T09:18:21Z</time>
      </trkpt>
      <trkpt lat="42.66453" lon="1.48888">
        <ele>2436.1181640625</ele>
        <time>2010-07-14T09:18:29Z</time>
      </trkpt>
      <trkpt lat="42.66452" lon="1.48892">
        <ele>2437.0793457031</ele>
        <time>2010-07-14T09:18:32Z</time>
      </trkpt>
      <trkpt lat="42.66456" lon="1.48898">
        <ele>2438.0407714844</ele>
        <time>2010-07-14T09:18:39Z</time>
      </trkpt>
      <trkpt lat="42.6646" lon="1.48907">
        <ele>2440.4438476562</ele>
        <time>2010-07-14T09:18:47Z</time>
      </trkpt>
      <trkpt lat="42.66462" lon="1.48911">
        <ele>2441.4052734375</ele>
        <time>2010-07-14T09:18:50Z</time>
      </trkpt>
      <trkpt lat="42.66462" lon="1.4892">
        <ele>2441.4052734375</ele>
        <time>2010-07-14T09:18:57Z</time>
      </trkpt>
      <trkpt lat="42.66464" lon="1.48927">
        <ele>2442.3666992188</ele>
        <time>2010-07-14T09:19:02Z</time>
      </trkpt>
      <trkpt lat="42.66468" lon="1.48934">
        <ele>2443.3278808594</ele>
        <time>2010-07-14T09:19:09Z</time>
      </trkpt>
      <trkpt lat="42.66472" lon="1.48937">
        <ele>2445.2507324219</ele>
        <time>2010-07-14T09:19:16Z</time>
      </trkpt>
      <trkpt lat="42.66473" lon="1.48941">
        <ele>2447.6540527344</ele>
        <time>2010-07-14T09:19:21Z</time>
      </trkpt>
      <trkpt lat="42.66473" lon="1.48947">
        <ele>2448.615234375</ele>
        <time>2010-07-14T09:19:27Z</time>
      </trkpt>
      <trkpt lat="42.66475" lon="1.4895">
        <ele>2447.1733398438</ele>
        <time>2010-07-14T09:19:31Z</time>
      </trkpt>
      <trkpt lat="42.66482" lon="1.4895">
        <ele>2446.2121582031</ele>
        <time>2010-07-14T09:19:36Z</time>
      </trkpt>
      <trkpt lat="42.66485" lon="1.48951">
        <ele>2447.1733398438</ele>
        <time>2010-07-14T09:19:41Z</time>
      </trkpt>
      <trkpt lat="42.66486" lon="1.48954">
        <ele>2448.1345214844</ele>
        <time>2010-07-14T09:19:45Z</time>
      </trkpt>
      <trkpt lat="42.66489" lon="1.48961">
        <ele>2451.0185546875</ele>
        <time>2010-07-14T09:19:52Z</time>
      </trkpt>
      <trkpt lat="42.66492" lon="1.48968">
        <ele>2452.9411621094</ele>
        <time>2010-07-14T09:19:59Z</time>
      </trkpt>
      <trkpt lat="42.66494" lon="1.4897">
        <ele>2453.421875</ele>
        <time>2010-07-14T09:20:02Z</time>
      </trkpt>
      <trkpt lat="42.66491" lon="1.48973">
        <ele>2460.1511230469</ele>
        <time>2010-07-14T09:29:39Z</time>
      </trkpt>
      <trkpt lat="42.6649" lon="1.48973">
        <ele>2460.1511230469</ele>
        <time>2010-07-14T09:29:40Z</time>
      </trkpt>
      <trkpt lat="42.66485" lon="1.48973">
        <ele>2458.708984375</ele>
        <time>2010-07-14T09:29:45Z</time>
      </trkpt>
      <trkpt lat="42.66481" lon="1.48975">
        <ele>2457.7478027344</ele>
        <time>2010-07-14T09:29:53Z</time>
      </trkpt>
      <trkpt lat="42.66478" lon="1.48977">
        <ele>2456.3056640625</ele>
        <time>2010-07-14T09:30:01Z</time>
      </trkpt>
      <trkpt lat="42.66483" lon="1.48973">
        <ele>2456.7863769531</ele>
        <time>2010-07-14T09:30:07Z</time>
      </trkpt>
      <trkpt lat="42.66484" lon="1.48971">
        <ele>2457.2670898438</ele>
        <time>2010-07-14T09:30:14Z</time>
      </trkpt>
      <trkpt lat="42.66483" lon="1.48975">
        <ele>2456.3056640625</ele>
        <time>2010-07-14T09:30:22Z</time>
      </trkpt>
      <trkpt lat="42.66479" lon="1.4898">
        <ele>2455.8249511719</ele>
        <time>2010-07-14T09:30:29Z</time>
      </trkpt>
      <trkpt lat="42.6648" lon="1.48982">
        <ele>2455.8249511719</ele>
        <time>2010-07-14T09:30:34Z</time>
      </trkpt>
      <trkpt lat="42.66479" lon="1.48985">
        <ele>2455.3444824219</ele>
        <time>2010-07-14T09:30:39Z</time>
      </trkpt>
      <trkpt lat="42.66475" lon="1.48986">
        <ele>2452.9411621094</ele>
        <time>2010-07-14T09:30:49Z</time>
      </trkpt>
      <trkpt lat="42.66474" lon="1.48987">
        <ele>2452.9411621094</ele>
        <time>2010-07-14T09:30:50Z</time>
      </trkpt>
      <trkpt lat="42.66469" lon="1.48991">
        <ele>2452.4604492188</ele>
        <time>2010-07-14T09:30:58Z</time>
      </trkpt>
      <trkpt lat="42.66468" lon="1.48994">
        <ele>2451.4992675781</ele>
        <time>2010-07-14T09:31:04Z</time>
      </trkpt>
      <trkpt lat="42.66467" lon="1.48996">
        <ele>2450.5378417969</ele>
        <time>2010-07-14T09:31:10Z</time>
      </trkpt>
      <trkpt lat="42.66465" lon="1.48996">
        <ele>2450.5378417969</ele>
        <time>2010-07-14T09:31:16Z</time>
      </trkpt>
      <trkpt lat="42.66459" lon="1.48998">
        <ele>2449.5766601562</ele>
        <time>2010-07-14T09:31:24Z</time>
      </trkpt>
      <trkpt lat="42.66451" lon="1.48997">
        <ele>2449.0959472656</ele>
        <time>2010-07-14T09:31:32Z</time>
      </trkpt>
      <trkpt lat="42.66447" lon="1.48994">
        <ele>2448.1345214844</ele>
        <time>2010-07-14T09:31:38Z</time>
      </trkpt>
      <trkpt lat="42.66446" lon="1.48995">
        <ele>2447.6540527344</ele>
        <time>2010-07-14T09:31:45Z</time>
      </trkpt>
      <trkpt lat="42.66443" lon="1.48992">
        <ele>2445.7314453125</ele>
        <time>2010-07-14T09:31:51Z</time>
      </trkpt>
      <trkpt lat="42.66443" lon="1.48992">
        <ele>2444.2893066406</ele>
        <time>2010-07-14T09:31:58Z</time>
      </trkpt>
      <trkpt lat="42.6644" lon="1.48992">
        <ele>2443.80859375</ele>
        <time>2010-07-14T09:32:05Z</time>
      </trkpt>
      <trkpt lat="42.66436" lon="1.48992">
        <ele>2442.3666992188</ele>
        <time>2010-07-14T09:32:12Z</time>
      </trkpt>
      <trkpt lat="42.66436" lon="1.48991">
        <ele>2441.8859863281</ele>
        <time>2010-07-14T09:32:19Z</time>
      </trkpt>
      <trkpt lat="42.66433" lon="1.48991">
        <ele>2440.9245605469</ele>
        <time>2010-07-14T09:32:26Z</time>
      </trkpt>
      <trkpt lat="42.66431" lon="1.48989">
        <ele>2440.4438476562</ele>
        <time>2010-07-14T09:32:32Z</time>
      </trkpt>
      <trkpt lat="42.66431" lon="1.48989">
        <ele>2440.4438476562</ele>
        <time>2010-07-14T09:32:38Z</time>
      </trkpt>
      <trkpt lat="42.6643" lon="1.48989">
        <ele>2440.4438476562</ele>
        <time>2010-07-14T09:32:46Z</time>
      </trkpt>
      <trkpt lat="42.66428" lon="1.48987">
        <ele>2439.9633789062</ele>
        <time>2010-07-14T09:32:52Z</time>
      </trkpt>
      <trkpt lat="42.66426" lon="1.48988">
        <ele>2439.001953125</ele>
        <time>2010-07-14T09:32:58Z</time>
      </trkpt>
      <trkpt lat="42.66428" lon="1.48992">
        <ele>2438.0407714844</ele>
        <time>2010-07-14T09:33:04Z</time>
      </trkpt>
      <trkpt lat="42.66429" lon="1.48995">
        <ele>2437.0793457031</ele>
        <time>2010-07-14T09:33:10Z</time>
      </trkpt>
      <trkpt lat="42.66429" lon="1.48998">
        <ele>2435.6374511719</ele>
        <time>2010-07-14T09:33:15Z</time>
      </trkpt>
      <trkpt lat="42.6643" lon="1.49003">
        <ele>2434.1955566406</ele>
        <time>2010-07-14T09:33:21Z</time>
      </trkpt>
      <trkpt lat="42.66432" lon="1.49011">
        <ele>2433.2341308594</ele>
        <time>2010-07-14T09:33:28Z</time>
      </trkpt>
      <trkpt lat="42.66434" lon="1.49013">
        <ele>2432.7534179688</ele>
        <time>2010-07-14T09:33:35Z</time>
      </trkpt>
      <trkpt lat="42.66433" lon="1.49019">
        <ele>2431.3115234375</ele>
        <time>2010-07-14T09:33:40Z</time>
      </trkpt>
      <trkpt lat="42.66429" lon="1.49024">
        <ele>2430.8310546875</ele>
        <time>2010-07-14T09:33:45Z</time>
      </trkpt>
      <trkpt lat="42.66423" lon="1.49032">
        <ele>2429.8696289062</ele>
        <time>2010-07-14T09:33:53Z</time>
      </trkpt>
      <trkpt lat="42.66422" lon="1.49036">
        <ele>2429.8696289062</ele>
        <time>2010-07-14T09:33:58Z</time>
      </trkpt>
      <trkpt lat="42.66422" lon="1.49038">
        <ele>2430.8310546875</ele>
        <time>2010-07-14T09:34:03Z</time>
      </trkpt>
      <trkpt lat="42.66421" lon="1.49039">
        <ele>2432.2729492188</ele>
        <time>2010-07-14T09:34:12Z</time>
      </trkpt>
      <trkpt lat="42.66419" lon="1.4904">
        <ele>2434.1955566406</ele>
        <time>2010-07-14T09:34:17Z</time>
      </trkpt>
      <trkpt lat="42.66417" lon="1.4904">
        <ele>2435.6374511719</ele>
        <time>2010-07-14T09:34:22Z</time>
      </trkpt>
      <trkpt lat="42.66412" lon="1.4904">
        <ele>2437.0793457031</ele>
        <time>2010-07-14T09:34:28Z</time>
      </trkpt>
      <trkpt lat="42.66405" lon="1.4904">
        <ele>2437.0793457031</ele>
        <time>2010-07-14T09:34:35Z</time>
      </trkpt>
      <trkpt lat="42.66403" lon="1.49041">
        <ele>2437.5600585938</ele>
        <time>2010-07-14T09:34:37Z</time>
      </trkpt>
      <trkpt lat="42.66397" lon="1.49038">
        <ele>2437.0793457031</ele>
        <time>2010-07-14T09:34:42Z</time>
      </trkpt>
      <trkpt lat="42.66394" lon="1.49037">
        <ele>2437.5600585938</ele>
        <time>2010-07-14T09:34:45Z</time>
      </trkpt>
      <trkpt lat="42.66389" lon="1.49036">
        <ele>2436.1181640625</ele>
        <time>2010-07-14T09:34:51Z</time>
      </trkpt>
      <trkpt lat="42.66386" lon="1.49034">
        <ele>2435.6374511719</ele>
        <time>2010-07-14T09:34:54Z</time>
      </trkpt>
      <trkpt lat="42.66381" lon="1.49032">
        <ele>2436.1181640625</ele>
        <time>2010-07-14T09:34:58Z</time>
      </trkpt>
      <trkpt lat="42.66377" lon="1.49032">
        <ele>2436.1181640625</ele>
        <time>2010-07-14T09:35:02Z</time>
      </trkpt>
      <trkpt lat="42.66369" lon="1.49032">
        <ele>2436.5986328125</ele>
        <time>2010-07-14T09:35:11Z</time>
      </trkpt>
      <trkpt lat="42.66363" lon="1.49034">
        <ele>2436.1181640625</ele>
        <time>2010-07-14T09:35:18Z</time>
      </trkpt>
      <trkpt lat="42.66357" lon="1.49033">
        <ele>2436.5986328125</ele>
        <time>2010-07-14T09:35:24Z</time>
      </trkpt>
      <trkpt lat="42.66353" lon="1.49034">
        <ele>2436.5986328125</ele>
        <time>2010-07-14T09:35:31Z</time>
      </trkpt>
      <trkpt lat="42.66347" lon="1.49033">
        <ele>2437.5600585938</ele>
        <time>2010-07-14T09:35:38Z</time>
      </trkpt>
      <trkpt lat="42.66341" lon="1.49032">
        <ele>2439.001953125</ele>
        <time>2010-07-14T09:35:45Z</time>
      </trkpt>
      <trkpt lat="42.66337" lon="1.49034">
        <ele>2440.4438476562</ele>
        <time>2010-07-14T09:35:52Z</time>
      </trkpt>
      <trkpt lat="42.66333" lon="1.49036">
        <ele>2441.8859863281</ele>
        <time>2010-07-14T09:36:00Z</time>
      </trkpt>
      <trkpt lat="42.6633" lon="1.49039">
        <ele>2442.8471679688</ele>
        <time>2010-07-14T09:36:07Z</time>
      </trkpt>
      <trkpt lat="42.66331" lon="1.4904">
        <ele>2442.8471679688</ele>
        <time>2010-07-14T09:36:15Z</time>
      </trkpt>
      <trkpt lat="42.66332" lon="1.49042">
        <ele>2443.80859375</ele>
        <time>2010-07-14T09:36:21Z</time>
      </trkpt>
      <trkpt lat="42.66333" lon="1.49041">
        <ele>2444.2893066406</ele>
        <time>2010-07-14T09:36:27Z</time>
      </trkpt>
      <trkpt lat="42.66333" lon="1.49043">
        <ele>2445.7314453125</ele>
        <time>2010-07-14T09:36:33Z</time>
      </trkpt>
      <trkpt lat="42.66334" lon="1.49043">
        <ele>2447.1733398438</ele>
        <time>2010-07-14T09:36:40Z</time>
      </trkpt>
      <trkpt lat="42.66336" lon="1.49045">
        <ele>2449.0959472656</ele>
        <time>2010-07-14T09:36:46Z</time>
      </trkpt>
      <trkpt lat="42.66336" lon="1.49048">
        <ele>2450.0573730469</ele>
        <time>2010-07-14T09:36:51Z</time>
      </trkpt>
      <trkpt lat="42.66334" lon="1.49049">
        <ele>2451.4992675781</ele>
        <time>2010-07-14T09:36:57Z</time>
      </trkpt>
      <trkpt lat="42.66331" lon="1.49051">
        <ele>2453.421875</ele>
        <time>2010-07-14T09:37:03Z</time>
      </trkpt>
      <trkpt lat="42.66329" lon="1.49054">
        <ele>2452.9411621094</ele>
        <time>2010-07-14T09:37:08Z</time>
      </trkpt>
      <trkpt lat="42.66328" lon="1.49057">
        <ele>2452.9411621094</ele>
        <time>2010-07-14T09:37:15Z</time>
      </trkpt>
      <trkpt lat="42.66328" lon="1.49062">
        <ele>2453.9025878906</ele>
        <time>2010-07-14T09:37:22Z</time>
      </trkpt>
      <trkpt lat="42.66327" lon="1.49069">
        <ele>2453.9025878906</ele>
        <time>2010-07-14T09:37:29Z</time>
      </trkpt>
      <trkpt lat="42.66327" lon="1.49074">
        <ele>2453.9025878906</ele>
        <time>2010-07-14T09:37:34Z</time>
      </trkpt>
      <trkpt lat="42.66325" lon="1.4908">
        <ele>2455.3444824219</ele>
        <time>2010-07-14T09:37:41Z</time>
      </trkpt>
      <trkpt lat="42.66321" lon="1.49087">
        <ele>2455.8249511719</ele>
        <time>2010-07-14T09:37:49Z</time>
      </trkpt>
      <trkpt lat="42.66322" lon="1.49095">
        <ele>2455.8249511719</ele>
        <time>2010-07-14T09:37:56Z</time>
      </trkpt>
      <trkpt lat="42.6632" lon="1.49102">
        <ele>2455.3444824219</ele>
        <time>2010-07-14T09:38:02Z</time>
      </trkpt>
      <trkpt lat="42.66319" lon="1.49106">
        <ele>2454.3830566406</ele>
        <time>2010-07-14T09:38:08Z</time>
      </trkpt>
      <trkpt lat="42.66319" lon="1.49112">
        <ele>2452.4604492188</ele>
        <time>2010-07-14T09:38:14Z</time>
      </trkpt>
      <trkpt lat="42.66322" lon="1.49118">
        <ele>2451.0185546875</ele>
        <time>2010-07-14T09:38:18Z</time>
      </trkpt>
      <trkpt lat="42.66329" lon="1.49128">
        <ele>2449.0959472656</ele>
        <time>2010-07-14T09:38:26Z</time>
      </trkpt>
      <trkpt lat="42.66332" lon="1.49134">
        <ele>2448.1345214844</ele>
        <time>2010-07-14T09:38:30Z</time>
      </trkpt>
      <trkpt lat="42.66338" lon="1.49143">
        <ele>2447.6540527344</ele>
        <time>2010-07-14T09:38:38Z</time>
      </trkpt>
      <trkpt lat="42.6634" lon="1.49145">
        <ele>2447.1733398438</ele>
        <time>2010-07-14T09:38:40Z</time>
      </trkpt>
      <trkpt lat="42.66345" lon="1.49154">
        <ele>2447.1733398438</ele>
        <time>2010-07-14T09:38:46Z</time>
      </trkpt>
      <trkpt lat="42.66346" lon="1.49155">
        <ele>2447.1733398438</ele>
        <time>2010-07-14T09:38:47Z</time>
      </trkpt>
      <trkpt lat="42.66347" lon="1.4916">
        <ele>2446.2121582031</ele>
        <time>2010-07-14T09:38:50Z</time>
      </trkpt>
      <trkpt lat="42.66351" lon="1.49169">
        <ele>2445.2507324219</ele>
        <time>2010-07-14T09:38:57Z</time>
      </trkpt>
      <trkpt lat="42.66354" lon="1.49172">
        <ele>2445.2507324219</ele>
        <time>2010-07-14T09:39:02Z</time>
      </trkpt>
      <trkpt lat="42.66357" lon="1.49179">
        <ele>2444.7700195312</ele>
        <time>2010-07-14T09:39:08Z</time>
      </trkpt>
      <trkpt lat="42.66358" lon="1.49183">
        <ele>2444.2893066406</ele>
        <time>2010-07-14T09:39:14Z</time>
      </trkpt>
      <trkpt lat="42.66357" lon="1.49186">
        <ele>2443.3278808594</ele>
        <time>2010-07-14T09:39:18Z</time>
      </trkpt>
      <trkpt lat="42.66357" lon="1.49189">
        <ele>2442.3666992188</ele>
        <time>2010-07-14T09:39:23Z</time>
      </trkpt>
      <trkpt lat="42.6636" lon="1.49193">
        <ele>2441.4052734375</ele>
        <time>2010-07-14T09:39:29Z</time>
      </trkpt>
      <trkpt lat="42.66361" lon="1.49194">
        <ele>2439.9633789062</ele>
        <time>2010-07-14T09:39:35Z</time>
      </trkpt>
      <trkpt lat="42.66362" lon="1.49195">
        <ele>2439.4826660156</ele>
        <time>2010-07-14T09:39:40Z</time>
      </trkpt>
      <trkpt lat="42.66362" lon="1.49199">
        <ele>2437.5600585938</ele>
        <time>2010-07-14T09:39:47Z</time>
      </trkpt>
      <trkpt lat="42.66358" lon="1.49201">
        <ele>2435.1567382812</ele>
        <time>2010-07-14T09:39:54Z</time>
      </trkpt>
      <trkpt lat="42.66353" lon="1.49201">
        <ele>2433.2341308594</ele>
        <time>2010-07-14T09:39:59Z</time>
      </trkpt>
      <trkpt lat="42.66349" lon="1.492">
        <ele>2432.7534179688</ele>
        <time>2010-07-14T09:40:03Z</time>
      </trkpt>
      <trkpt lat="42.66346" lon="1.49206">
        <ele>2431.7922363281</ele>
        <time>2010-07-14T09:40:08Z</time>
      </trkpt>
      <trkpt lat="42.66346" lon="1.49207">
        <ele>2432.2729492188</ele>
        <time>2010-07-14T09:40:13Z</time>
      </trkpt>
      <trkpt lat="42.66346" lon="1.4921">
        <ele>2433.2341308594</ele>
        <time>2010-07-14T09:40:18Z</time>
      </trkpt>
      <trkpt lat="42.66345" lon="1.49216">
        <ele>2433.71484375</ele>
        <time>2010-07-14T09:40:24Z</time>
      </trkpt>
      <trkpt lat="42.66343" lon="1.49223">
        <ele>2435.1567382812</ele>
        <time>2010-07-14T09:40:29Z</time>
      </trkpt>
      <trkpt lat="42.66344" lon="1.49224">
        <ele>2436.5986328125</ele>
        <time>2010-07-14T09:40:35Z</time>
      </trkpt>
      <trkpt lat="42.66346" lon="1.4923">
        <ele>2436.5986328125</ele>
        <time>2010-07-14T09:40:40Z</time>
      </trkpt>
      <trkpt lat="42.66344" lon="1.49236">
        <ele>2435.1567382812</ele>
        <time>2010-07-14T09:40:46Z</time>
      </trkpt>
      <trkpt lat="42.66343" lon="1.49238">
        <ele>2435.1567382812</ele>
        <time>2010-07-14T09:40:47Z</time>
      </trkpt>
      <trkpt lat="42.66342" lon="1.49249">
        <ele>2434.6762695312</ele>
        <time>2010-07-14T09:40:53Z</time>
      </trkpt>
      <trkpt lat="42.66344" lon="1.49259">
        <ele>2434.1955566406</ele>
        <time>2010-07-14T09:41:01Z</time>
      </trkpt>
      <trkpt lat="42.66345" lon="1.49259">
        <ele>2434.6762695312</ele>
        <time>2010-07-14T09:41:07Z</time>
      </trkpt>
      <trkpt lat="42.66346" lon="1.49259">
        <ele>2434.6762695312</ele>
        <time>2010-07-14T09:41:16Z</time>
      </trkpt>
      <trkpt lat="42.66346" lon="1.49259">
        <ele>2434.1955566406</ele>
        <time>2010-07-14T09:41:26Z</time>
      </trkpt>
      <trkpt lat="42.66346" lon="1.49259">
        <ele>2433.71484375</ele>
        <time>2010-07-14T09:41:37Z</time>
      </trkpt>
      <trkpt lat="42.66346" lon="1.49259">
        <ele>2433.2341308594</ele>
        <time>2010-07-14T09:41:51Z</time>
      </trkpt>
      <trkpt lat="42.66345" lon="1.49259">
        <ele>2433.71484375</ele>
        <time>2010-07-14T09:42:29Z</time>
      </trkpt>
      <trkpt lat="42.66346" lon="1.49259">
        <ele>2434.1955566406</ele>
        <time>2010-07-14T09:42:37Z</time>
      </trkpt>
      <trkpt lat="42.66346" lon="1.4926">
        <ele>2433.2341308594</ele>
        <time>2010-07-14T09:42:44Z</time>
      </trkpt>
      <trkpt lat="42.66347" lon="1.49262">
        <ele>2431.7922363281</ele>
        <time>2010-07-14T09:42:50Z</time>
      </trkpt>
      <trkpt lat="42.66346" lon="1.49265">
        <ele>2430.8310546875</ele>
        <time>2010-07-14T09:42:55Z</time>
      </trkpt>
      <trkpt lat="42.66345" lon="1.49265">
        <ele>2430.3503417969</ele>
        <time>2010-07-14T09:42:58Z</time>
      </trkpt>
      <trkpt lat="42.66343" lon="1.49266">
        <ele>2429.8696289062</ele>
        <time>2010-07-14T09:43:03Z</time>
      </trkpt>
      <trkpt lat="42.66343" lon="1.49267">
        <ele>2429.3889160156</ele>
        <time>2010-07-14T09:43:08Z</time>
      </trkpt>
      <trkpt lat="42.66346" lon="1.49269">
        <ele>2428.427734375</ele>
        <time>2010-07-14T09:43:20Z</time>
      </trkpt>
      <trkpt lat="42.66345" lon="1.49269">
        <ele>2426.5048828125</ele>
        <time>2010-07-14T09:43:24Z</time>
      </trkpt>
      <trkpt lat="42.66348" lon="1.49275">
        <ele>2425.0627441406</ele>
        <time>2010-07-14T09:43:29Z</time>
      </trkpt>
      <trkpt lat="42.66349" lon="1.49276">
        <ele>2424.5822753906</ele>
        <time>2010-07-14T09:43:30Z</time>
      </trkpt>
      <trkpt lat="42.66353" lon="1.4928">
        <ele>2425.5434570312</ele>
        <time>2010-07-14T09:43:37Z</time>
      </trkpt>
      <trkpt lat="42.66352" lon="1.49284">
        <ele>2426.0241699219</ele>
        <time>2010-07-14T09:43:43Z</time>
      </trkpt>
      <trkpt lat="42.66351" lon="1.49289">
        <ele>2426.9855957031</ele>
        <time>2010-07-14T09:43:49Z</time>
      </trkpt>
      <trkpt lat="42.66351" lon="1.49289">
        <ele>2426.9855957031</ele>
        <time>2010-07-14T09:43:57Z</time>
      </trkpt>
      <trkpt lat="42.66352" lon="1.49291">
        <ele>2426.5048828125</ele>
        <time>2010-07-14T09:44:07Z</time>
      </trkpt>
      <trkpt lat="42.66352" lon="1.49296">
        <ele>2426.0241699219</ele>
        <time>2010-07-14T09:44:13Z</time>
      </trkpt>
      <trkpt lat="42.66354" lon="1.49298">
        <ele>2426.0241699219</ele>
        <time>2010-07-14T09:44:18Z</time>
      </trkpt>
      <trkpt lat="42.66352" lon="1.49302">
        <ele>2425.0627441406</ele>
        <time>2010-07-14T09:44:25Z</time>
      </trkpt>
      <trkpt lat="42.66353" lon="1.49306">
        <ele>2425.0627441406</ele>
        <time>2010-07-14T09:44:30Z</time>
      </trkpt>
      <trkpt lat="42.66354" lon="1.49312">
        <ele>2424.5822753906</ele>
        <time>2010-07-14T09:44:36Z</time>
      </trkpt>
      <trkpt lat="42.66354" lon="1.49318">
        <ele>2424.1015625</ele>
        <time>2010-07-14T09:44:42Z</time>
      </trkpt>
      <trkpt lat="42.66357" lon="1.49323">
        <ele>2426.0241699219</ele>
        <time>2010-07-14T09:44:48Z</time>
      </trkpt>
      <trkpt lat="42.6636" lon="1.49329">
        <ele>2426.5048828125</ele>
        <time>2010-07-14T09:44:53Z</time>
      </trkpt>
      <trkpt lat="42.6636" lon="1.49332">
        <ele>2426.5048828125</ele>
        <time>2010-07-14T09:44:55Z</time>
      </trkpt>
      <trkpt lat="42.66361" lon="1.49336">
        <ele>2426.5048828125</ele>
        <time>2010-07-14T09:44:58Z</time>
      </trkpt>
      <trkpt lat="42.66366" lon="1.49345">
        <ele>2426.9855957031</ele>
        <time>2010-07-14T09:45:07Z</time>
      </trkpt>
      <trkpt lat="42.66368" lon="1.49352">
        <ele>2427.4660644531</ele>
        <time>2010-07-14T09:45:13Z</time>
      </trkpt>
      <trkpt lat="42.66372" lon="1.49358">
        <ele>2428.427734375</ele>
        <time>2010-07-14T09:45:20Z</time>
      </trkpt>
      <trkpt lat="42.66378" lon="1.49365">
        <ele>2429.8696289062</ele>
        <time>2010-07-14T09:45:27Z</time>
      </trkpt>
      <trkpt lat="42.66378" lon="1.49373">
        <ele>2430.3503417969</ele>
        <time>2010-07-14T09:45:33Z</time>
      </trkpt>
      <trkpt lat="42.66382" lon="1.49382">
        <ele>2430.8310546875</ele>
        <time>2010-07-14T09:45:41Z</time>
      </trkpt>
      <trkpt lat="42.66385" lon="1.49388">
        <ele>2431.3115234375</ele>
        <time>2010-07-14T09:45:47Z</time>
      </trkpt>
      <trkpt lat="42.66389" lon="1.4939">
        <ele>2431.3115234375</ele>
        <time>2010-07-14T09:45:52Z</time>
      </trkpt>
      <trkpt lat="42.66394" lon="1.49395">
        <ele>2431.7922363281</ele>
        <time>2010-07-14T09:46:00Z</time>
      </trkpt>
      <trkpt lat="42.66397" lon="1.494">
        <ele>2431.3115234375</ele>
        <time>2010-07-14T09:46:07Z</time>
      </trkpt>
      <trkpt lat="42.664" lon="1.49405">
        <ele>2430.3503417969</ele>
        <time>2010-07-14T09:46:16Z</time>
      </trkpt>
      <trkpt lat="42.66401" lon="1.49409">
        <ele>2429.3889160156</ele>
        <time>2010-07-14T09:46:25Z</time>
      </trkpt>
      <trkpt lat="42.664" lon="1.49409">
        <ele>2428.908203125</ele>
        <time>2010-07-14T09:46:35Z</time>
      </trkpt>
      <trkpt lat="42.664" lon="1.49409">
        <ele>2428.427734375</ele>
        <time>2010-07-14T09:46:42Z</time>
      </trkpt>
      <trkpt lat="42.66401" lon="1.49411">
        <ele>2427.4660644531</ele>
        <time>2010-07-14T09:46:48Z</time>
      </trkpt>
      <trkpt lat="42.66401" lon="1.49414">
        <ele>2426.5048828125</ele>
        <time>2010-07-14T09:46:53Z</time>
      </trkpt>
      <trkpt lat="42.66402" lon="1.49415">
        <ele>2425.5434570312</ele>
        <time>2010-07-14T09:47:01Z</time>
      </trkpt>
      <trkpt lat="42.66404" lon="1.49416">
        <ele>2425.0627441406</ele>
        <time>2010-07-14T09:47:09Z</time>
      </trkpt>
      <trkpt lat="42.66406" lon="1.49422">
        <ele>2424.1015625</ele>
        <time>2010-07-14T09:47:15Z</time>
      </trkpt>
      <trkpt lat="42.66407" lon="1.49427">
        <ele>2421.2175292969</ele>
        <time>2010-07-14T09:47:21Z</time>
      </trkpt>
      <trkpt lat="42.66406" lon="1.49432">
        <ele>2419.2951660156</ele>
        <time>2010-07-14T09:47:26Z</time>
      </trkpt>
      <trkpt lat="42.66405" lon="1.4944">
        <ele>2416.4111328125</ele>
        <time>2010-07-14T09:47:33Z</time>
      </trkpt>
      <trkpt lat="42.66404" lon="1.49443">
        <ele>2414.9692382812</ele>
        <time>2010-07-14T09:47:40Z</time>
      </trkpt>
      <trkpt lat="42.66402" lon="1.49452">
        <ele>2413.0466308594</ele>
        <time>2010-07-14T09:47:45Z</time>
      </trkpt>
      <trkpt lat="42.66401" lon="1.49458">
        <ele>2411.6044921875</ele>
        <time>2010-07-14T09:47:51Z</time>
      </trkpt>
      <trkpt lat="42.66405" lon="1.49457">
        <ele>2411.1237792969</ele>
        <time>2010-07-14T09:47:56Z</time>
      </trkpt>
      <trkpt lat="42.66408" lon="1.49455">
        <ele>2413.0466308594</ele>
        <time>2010-07-14T09:48:02Z</time>
      </trkpt>
      <trkpt lat="42.66409" lon="1.49454">
        <ele>2413.5270996094</ele>
        <time>2010-07-14T09:48:08Z</time>
      </trkpt>
      <trkpt lat="42.66409" lon="1.49454">
        <ele>2413.0466308594</ele>
        <time>2010-07-14T09:48:15Z</time>
      </trkpt>
      <trkpt lat="42.66409" lon="1.49454">
        <ele>2413.0466308594</ele>
        <time>2010-07-14T09:48:21Z</time>
      </trkpt>
      <trkpt lat="42.66409" lon="1.49454">
        <ele>2413.0466308594</ele>
        <time>2010-07-14T09:48:31Z</time>
      </trkpt>
      <trkpt lat="42.66409" lon="1.49454">
        <ele>2412.0852050781</ele>
        <time>2010-07-14T09:48:41Z</time>
      </trkpt>
      <trkpt lat="42.66409" lon="1.49453">
        <ele>2413.0466308594</ele>
        <time>2010-07-14T09:48:52Z</time>
      </trkpt>
      <trkpt lat="42.66409" lon="1.49453">
        <ele>2413.5270996094</ele>
        <time>2010-07-14T09:49:02Z</time>
      </trkpt>
      <trkpt lat="42.66409" lon="1.49451">
        <ele>2414.0078125</ele>
        <time>2010-07-14T09:49:08Z</time>
      </trkpt>
      <trkpt lat="42.6641" lon="1.49447">
        <ele>2413.5270996094</ele>
        <time>2010-07-14T09:49:14Z</time>
      </trkpt>
      <trkpt lat="42.66412" lon="1.49445">
        <ele>2413.5270996094</ele>
        <time>2010-07-14T09:49:19Z</time>
      </trkpt>
      <trkpt lat="42.66412" lon="1.49443">
        <ele>2414.9692382812</ele>
        <time>2010-07-14T09:49:25Z</time>
      </trkpt>
      <trkpt lat="42.66414" lon="1.49442">
        <ele>2414.4885253906</ele>
        <time>2010-07-14T09:49:30Z</time>
      </trkpt>
      <trkpt lat="42.66415" lon="1.49444">
        <ele>2413.0466308594</ele>
        <time>2010-07-14T09:49:36Z</time>
      </trkpt>
      <trkpt lat="42.66416" lon="1.49446">
        <ele>2411.6044921875</ele>
        <time>2010-07-14T09:49:42Z</time>
      </trkpt>
      <trkpt lat="42.66416" lon="1.49448">
        <ele>2410.6430664062</ele>
        <time>2010-07-14T09:49:47Z</time>
      </trkpt>
      <trkpt lat="42.66416" lon="1.49449">
        <ele>2408.7204589844</ele>
        <time>2010-07-14T09:49:54Z</time>
      </trkpt>
      <trkpt lat="42.66416" lon="1.4945">
        <ele>2407.2785644531</ele>
        <time>2010-07-14T09:49:59Z</time>
      </trkpt>
      <trkpt lat="42.66417" lon="1.49454">
        <ele>2405.3559570312</ele>
        <time>2010-07-14T09:50:08Z</time>
      </trkpt>
      <trkpt lat="42.66415" lon="1.49454">
        <ele>2404.39453125</ele>
        <time>2010-07-14T09:50:13Z</time>
      </trkpt>
      <trkpt lat="42.66416" lon="1.49455">
        <ele>2401.9912109375</ele>
        <time>2010-07-14T09:50:19Z</time>
      </trkpt>
      <trkpt lat="42.66417" lon="1.49459">
        <ele>2401.9912109375</ele>
        <time>2010-07-14T09:50:32Z</time>
      </trkpt>
      <trkpt lat="42.66418" lon="1.49464">
        <ele>2398.6267089844</ele>
        <time>2010-07-14T09:50:41Z</time>
      </trkpt>
      <trkpt lat="42.66423" lon="1.49467">
        <ele>2397.6655273438</ele>
        <time>2010-07-14T09:50:55Z</time>
      </trkpt>
      <trkpt lat="42.66421" lon="1.49471">
        <ele>2393.8200683594</ele>
        <time>2010-07-14T09:51:07Z</time>
      </trkpt>
      <trkpt lat="42.6642" lon="1.49473">
        <ele>2390.9360351562</ele>
        <time>2010-07-14T09:51:12Z</time>
      </trkpt>
      <trkpt lat="42.6642" lon="1.49476">
        <ele>2389.494140625</ele>
        <time>2010-07-14T09:51:19Z</time>
      </trkpt>
      <trkpt lat="42.66419" lon="1.49478">
        <ele>2388.0522460938</ele>
        <time>2010-07-14T09:51:24Z</time>
      </trkpt>
      <trkpt lat="42.66418" lon="1.49481">
        <ele>2383.2456054688</ele>
        <time>2010-07-14T09:51:38Z</time>
      </trkpt>
      <trkpt lat="42.6642" lon="1.49482">
        <ele>2385.6489257812</ele>
        <time>2010-07-14T09:51:45Z</time>
      </trkpt>
      <trkpt lat="42.66421" lon="1.49483">
        <ele>2387.5715332031</ele>
        <time>2010-07-14T09:51:48Z</time>
      </trkpt>
      <trkpt lat="42.66424" lon="1.49486">
        <ele>2387.0908203125</ele>
        <time>2010-07-14T09:51:54Z</time>
      </trkpt>
      <trkpt lat="42.66424" lon="1.49486">
        <ele>2382.7648925781</ele>
        <time>2010-07-14T09:51:58Z</time>
      </trkpt>
      <trkpt lat="42.66422" lon="1.49485">
        <ele>2376.9970703125</ele>
        <time>2010-07-14T09:52:04Z</time>
      </trkpt>
      <trkpt lat="42.66425" lon="1.4949">
        <ele>2376.5163574219</ele>
        <time>2010-07-14T09:52:18Z</time>
      </trkpt>
      <trkpt lat="42.66424" lon="1.49492">
        <ele>2375.07421875</ele>
        <time>2010-07-14T09:52:26Z</time>
      </trkpt>
      <trkpt lat="42.66423" lon="1.49494">
        <ele>2369.787109375</ele>
        <time>2010-07-14T09:52:34Z</time>
      </trkpt>
      <trkpt lat="42.66426" lon="1.49496">
        <ele>2368.8259277344</ele>
        <time>2010-07-14T09:52:43Z</time>
      </trkpt>
      <trkpt lat="42.66426" lon="1.49499">
        <ele>2368.3452148438</ele>
        <time>2010-07-14T09:52:49Z</time>
      </trkpt>
      <trkpt lat="42.66426" lon="1.49499">
        <ele>2367.8645019531</ele>
        <time>2010-07-14T09:52:57Z</time>
      </trkpt>
      <trkpt lat="42.66426" lon="1.49501">
        <ele>2365.9418945312</ele>
        <time>2010-07-14T09:53:07Z</time>
      </trkpt>
      <trkpt lat="42.66425" lon="1.49504">
        <ele>2362.5771484375</ele>
        <time>2010-07-14T09:53:11Z</time>
      </trkpt>
      <trkpt lat="42.66425" lon="1.49506">
        <ele>2362.5771484375</ele>
        <time>2010-07-14T09:53:15Z</time>
      </trkpt>
      <trkpt lat="42.66423" lon="1.49506">
        <ele>2362.5771484375</ele>
        <time>2010-07-14T09:53:21Z</time>
      </trkpt>
      <trkpt lat="42.6642" lon="1.4951">
        <ele>2361.1352539062</ele>
        <time>2010-07-14T09:53:27Z</time>
      </trkpt>
      <trkpt lat="42.66418" lon="1.49515">
        <ele>2360.173828125</ele>
        <time>2010-07-14T09:53:32Z</time>
      </trkpt>
      <trkpt lat="42.66416" lon="1.49517">
        <ele>2358.7319335938</ele>
        <time>2010-07-14T09:53:37Z</time>
      </trkpt>
      <trkpt lat="42.66416" lon="1.49521">
        <ele>2358.7319335938</ele>
        <time>2010-07-14T09:53:43Z</time>
      </trkpt>
      <trkpt lat="42.66415" lon="1.49523">
        <ele>2357.2900390625</ele>
        <time>2010-07-14T09:53:50Z</time>
      </trkpt>
      <trkpt lat="42.66412" lon="1.49524">
        <ele>2356.3286132812</ele>
        <time>2010-07-14T09:53:55Z</time>
      </trkpt>
      <trkpt lat="42.6641" lon="1.49524">
        <ele>2355.3674316406</ele>
        <time>2010-07-14T09:53:59Z</time>
      </trkpt>
      <trkpt lat="42.66407" lon="1.49524">
        <ele>2355.3674316406</ele>
        <time>2010-07-14T09:54:04Z</time>
      </trkpt>
      <trkpt lat="42.66406" lon="1.49531">
        <ele>2358.7319335938</ele>
        <time>2010-07-14T09:54:36Z</time>
      </trkpt>
      <trkpt lat="42.66404" lon="1.49535">
        <ele>2358.7319335938</ele>
        <time>2010-07-14T09:54:41Z</time>
      </trkpt>
      <trkpt lat="42.66401" lon="1.49537">
        <ele>2356.3286132812</ele>
        <time>2010-07-14T09:54:47Z</time>
      </trkpt>
      <trkpt lat="42.66397" lon="1.49548">
        <ele>2356.3286132812</ele>
        <time>2010-07-14T09:55:07Z</time>
      </trkpt>
      <trkpt lat="42.66396" lon="1.49551">
        <ele>2356.3286132812</ele>
        <time>2010-07-14T09:55:12Z</time>
      </trkpt>
      <trkpt lat="42.66394" lon="1.49556">
        <ele>2356.3286132812</ele>
        <time>2010-07-14T09:55:20Z</time>
      </trkpt>
      <trkpt lat="42.66395" lon="1.49556">
        <ele>2359.2126464844</ele>
        <time>2010-07-14T09:55:26Z</time>
      </trkpt>
      <trkpt lat="42.66388" lon="1.49561">
        <ele>2357.2900390625</ele>
        <time>2010-07-14T09:55:57Z</time>
      </trkpt>
      <trkpt lat="42.66386" lon="1.49563">
        <ele>2356.3286132812</ele>
        <time>2010-07-14T09:56:03Z</time>
      </trkpt>
      <trkpt lat="42.66384" lon="1.49569">
        <ele>2353.4448242188</ele>
        <time>2010-07-14T09:56:20Z</time>
      </trkpt>
      <trkpt lat="42.66384" lon="1.49572">
        <ele>2354.88671875</ele>
        <time>2010-07-14T09:56:26Z</time>
      </trkpt>
      <trkpt lat="42.66384" lon="1.49578">
        <ele>2354.4060058594</ele>
        <time>2010-07-14T09:56:34Z</time>
      </trkpt>
      <trkpt lat="42.66383" lon="1.49579">
        <ele>2354.88671875</ele>
        <time>2010-07-14T09:56:38Z</time>
      </trkpt>
      <trkpt lat="42.66381" lon="1.49583">
        <ele>2354.88671875</ele>
        <time>2010-07-14T09:56:47Z</time>
      </trkpt>
      <trkpt lat="42.66381" lon="1.49586">
        <ele>2355.3674316406</ele>
        <time>2010-07-14T09:56:50Z</time>
      </trkpt>
      <trkpt lat="42.66381" lon="1.4959">
        <ele>2355.3674316406</ele>
        <time>2010-07-14T09:56:54Z</time>
      </trkpt>
      <trkpt lat="42.66382" lon="1.496">
        <ele>2355.3674316406</ele>
        <time>2010-07-14T09:57:17Z</time>
      </trkpt>
      <trkpt lat="42.66381" lon="1.49606">
        <ele>2355.3674316406</ele>
        <time>2010-07-14T09:57:21Z</time>
      </trkpt>
      <trkpt lat="42.66378" lon="1.49609">
        <ele>2356.3286132812</ele>
        <time>2010-07-14T09:57:27Z</time>
      </trkpt>
      <trkpt lat="42.66377" lon="1.49611">
        <ele>2355.8479003906</ele>
        <time>2010-07-14T09:57:31Z</time>
      </trkpt>
      <trkpt lat="42.66374" lon="1.49618">
        <ele>2352.9641113281</ele>
        <time>2010-07-14T09:57:39Z</time>
      </trkpt>
      <trkpt lat="42.66371" lon="1.49621">
        <ele>2351.5222167969</ele>
        <time>2010-07-14T09:57:45Z</time>
      </trkpt>
      <trkpt lat="42.66368" lon="1.49624">
        <ele>2352.0026855469</ele>
        <time>2010-07-14T09:57:50Z</time>
      </trkpt>
      <trkpt lat="42.66363" lon="1.49628">
        <ele>2347.6767578125</ele>
        <time>2010-07-14T09:57:56Z</time>
      </trkpt>
      <trkpt lat="42.66363" lon="1.49634">
        <ele>2349.599609375</ele>
        <time>2010-07-14T09:58:05Z</time>
      </trkpt>
      <trkpt lat="42.6636" lon="1.49637">
        <ele>2350.0803222656</ele>
        <time>2010-07-14T09:58:10Z</time>
      </trkpt>
      <trkpt lat="42.66359" lon="1.4964">
        <ele>2350.0803222656</ele>
        <time>2010-07-14T09:58:13Z</time>
      </trkpt>
      <trkpt lat="42.66357" lon="1.49643">
        <ele>2351.0415039062</ele>
        <time>2010-07-14T09:58:16Z</time>
      </trkpt>
      <trkpt lat="42.66359" lon="1.49646">
        <ele>2358.7319335938</ele>
        <time>2010-07-14T09:58:21Z</time>
      </trkpt>
      <trkpt lat="42.66355" lon="1.49652">
        <ele>2360.6545410156</ele>
        <time>2010-07-14T09:58:33Z</time>
      </trkpt>
      <trkpt lat="42.66354" lon="1.49659">
        <ele>2359.6931152344</ele>
        <time>2010-07-14T09:58:41Z</time>
      </trkpt>
      <trkpt lat="42.66351" lon="1.49664">
        <ele>2358.7319335938</ele>
        <time>2010-07-14T09:58:47Z</time>
      </trkpt>
      <trkpt lat="42.66347" lon="1.4967">
        <ele>2356.3286132812</ele>
        <time>2010-07-14T09:58:52Z</time>
      </trkpt>
      <trkpt lat="42.66344" lon="1.49678">
        <ele>2352.9641113281</ele>
        <time>2010-07-14T09:58:58Z</time>
      </trkpt>
      <trkpt lat="42.66342" lon="1.49684">
        <ele>2351.0415039062</ele>
        <time>2010-07-14T09:59:04Z</time>
      </trkpt>
      <trkpt lat="42.66342" lon="1.49689">
        <ele>2350.5607910156</ele>
        <time>2010-07-14T09:59:09Z</time>
      </trkpt>
      <trkpt lat="42.66333" lon="1.49724">
        <ele>2336.6215820312</ele>
        <time>2010-07-14T10:00:26Z</time>
      </trkpt>
      <trkpt lat="42.66332" lon="1.49727">
        <ele>2334.2185058594</ele>
        <time>2010-07-14T10:00:32Z</time>
      </trkpt>
      <trkpt lat="42.66333" lon="1.4973">
        <ele>2333.7377929688</ele>
        <time>2010-07-14T10:00:37Z</time>
      </trkpt>
      <trkpt lat="42.66334" lon="1.49736">
        <ele>2333.7377929688</ele>
        <time>2010-07-14T10:00:42Z</time>
      </trkpt>
      <trkpt lat="42.66334" lon="1.4974">
        <ele>2333.7377929688</ele>
        <time>2010-07-14T10:00:46Z</time>
      </trkpt>
      <trkpt lat="42.66332" lon="1.49744">
        <ele>2330.8537597656</ele>
        <time>2010-07-14T10:00:50Z</time>
      </trkpt>
      <trkpt lat="42.66333" lon="1.49751">
        <ele>2330.373046875</ele>
        <time>2010-07-14T10:00:55Z</time>
      </trkpt>
      <trkpt lat="42.66335" lon="1.49756">
        <ele>2330.8537597656</ele>
        <time>2010-07-14T10:00:59Z</time>
      </trkpt>
      <trkpt lat="42.66333" lon="1.49762">
        <ele>2330.8537597656</ele>
        <time>2010-07-14T10:01:04Z</time>
      </trkpt>
      <trkpt lat="42.66332" lon="1.49765">
        <ele>2331.3342285156</ele>
        <time>2010-07-14T10:01:10Z</time>
      </trkpt>
      <trkpt lat="42.66331" lon="1.49767">
        <ele>2330.8537597656</ele>
        <time>2010-07-14T10:01:17Z</time>
      </trkpt>
      <trkpt lat="42.66332" lon="1.49771">
        <ele>2329.4116210938</ele>
        <time>2010-07-14T10:01:21Z</time>
      </trkpt>
      <trkpt lat="42.66335" lon="1.49776">
        <ele>2327.4890136719</ele>
        <time>2010-07-14T10:01:28Z</time>
      </trkpt>
      <trkpt lat="42.66335" lon="1.49779">
        <ele>2326.5278320312</ele>
        <time>2010-07-14T10:01:32Z</time>
      </trkpt>
      <trkpt lat="42.66335" lon="1.49784">
        <ele>2326.5278320312</ele>
        <time>2010-07-14T10:01:38Z</time>
      </trkpt>
      <trkpt lat="42.66336" lon="1.49788">
        <ele>2325.56640625</ele>
        <time>2010-07-14T10:01:42Z</time>
      </trkpt>
      <trkpt lat="42.66337" lon="1.4979">
        <ele>2324.6052246094</ele>
        <time>2010-07-14T10:01:46Z</time>
      </trkpt>
      <trkpt lat="42.66338" lon="1.49795">
        <ele>2322.6826171875</ele>
        <time>2010-07-14T10:01:51Z</time>
      </trkpt>
      <trkpt lat="42.66338" lon="1.49798">
        <ele>2322.6826171875</ele>
        <time>2010-07-14T10:01:56Z</time>
      </trkpt>
      <trkpt lat="42.66338" lon="1.49802">
        <ele>2323.1633300781</ele>
        <time>2010-07-14T10:02:02Z</time>
      </trkpt>
      <trkpt lat="42.66338" lon="1.49806">
        <ele>2322.6826171875</ele>
        <time>2010-07-14T10:02:08Z</time>
      </trkpt>
      <trkpt lat="42.66338" lon="1.49811">
        <ele>2322.6826171875</ele>
        <time>2010-07-14T10:02:13Z</time>
      </trkpt>
      <trkpt lat="42.66338" lon="1.49814">
        <ele>2324.1245117188</ele>
        <time>2010-07-14T10:02:19Z</time>
      </trkpt>
      <trkpt lat="42.66339" lon="1.49818">
        <ele>2325.0856933594</ele>
        <time>2010-07-14T10:02:25Z</time>
      </trkpt>
      <trkpt lat="42.66339" lon="1.4982">
        <ele>2324.1245117188</ele>
        <time>2010-07-14T10:02:29Z</time>
      </trkpt>
      <trkpt lat="42.66337" lon="1.49823">
        <ele>2322.6826171875</ele>
        <time>2010-07-14T10:02:34Z</time>
      </trkpt>
      <trkpt lat="42.66338" lon="1.49826">
        <ele>2322.2019042969</ele>
        <time>2010-07-14T10:02:42Z</time>
      </trkpt>
      <trkpt lat="42.66337" lon="1.49829">
        <ele>2321.2404785156</ele>
        <time>2010-07-14T10:02:46Z</time>
      </trkpt>
      <trkpt lat="42.66338" lon="1.49832">
        <ele>2318.8374023438</ele>
        <time>2010-07-14T10:02:50Z</time>
      </trkpt>
      <trkpt lat="42.66338" lon="1.49835">
        <ele>2317.8759765625</ele>
        <time>2010-07-14T10:02:54Z</time>
      </trkpt>
      <trkpt lat="42.66336" lon="1.49838">
        <ele>2316.4340820312</ele>
        <time>2010-07-14T10:02:57Z</time>
      </trkpt>
      <trkpt lat="42.66335" lon="1.49842">
        <ele>2315.953125</ele>
        <time>2010-07-14T10:03:01Z</time>
      </trkpt>
      <trkpt lat="42.66335" lon="1.49845">
        <ele>2316.9147949219</ele>
        <time>2010-07-14T10:03:07Z</time>
      </trkpt>
      <trkpt lat="42.66331" lon="1.49849">
        <ele>2318.3566894531</ele>
        <time>2010-07-14T10:03:13Z</time>
      </trkpt>
      <trkpt lat="42.66328" lon="1.49851">
        <ele>2319.7985839844</ele>
        <time>2010-07-14T10:03:20Z</time>
      </trkpt>
      <trkpt lat="42.66328" lon="1.49854">
        <ele>2320.279296875</ele>
        <time>2010-07-14T10:03:27Z</time>
      </trkpt>
      <trkpt lat="42.66325" lon="1.49858">
        <ele>2321.2404785156</ele>
        <time>2010-07-14T10:03:33Z</time>
      </trkpt>
      <trkpt lat="42.66322" lon="1.49862">
        <ele>2321.7211914062</ele>
        <time>2010-07-14T10:03:40Z</time>
      </trkpt>
      <trkpt lat="42.66322" lon="1.49865">
        <ele>2321.2404785156</ele>
        <time>2010-07-14T10:03:46Z</time>
      </trkpt>
      <trkpt lat="42.66322" lon="1.49869">
        <ele>2320.7600097656</ele>
        <time>2010-07-14T10:03:52Z</time>
      </trkpt>
      <trkpt lat="42.66322" lon="1.49871">
        <ele>2320.7600097656</ele>
        <time>2010-07-14T10:03:57Z</time>
      </trkpt>
      <trkpt lat="42.66319" lon="1.49874">
        <ele>2321.7211914062</ele>
        <time>2010-07-14T10:04:03Z</time>
      </trkpt>
      <trkpt lat="42.66318" lon="1.49873">
        <ele>2322.6826171875</ele>
        <time>2010-07-14T10:04:08Z</time>
      </trkpt>
      <trkpt lat="42.66316" lon="1.49874">
        <ele>2322.6826171875</ele>
        <time>2010-07-14T10:04:15Z</time>
      </trkpt>
      <trkpt lat="42.66312" lon="1.49877">
        <ele>2324.1245117188</ele>
        <time>2010-07-14T10:04:22Z</time>
      </trkpt>
      <trkpt lat="42.66311" lon="1.49879">
        <ele>2324.1245117188</ele>
        <time>2010-07-14T10:04:28Z</time>
      </trkpt>
      <trkpt lat="42.66309" lon="1.4988">
        <ele>2324.1245117188</ele>
        <time>2010-07-14T10:04:33Z</time>
      </trkpt>
      <trkpt lat="42.66307" lon="1.49882">
        <ele>2323.6437988281</ele>
        <time>2010-07-14T10:04:40Z</time>
      </trkpt>
      <trkpt lat="42.66306" lon="1.49886">
        <ele>2324.6052246094</ele>
        <time>2010-07-14T10:04:45Z</time>
      </trkpt>
      <trkpt lat="42.66306" lon="1.49887">
        <ele>2325.0856933594</ele>
        <time>2010-07-14T10:04:51Z</time>
      </trkpt>
      <trkpt lat="42.66305" lon="1.49887">
        <ele>2324.6052246094</ele>
        <time>2010-07-14T10:04:56Z</time>
      </trkpt>
      <trkpt lat="42.66303" lon="1.49889">
        <ele>2325.0856933594</ele>
        <time>2010-07-14T10:05:01Z</time>
      </trkpt>
      <trkpt lat="42.66301" lon="1.49892">
        <ele>2324.1245117188</ele>
        <time>2010-07-14T10:05:07Z</time>
      </trkpt>
      <trkpt lat="42.66301" lon="1.49895">
        <ele>2325.56640625</ele>
        <time>2010-07-14T10:05:13Z</time>
      </trkpt>
      <trkpt lat="42.66302" lon="1.49898">
        <ele>2327.4890136719</ele>
        <time>2010-07-14T10:05:18Z</time>
      </trkpt>
      <trkpt lat="42.663" lon="1.499">
        <ele>2328.9309082031</ele>
        <time>2010-07-14T10:05:22Z</time>
      </trkpt>
      <trkpt lat="42.66298" lon="1.49902">
        <ele>2328.9309082031</ele>
        <time>2010-07-14T10:05:29Z</time>
      </trkpt>
      <trkpt lat="42.66296" lon="1.49903">
        <ele>2329.8923339844</ele>
        <time>2010-07-14T10:05:35Z</time>
      </trkpt>
      <trkpt lat="42.66294" lon="1.49906">
        <ele>2330.8537597656</ele>
        <time>2010-07-14T10:05:41Z</time>
      </trkpt>
      <trkpt lat="42.66293" lon="1.49908">
        <ele>2330.8537597656</ele>
        <time>2010-07-14T10:05:46Z</time>
      </trkpt>
      <trkpt lat="42.6629" lon="1.49911">
        <ele>2331.8149414062</ele>
        <time>2010-07-14T10:05:51Z</time>
      </trkpt>
      <trkpt lat="42.66287" lon="1.49915">
        <ele>2332.7763671875</ele>
        <time>2010-07-14T10:05:57Z</time>
      </trkpt>
      <trkpt lat="42.66286" lon="1.49918">
        <ele>2332.7763671875</ele>
        <time>2010-07-14T10:06:03Z</time>
      </trkpt>
      <trkpt lat="42.66284" lon="1.49925">
        <ele>2333.2570800781</ele>
        <time>2010-07-14T10:06:10Z</time>
      </trkpt>
      <trkpt lat="42.66283" lon="1.49933">
        <ele>2333.7377929688</ele>
        <time>2010-07-14T10:06:17Z</time>
      </trkpt>
      <trkpt lat="42.66283" lon="1.49935">
        <ele>2333.2570800781</ele>
        <time>2010-07-14T10:06:26Z</time>
      </trkpt>
      <trkpt lat="42.66279" lon="1.4994">
        <ele>2333.7377929688</ele>
        <time>2010-07-14T10:06:31Z</time>
      </trkpt>
      <trkpt lat="42.66279" lon="1.49945">
        <ele>2334.69921875</ele>
        <time>2010-07-14T10:06:37Z</time>
      </trkpt>
      <trkpt lat="42.66276" lon="1.49949">
        <ele>2335.1796875</ele>
        <time>2010-07-14T10:06:42Z</time>
      </trkpt>
      <trkpt lat="42.66273" lon="1.49953">
        <ele>2335.1796875</ele>
        <time>2010-07-14T10:06:49Z</time>
      </trkpt>
      <trkpt lat="42.66273" lon="1.49956">
        <ele>2334.2185058594</ele>
        <time>2010-07-14T10:06:54Z</time>
      </trkpt>
      <trkpt lat="42.66272" lon="1.4996">
        <ele>2333.2570800781</ele>
        <time>2010-07-14T10:07:00Z</time>
      </trkpt>
      <trkpt lat="42.66271" lon="1.49964">
        <ele>2333.7377929688</ele>
        <time>2010-07-14T10:07:05Z</time>
      </trkpt>
      <trkpt lat="42.6627" lon="1.49968">
        <ele>2332.2958984375</ele>
        <time>2010-07-14T10:07:11Z</time>
      </trkpt>
      <trkpt lat="42.6627" lon="1.49973">
        <ele>2331.3342285156</ele>
        <time>2010-07-14T10:07:17Z</time>
      </trkpt>
      <trkpt lat="42.66269" lon="1.49975">
        <ele>2331.3342285156</ele>
        <time>2010-07-14T10:07:22Z</time>
      </trkpt>
      <trkpt lat="42.66266" lon="1.49975">
        <ele>2332.2958984375</ele>
        <time>2010-07-14T10:07:28Z</time>
      </trkpt>
      <trkpt lat="42.66263" lon="1.49979">
        <ele>2332.7763671875</ele>
        <time>2010-07-14T10:07:34Z</time>
      </trkpt>
      <trkpt lat="42.6626" lon="1.49981">
        <ele>2334.2185058594</ele>
        <time>2010-07-14T10:07:40Z</time>
      </trkpt>
      <trkpt lat="42.66257" lon="1.4998">
        <ele>2336.1411132812</ele>
        <time>2010-07-14T10:07:47Z</time>
      </trkpt>
      <trkpt lat="42.66253" lon="1.49978">
        <ele>2337.5830078125</ele>
        <time>2010-07-14T10:07:53Z</time>
      </trkpt>
      <trkpt lat="42.66249" lon="1.49977">
        <ele>2339.0249023438</ele>
        <time>2010-07-14T10:08:00Z</time>
      </trkpt>
      <trkpt lat="42.66247" lon="1.49976">
        <ele>2339.5056152344</ele>
        <time>2010-07-14T10:08:05Z</time>
      </trkpt>
      <trkpt lat="42.66245" lon="1.49975">
        <ele>2341.4282226562</ele>
        <time>2010-07-14T10:08:12Z</time>
      </trkpt>
      <trkpt lat="42.66241" lon="1.49973">
        <ele>2343.8315429688</ele>
        <time>2010-07-14T10:08:19Z</time>
      </trkpt>
      <trkpt lat="42.66239" lon="1.49972">
        <ele>2344.7927246094</ele>
        <time>2010-07-14T10:08:23Z</time>
      </trkpt>
      <trkpt lat="42.66236" lon="1.49971">
        <ele>2347.1960449219</ele>
        <time>2010-07-14T10:08:29Z</time>
      </trkpt>
      <trkpt lat="42.66232" lon="1.49971">
        <ele>2348.1574707031</ele>
        <time>2010-07-14T10:08:35Z</time>
      </trkpt>
      <trkpt lat="42.66229" lon="1.49971">
        <ele>2348.1574707031</ele>
        <time>2010-07-14T10:08:40Z</time>
      </trkpt>
      <trkpt lat="42.66227" lon="1.4997">
        <ele>2350.0803222656</ele>
        <time>2010-07-14T10:08:45Z</time>
      </trkpt>
      <trkpt lat="42.66224" lon="1.49968">
        <ele>2350.5607910156</ele>
        <time>2010-07-14T10:08:51Z</time>
      </trkpt>
      <trkpt lat="42.66222" lon="1.49966">
        <ele>2351.5222167969</ele>
        <time>2010-07-14T10:08:59Z</time>
      </trkpt>
      <trkpt lat="42.66221" lon="1.49966">
        <ele>2352.0026855469</ele>
        <time>2010-07-14T10:09:05Z</time>
      </trkpt>
      <trkpt lat="42.6622" lon="1.49966">
        <ele>2351.5222167969</ele>
        <time>2010-07-14T10:09:14Z</time>
      </trkpt>
      <trkpt lat="42.6622" lon="1.49966">
        <ele>2351.0415039062</ele>
        <time>2010-07-14T10:09:19Z</time>
      </trkpt>
      <trkpt lat="42.66219" lon="1.49966">
        <ele>2351.0415039062</ele>
        <time>2010-07-14T10:09:30Z</time>
      </trkpt>
      <trkpt lat="42.66219" lon="1.49967">
        <ele>2352.0026855469</ele>
        <time>2010-07-14T10:09:40Z</time>
      </trkpt>
      <trkpt lat="42.66218" lon="1.49968">
        <ele>2352.0026855469</ele>
        <time>2010-07-14T10:09:48Z</time>
      </trkpt>
      <trkpt lat="42.66216" lon="1.49969">
        <ele>2351.5222167969</ele>
        <time>2010-07-14T10:09:54Z</time>
      </trkpt>
      <trkpt lat="42.66215" lon="1.4997">
        <ele>2351.5222167969</ele>
        <time>2010-07-14T10:09:59Z</time>
      </trkpt>
      <trkpt lat="42.66214" lon="1.49972">
        <ele>2351.5222167969</ele>
        <time>2010-07-14T10:10:05Z</time>
      </trkpt>
      <trkpt lat="42.66212" lon="1.49974">
        <ele>2352.4833984375</ele>
        <time>2010-07-14T10:10:13Z</time>
      </trkpt>
      <trkpt lat="42.66211" lon="1.49975">
        <ele>2352.9641113281</ele>
        <time>2010-07-14T10:10:21Z</time>
      </trkpt>
      <trkpt lat="42.66209" lon="1.49976">
        <ele>2352.9641113281</ele>
        <time>2010-07-14T10:10:28Z</time>
      </trkpt>
      <trkpt lat="42.66208" lon="1.49977">
        <ele>2353.9255371094</ele>
        <time>2010-07-14T10:10:35Z</time>
      </trkpt>
      <trkpt lat="42.66207" lon="1.49977">
        <ele>2354.4060058594</ele>
        <time>2010-07-14T10:10:41Z</time>
      </trkpt>
      <trkpt lat="42.66205" lon="1.49976">
        <ele>2355.8479003906</ele>
        <time>2010-07-14T10:10:48Z</time>
      </trkpt>
      <trkpt lat="42.66204" lon="1.49976">
        <ele>2357.2900390625</ele>
        <time>2010-07-14T10:10:56Z</time>
      </trkpt>
      <trkpt lat="42.66205" lon="1.49978">
        <ele>2358.2512207031</ele>
        <time>2010-07-14T10:11:02Z</time>
      </trkpt>
      <trkpt lat="42.66204" lon="1.49979">
        <ele>2358.7319335938</ele>
        <time>2010-07-14T10:11:07Z</time>
      </trkpt>
      <trkpt lat="42.66201" lon="1.49979">
        <ele>2360.173828125</ele>
        <time>2010-07-14T10:11:15Z</time>
      </trkpt>
      <trkpt lat="42.662" lon="1.49978">
        <ele>2362.0964355469</ele>
        <time>2010-07-14T10:11:22Z</time>
      </trkpt>
      <trkpt lat="42.66198" lon="1.49978">
        <ele>2364.0192871094</ele>
        <time>2010-07-14T10:11:30Z</time>
      </trkpt>
      <trkpt lat="42.66197" lon="1.49978">
        <ele>2364.5</ele>
        <time>2010-07-14T10:11:36Z</time>
      </trkpt>
      <trkpt lat="42.66196" lon="1.49978">
        <ele>2365.9418945312</ele>
        <time>2010-07-14T10:11:42Z</time>
      </trkpt>
      <trkpt lat="42.66196" lon="1.49979">
        <ele>2367.3837890625</ele>
        <time>2010-07-14T10:11:49Z</time>
      </trkpt>
      <trkpt lat="42.66195" lon="1.49982">
        <ele>2368.8259277344</ele>
        <time>2010-07-14T10:11:56Z</time>
      </trkpt>
      <trkpt lat="42.66193" lon="1.49984">
        <ele>2368.8259277344</ele>
        <time>2010-07-14T10:12:01Z</time>
      </trkpt>
      <trkpt lat="42.66192" lon="1.49987">
        <ele>2369.306640625</ele>
        <time>2010-07-14T10:12:07Z</time>
      </trkpt>
      <trkpt lat="42.6619" lon="1.49988">
        <ele>2370.2678222656</ele>
        <time>2010-07-14T10:12:13Z</time>
      </trkpt>
      <trkpt lat="42.66187" lon="1.4999">
        <ele>2370.7485351562</ele>
        <time>2010-07-14T10:12:19Z</time>
      </trkpt>
      <trkpt lat="42.66184" lon="1.49991">
        <ele>2371.7097167969</ele>
        <time>2010-07-14T10:12:25Z</time>
      </trkpt>
      <trkpt lat="42.6618" lon="1.49996">
        <ele>2372.1904296875</ele>
        <time>2010-07-14T10:12:30Z</time>
      </trkpt>
      <trkpt lat="42.66176" lon="1.50001">
        <ele>2372.6711425781</ele>
        <time>2010-07-14T10:12:35Z</time>
      </trkpt>
      <trkpt lat="42.66173" lon="1.50006">
        <ele>2373.1518554688</ele>
        <time>2010-07-14T10:12:42Z</time>
      </trkpt>
      <trkpt lat="42.66171" lon="1.5001">
        <ele>2373.1518554688</ele>
        <time>2010-07-14T10:12:47Z</time>
      </trkpt>
      <trkpt lat="42.66166" lon="1.50015">
        <ele>2373.1518554688</ele>
        <time>2010-07-14T10:12:53Z</time>
      </trkpt>
      <trkpt lat="42.66162" lon="1.50018">
        <ele>2372.6711425781</ele>
        <time>2010-07-14T10:12:57Z</time>
      </trkpt>
      <trkpt lat="42.66157" lon="1.50018">
        <ele>2373.6323242188</ele>
        <time>2010-07-14T10:13:04Z</time>
      </trkpt>
      <trkpt lat="42.66152" lon="1.50018">
        <ele>2374.1130371094</ele>
        <time>2010-07-14T10:13:10Z</time>
      </trkpt>
      <trkpt lat="42.6615" lon="1.50019">
        <ele>2374.59375</ele>
        <time>2010-07-14T10:13:14Z</time>
      </trkpt>
      <trkpt lat="42.66145" lon="1.50021">
        <ele>2376.0356445312</ele>
        <time>2010-07-14T10:13:22Z</time>
      </trkpt>
      <trkpt lat="42.66141" lon="1.50022">
        <ele>2378.4389648438</ele>
        <time>2010-07-14T10:13:29Z</time>
      </trkpt>
      <trkpt lat="42.66139" lon="1.50025">
        <ele>2378.9194335938</ele>
        <time>2010-07-14T10:13:32Z</time>
      </trkpt>
      <trkpt lat="42.66136" lon="1.50029">
        <ele>2380.3618164062</ele>
        <time>2010-07-14T10:13:39Z</time>
      </trkpt>
      <trkpt lat="42.66134" lon="1.5003">
        <ele>2381.3229980469</ele>
        <time>2010-07-14T10:13:46Z</time>
      </trkpt>
      <trkpt lat="42.66132" lon="1.50032">
        <ele>2381.8037109375</ele>
        <time>2010-07-14T10:13:51Z</time>
      </trkpt>
      <trkpt lat="42.66129" lon="1.50036">
        <ele>2382.2844238281</ele>
        <time>2010-07-14T10:13:56Z</time>
      </trkpt>
      <trkpt lat="42.66125" lon="1.50042">
        <ele>2382.2844238281</ele>
        <time>2010-07-14T10:14:02Z</time>
      </trkpt>
      <trkpt lat="42.66121" lon="1.50045">
        <ele>2382.7648925781</ele>
        <time>2010-07-14T10:14:10Z</time>
      </trkpt>
      <trkpt lat="42.66119" lon="1.50049">
        <ele>2383.2456054688</ele>
        <time>2010-07-14T10:14:16Z</time>
      </trkpt>
      <trkpt lat="42.66116" lon="1.50053">
        <ele>2383.7263183594</ele>
        <time>2010-07-14T10:14:23Z</time>
      </trkpt>
      <trkpt lat="42.66114" lon="1.50057">
        <ele>2383.7263183594</ele>
        <time>2010-07-14T10:14:29Z</time>
      </trkpt>
      <trkpt lat="42.66113" lon="1.50062">
        <ele>2384.6877441406</ele>
        <time>2010-07-14T10:14:35Z</time>
      </trkpt>
      <trkpt lat="42.66113" lon="1.50066">
        <ele>2386.1296386719</ele>
        <time>2010-07-14T10:14:39Z</time>
      </trkpt>
      <trkpt lat="42.66114" lon="1.50069">
        <ele>2386.1296386719</ele>
        <time>2010-07-14T10:14:44Z</time>
      </trkpt>
      <trkpt lat="42.66115" lon="1.50071">
        <ele>2386.1296386719</ele>
        <time>2010-07-14T10:14:50Z</time>
      </trkpt>
      <trkpt lat="42.66116" lon="1.50074">
        <ele>2386.6101074219</ele>
        <time>2010-07-14T10:14:55Z</time>
      </trkpt>
      <trkpt lat="42.66116" lon="1.50078">
        <ele>2388.0522460938</ele>
        <time>2010-07-14T10:15:01Z</time>
      </trkpt>
      <trkpt lat="42.66116" lon="1.50084">
        <ele>2388.5329589844</ele>
        <time>2010-07-14T10:15:07Z</time>
      </trkpt>
      <trkpt lat="42.66114" lon="1.50088">
        <ele>2389.0134277344</ele>
        <time>2010-07-14T10:15:13Z</time>
      </trkpt>
      <trkpt lat="42.66113" lon="1.50089">
        <ele>2389.9748535156</ele>
        <time>2010-07-14T10:15:18Z</time>
      </trkpt>
      <trkpt lat="42.66112" lon="1.50092">
        <ele>2393.3393554688</ele>
        <time>2010-07-14T10:15:25Z</time>
      </trkpt>
      <trkpt lat="42.66111" lon="1.50095">
        <ele>2394.3005371094</ele>
        <time>2010-07-14T10:15:30Z</time>
      </trkpt>
      <trkpt lat="42.66112" lon="1.50098">
        <ele>2395.2619628906</ele>
        <time>2010-07-14T10:15:36Z</time>
      </trkpt>
      <trkpt lat="42.66113" lon="1.50099">
        <ele>2395.7426757812</ele>
        <time>2010-07-14T10:15:46Z</time>
      </trkpt>
      <trkpt lat="42.66111" lon="1.50101">
        <ele>2396.7041015625</ele>
        <time>2010-07-14T10:16:00Z</time>
      </trkpt>
      <trkpt lat="42.66105" lon="1.50104">
        <ele>2396.2236328125</ele>
        <time>2010-07-14T10:16:07Z</time>
      </trkpt>
      <trkpt lat="42.661" lon="1.50107">
        <ele>2396.7041015625</ele>
        <time>2010-07-14T10:16:12Z</time>
      </trkpt>
      <trkpt lat="42.66098" lon="1.50109">
        <ele>2397.1848144531</ele>
        <time>2010-07-14T10:16:17Z</time>
      </trkpt>
      <trkpt lat="42.66094" lon="1.50111">
        <ele>2400.5493164062</ele>
        <time>2010-07-14T10:16:23Z</time>
      </trkpt>
      <trkpt lat="42.6609" lon="1.5011">
        <ele>2404.8752441406</ele>
        <time>2010-07-14T10:16:28Z</time>
      </trkpt>
      <trkpt lat="42.66085" lon="1.50114">
        <ele>2405.3559570312</ele>
        <time>2010-07-14T10:16:36Z</time>
      </trkpt>
      <trkpt lat="42.66081" lon="1.50121">
        <ele>2405.8364257812</ele>
        <time>2010-07-14T10:16:43Z</time>
      </trkpt>
      <trkpt lat="42.66077" lon="1.50129">
        <ele>2406.3171386719</ele>
        <time>2010-07-14T10:16:51Z</time>
      </trkpt>
      <trkpt lat="42.66074" lon="1.50137">
        <ele>2406.3171386719</ele>
        <time>2010-07-14T10:16:58Z</time>
      </trkpt>
      <trkpt lat="42.66074" lon="1.50143">
        <ele>2406.7978515625</ele>
        <time>2010-07-14T10:17:02Z</time>
      </trkpt>
      <trkpt lat="42.66074" lon="1.50152">
        <ele>2407.7592773438</ele>
        <time>2010-07-14T10:17:10Z</time>
      </trkpt>
      <trkpt lat="42.66072" lon="1.50159">
        <ele>2408.2397460938</ele>
        <time>2010-07-14T10:17:17Z</time>
      </trkpt>
      <trkpt lat="42.66069" lon="1.50165">
        <ele>2409.681640625</ele>
        <time>2010-07-14T10:17:24Z</time>
      </trkpt>
      <trkpt lat="42.66064" lon="1.5017">
        <ele>2408.7204589844</ele>
        <time>2010-07-14T10:17:31Z</time>
      </trkpt>
      <trkpt lat="42.66059" lon="1.50174">
        <ele>2407.7592773438</ele>
        <time>2010-07-14T10:17:37Z</time>
      </trkpt>
      <trkpt lat="42.66055" lon="1.5018">
        <ele>2407.2785644531</ele>
        <time>2010-07-14T10:17:44Z</time>
      </trkpt>
      <trkpt lat="42.66056" lon="1.50182">
        <ele>2408.2397460938</ele>
        <time>2010-07-14T10:17:53Z</time>
      </trkpt>
      <trkpt lat="42.66056" lon="1.50183">
        <ele>2409.681640625</ele>
        <time>2010-07-14T10:18:09Z</time>
      </trkpt>
      <trkpt lat="42.66056" lon="1.50185">
        <ele>2409.681640625</ele>
        <time>2010-07-14T10:18:18Z</time>
      </trkpt>
      <trkpt lat="42.66056" lon="1.50189">
        <ele>2409.201171875</ele>
        <time>2010-07-14T10:18:25Z</time>
      </trkpt>
      <trkpt lat="42.66058" lon="1.50195">
        <ele>2407.7592773438</ele>
        <time>2010-07-14T10:18:32Z</time>
      </trkpt>
      <trkpt lat="42.66059" lon="1.50197">
        <ele>2407.2785644531</ele>
        <time>2010-07-14T10:18:37Z</time>
      </trkpt>
      <trkpt lat="42.66059" lon="1.50197">
        <ele>2406.7978515625</ele>
        <time>2010-07-14T10:18:44Z</time>
      </trkpt>
      <trkpt lat="42.66058" lon="1.50197">
        <ele>2406.3171386719</ele>
        <time>2010-07-14T10:18:54Z</time>
      </trkpt>
      <trkpt lat="42.66058" lon="1.50197">
        <ele>2406.3171386719</ele>
        <time>2010-07-14T10:19:03Z</time>
      </trkpt>
      <trkpt lat="42.66061" lon="1.50201">
        <ele>2404.8752441406</ele>
        <time>2010-07-14T10:19:07Z</time>
      </trkpt>
      <trkpt lat="42.66065" lon="1.50207">
        <ele>2403.9140625</ele>
        <time>2010-07-14T10:19:11Z</time>
      </trkpt>
      <trkpt lat="42.66066" lon="1.50212">
        <ele>2403.9140625</ele>
        <time>2010-07-14T10:19:15Z</time>
      </trkpt>
      <trkpt lat="42.66065" lon="1.50215">
        <ele>2403.4333496094</ele>
        <time>2010-07-14T10:19:17Z</time>
      </trkpt>
      <trkpt lat="42.66064" lon="1.5022">
        <ele>2404.39453125</ele>
        <time>2010-07-14T10:19:23Z</time>
      </trkpt>
      <trkpt lat="42.66066" lon="1.50228">
        <ele>2405.8364257812</ele>
        <time>2010-07-14T10:19:31Z</time>
      </trkpt>
      <trkpt lat="42.66067" lon="1.50229">
        <ele>2407.2785644531</ele>
        <time>2010-07-14T10:19:38Z</time>
      </trkpt>
      <trkpt lat="42.66066" lon="1.50227">
        <ele>2406.7978515625</ele>
        <time>2010-07-14T10:19:43Z</time>
      </trkpt>
      <trkpt lat="42.66069" lon="1.50224">
        <ele>2406.7978515625</ele>
        <time>2010-07-14T10:19:49Z</time>
      </trkpt>
      <trkpt lat="42.6607" lon="1.50218">
        <ele>2405.3559570312</ele>
        <time>2010-07-14T10:19:56Z</time>
      </trkpt>
      <trkpt lat="42.66071" lon="1.50215">
        <ele>2404.39453125</ele>
        <time>2010-07-14T10:20:01Z</time>
      </trkpt>
      <trkpt lat="42.6607" lon="1.50211">
        <ele>2404.8752441406</ele>
        <time>2010-07-14T10:20:06Z</time>
      </trkpt>
      <trkpt lat="42.66071" lon="1.50209">
        <ele>2405.3559570312</ele>
        <time>2010-07-14T10:20:14Z</time>
      </trkpt>
      <trkpt lat="42.66073" lon="1.50209">
        <ele>2405.3559570312</ele>
        <time>2010-07-14T10:20:21Z</time>
      </trkpt>
      <trkpt lat="42.66074" lon="1.50214">
        <ele>2405.3559570312</ele>
        <time>2010-07-14T10:20:28Z</time>
      </trkpt>
      <trkpt lat="42.66076" lon="1.50221">
        <ele>2404.8752441406</ele>
        <time>2010-07-14T10:20:35Z</time>
      </trkpt>
      <trkpt lat="42.66075" lon="1.50225">
        <ele>2404.8752441406</ele>
        <time>2010-07-14T10:20:41Z</time>
      </trkpt>
      <trkpt lat="42.66074" lon="1.50225">
        <ele>2404.8752441406</ele>
        <time>2010-07-14T10:20:42Z</time>
      </trkpt>
      <trkpt lat="42.66072" lon="1.50226">
        <ele>2405.8364257812</ele>
        <time>2010-07-14T10:20:46Z</time>
      </trkpt>
      <trkpt lat="42.66072" lon="1.50226">
        <ele>2405.3559570312</ele>
        <time>2010-07-14T10:20:56Z</time>
      </trkpt>
      <trkpt lat="42.66072" lon="1.50226">
        <ele>2404.8752441406</ele>
        <time>2010-07-14T10:21:07Z</time>
      </trkpt>
      <trkpt lat="42.66072" lon="1.50226">
        <ele>2404.8752441406</ele>
        <time>2010-07-14T10:21:18Z</time>
      </trkpt>
      <trkpt lat="42.66072" lon="1.50227">
        <ele>2403.4333496094</ele>
        <time>2010-07-14T10:21:23Z</time>
      </trkpt>
      <trkpt lat="42.66073" lon="1.50227">
        <ele>2402.4719238281</ele>
        <time>2010-07-14T10:21:30Z</time>
      </trkpt>
      <trkpt lat="42.66073" lon="1.50227">
        <ele>2402.4719238281</ele>
        <time>2010-07-14T10:21:38Z</time>
      </trkpt>
      <trkpt lat="42.66073" lon="1.50227">
        <ele>2399.107421875</ele>
        <time>2010-07-14T10:59:04Z</time>
      </trkpt>
      <trkpt lat="42.66073" lon="1.50226">
        <ele>2399.5881347656</ele>
        <time>2010-07-14T10:59:05Z</time>
      </trkpt>
      <trkpt lat="42.66074" lon="1.50222">
        <ele>2399.5881347656</ele>
        <time>2010-07-14T10:59:10Z</time>
      </trkpt>
      <trkpt lat="42.66075" lon="1.50217">
        <ele>2401.0300292969</ele>
        <time>2010-07-14T10:59:16Z</time>
      </trkpt>
      <trkpt lat="42.66077" lon="1.50216">
        <ele>2401.5107421875</ele>
        <time>2010-07-14T10:59:21Z</time>
      </trkpt>
      <trkpt lat="42.66082" lon="1.50213">
        <ele>2402.9526367188</ele>
        <time>2010-07-14T10:59:28Z</time>
      </trkpt>
      <trkpt lat="42.66087" lon="1.5021">
        <ele>2403.4333496094</ele>
        <time>2010-07-14T10:59:36Z</time>
      </trkpt>
      <trkpt lat="42.66091" lon="1.50208">
        <ele>2403.4333496094</ele>
        <time>2010-07-14T10:59:44Z</time>
      </trkpt>
      <trkpt lat="42.66093" lon="1.50207">
        <ele>2403.4333496094</ele>
        <time>2010-07-14T10:59:55Z</time>
      </trkpt>
      <trkpt lat="42.66097" lon="1.50206">
        <ele>2402.4719238281</ele>
        <time>2010-07-14T11:00:02Z</time>
      </trkpt>
      <trkpt lat="42.66103" lon="1.50206">
        <ele>2401.9912109375</ele>
        <time>2010-07-14T11:00:10Z</time>
      </trkpt>
      <trkpt lat="42.66106" lon="1.50208">
        <ele>2402.9526367188</ele>
        <time>2010-07-14T11:00:15Z</time>
      </trkpt>
      <trkpt lat="42.66112" lon="1.5021">
        <ele>2403.9140625</ele>
        <time>2010-07-14T11:00:22Z</time>
      </trkpt>
      <trkpt lat="42.66115" lon="1.5021">
        <ele>2403.4333496094</ele>
        <time>2010-07-14T11:00:26Z</time>
      </trkpt>
      <trkpt lat="42.6612" lon="1.50212">
        <ele>2402.4719238281</ele>
        <time>2010-07-14T11:00:33Z</time>
      </trkpt>
      <trkpt lat="42.66124" lon="1.50214">
        <ele>2401.5107421875</ele>
        <time>2010-07-14T11:00:40Z</time>
      </trkpt>
      <trkpt lat="42.66126" lon="1.50217">
        <ele>2401.9912109375</ele>
        <time>2010-07-14T11:00:45Z</time>
      </trkpt>
      <trkpt lat="42.66127" lon="1.5022">
        <ele>2403.4333496094</ele>
        <time>2010-07-14T11:00:50Z</time>
      </trkpt>
      <trkpt lat="42.66132" lon="1.50227">
        <ele>2403.9140625</ele>
        <time>2010-07-14T11:00:57Z</time>
      </trkpt>
      <trkpt lat="42.66135" lon="1.50232">
        <ele>2404.8752441406</ele>
        <time>2010-07-14T11:01:04Z</time>
      </trkpt>
      <trkpt lat="42.66137" lon="1.50234">
        <ele>2404.8752441406</ele>
        <time>2010-07-14T11:01:11Z</time>
      </trkpt>
      <trkpt lat="42.66142" lon="1.50233">
        <ele>2404.39453125</ele>
        <time>2010-07-14T11:01:16Z</time>
      </trkpt>
      <trkpt lat="42.66146" lon="1.50231">
        <ele>2403.9140625</ele>
        <time>2010-07-14T11:01:21Z</time>
      </trkpt>
      <trkpt lat="42.66148" lon="1.5023">
        <ele>2403.9140625</ele>
        <time>2010-07-14T11:01:23Z</time>
      </trkpt>
      <trkpt lat="42.66158" lon="1.50235">
        <ele>2404.39453125</ele>
        <time>2010-07-14T11:01:31Z</time>
      </trkpt>
      <trkpt lat="42.66162" lon="1.50236">
        <ele>2402.9526367188</ele>
        <time>2010-07-14T11:01:35Z</time>
      </trkpt>
      <trkpt lat="42.66163" lon="1.50236">
        <ele>2402.9526367188</ele>
        <time>2010-07-14T11:01:36Z</time>
      </trkpt>
      <trkpt lat="42.66166" lon="1.50236">
        <ele>2402.4719238281</ele>
        <time>2010-07-14T11:01:38Z</time>
      </trkpt>
      <trkpt lat="42.66172" lon="1.50234">
        <ele>2401.9912109375</ele>
        <time>2010-07-14T11:01:44Z</time>
      </trkpt>
      <trkpt lat="42.66174" lon="1.50234">
        <ele>2401.5107421875</ele>
        <time>2010-07-14T11:01:46Z</time>
      </trkpt>
      <trkpt lat="42.66183" lon="1.50232">
        <ele>2403.9140625</ele>
        <time>2010-07-14T11:01:55Z</time>
      </trkpt>
      <trkpt lat="42.66188" lon="1.50231">
        <ele>2405.3559570312</ele>
        <time>2010-07-14T11:02:01Z</time>
      </trkpt>
      <trkpt lat="42.66191" lon="1.50232">
        <ele>2405.8364257812</ele>
        <time>2010-07-14T11:02:07Z</time>
      </trkpt>
      <trkpt lat="42.66191" lon="1.50232">
        <ele>2405.8364257812</ele>
        <time>2010-07-14T11:02:12Z</time>
      </trkpt>
      <trkpt lat="42.66193" lon="1.5023">
        <ele>2404.8752441406</ele>
        <time>2010-07-14T11:02:20Z</time>
      </trkpt>
      <trkpt lat="42.66194" lon="1.50225">
        <ele>2403.9140625</ele>
        <time>2010-07-14T11:02:25Z</time>
      </trkpt>
      <trkpt lat="42.66194" lon="1.50224">
        <ele>2404.39453125</ele>
        <time>2010-07-14T11:02:31Z</time>
      </trkpt>
      <trkpt lat="42.66192" lon="1.50224">
        <ele>2404.39453125</ele>
        <time>2010-07-14T11:02:47Z</time>
      </trkpt>
      <trkpt lat="42.66191" lon="1.50224">
        <ele>2405.3559570312</ele>
        <time>2010-07-14T11:02:52Z</time>
      </trkpt>
      <trkpt lat="42.66189" lon="1.50224">
        <ele>2404.8752441406</ele>
        <time>2010-07-14T11:03:05Z</time>
      </trkpt>
      <trkpt lat="42.66189" lon="1.50226">
        <ele>2404.8752441406</ele>
        <time>2010-07-14T11:03:10Z</time>
      </trkpt>
      <trkpt lat="42.66189" lon="1.50233">
        <ele>2405.8364257812</ele>
        <time>2010-07-14T11:03:17Z</time>
      </trkpt>
      <trkpt lat="42.66185" lon="1.50232">
        <ele>2406.3171386719</ele>
        <time>2010-07-14T11:03:22Z</time>
      </trkpt>
      <trkpt lat="42.66183" lon="1.50232">
        <ele>2406.7978515625</ele>
        <time>2010-07-14T11:03:23Z</time>
      </trkpt>
      <trkpt lat="42.66176" lon="1.50235">
        <ele>2405.8364257812</ele>
        <time>2010-07-14T11:03:28Z</time>
      </trkpt>
      <trkpt lat="42.66171" lon="1.50235">
        <ele>2402.9526367188</ele>
        <time>2010-07-14T11:03:35Z</time>
      </trkpt>
      <trkpt lat="42.66166" lon="1.50235">
        <ele>2401.5107421875</ele>
        <time>2010-07-14T11:03:39Z</time>
      </trkpt>
      <trkpt lat="42.66162" lon="1.50238">
        <ele>2400.0688476562</ele>
        <time>2010-07-14T11:03:44Z</time>
      </trkpt>
      <trkpt lat="42.6616" lon="1.50239">
        <ele>2400.0688476562</ele>
        <time>2010-07-14T11:03:46Z</time>
      </trkpt>
      <trkpt lat="42.66151" lon="1.50233">
        <ele>2401.9912109375</ele>
        <time>2010-07-14T11:03:54Z</time>
      </trkpt>
      <trkpt lat="42.6615" lon="1.50232">
        <ele>2402.9526367188</ele>
        <time>2010-07-14T11:03:55Z</time>
      </trkpt>
      <trkpt lat="42.6614" lon="1.50234">
        <ele>2404.8752441406</ele>
        <time>2010-07-14T11:04:03Z</time>
      </trkpt>
      <trkpt lat="42.66136" lon="1.50241">
        <ele>2405.3559570312</ele>
        <time>2010-07-14T11:04:11Z</time>
      </trkpt>
      <trkpt lat="42.66135" lon="1.50246">
        <ele>2406.3171386719</ele>
        <time>2010-07-14T11:04:17Z</time>
      </trkpt>
      <trkpt lat="42.66135" lon="1.5025">
        <ele>2406.7978515625</ele>
        <time>2010-07-14T11:04:23Z</time>
      </trkpt>
      <trkpt lat="42.66138" lon="1.50251">
        <ele>2408.2397460938</ele>
        <time>2010-07-14T11:04:29Z</time>
      </trkpt>
      <trkpt lat="42.6614" lon="1.50252">
        <ele>2408.7204589844</ele>
        <time>2010-07-14T11:04:36Z</time>
      </trkpt>
      <trkpt lat="42.66144" lon="1.50254">
        <ele>2408.7204589844</ele>
        <time>2010-07-14T11:04:41Z</time>
      </trkpt>
      <trkpt lat="42.66147" lon="1.50255">
        <ele>2409.201171875</ele>
        <time>2010-07-14T11:04:46Z</time>
      </trkpt>
      <trkpt lat="42.66147" lon="1.50259">
        <ele>2410.1623535156</ele>
        <time>2010-07-14T11:04:52Z</time>
      </trkpt>
      <trkpt lat="42.66148" lon="1.50265">
        <ele>2412.0852050781</ele>
        <time>2010-07-14T11:04:59Z</time>
      </trkpt>
      <trkpt lat="42.66147" lon="1.50271">
        <ele>2412.5659179688</ele>
        <time>2010-07-14T11:05:05Z</time>
      </trkpt>
      <trkpt lat="42.66145" lon="1.50278">
        <ele>2412.5659179688</ele>
        <time>2010-07-14T11:05:11Z</time>
      </trkpt>
      <trkpt lat="42.66148" lon="1.50282">
        <ele>2413.0466308594</ele>
        <time>2010-07-14T11:05:17Z</time>
      </trkpt>
      <trkpt lat="42.66152" lon="1.50286">
        <ele>2414.0078125</ele>
        <time>2010-07-14T11:05:24Z</time>
      </trkpt>
      <trkpt lat="42.66156" lon="1.5029">
        <ele>2414.4885253906</ele>
        <time>2010-07-14T11:05:30Z</time>
      </trkpt>
      <trkpt lat="42.6616" lon="1.50294">
        <ele>2415.4499511719</ele>
        <time>2010-07-14T11:05:36Z</time>
      </trkpt>
      <trkpt lat="42.66166" lon="1.50298">
        <ele>2415.4499511719</ele>
        <time>2010-07-14T11:05:42Z</time>
      </trkpt>
      <trkpt lat="42.66167" lon="1.50298">
        <ele>2415.4499511719</ele>
        <time>2010-07-14T11:05:43Z</time>
      </trkpt>
      <trkpt lat="42.66174" lon="1.50305">
        <ele>2414.0078125</ele>
        <time>2010-07-14T11:05:51Z</time>
      </trkpt>
      <trkpt lat="42.66174" lon="1.50306">
        <ele>2413.5270996094</ele>
        <time>2010-07-14T11:05:52Z</time>
      </trkpt>
      <trkpt lat="42.6618" lon="1.50311">
        <ele>2412.5659179688</ele>
        <time>2010-07-14T11:06:00Z</time>
      </trkpt>
      <trkpt lat="42.66184" lon="1.50311">
        <ele>2412.0852050781</ele>
        <time>2010-07-14T11:06:03Z</time>
      </trkpt>
      <trkpt lat="42.66189" lon="1.50314">
        <ele>2410.6430664062</ele>
        <time>2010-07-14T11:06:07Z</time>
      </trkpt>
      <trkpt lat="42.66193" lon="1.50317">
        <ele>2411.1237792969</ele>
        <time>2010-07-14T11:06:12Z</time>
      </trkpt>
      <trkpt lat="42.66198" lon="1.50315">
        <ele>2411.1237792969</ele>
        <time>2010-07-14T11:06:17Z</time>
      </trkpt>
      <trkpt lat="42.66201" lon="1.50313">
        <ele>2411.6044921875</ele>
        <time>2010-07-14T11:06:20Z</time>
      </trkpt>
      <trkpt lat="42.66204" lon="1.50313">
        <ele>2412.5659179688</ele>
        <time>2010-07-14T11:06:24Z</time>
      </trkpt>
      <trkpt lat="42.6621" lon="1.50315">
        <ele>2414.4885253906</ele>
        <time>2010-07-14T11:06:31Z</time>
      </trkpt>
      <trkpt lat="42.66214" lon="1.50314">
        <ele>2414.4885253906</ele>
        <time>2010-07-14T11:06:36Z</time>
      </trkpt>
      <trkpt lat="42.66219" lon="1.50311">
        <ele>2414.9692382812</ele>
        <time>2010-07-14T11:06:41Z</time>
      </trkpt>
      <trkpt lat="42.66229" lon="1.50309">
        <ele>2414.9692382812</ele>
        <time>2010-07-14T11:06:50Z</time>
      </trkpt>
      <trkpt lat="42.66233" lon="1.50305">
        <ele>2414.9692382812</ele>
        <time>2010-07-14T11:06:55Z</time>
      </trkpt>
      <trkpt lat="42.66242" lon="1.503">
        <ele>2415.4499511719</ele>
        <time>2010-07-14T11:07:04Z</time>
      </trkpt>
      <trkpt lat="42.66245" lon="1.50299">
        <ele>2414.9692382812</ele>
        <time>2010-07-14T11:07:10Z</time>
      </trkpt>
      <trkpt lat="42.66245" lon="1.50299">
        <ele>2414.9692382812</ele>
        <time>2010-07-14T11:07:11Z</time>
      </trkpt>
      <trkpt lat="42.66243" lon="1.50295">
        <ele>2415.4499511719</ele>
        <time>2010-07-14T11:07:36Z</time>
      </trkpt>
      <trkpt lat="42.66243" lon="1.50296">
        <ele>2415.4499511719</ele>
        <time>2010-07-14T11:07:37Z</time>
      </trkpt>
      <trkpt lat="42.66244" lon="1.50296">
        <ele>2414.9692382812</ele>
        <time>2010-07-14T11:07:42Z</time>
      </trkpt>
      <trkpt lat="42.66244" lon="1.50298">
        <ele>2417.8530273438</ele>
        <time>2010-07-14T11:08:06Z</time>
      </trkpt>
      <trkpt lat="42.66244" lon="1.50298">
        <ele>2417.8530273438</ele>
        <time>2010-07-14T11:08:07Z</time>
      </trkpt>
      <trkpt lat="42.66248" lon="1.50296">
        <ele>2415.9304199219</ele>
        <time>2010-07-14T11:08:12Z</time>
      </trkpt>
      <trkpt lat="42.66253" lon="1.50298">
        <ele>2413.5270996094</ele>
        <time>2010-07-14T11:08:18Z</time>
      </trkpt>
      <trkpt lat="42.66256" lon="1.50298">
        <ele>2413.5270996094</ele>
        <time>2010-07-14T11:08:23Z</time>
      </trkpt>
      <trkpt lat="42.66263" lon="1.50302">
        <ele>2413.5270996094</ele>
        <time>2010-07-14T11:08:30Z</time>
      </trkpt>
      <trkpt lat="42.66269" lon="1.50301">
        <ele>2414.4885253906</ele>
        <time>2010-07-14T11:08:36Z</time>
      </trkpt>
      <trkpt lat="42.66276" lon="1.50302">
        <ele>2414.0078125</ele>
        <time>2010-07-14T11:08:43Z</time>
      </trkpt>
      <trkpt lat="42.6628" lon="1.50302">
        <ele>2413.5270996094</ele>
        <time>2010-07-14T11:08:47Z</time>
      </trkpt>
      <trkpt lat="42.66284" lon="1.50304">
        <ele>2413.0466308594</ele>
        <time>2010-07-14T11:08:51Z</time>
      </trkpt>
      <trkpt lat="42.66288" lon="1.50309">
        <ele>2412.5659179688</ele>
        <time>2010-07-14T11:08:56Z</time>
      </trkpt>
      <trkpt lat="42.66293" lon="1.50312">
        <ele>2411.6044921875</ele>
        <time>2010-07-14T11:08:59Z</time>
      </trkpt>
      <trkpt lat="42.66296" lon="1.50315">
        <ele>2410.6430664062</ele>
        <time>2010-07-14T11:09:02Z</time>
      </trkpt>
      <trkpt lat="42.66303" lon="1.50314">
        <ele>2408.7204589844</ele>
        <time>2010-07-14T11:09:08Z</time>
      </trkpt>
      <trkpt lat="42.66306" lon="1.50314">
        <ele>2407.2785644531</ele>
        <time>2010-07-14T11:09:11Z</time>
      </trkpt>
      <trkpt lat="42.66312" lon="1.50313">
        <ele>2405.3559570312</ele>
        <time>2010-07-14T11:09:17Z</time>
      </trkpt>
      <trkpt lat="42.66317" lon="1.50314">
        <ele>2403.9140625</ele>
        <time>2010-07-14T11:09:22Z</time>
      </trkpt>
      <trkpt lat="42.6632" lon="1.50313">
        <ele>2401.9912109375</ele>
        <time>2010-07-14T11:09:27Z</time>
      </trkpt>
      <trkpt lat="42.66323" lon="1.50313">
        <ele>2400.5493164062</ele>
        <time>2010-07-14T11:09:31Z</time>
      </trkpt>
      <trkpt lat="42.66327" lon="1.50314">
        <ele>2398.6267089844</ele>
        <time>2010-07-14T11:09:37Z</time>
      </trkpt>
      <trkpt lat="42.6633" lon="1.5031">
        <ele>2394.3005371094</ele>
        <time>2010-07-14T11:09:51Z</time>
      </trkpt>
      <trkpt lat="42.66335" lon="1.50308">
        <ele>2394.3005371094</ele>
        <time>2010-07-14T11:09:57Z</time>
      </trkpt>
      <trkpt lat="42.66342" lon="1.5031">
        <ele>2395.2619628906</ele>
        <time>2010-07-14T11:10:03Z</time>
      </trkpt>
      <trkpt lat="42.66344" lon="1.50311">
        <ele>2395.7426757812</ele>
        <time>2010-07-14T11:10:05Z</time>
      </trkpt>
      <trkpt lat="42.66348" lon="1.5031">
        <ele>2395.2619628906</ele>
        <time>2010-07-14T11:10:10Z</time>
      </trkpt>
      <trkpt lat="42.66356" lon="1.50309">
        <ele>2393.3393554688</ele>
        <time>2010-07-14T11:10:18Z</time>
      </trkpt>
      <trkpt lat="42.66361" lon="1.50306">
        <ele>2392.8586425781</ele>
        <time>2010-07-14T11:10:24Z</time>
      </trkpt>
      <trkpt lat="42.66365" lon="1.50305">
        <ele>2390.9360351562</ele>
        <time>2010-07-14T11:10:29Z</time>
      </trkpt>
      <trkpt lat="42.66371" lon="1.50306">
        <ele>2390.4553222656</ele>
        <time>2010-07-14T11:10:36Z</time>
      </trkpt>
      <trkpt lat="42.66375" lon="1.50307">
        <ele>2390.9360351562</ele>
        <time>2010-07-14T11:10:41Z</time>
      </trkpt>
      <trkpt lat="42.66378" lon="1.50308">
        <ele>2390.4553222656</ele>
        <time>2010-07-14T11:10:47Z</time>
      </trkpt>
      <trkpt lat="42.66381" lon="1.5031">
        <ele>2389.9748535156</ele>
        <time>2010-07-14T11:10:50Z</time>
      </trkpt>
      <trkpt lat="42.66389" lon="1.50308">
        <ele>2390.4553222656</ele>
        <time>2010-07-14T11:10:58Z</time>
      </trkpt>
      <trkpt lat="42.66393" lon="1.50308">
        <ele>2392.3781738281</ele>
        <time>2010-07-14T11:11:05Z</time>
      </trkpt>
      <trkpt lat="42.66395" lon="1.50309">
        <ele>2392.8586425781</ele>
        <time>2010-07-14T11:11:10Z</time>
      </trkpt>
      <trkpt lat="42.66397" lon="1.50307">
        <ele>2393.3393554688</ele>
        <time>2010-07-14T11:11:15Z</time>
      </trkpt>
      <trkpt lat="42.664" lon="1.50308">
        <ele>2394.3005371094</ele>
        <time>2010-07-14T11:11:20Z</time>
      </trkpt>
      <trkpt lat="42.66401" lon="1.50309">
        <ele>2394.3005371094</ele>
        <time>2010-07-14T11:11:25Z</time>
      </trkpt>
      <trkpt lat="42.66401" lon="1.50308">
        <ele>2394.3005371094</ele>
        <time>2010-07-14T11:11:33Z</time>
      </trkpt>
      <trkpt lat="42.66404" lon="1.50308">
        <ele>2394.78125</ele>
        <time>2010-07-14T11:11:39Z</time>
      </trkpt>
      <trkpt lat="42.66407" lon="1.50309">
        <ele>2394.3005371094</ele>
        <time>2010-07-14T11:11:45Z</time>
      </trkpt>
      <trkpt lat="42.66409" lon="1.50308">
        <ele>2392.8586425781</ele>
        <time>2010-07-14T11:11:49Z</time>
      </trkpt>
      <trkpt lat="42.66414" lon="1.50308">
        <ele>2392.3781738281</ele>
        <time>2010-07-14T11:11:54Z</time>
      </trkpt>
      <trkpt lat="42.66416" lon="1.50308">
        <ele>2392.8586425781</ele>
        <time>2010-07-14T11:12:00Z</time>
      </trkpt>
      <trkpt lat="42.6642" lon="1.50308">
        <ele>2393.3393554688</ele>
        <time>2010-07-14T11:12:06Z</time>
      </trkpt>
      <trkpt lat="42.66424" lon="1.50308">
        <ele>2394.78125</ele>
        <time>2010-07-14T11:12:12Z</time>
      </trkpt>
      <trkpt lat="42.66425" lon="1.50309">
        <ele>2395.7426757812</ele>
        <time>2010-07-14T11:12:18Z</time>
      </trkpt>
      <trkpt lat="42.66428" lon="1.50309">
        <ele>2396.7041015625</ele>
        <time>2010-07-14T11:12:23Z</time>
      </trkpt>
      <trkpt lat="42.66431" lon="1.50308">
        <ele>2398.1459960938</ele>
        <time>2010-07-14T11:12:30Z</time>
      </trkpt>
      <trkpt lat="42.66434" lon="1.50309">
        <ele>2398.6267089844</ele>
        <time>2010-07-14T11:12:36Z</time>
      </trkpt>
      <trkpt lat="42.66436" lon="1.50309">
        <ele>2399.5881347656</ele>
        <time>2010-07-14T11:12:48Z</time>
      </trkpt>
      <trkpt lat="42.66441" lon="1.50309">
        <ele>2400.0688476562</ele>
        <time>2010-07-14T11:12:54Z</time>
      </trkpt>
      <trkpt lat="42.66445" lon="1.50312">
        <ele>2400.5493164062</ele>
        <time>2010-07-14T11:13:00Z</time>
      </trkpt>
      <trkpt lat="42.66446" lon="1.50312">
        <ele>2400.5493164062</ele>
        <time>2010-07-14T11:13:05Z</time>
      </trkpt>
      <trkpt lat="42.6645" lon="1.50315">
        <ele>2400.0688476562</ele>
        <time>2010-07-14T11:13:10Z</time>
      </trkpt>
      <trkpt lat="42.66453" lon="1.50316">
        <ele>2400.0688476562</ele>
        <time>2010-07-14T11:13:15Z</time>
      </trkpt>
      <trkpt lat="42.66459" lon="1.50318">
        <ele>2400.0688476562</ele>
        <time>2010-07-14T11:13:22Z</time>
      </trkpt>
      <trkpt lat="42.66462" lon="1.5032">
        <ele>2401.0300292969</ele>
        <time>2010-07-14T11:13:28Z</time>
      </trkpt>
      <trkpt lat="42.66466" lon="1.50321">
        <ele>2401.9912109375</ele>
        <time>2010-07-14T11:13:35Z</time>
      </trkpt>
      <trkpt lat="42.66473" lon="1.50321">
        <ele>2402.4719238281</ele>
        <time>2010-07-14T11:13:43Z</time>
      </trkpt>
      <trkpt lat="42.6648" lon="1.50323">
        <ele>2403.9140625</ele>
        <time>2010-07-14T11:13:53Z</time>
      </trkpt>
      <trkpt lat="42.66486" lon="1.50323">
        <ele>2406.3171386719</ele>
        <time>2010-07-14T11:13:59Z</time>
      </trkpt>
      <trkpt lat="42.66487" lon="1.50323">
        <ele>2407.7592773438</ele>
        <time>2010-07-14T11:14:08Z</time>
      </trkpt>
      <trkpt lat="42.66488" lon="1.50324">
        <ele>2407.7592773438</ele>
        <time>2010-07-14T11:14:17Z</time>
      </trkpt>
      <trkpt lat="42.66488" lon="1.50325">
        <ele>2406.7978515625</ele>
        <time>2010-07-14T11:14:25Z</time>
      </trkpt>
      <trkpt lat="42.66488" lon="1.50326">
        <ele>2406.3171386719</ele>
        <time>2010-07-14T11:14:36Z</time>
      </trkpt>
      <trkpt lat="42.66492" lon="1.50325">
        <ele>2404.39453125</ele>
        <time>2010-07-14T11:14:55Z</time>
      </trkpt>
      <trkpt lat="42.66497" lon="1.50325">
        <ele>2403.9140625</ele>
        <time>2010-07-14T11:15:01Z</time>
      </trkpt>
      <trkpt lat="42.66502" lon="1.50323">
        <ele>2403.4333496094</ele>
        <time>2010-07-14T11:15:08Z</time>
      </trkpt>
      <trkpt lat="42.66508" lon="1.5032">
        <ele>2401.5107421875</ele>
        <time>2010-07-14T11:15:15Z</time>
      </trkpt>
      <trkpt lat="42.66512" lon="1.5032">
        <ele>2399.5881347656</ele>
        <time>2010-07-14T11:15:21Z</time>
      </trkpt>
      <trkpt lat="42.66512" lon="1.5032">
        <ele>2399.5881347656</ele>
        <time>2010-07-14T11:15:29Z</time>
      </trkpt>
      <trkpt lat="42.66515" lon="1.50319">
        <ele>2399.107421875</ele>
        <time>2010-07-14T11:15:35Z</time>
      </trkpt>
      <trkpt lat="42.66517" lon="1.50319">
        <ele>2399.5881347656</ele>
        <time>2010-07-14T11:15:41Z</time>
      </trkpt>
      <trkpt lat="42.66521" lon="1.5032">
        <ele>2399.5881347656</ele>
        <time>2010-07-14T11:15:47Z</time>
      </trkpt>
      <trkpt lat="42.66524" lon="1.50319">
        <ele>2400.5493164062</ele>
        <time>2010-07-14T11:15:52Z</time>
      </trkpt>
      <trkpt lat="42.66528" lon="1.50318">
        <ele>2401.5107421875</ele>
        <time>2010-07-14T11:15:59Z</time>
      </trkpt>
      <trkpt lat="42.66532" lon="1.50317">
        <ele>2401.5107421875</ele>
        <time>2010-07-14T11:16:05Z</time>
      </trkpt>
      <trkpt lat="42.66535" lon="1.50318">
        <ele>2401.0300292969</ele>
        <time>2010-07-14T11:16:11Z</time>
      </trkpt>
      <trkpt lat="42.66541" lon="1.5032">
        <ele>2400.0688476562</ele>
        <time>2010-07-14T11:16:17Z</time>
      </trkpt>
      <trkpt lat="42.66545" lon="1.50321">
        <ele>2401.0300292969</ele>
        <time>2010-07-14T11:16:22Z</time>
      </trkpt>
      <trkpt lat="42.66547" lon="1.50321">
        <ele>2401.0300292969</ele>
        <time>2010-07-14T11:16:23Z</time>
      </trkpt>
      <trkpt lat="42.66551" lon="1.50322">
        <ele>2401.5107421875</ele>
        <time>2010-07-14T11:16:29Z</time>
      </trkpt>
      <trkpt lat="42.66555" lon="1.50322">
        <ele>2400.5493164062</ele>
        <time>2010-07-14T11:16:34Z</time>
      </trkpt>
      <trkpt lat="42.66562" lon="1.50321">
        <ele>2399.5881347656</ele>
        <time>2010-07-14T11:16:40Z</time>
      </trkpt>
      <trkpt lat="42.66564" lon="1.5032">
        <ele>2399.5881347656</ele>
        <time>2010-07-14T11:16:42Z</time>
      </trkpt>
      <trkpt lat="42.6657" lon="1.50319">
        <ele>2399.5881347656</ele>
        <time>2010-07-14T11:16:50Z</time>
      </trkpt>
      <trkpt lat="42.66576" lon="1.50319">
        <ele>2398.6267089844</ele>
        <time>2010-07-14T11:16:58Z</time>
      </trkpt>
      <trkpt lat="42.66582" lon="1.50319">
        <ele>2398.1459960938</ele>
        <time>2010-07-14T11:17:05Z</time>
      </trkpt>
      <trkpt lat="42.66587" lon="1.50319">
        <ele>2397.6655273438</ele>
        <time>2010-07-14T11:17:12Z</time>
      </trkpt>
      <trkpt lat="42.6659" lon="1.50317">
        <ele>2396.7041015625</ele>
        <time>2010-07-14T11:17:17Z</time>
      </trkpt>
      <trkpt lat="42.66594" lon="1.50314">
        <ele>2396.2236328125</ele>
        <time>2010-07-14T11:17:24Z</time>
      </trkpt>
      <trkpt lat="42.66598" lon="1.5031">
        <ele>2395.2619628906</ele>
        <time>2010-07-14T11:17:30Z</time>
      </trkpt>
      <trkpt lat="42.66601" lon="1.50306">
        <ele>2396.7041015625</ele>
        <time>2010-07-14T11:17:36Z</time>
      </trkpt>
      <trkpt lat="42.66606" lon="1.50303">
        <ele>2395.7426757812</ele>
        <time>2010-07-14T11:17:42Z</time>
      </trkpt>
      <trkpt lat="42.6661" lon="1.50301">
        <ele>2395.2619628906</ele>
        <time>2010-07-14T11:17:48Z</time>
      </trkpt>
      <trkpt lat="42.66612" lon="1.50299">
        <ele>2394.78125</ele>
        <time>2010-07-14T11:17:54Z</time>
      </trkpt>
      <trkpt lat="42.66615" lon="1.50299">
        <ele>2394.78125</ele>
        <time>2010-07-14T11:18:00Z</time>
      </trkpt>
      <trkpt lat="42.66618" lon="1.50298">
        <ele>2394.78125</ele>
        <time>2010-07-14T11:18:07Z</time>
      </trkpt>
      <trkpt lat="42.66618" lon="1.50299">
        <ele>2394.3005371094</ele>
        <time>2010-07-14T11:18:12Z</time>
      </trkpt>
      <trkpt lat="42.66619" lon="1.50297">
        <ele>2394.3005371094</ele>
        <time>2010-07-14T11:18:20Z</time>
      </trkpt>
      <trkpt lat="42.66623" lon="1.50296">
        <ele>2393.8200683594</ele>
        <time>2010-07-14T11:18:26Z</time>
      </trkpt>
      <trkpt lat="42.66626" lon="1.50295">
        <ele>2393.3393554688</ele>
        <time>2010-07-14T11:18:33Z</time>
      </trkpt>
      <trkpt lat="42.66627" lon="1.50294">
        <ele>2392.8586425781</ele>
        <time>2010-07-14T11:18:37Z</time>
      </trkpt>
      <trkpt lat="42.66629" lon="1.50289">
        <ele>2392.8586425781</ele>
        <time>2010-07-14T11:18:44Z</time>
      </trkpt>
      <trkpt lat="42.66633" lon="1.50286">
        <ele>2393.3393554688</ele>
        <time>2010-07-14T11:18:49Z</time>
      </trkpt>
      <trkpt lat="42.66637" lon="1.50284">
        <ele>2393.8200683594</ele>
        <time>2010-07-14T11:18:54Z</time>
      </trkpt>
      <trkpt lat="42.6664" lon="1.50282">
        <ele>2394.3005371094</ele>
        <time>2010-07-14T11:18:56Z</time>
      </trkpt>
      <trkpt lat="42.66648" lon="1.50289">
        <ele>2393.3393554688</ele>
        <time>2010-07-14T11:19:05Z</time>
      </trkpt>
      <trkpt lat="42.66656" lon="1.50291">
        <ele>2392.8586425781</ele>
        <time>2010-07-14T11:19:12Z</time>
      </trkpt>
      <trkpt lat="42.66665" lon="1.50293">
        <ele>2391.4167480469</ele>
        <time>2010-07-14T11:19:18Z</time>
      </trkpt>
      <trkpt lat="42.66666" lon="1.50294">
        <ele>2391.4167480469</ele>
        <time>2010-07-14T11:19:19Z</time>
      </trkpt>
      <trkpt lat="42.66671" lon="1.50305">
        <ele>2389.9748535156</ele>
        <time>2010-07-14T11:19:27Z</time>
      </trkpt>
      <trkpt lat="42.66677" lon="1.50312">
        <ele>2389.494140625</ele>
        <time>2010-07-14T11:19:33Z</time>
      </trkpt>
      <trkpt lat="42.66682" lon="1.50312">
        <ele>2389.9748535156</ele>
        <time>2010-07-14T11:19:37Z</time>
      </trkpt>
      <trkpt lat="42.66687" lon="1.50311">
        <ele>2388.5329589844</ele>
        <time>2010-07-14T11:19:44Z</time>
      </trkpt>
      <trkpt lat="42.6669" lon="1.50308">
        <ele>2387.5715332031</ele>
        <time>2010-07-14T11:19:48Z</time>
      </trkpt>
      <trkpt lat="42.66692" lon="1.50306">
        <ele>2386.6101074219</ele>
        <time>2010-07-14T11:19:52Z</time>
      </trkpt>
      <trkpt lat="42.66698" lon="1.50305">
        <ele>2384.20703125</ele>
        <time>2010-07-14T11:19:57Z</time>
      </trkpt>
      <trkpt lat="42.66702" lon="1.50305">
        <ele>2383.2456054688</ele>
        <time>2010-07-14T11:20:03Z</time>
      </trkpt>
      <trkpt lat="42.66707" lon="1.50308">
        <ele>2382.7648925781</ele>
        <time>2010-07-14T11:20:08Z</time>
      </trkpt>
      <trkpt lat="42.6671" lon="1.50311">
        <ele>2381.8037109375</ele>
        <time>2010-07-14T11:20:14Z</time>
      </trkpt>
      <trkpt lat="42.66714" lon="1.50315">
        <ele>2380.3618164062</ele>
        <time>2010-07-14T11:20:20Z</time>
      </trkpt>
      <trkpt lat="42.66715" lon="1.50315">
        <ele>2379.880859375</ele>
        <time>2010-07-14T11:20:26Z</time>
      </trkpt>
      <trkpt lat="42.66716" lon="1.50315">
        <ele>2379.880859375</ele>
        <time>2010-07-14T11:20:44Z</time>
      </trkpt>
      <trkpt lat="42.66718" lon="1.50317">
        <ele>2379.4001464844</ele>
        <time>2010-07-14T11:20:50Z</time>
      </trkpt>
      <trkpt lat="42.66722" lon="1.5032">
        <ele>2376.5163574219</ele>
        <time>2010-07-14T11:20:56Z</time>
      </trkpt>
      <trkpt lat="42.66728" lon="1.50322">
        <ele>2375.07421875</ele>
        <time>2010-07-14T11:21:00Z</time>
      </trkpt>
      <trkpt lat="42.66732" lon="1.50324">
        <ele>2374.1130371094</ele>
        <time>2010-07-14T11:21:06Z</time>
      </trkpt>
      <trkpt lat="42.66733" lon="1.50324">
        <ele>2373.6323242188</ele>
        <time>2010-07-14T11:21:07Z</time>
      </trkpt>
      <trkpt lat="42.6674" lon="1.50329">
        <ele>2371.2290039062</ele>
        <time>2010-07-14T11:21:13Z</time>
      </trkpt>
      <trkpt lat="42.66743" lon="1.50331">
        <ele>2369.787109375</ele>
        <time>2010-07-14T11:21:18Z</time>
      </trkpt>
      <trkpt lat="42.66744" lon="1.50333">
        <ele>2367.8645019531</ele>
        <time>2010-07-14T11:21:22Z</time>
      </trkpt>
      <trkpt lat="42.66745" lon="1.50338">
        <ele>2365.4614257812</ele>
        <time>2010-07-14T11:21:28Z</time>
      </trkpt>
      <trkpt lat="42.66743" lon="1.50344">
        <ele>2363.5383300781</ele>
        <time>2010-07-14T11:21:33Z</time>
      </trkpt>
      <trkpt lat="42.66743" lon="1.50348">
        <ele>2362.0964355469</ele>
        <time>2010-07-14T11:21:37Z</time>
      </trkpt>
      <trkpt lat="42.66745" lon="1.50348">
        <ele>2362.5771484375</ele>
        <time>2010-07-14T11:21:44Z</time>
      </trkpt>
      <trkpt lat="42.66747" lon="1.50347">
        <ele>2362.0964355469</ele>
        <time>2010-07-14T11:21:48Z</time>
      </trkpt>
      <trkpt lat="42.66749" lon="1.50349">
        <ele>2361.6159667969</ele>
        <time>2010-07-14T11:21:52Z</time>
      </trkpt>
      <trkpt lat="42.66751" lon="1.50349">
        <ele>2359.6931152344</ele>
        <time>2010-07-14T11:21:57Z</time>
      </trkpt>
      <trkpt lat="42.66755" lon="1.50352">
        <ele>2358.7319335938</ele>
        <time>2010-07-14T11:22:01Z</time>
      </trkpt>
      <trkpt lat="42.66756" lon="1.50355">
        <ele>2356.8093261719</ele>
        <time>2010-07-14T11:22:06Z</time>
      </trkpt>
      <trkpt lat="42.66758" lon="1.50358">
        <ele>2355.8479003906</ele>
        <time>2010-07-14T11:22:10Z</time>
      </trkpt>
      <trkpt lat="42.66763" lon="1.5036">
        <ele>2354.88671875</ele>
        <time>2010-07-14T11:22:16Z</time>
      </trkpt>
      <trkpt lat="42.66768" lon="1.50365">
        <ele>2353.9255371094</ele>
        <time>2010-07-14T11:22:21Z</time>
      </trkpt>
      <trkpt lat="42.66768" lon="1.5037">
        <ele>2352.4833984375</ele>
        <time>2010-07-14T11:22:27Z</time>
      </trkpt>
      <trkpt lat="42.66771" lon="1.5037">
        <ele>2351.0415039062</ele>
        <time>2010-07-14T11:22:32Z</time>
      </trkpt>
      <trkpt lat="42.66775" lon="1.5037">
        <ele>2350.0803222656</ele>
        <time>2010-07-14T11:22:37Z</time>
      </trkpt>
      <trkpt lat="42.66781" lon="1.50371">
        <ele>2348.1574707031</ele>
        <time>2010-07-14T11:22:43Z</time>
      </trkpt>
      <trkpt lat="42.66787" lon="1.5037">
        <ele>2347.6767578125</ele>
        <time>2010-07-14T11:22:47Z</time>
      </trkpt>
      <trkpt lat="42.66788" lon="1.5037">
        <ele>2346.2348632812</ele>
        <time>2010-07-14T11:22:49Z</time>
      </trkpt>
      <trkpt lat="42.66792" lon="1.50375">
        <ele>2344.7927246094</ele>
        <time>2010-07-14T11:22:55Z</time>
      </trkpt>
      <trkpt lat="42.66795" lon="1.50378">
        <ele>2343.3508300781</ele>
        <time>2010-07-14T11:23:01Z</time>
      </trkpt>
      <trkpt lat="42.66798" lon="1.50377">
        <ele>2342.3896484375</ele>
        <time>2010-07-14T11:23:06Z</time>
      </trkpt>
      <trkpt lat="42.66801" lon="1.50379">
        <ele>2340.9475097656</ele>
        <time>2010-07-14T11:23:11Z</time>
      </trkpt>
      <trkpt lat="42.66805" lon="1.50382">
        <ele>2339.0249023438</ele>
        <time>2010-07-14T11:23:16Z</time>
      </trkpt>
      <trkpt lat="42.66808" lon="1.50387">
        <ele>2337.1022949219</ele>
        <time>2010-07-14T11:23:22Z</time>
      </trkpt>
      <trkpt lat="42.66812" lon="1.5039">
        <ele>2335.1796875</ele>
        <time>2010-07-14T11:23:27Z</time>
      </trkpt>
      <trkpt lat="42.66814" lon="1.5039">
        <ele>2333.2570800781</ele>
        <time>2010-07-14T11:23:31Z</time>
      </trkpt>
      <trkpt lat="42.66817" lon="1.50388">
        <ele>2331.3342285156</ele>
        <time>2010-07-14T11:23:36Z</time>
      </trkpt>
      <trkpt lat="42.6682" lon="1.5039">
        <ele>2330.373046875</ele>
        <time>2010-07-14T11:23:41Z</time>
      </trkpt>
      <trkpt lat="42.66826" lon="1.50392">
        <ele>2328.9309082031</ele>
        <time>2010-07-14T11:23:48Z</time>
      </trkpt>
      <trkpt lat="42.6683" lon="1.50396">
        <ele>2327.9697265625</ele>
        <time>2010-07-14T11:23:54Z</time>
      </trkpt>
      <trkpt lat="42.66835" lon="1.50398">
        <ele>2326.5278320312</ele>
        <time>2010-07-14T11:24:00Z</time>
      </trkpt>
      <trkpt lat="42.66838" lon="1.50399">
        <ele>2325.0856933594</ele>
        <time>2010-07-14T11:24:06Z</time>
      </trkpt>
      <trkpt lat="42.66843" lon="1.50396">
        <ele>2323.6437988281</ele>
        <time>2010-07-14T11:24:11Z</time>
      </trkpt>
      <trkpt lat="42.66845" lon="1.50396">
        <ele>2323.6437988281</ele>
        <time>2010-07-14T11:24:13Z</time>
      </trkpt>
      <trkpt lat="42.66851" lon="1.504">
        <ele>2324.1245117188</ele>
        <time>2010-07-14T11:24:20Z</time>
      </trkpt>
      <trkpt lat="42.66854" lon="1.50402">
        <ele>2323.6437988281</ele>
        <time>2010-07-14T11:24:26Z</time>
      </trkpt>
      <trkpt lat="42.66859" lon="1.50405">
        <ele>2323.1633300781</ele>
        <time>2010-07-14T11:24:31Z</time>
      </trkpt>
      <trkpt lat="42.66867" lon="1.50409">
        <ele>2322.6826171875</ele>
        <time>2010-07-14T11:24:38Z</time>
      </trkpt>
      <trkpt lat="42.6687" lon="1.50412">
        <ele>2322.6826171875</ele>
        <time>2010-07-14T11:24:41Z</time>
      </trkpt>
      <trkpt lat="42.66875" lon="1.50414">
        <ele>2322.2019042969</ele>
        <time>2010-07-14T11:24:47Z</time>
      </trkpt>
      <trkpt lat="42.6688" lon="1.50418">
        <ele>2321.2404785156</ele>
        <time>2010-07-14T11:24:52Z</time>
      </trkpt>
      <trkpt lat="42.66887" lon="1.50423">
        <ele>2320.7600097656</ele>
        <time>2010-07-14T11:24:58Z</time>
      </trkpt>
      <trkpt lat="42.66894" lon="1.5043">
        <ele>2321.7211914062</ele>
        <time>2010-07-14T11:25:04Z</time>
      </trkpt>
      <trkpt lat="42.66899" lon="1.50437">
        <ele>2322.2019042969</ele>
        <time>2010-07-14T11:25:10Z</time>
      </trkpt>
      <trkpt lat="42.66903" lon="1.50442">
        <ele>2320.7600097656</ele>
        <time>2010-07-14T11:25:17Z</time>
      </trkpt>
      <trkpt lat="42.66906" lon="1.50445">
        <ele>2318.8374023438</ele>
        <time>2010-07-14T11:25:23Z</time>
      </trkpt>
      <trkpt lat="42.66908" lon="1.50451">
        <ele>2317.8759765625</ele>
        <time>2010-07-14T11:25:28Z</time>
      </trkpt>
      <trkpt lat="42.66911" lon="1.5046">
        <ele>2317.3952636719</ele>
        <time>2010-07-14T11:25:35Z</time>
      </trkpt>
      <trkpt lat="42.66916" lon="1.50469">
        <ele>2316.9147949219</ele>
        <time>2010-07-14T11:25:41Z</time>
      </trkpt>
      <trkpt lat="42.66916" lon="1.50472">
        <ele>2316.9147949219</ele>
        <time>2010-07-14T11:25:46Z</time>
      </trkpt>
      <trkpt lat="42.66916" lon="1.50473">
        <ele>2316.4340820312</ele>
        <time>2010-07-14T11:25:52Z</time>
      </trkpt>
      <trkpt lat="42.66916" lon="1.50472">
        <ele>2317.3952636719</ele>
        <time>2010-07-14T11:25:58Z</time>
      </trkpt>
      <trkpt lat="42.66912" lon="1.50471">
        <ele>2311.6274414062</ele>
        <time>2010-07-14T11:26:25Z</time>
      </trkpt>
      <trkpt lat="42.66914" lon="1.50472">
        <ele>2313.5498046875</ele>
        <time>2010-07-14T11:26:35Z</time>
      </trkpt>
      <trkpt lat="42.66916" lon="1.50473">
        <ele>2314.9919433594</ele>
        <time>2010-07-14T11:26:54Z</time>
      </trkpt>
      <trkpt lat="42.66917" lon="1.50473">
        <ele>2315.47265625</ele>
        <time>2010-07-14T11:27:13Z</time>
      </trkpt>
      <trkpt lat="42.66918" lon="1.50472">
        <ele>2315.47265625</ele>
        <time>2010-07-14T11:27:43Z</time>
      </trkpt>
      <trkpt lat="42.66917" lon="1.50471">
        <ele>2314.9919433594</ele>
        <time>2010-07-14T11:27:57Z</time>
      </trkpt>
      <trkpt lat="42.66918" lon="1.5047">
        <ele>2316.4340820312</ele>
        <time>2010-07-14T11:28:18Z</time>
      </trkpt>
      <trkpt lat="42.66918" lon="1.50471">
        <ele>2314.9919433594</ele>
        <time>2010-07-14T11:28:24Z</time>
      </trkpt>
      <trkpt lat="42.66918" lon="1.50472">
        <ele>2316.4340820312</ele>
        <time>2010-07-14T11:28:38Z</time>
      </trkpt>
      <trkpt lat="42.66918" lon="1.50472">
        <ele>2317.8759765625</ele>
        <time>2010-07-14T11:28:48Z</time>
      </trkpt>
      <trkpt lat="42.66917" lon="1.50472">
        <ele>2317.3952636719</ele>
        <time>2010-07-14T11:28:56Z</time>
      </trkpt>
      <trkpt lat="42.66916" lon="1.50472">
        <ele>2316.9147949219</ele>
        <time>2010-07-14T11:29:05Z</time>
      </trkpt>
      <trkpt lat="42.66917" lon="1.50472">
        <ele>2316.9147949219</ele>
        <time>2010-07-14T11:29:14Z</time>
      </trkpt>
      <trkpt lat="42.66916" lon="1.50472">
        <ele>2317.3952636719</ele>
        <time>2010-07-14T11:29:19Z</time>
      </trkpt>
      <trkpt lat="42.66917" lon="1.50472">
        <ele>2316.9147949219</ele>
        <time>2010-07-14T11:29:30Z</time>
      </trkpt>
      <trkpt lat="42.66919" lon="1.50476">
        <ele>2316.9147949219</ele>
        <time>2010-07-14T11:29:38Z</time>
      </trkpt>
      <trkpt lat="42.66926" lon="1.50484">
        <ele>2315.953125</ele>
        <time>2010-07-14T11:29:42Z</time>
      </trkpt>
      <trkpt lat="42.66932" lon="1.50493">
        <ele>2314.5112304688</ele>
        <time>2010-07-14T11:29:46Z</time>
      </trkpt>
      <trkpt lat="42.66938" lon="1.50504">
        <ele>2313.0693359375</ele>
        <time>2010-07-14T11:29:51Z</time>
      </trkpt>
      <trkpt lat="42.66941" lon="1.50511">
        <ele>2312.1079101562</ele>
        <time>2010-07-14T11:29:54Z</time>
      </trkpt>
      <trkpt lat="42.66944" lon="1.50515">
        <ele>2312.1079101562</ele>
        <time>2010-07-14T11:29:56Z</time>
      </trkpt>
      <trkpt lat="42.66947" lon="1.50524">
        <ele>2312.1079101562</ele>
        <time>2010-07-14T11:30:00Z</time>
      </trkpt>
      <trkpt lat="42.66954" lon="1.50537">
        <ele>2312.5886230469</ele>
        <time>2010-07-14T11:30:06Z</time>
      </trkpt>
      <trkpt lat="42.66959" lon="1.50546">
        <ele>2311.1467285156</ele>
        <time>2010-07-14T11:30:10Z</time>
      </trkpt>
      <trkpt lat="42.66961" lon="1.5056">
        <ele>2307.3015136719</ele>
        <time>2010-07-14T11:30:16Z</time>
      </trkpt>
      <trkpt lat="42.66961" lon="1.50563">
        <ele>2306.8208007812</ele>
        <time>2010-07-14T11:30:17Z</time>
      </trkpt>
      <trkpt lat="42.66962" lon="1.50574">
        <ele>2307.3015136719</ele>
        <time>2010-07-14T11:30:23Z</time>
      </trkpt>
      <trkpt lat="42.66964" lon="1.50581">
        <ele>2306.3400878906</ele>
        <time>2010-07-14T11:30:28Z</time>
      </trkpt>
      <trkpt lat="42.66965" lon="1.50585">
        <ele>2305.859375</ele>
        <time>2010-07-14T11:30:31Z</time>
      </trkpt>
      <trkpt lat="42.66966" lon="1.50587">
        <ele>2305.37890625</ele>
        <time>2010-07-14T11:30:33Z</time>
      </trkpt>
      <trkpt lat="42.66969" lon="1.50589">
        <ele>2306.3400878906</ele>
        <time>2010-07-14T11:30:35Z</time>
      </trkpt>
      <trkpt lat="42.66972" lon="1.50596">
        <ele>2307.3015136719</ele>
        <time>2010-07-14T11:30:40Z</time>
      </trkpt>
      <trkpt lat="42.66977" lon="1.50602">
        <ele>2307.7822265625</ele>
        <time>2010-07-14T11:30:45Z</time>
      </trkpt>
      <trkpt lat="42.6698" lon="1.5061">
        <ele>2307.3015136719</ele>
        <time>2010-07-14T11:30:54Z</time>
      </trkpt>
      <trkpt lat="42.66981" lon="1.50611">
        <ele>2307.3015136719</ele>
        <time>2010-07-14T11:31:01Z</time>
      </trkpt>
      <trkpt lat="42.66982" lon="1.50614">
        <ele>2306.8208007812</ele>
        <time>2010-07-14T11:31:08Z</time>
      </trkpt>
      <trkpt lat="42.66983" lon="1.50619">
        <ele>2306.3400878906</ele>
        <time>2010-07-14T11:31:12Z</time>
      </trkpt>
      <trkpt lat="42.66983" lon="1.50621">
        <ele>2305.859375</ele>
        <time>2010-07-14T11:31:18Z</time>
      </trkpt>
      <trkpt lat="42.66984" lon="1.50625">
        <ele>2305.37890625</ele>
        <time>2010-07-14T11:31:24Z</time>
      </trkpt>
      <trkpt lat="42.66986" lon="1.5063">
        <ele>2304.8981933594</ele>
        <time>2010-07-14T11:31:30Z</time>
      </trkpt>
      <trkpt lat="42.66988" lon="1.50638">
        <ele>2303.9370117188</ele>
        <time>2010-07-14T11:31:36Z</time>
      </trkpt>
      <trkpt lat="42.66991" lon="1.50645">
        <ele>2304.4174804688</ele>
        <time>2010-07-14T11:31:42Z</time>
      </trkpt>
      <trkpt lat="42.66992" lon="1.50649">
        <ele>2304.4174804688</ele>
        <time>2010-07-14T11:31:48Z</time>
      </trkpt>
      <trkpt lat="42.66991" lon="1.50656">
        <ele>2303.9370117188</ele>
        <time>2010-07-14T11:31:53Z</time>
      </trkpt>
      <trkpt lat="42.66992" lon="1.50665">
        <ele>2303.4562988281</ele>
        <time>2010-07-14T11:31:59Z</time>
      </trkpt>
      <trkpt lat="42.66997" lon="1.50672">
        <ele>2304.8981933594</ele>
        <time>2010-07-14T11:32:07Z</time>
      </trkpt>
      <trkpt lat="42.67003" lon="1.50675">
        <ele>2306.3400878906</ele>
        <time>2010-07-14T11:32:13Z</time>
      </trkpt>
      <trkpt lat="42.67006" lon="1.50684">
        <ele>2306.3400878906</ele>
        <time>2010-07-14T11:32:21Z</time>
      </trkpt>
      <trkpt lat="42.6701" lon="1.50688">
        <ele>2304.8981933594</ele>
        <time>2010-07-14T11:32:27Z</time>
      </trkpt>
      <trkpt lat="42.67015" lon="1.50691">
        <ele>2304.4174804688</ele>
        <time>2010-07-14T11:32:36Z</time>
      </trkpt>
      <trkpt lat="42.67018" lon="1.50691">
        <ele>2304.4174804688</ele>
        <time>2010-07-14T11:32:41Z</time>
      </trkpt>
      <trkpt lat="42.67026" lon="1.50692">
        <ele>2304.8981933594</ele>
        <time>2010-07-14T11:32:48Z</time>
      </trkpt>
      <trkpt lat="42.67029" lon="1.5069">
        <ele>2305.859375</ele>
        <time>2010-07-14T11:32:53Z</time>
      </trkpt>
      <trkpt lat="42.67031" lon="1.50687">
        <ele>2305.859375</ele>
        <time>2010-07-14T11:32:59Z</time>
      </trkpt>
      <trkpt lat="42.67033" lon="1.50685">
        <ele>2305.37890625</ele>
        <time>2010-07-14T11:33:04Z</time>
      </trkpt>
      <trkpt lat="42.67035" lon="1.5068">
        <ele>2303.4562988281</ele>
        <time>2010-07-14T11:33:09Z</time>
      </trkpt>
      <trkpt lat="42.67044" lon="1.50677">
        <ele>2305.37890625</ele>
        <time>2010-07-14T11:33:15Z</time>
      </trkpt>
      <trkpt lat="42.67054" lon="1.50681">
        <ele>2305.859375</ele>
        <time>2010-07-14T11:33:20Z</time>
      </trkpt>
      <trkpt lat="42.67057" lon="1.50682">
        <ele>2305.859375</ele>
        <time>2010-07-14T11:33:23Z</time>
      </trkpt>
      <trkpt lat="42.67061" lon="1.50674">
        <ele>2306.3400878906</ele>
        <time>2010-07-14T11:33:30Z</time>
      </trkpt>
      <trkpt lat="42.67059" lon="1.50668">
        <ele>2308.7434082031</ele>
        <time>2010-07-14T11:33:38Z</time>
      </trkpt>
      <trkpt lat="42.67058" lon="1.50662">
        <ele>2308.7434082031</ele>
        <time>2010-07-14T11:33:44Z</time>
      </trkpt>
      <trkpt lat="42.67059" lon="1.50654">
        <ele>2307.7822265625</ele>
        <time>2010-07-14T11:33:51Z</time>
      </trkpt>
      <trkpt lat="42.67062" lon="1.50645">
        <ele>2304.4174804688</ele>
        <time>2010-07-14T11:33:59Z</time>
      </trkpt>
      <trkpt lat="42.67064" lon="1.50641">
        <ele>2302.9755859375</ele>
        <time>2010-07-14T11:34:04Z</time>
      </trkpt>
      <trkpt lat="42.67068" lon="1.50637">
        <ele>2302.9755859375</ele>
        <time>2010-07-14T11:34:10Z</time>
      </trkpt>
      <trkpt lat="42.67073" lon="1.50633">
        <ele>2302.9755859375</ele>
        <time>2010-07-14T11:34:16Z</time>
      </trkpt>
      <trkpt lat="42.67075" lon="1.50631">
        <ele>2302.4948730469</ele>
        <time>2010-07-14T11:34:18Z</time>
      </trkpt>
      <trkpt lat="42.67081" lon="1.50628">
        <ele>2302.0141601562</ele>
        <time>2010-07-14T11:34:25Z</time>
      </trkpt>
      <trkpt lat="42.67086" lon="1.50628">
        <ele>2302.4948730469</ele>
        <time>2010-07-14T11:34:30Z</time>
      </trkpt>
      <trkpt lat="42.67093" lon="1.50624">
        <ele>2303.9370117188</ele>
        <time>2010-07-14T11:34:37Z</time>
      </trkpt>
      <trkpt lat="42.67094" lon="1.50625">
        <ele>2303.9370117188</ele>
        <time>2010-07-14T11:34:42Z</time>
      </trkpt>
      <trkpt lat="42.67097" lon="1.50627">
        <ele>2304.8981933594</ele>
        <time>2010-07-14T11:34:53Z</time>
      </trkpt>
      <trkpt lat="42.67104" lon="1.50624">
        <ele>2304.8981933594</ele>
        <time>2010-07-14T11:35:00Z</time>
      </trkpt>
      <trkpt lat="42.67105" lon="1.50623">
        <ele>2304.4174804688</ele>
        <time>2010-07-14T11:35:02Z</time>
      </trkpt>
      <trkpt lat="42.6711" lon="1.5062">
        <ele>2303.4562988281</ele>
        <time>2010-07-14T11:35:06Z</time>
      </trkpt>
      <trkpt lat="42.67116" lon="1.50614">
        <ele>2303.9370117188</ele>
        <time>2010-07-14T11:35:13Z</time>
      </trkpt>
      <trkpt lat="42.67122" lon="1.50614">
        <ele>2303.9370117188</ele>
        <time>2010-07-14T11:35:19Z</time>
      </trkpt>
      <trkpt lat="42.67128" lon="1.50618">
        <ele>2304.4174804688</ele>
        <time>2010-07-14T11:35:27Z</time>
      </trkpt>
      <trkpt lat="42.67134" lon="1.50619">
        <ele>2304.4174804688</ele>
        <time>2010-07-14T11:35:33Z</time>
      </trkpt>
      <trkpt lat="42.67142" lon="1.50624">
        <ele>2303.9370117188</ele>
        <time>2010-07-14T11:35:40Z</time>
      </trkpt>
      <trkpt lat="42.67149" lon="1.50631">
        <ele>2303.4562988281</ele>
        <time>2010-07-14T11:35:47Z</time>
      </trkpt>
      <trkpt lat="42.67155" lon="1.50634">
        <ele>2302.9755859375</ele>
        <time>2010-07-14T11:35:54Z</time>
      </trkpt>
      <trkpt lat="42.67165" lon="1.50639">
        <ele>2303.9370117188</ele>
        <time>2010-07-14T11:36:03Z</time>
      </trkpt>
      <trkpt lat="42.67172" lon="1.50643">
        <ele>2304.4174804688</ele>
        <time>2010-07-14T11:36:11Z</time>
      </trkpt>
      <trkpt lat="42.67176" lon="1.50648">
        <ele>2305.37890625</ele>
        <time>2010-07-14T11:36:17Z</time>
      </trkpt>
      <trkpt lat="42.67179" lon="1.50651">
        <ele>2304.4174804688</ele>
        <time>2010-07-14T11:36:20Z</time>
      </trkpt>
      <trkpt lat="42.67188" lon="1.50655">
        <ele>2304.4174804688</ele>
        <time>2010-07-14T11:36:25Z</time>
      </trkpt>
      <trkpt lat="42.67189" lon="1.50655">
        <ele>2304.8981933594</ele>
        <time>2010-07-14T11:36:26Z</time>
      </trkpt>
      <trkpt lat="42.67191" lon="1.50656">
        <ele>2305.37890625</ele>
        <time>2010-07-14T11:36:28Z</time>
      </trkpt>
      <trkpt lat="42.67192" lon="1.50657">
        <ele>2305.859375</ele>
        <time>2010-07-14T11:36:31Z</time>
      </trkpt>
      <trkpt lat="42.67198" lon="1.50655">
        <ele>2307.7822265625</ele>
        <time>2010-07-14T11:36:39Z</time>
      </trkpt>
      <trkpt lat="42.67203" lon="1.50652">
        <ele>2308.2626953125</ele>
        <time>2010-07-14T11:36:45Z</time>
      </trkpt>
      <trkpt lat="42.67205" lon="1.50651">
        <ele>2308.7434082031</ele>
        <time>2010-07-14T11:36:50Z</time>
      </trkpt>
      <trkpt lat="42.67208" lon="1.50651">
        <ele>2308.2626953125</ele>
        <time>2010-07-14T11:36:55Z</time>
      </trkpt>
      <trkpt lat="42.6721" lon="1.5065">
        <ele>2306.8208007812</ele>
        <time>2010-07-14T11:37:01Z</time>
      </trkpt>
      <trkpt lat="42.67212" lon="1.50651">
        <ele>2305.859375</ele>
        <time>2010-07-14T11:37:06Z</time>
      </trkpt>
      <trkpt lat="42.67214" lon="1.50651">
        <ele>2304.4174804688</ele>
        <time>2010-07-14T11:37:11Z</time>
      </trkpt>
      <trkpt lat="42.67218" lon="1.50649">
        <ele>2302.4948730469</ele>
        <time>2010-07-14T11:37:16Z</time>
      </trkpt>
      <trkpt lat="42.67223" lon="1.5065">
        <ele>2302.0141601562</ele>
        <time>2010-07-14T11:37:21Z</time>
      </trkpt>
      <trkpt lat="42.67225" lon="1.50651">
        <ele>2301.5336914062</ele>
        <time>2010-07-14T11:37:23Z</time>
      </trkpt>
      <trkpt lat="42.67232" lon="1.50656">
        <ele>2300.091796875</ele>
        <time>2010-07-14T11:37:27Z</time>
      </trkpt>
      <trkpt lat="42.67236" lon="1.50657">
        <ele>2299.6108398438</ele>
        <time>2010-07-14T11:37:29Z</time>
      </trkpt>
      <trkpt lat="42.6724" lon="1.50663">
        <ele>2298.6494140625</ele>
        <time>2010-07-14T11:37:33Z</time>
      </trkpt>
      <trkpt lat="42.67247" lon="1.50664">
        <ele>2298.1687011719</ele>
        <time>2010-07-14T11:37:40Z</time>
      </trkpt>
      <trkpt lat="42.67252" lon="1.50664">
        <ele>2298.1687011719</ele>
        <time>2010-07-14T11:37:45Z</time>
      </trkpt>
      <trkpt lat="42.67257" lon="1.50664">
        <ele>2297.6882324219</ele>
        <time>2010-07-14T11:37:49Z</time>
      </trkpt>
      <trkpt lat="42.67262" lon="1.50663">
        <ele>2297.2075195312</ele>
        <time>2010-07-14T11:37:52Z</time>
      </trkpt>
      <trkpt lat="42.67266" lon="1.50659">
        <ele>2296.7268066406</ele>
        <time>2010-07-14T11:37:57Z</time>
      </trkpt>
      <trkpt lat="42.6727" lon="1.50655">
        <ele>2297.2075195312</ele>
        <time>2010-07-14T11:38:01Z</time>
      </trkpt>
      <trkpt lat="42.67275" lon="1.50655">
        <ele>2297.2075195312</ele>
        <time>2010-07-14T11:38:08Z</time>
      </trkpt>
      <trkpt lat="42.67276" lon="1.50656">
        <ele>2297.2075195312</ele>
        <time>2010-07-14T11:38:11Z</time>
      </trkpt>
      <trkpt lat="42.67278" lon="1.50658">
        <ele>2295.2849121094</ele>
        <time>2010-07-14T11:38:17Z</time>
      </trkpt>
      <trkpt lat="42.6728" lon="1.50656">
        <ele>2294.8041992188</ele>
        <time>2010-07-14T11:38:23Z</time>
      </trkpt>
      <trkpt lat="42.67285" lon="1.50654">
        <ele>2293.3623046875</ele>
        <time>2010-07-14T11:38:28Z</time>
      </trkpt>
      <trkpt lat="42.67289" lon="1.50653">
        <ele>2291.9204101562</ele>
        <time>2010-07-14T11:38:34Z</time>
      </trkpt>
      <trkpt lat="42.67292" lon="1.50651">
        <ele>2289.9978027344</ele>
        <time>2010-07-14T11:38:38Z</time>
      </trkpt>
      <trkpt lat="42.67297" lon="1.50648">
        <ele>2289.0363769531</ele>
        <time>2010-07-14T11:38:44Z</time>
      </trkpt>
      <trkpt lat="42.67301" lon="1.50645">
        <ele>2288.0751953125</ele>
        <time>2010-07-14T11:38:48Z</time>
      </trkpt>
      <trkpt lat="42.67307" lon="1.50642">
        <ele>2286.1525878906</ele>
        <time>2010-07-14T11:38:53Z</time>
      </trkpt>
      <trkpt lat="42.67309" lon="1.5064">
        <ele>2285.1911621094</ele>
        <time>2010-07-14T11:38:55Z</time>
      </trkpt>
      <trkpt lat="42.67315" lon="1.50635">
        <ele>2284.2299804688</ele>
        <time>2010-07-14T11:39:00Z</time>
      </trkpt>
      <trkpt lat="42.67321" lon="1.50632">
        <ele>2285.1911621094</ele>
        <time>2010-07-14T11:39:06Z</time>
      </trkpt>
      <trkpt lat="42.67325" lon="1.50629">
        <ele>2284.7106933594</ele>
        <time>2010-07-14T11:39:11Z</time>
      </trkpt>
      <trkpt lat="42.67331" lon="1.50625">
        <ele>2284.2299804688</ele>
        <time>2010-07-14T11:39:17Z</time>
      </trkpt>
      <trkpt lat="42.67334" lon="1.50621">
        <ele>2283.7490234375</ele>
        <time>2010-07-14T11:39:23Z</time>
      </trkpt>
      <trkpt lat="42.67338" lon="1.50616">
        <ele>2283.2683105469</ele>
        <time>2010-07-14T11:39:29Z</time>
      </trkpt>
      <trkpt lat="42.67342" lon="1.50611">
        <ele>2284.2299804688</ele>
        <time>2010-07-14T11:39:33Z</time>
      </trkpt>
      <trkpt lat="42.67348" lon="1.50607">
        <ele>2284.7106933594</ele>
        <time>2010-07-14T11:39:38Z</time>
      </trkpt>
      <trkpt lat="42.67356" lon="1.50601">
        <ele>2285.1911621094</ele>
        <time>2010-07-14T11:39:45Z</time>
      </trkpt>
      <trkpt lat="42.67357" lon="1.506">
        <ele>2285.1911621094</ele>
        <time>2010-07-14T11:39:46Z</time>
      </trkpt>
      <trkpt lat="42.6736" lon="1.50597">
        <ele>2285.1911621094</ele>
        <time>2010-07-14T11:39:50Z</time>
      </trkpt>
      <trkpt lat="42.67363" lon="1.50595">
        <ele>2284.2299804688</ele>
        <time>2010-07-14T11:39:58Z</time>
      </trkpt>
      <trkpt lat="42.67367" lon="1.50594">
        <ele>2283.2683105469</ele>
        <time>2010-07-14T11:40:03Z</time>
      </trkpt>
      <trkpt lat="42.67369" lon="1.5059">
        <ele>2282.3071289062</ele>
        <time>2010-07-14T11:40:06Z</time>
      </trkpt>
      <trkpt lat="42.67376" lon="1.50587">
        <ele>2281.8264160156</ele>
        <time>2010-07-14T11:40:11Z</time>
      </trkpt>
      <trkpt lat="42.67381" lon="1.50583">
        <ele>2279.4230957031</ele>
        <time>2010-07-14T11:40:17Z</time>
      </trkpt>
      <trkpt lat="42.67384" lon="1.50576">
        <ele>2276.05859375</ele>
        <time>2010-07-14T11:40:22Z</time>
      </trkpt>
      <trkpt lat="42.67387" lon="1.50572">
        <ele>2274.6166992188</ele>
        <time>2010-07-14T11:40:25Z</time>
      </trkpt>
      <trkpt lat="42.67388" lon="1.50569">
        <ele>2273.1748046875</ele>
        <time>2010-07-14T11:40:27Z</time>
      </trkpt>
      <trkpt lat="42.67391" lon="1.50565">
        <ele>2273.1748046875</ele>
        <time>2010-07-14T11:40:33Z</time>
      </trkpt>
      <trkpt lat="42.67393" lon="1.50563">
        <ele>2273.1748046875</ele>
        <time>2010-07-14T11:40:38Z</time>
      </trkpt>
      <trkpt lat="42.67398" lon="1.5056">
        <ele>2271.7326660156</ele>
        <time>2010-07-14T11:40:43Z</time>
      </trkpt>
      <trkpt lat="42.67402" lon="1.50559">
        <ele>2269.8100585938</ele>
        <time>2010-07-14T11:40:48Z</time>
      </trkpt>
      <trkpt lat="42.67408" lon="1.50556">
        <ele>2268.8488769531</ele>
        <time>2010-07-14T11:40:54Z</time>
      </trkpt>
      <trkpt lat="42.6741" lon="1.50554">
        <ele>2268.3681640625</ele>
        <time>2010-07-14T11:40:59Z</time>
      </trkpt>
      <trkpt lat="42.67412" lon="1.50551">
        <ele>2267.4064941406</ele>
        <time>2010-07-14T11:41:04Z</time>
      </trkpt>
      <trkpt lat="42.67413" lon="1.50549">
        <ele>2267.4064941406</ele>
        <time>2010-07-14T11:41:07Z</time>
      </trkpt>
      <trkpt lat="42.67414" lon="1.50546">
        <ele>2266.9260253906</ele>
        <time>2010-07-14T11:41:11Z</time>
      </trkpt>
      <trkpt lat="42.67415" lon="1.50545">
        <ele>2266.4453125</ele>
        <time>2010-07-14T11:41:18Z</time>
      </trkpt>
      <trkpt lat="42.67417" lon="1.50539">
        <ele>2265.4841308594</ele>
        <time>2010-07-14T11:41:24Z</time>
      </trkpt>
      <trkpt lat="42.67418" lon="1.50536">
        <ele>2264.5227050781</ele>
        <time>2010-07-14T11:41:28Z</time>
      </trkpt>
      <trkpt lat="42.67419" lon="1.50532">
        <ele>2263.0808105469</ele>
        <time>2010-07-14T11:41:33Z</time>
      </trkpt>
      <trkpt lat="42.6742" lon="1.50524">
        <ele>2262.6000976562</ele>
        <time>2010-07-14T11:41:39Z</time>
      </trkpt>
      <trkpt lat="42.67423" lon="1.50521">
        <ele>2262.6000976562</ele>
        <time>2010-07-14T11:41:42Z</time>
      </trkpt>
      <trkpt lat="42.67426" lon="1.50513">
        <ele>2260.6774902344</ele>
        <time>2010-07-14T11:41:49Z</time>
      </trkpt>
      <trkpt lat="42.67429" lon="1.50507">
        <ele>2257.7937011719</ele>
        <time>2010-07-14T11:41:56Z</time>
      </trkpt>
      <trkpt lat="42.67429" lon="1.50504">
        <ele>2256.8322753906</ele>
        <time>2010-07-14T11:42:00Z</time>
      </trkpt>
      <trkpt lat="42.67433" lon="1.505">
        <ele>2254.4289550781</ele>
        <time>2010-07-14T11:42:05Z</time>
      </trkpt>
      <trkpt lat="42.67435" lon="1.50494">
        <ele>2252.5063476562</ele>
        <time>2010-07-14T11:42:10Z</time>
      </trkpt>
      <trkpt lat="42.67436" lon="1.50493">
        <ele>2252.5063476562</ele>
        <time>2010-07-14T11:42:11Z</time>
      </trkpt>
      <trkpt lat="42.67436" lon="1.50483">
        <ele>2250.1030273438</ele>
        <time>2010-07-14T11:42:17Z</time>
      </trkpt>
      <trkpt lat="42.67437" lon="1.50478">
        <ele>2250.5834960938</ele>
        <time>2010-07-14T11:42:22Z</time>
      </trkpt>
      <trkpt lat="42.67437" lon="1.50475">
        <ele>2250.5834960938</ele>
        <time>2010-07-14T11:42:26Z</time>
      </trkpt>
      <trkpt lat="42.67437" lon="1.5047">
        <ele>2250.1030273438</ele>
        <time>2010-07-14T11:42:31Z</time>
      </trkpt>
      <trkpt lat="42.6744" lon="1.50466">
        <ele>2249.1416015625</ele>
        <time>2010-07-14T11:42:37Z</time>
      </trkpt>
      <trkpt lat="42.67443" lon="1.50462">
        <ele>2248.6608886719</ele>
        <time>2010-07-14T11:42:42Z</time>
      </trkpt>
      <trkpt lat="42.67445" lon="1.5046">
        <ele>2248.6608886719</ele>
        <time>2010-07-14T11:42:47Z</time>
      </trkpt>
      <trkpt lat="42.67446" lon="1.50457">
        <ele>2248.1801757812</ele>
        <time>2010-07-14T11:42:53Z</time>
      </trkpt>
      <trkpt lat="42.6745" lon="1.50451">
        <ele>2247.6997070312</ele>
        <time>2010-07-14T11:42:58Z</time>
      </trkpt>
      <trkpt lat="42.67451" lon="1.50448">
        <ele>2247.6997070312</ele>
        <time>2010-07-14T11:43:00Z</time>
      </trkpt>
      <trkpt lat="42.67452" lon="1.50444">
        <ele>2247.6997070312</ele>
        <time>2010-07-14T11:43:04Z</time>
      </trkpt>
      <trkpt lat="42.67453" lon="1.50442">
        <ele>2247.2189941406</ele>
        <time>2010-07-14T11:43:06Z</time>
      </trkpt>
      <trkpt lat="42.67458" lon="1.50434">
        <ele>2247.2189941406</ele>
        <time>2010-07-14T11:43:14Z</time>
      </trkpt>
      <trkpt lat="42.6746" lon="1.50432">
        <ele>2245.7770996094</ele>
        <time>2010-07-14T11:43:20Z</time>
      </trkpt>
      <trkpt lat="42.67461" lon="1.50429">
        <ele>2245.7770996094</ele>
        <time>2010-07-14T11:43:24Z</time>
      </trkpt>
      <trkpt lat="42.67464" lon="1.5043">
        <ele>2244.8156738281</ele>
        <time>2010-07-14T11:43:29Z</time>
      </trkpt>
      <trkpt lat="42.67466" lon="1.50426">
        <ele>2241.9318847656</ele>
        <time>2010-07-14T11:43:36Z</time>
      </trkpt>
      <trkpt lat="42.6747" lon="1.50424">
        <ele>2240.9704589844</ele>
        <time>2010-07-14T11:43:41Z</time>
      </trkpt>
      <trkpt lat="42.67473" lon="1.5042">
        <ele>2238.0866699219</ele>
        <time>2010-07-14T11:43:45Z</time>
      </trkpt>
      <trkpt lat="42.67477" lon="1.50414">
        <ele>2236.1640625</ele>
        <time>2010-07-14T11:43:52Z</time>
      </trkpt>
      <trkpt lat="42.6748" lon="1.50411">
        <ele>2234.7219238281</ele>
        <time>2010-07-14T11:43:57Z</time>
      </trkpt>
      <trkpt lat="42.67482" lon="1.50406">
        <ele>2234.7219238281</ele>
        <time>2010-07-14T11:44:02Z</time>
      </trkpt>
      <trkpt lat="42.67486" lon="1.50405">
        <ele>2233.2797851562</ele>
        <time>2010-07-14T11:44:07Z</time>
      </trkpt>
      <trkpt lat="42.67489" lon="1.50403">
        <ele>2231.3571777344</ele>
        <time>2010-07-14T11:44:13Z</time>
      </trkpt>
      <trkpt lat="42.67492" lon="1.50398">
        <ele>2230.3959960938</ele>
        <time>2010-07-14T11:44:18Z</time>
      </trkpt>
      <trkpt lat="42.67495" lon="1.50394">
        <ele>2228.4733886719</ele>
        <time>2010-07-14T11:44:24Z</time>
      </trkpt>
      <trkpt lat="42.67499" lon="1.50391">
        <ele>2227.0314941406</ele>
        <time>2010-07-14T11:44:30Z</time>
      </trkpt>
      <trkpt lat="42.67503" lon="1.50387">
        <ele>2225.5893554688</ele>
        <time>2010-07-14T11:44:36Z</time>
      </trkpt>
      <trkpt lat="42.67506" lon="1.50382">
        <ele>2225.1086425781</ele>
        <time>2010-07-14T11:44:42Z</time>
      </trkpt>
      <trkpt lat="42.67508" lon="1.50376">
        <ele>2223.6667480469</ele>
        <time>2010-07-14T11:44:49Z</time>
      </trkpt>
      <trkpt lat="42.67511" lon="1.5037">
        <ele>2222.7055664062</ele>
        <time>2010-07-14T11:44:56Z</time>
      </trkpt>
      <trkpt lat="42.67515" lon="1.50366">
        <ele>2221.744140625</ele>
        <time>2010-07-14T11:45:02Z</time>
      </trkpt>
      <trkpt lat="42.67518" lon="1.50367">
        <ele>2219.8212890625</ele>
        <time>2010-07-14T11:45:06Z</time>
      </trkpt>
      <trkpt lat="42.67521" lon="1.50367">
        <ele>2218.3793945312</ele>
        <time>2010-07-14T11:45:11Z</time>
      </trkpt>
      <trkpt lat="42.67525" lon="1.50364">
        <ele>2216.4567871094</ele>
        <time>2010-07-14T11:45:16Z</time>
      </trkpt>
      <trkpt lat="42.67529" lon="1.50362">
        <ele>2215.4956054688</ele>
        <time>2010-07-14T11:45:21Z</time>
      </trkpt>
      <trkpt lat="42.67532" lon="1.5036">
        <ele>2214.5341796875</ele>
        <time>2010-07-14T11:45:25Z</time>
      </trkpt>
      <trkpt lat="42.67537" lon="1.50355">
        <ele>2213.5727539062</ele>
        <time>2010-07-14T11:45:30Z</time>
      </trkpt>
      <trkpt lat="42.67542" lon="1.50352">
        <ele>2210.6889648438</ele>
        <time>2010-07-14T11:45:36Z</time>
      </trkpt>
      <trkpt lat="42.67544" lon="1.50353">
        <ele>2208.2856445312</ele>
        <time>2010-07-14T11:45:40Z</time>
      </trkpt>
      <trkpt lat="42.67547" lon="1.50355">
        <ele>2207.3244628906</ele>
        <time>2010-07-14T11:45:43Z</time>
      </trkpt>
      <trkpt lat="42.67551" lon="1.50355">
        <ele>2205.8823242188</ele>
        <time>2010-07-14T11:45:47Z</time>
      </trkpt>
      <trkpt lat="42.67555" lon="1.50354">
        <ele>2202.0368652344</ele>
        <time>2010-07-14T11:45:53Z</time>
      </trkpt>
      <trkpt lat="42.67558" lon="1.50353">
        <ele>2201.0756835938</ele>
        <time>2010-07-14T11:45:57Z</time>
      </trkpt>
      <trkpt lat="42.67561" lon="1.50355">
        <ele>2201.5563964844</ele>
        <time>2010-07-14T11:46:01Z</time>
      </trkpt>
      <trkpt lat="42.67562" lon="1.50358">
        <ele>2200.5949707031</ele>
        <time>2010-07-14T11:46:06Z</time>
      </trkpt>
      <trkpt lat="42.67564" lon="1.50361">
        <ele>2199.6337890625</ele>
        <time>2010-07-14T11:46:12Z</time>
      </trkpt>
      <trkpt lat="42.67567" lon="1.50362">
        <ele>2196.7497558594</ele>
        <time>2010-07-14T11:46:17Z</time>
      </trkpt>
      <trkpt lat="42.6757" lon="1.50366">
        <ele>2196.2692871094</ele>
        <time>2010-07-14T11:46:22Z</time>
      </trkpt>
      <trkpt lat="42.67571" lon="1.50368">
        <ele>2195.3078613281</ele>
        <time>2010-07-14T11:46:26Z</time>
      </trkpt>
      <trkpt lat="42.67574" lon="1.5037">
        <ele>2194.8271484375</ele>
        <time>2010-07-14T11:46:31Z</time>
      </trkpt>
      <trkpt lat="42.67578" lon="1.50368">
        <ele>2192.4240722656</ele>
        <time>2010-07-14T11:46:38Z</time>
      </trkpt>
      <trkpt lat="42.67581" lon="1.5037">
        <ele>2190.9819335938</ele>
        <time>2010-07-14T11:46:44Z</time>
      </trkpt>
      <trkpt lat="42.67583" lon="1.50372">
        <ele>2190.5012207031</ele>
        <time>2010-07-14T11:46:48Z</time>
      </trkpt>
      <trkpt lat="42.67587" lon="1.50374">
        <ele>2190.5012207031</ele>
        <time>2010-07-14T11:46:55Z</time>
      </trkpt>
      <trkpt lat="42.6759" lon="1.50374">
        <ele>2190.5012207031</ele>
        <time>2010-07-14T11:46:57Z</time>
      </trkpt>
      <trkpt lat="42.67593" lon="1.50377">
        <ele>2190.0207519531</ele>
        <time>2010-07-14T11:47:00Z</time>
      </trkpt>
      <trkpt lat="42.67596" lon="1.5038">
        <ele>2190.5012207031</ele>
        <time>2010-07-14T11:47:06Z</time>
      </trkpt>
      <trkpt lat="42.67599" lon="1.50383">
        <ele>2190.0207519531</ele>
        <time>2010-07-14T11:47:11Z</time>
      </trkpt>
      <trkpt lat="42.67601" lon="1.50385">
        <ele>2189.0593261719</ele>
        <time>2010-07-14T11:47:13Z</time>
      </trkpt>
      <trkpt lat="42.67605" lon="1.50387">
        <ele>2189.0593261719</ele>
        <time>2010-07-14T11:47:19Z</time>
      </trkpt>
      <trkpt lat="42.67609" lon="1.50391">
        <ele>2187.1364746094</ele>
        <time>2010-07-14T11:47:24Z</time>
      </trkpt>
      <trkpt lat="42.67614" lon="1.50392">
        <ele>2187.6171875</ele>
        <time>2010-07-14T11:47:27Z</time>
      </trkpt>
      <trkpt lat="42.67617" lon="1.5039">
        <ele>2187.6171875</ele>
        <time>2010-07-14T11:47:31Z</time>
      </trkpt>
      <trkpt lat="42.6762" lon="1.50391">
        <ele>2186.1752929688</ele>
        <time>2010-07-14T11:47:39Z</time>
      </trkpt>
      <trkpt lat="42.67626" lon="1.50396">
        <ele>2184.2526855469</ele>
        <time>2010-07-14T11:47:45Z</time>
      </trkpt>
      <trkpt lat="42.67628" lon="1.50397">
        <ele>2182.810546875</ele>
        <time>2010-07-14T11:47:50Z</time>
      </trkpt>
      <trkpt lat="42.67633" lon="1.50397">
        <ele>2182.810546875</ele>
        <time>2010-07-14T11:47:57Z</time>
      </trkpt>
      <trkpt lat="42.67634" lon="1.50398">
        <ele>2180.8881835938</ele>
        <time>2010-07-14T11:48:03Z</time>
      </trkpt>
      <trkpt lat="42.67636" lon="1.504">
        <ele>2179.9267578125</ele>
        <time>2010-07-14T11:48:10Z</time>
      </trkpt>
      <trkpt lat="42.67639" lon="1.50402">
        <ele>2178.9653320312</ele>
        <time>2010-07-14T11:48:16Z</time>
      </trkpt>
      <trkpt lat="42.67645" lon="1.50404">
        <ele>2177.5234375</ele>
        <time>2010-07-14T11:48:22Z</time>
      </trkpt>
      <trkpt lat="42.67647" lon="1.50403">
        <ele>2175.6008300781</ele>
        <time>2010-07-14T11:48:26Z</time>
      </trkpt>
      <trkpt lat="42.67655" lon="1.50404">
        <ele>2173.6782226562</ele>
        <time>2010-07-14T11:48:32Z</time>
      </trkpt>
      <trkpt lat="42.67657" lon="1.50404">
        <ele>2172.7170410156</ele>
        <time>2010-07-14T11:48:34Z</time>
      </trkpt>
      <trkpt lat="42.67661" lon="1.50405">
        <ele>2172.236328125</ele>
        <time>2010-07-14T11:48:37Z</time>
      </trkpt>
      <trkpt lat="42.67667" lon="1.50402">
        <ele>2170.3134765625</ele>
        <time>2010-07-14T11:48:44Z</time>
      </trkpt>
      <trkpt lat="42.67671" lon="1.50401">
        <ele>2169.3522949219</ele>
        <time>2010-07-14T11:48:48Z</time>
      </trkpt>
      <trkpt lat="42.67673" lon="1.50398">
        <ele>2166.9489746094</ele>
        <time>2010-07-14T11:48:52Z</time>
      </trkpt>
      <trkpt lat="42.67674" lon="1.50399">
        <ele>2165.0263671875</ele>
        <time>2010-07-14T11:48:55Z</time>
      </trkpt>
      <trkpt lat="42.6768" lon="1.50399">
        <ele>2162.623046875</ele>
        <time>2010-07-14T11:49:00Z</time>
      </trkpt>
      <trkpt lat="42.67683" lon="1.50396">
        <ele>2161.6618652344</ele>
        <time>2010-07-14T11:49:06Z</time>
      </trkpt>
      <trkpt lat="42.67689" lon="1.50396">
        <ele>2158.7778320312</ele>
        <time>2010-07-14T11:49:12Z</time>
      </trkpt>
      <trkpt lat="42.67694" lon="1.50392">
        <ele>2157.8166503906</ele>
        <time>2010-07-14T11:49:18Z</time>
      </trkpt>
      <trkpt lat="42.67699" lon="1.50393">
        <ele>2157.8166503906</ele>
        <time>2010-07-14T11:49:25Z</time>
      </trkpt>
      <trkpt lat="42.67702" lon="1.50395">
        <ele>2156.8552246094</ele>
        <time>2010-07-14T11:49:29Z</time>
      </trkpt>
      <trkpt lat="42.67705" lon="1.50399">
        <ele>2155.4130859375</ele>
        <time>2010-07-14T11:49:35Z</time>
      </trkpt>
      <trkpt lat="42.6771" lon="1.50401">
        <ele>2154.4516601562</ele>
        <time>2010-07-14T11:49:41Z</time>
      </trkpt>
      <trkpt lat="42.67714" lon="1.50401">
        <ele>2153.9711914062</ele>
        <time>2010-07-14T11:49:45Z</time>
      </trkpt>
      <trkpt lat="42.67716" lon="1.50401">
        <ele>2153.4904785156</ele>
        <time>2010-07-14T11:49:47Z</time>
      </trkpt>
      <trkpt lat="42.67721" lon="1.50401">
        <ele>2156.8552246094</ele>
        <time>2010-07-14T11:49:54Z</time>
      </trkpt>
      <trkpt lat="42.67723" lon="1.50404">
        <ele>2154.9323730469</ele>
        <time>2010-07-14T11:50:00Z</time>
      </trkpt>
      <trkpt lat="42.67725" lon="1.50406">
        <ele>2153.4904785156</ele>
        <time>2010-07-14T11:50:05Z</time>
      </trkpt>
      <trkpt lat="42.67728" lon="1.50408">
        <ele>2151.0871582031</ele>
        <time>2010-07-14T11:50:09Z</time>
      </trkpt>
      <trkpt lat="42.67734" lon="1.5041">
        <ele>2148.6838378906</ele>
        <time>2010-07-14T11:50:15Z</time>
      </trkpt>
      <trkpt lat="42.67743" lon="1.50413">
        <ele>2147.72265625</ele>
        <time>2010-07-14T11:50:22Z</time>
      </trkpt>
      <trkpt lat="42.67745" lon="1.50416">
        <ele>2146.2807617188</ele>
        <time>2010-07-14T11:50:25Z</time>
      </trkpt>
      <trkpt lat="42.67749" lon="1.50418">
        <ele>2145.3193359375</ele>
        <time>2010-07-14T11:50:29Z</time>
      </trkpt>
      <trkpt lat="42.67754" lon="1.50421">
        <ele>2144.8386230469</ele>
        <time>2010-07-14T11:50:36Z</time>
      </trkpt>
      <trkpt lat="42.67759" lon="1.50424">
        <ele>2142.916015625</ele>
        <time>2010-07-14T11:50:42Z</time>
      </trkpt>
      <trkpt lat="42.67763" lon="1.50428">
        <ele>2142.916015625</ele>
        <time>2010-07-14T11:50:47Z</time>
      </trkpt>
      <trkpt lat="42.6777" lon="1.50429">
        <ele>2143.3967285156</ele>
        <time>2010-07-14T11:50:55Z</time>
      </trkpt>
      <trkpt lat="42.67775" lon="1.50433">
        <ele>2143.3967285156</ele>
        <time>2010-07-14T11:51:01Z</time>
      </trkpt>
      <trkpt lat="42.67779" lon="1.50437">
        <ele>2142.435546875</ele>
        <time>2010-07-14T11:51:06Z</time>
      </trkpt>
      <trkpt lat="42.6778" lon="1.50438">
        <ele>2141.9548339844</ele>
        <time>2010-07-14T11:51:07Z</time>
      </trkpt>
      <trkpt lat="42.67786" lon="1.50442">
        <ele>2138.109375</ele>
        <time>2010-07-14T11:51:14Z</time>
      </trkpt>
      <trkpt lat="42.67793" lon="1.50445">
        <ele>2133.7834472656</ele>
        <time>2010-07-14T11:51:22Z</time>
      </trkpt>
      <trkpt lat="42.67798" lon="1.50449">
        <ele>2132.3415527344</ele>
        <time>2010-07-14T11:51:28Z</time>
      </trkpt>
      <trkpt lat="42.67805" lon="1.50451">
        <ele>2130.4189453125</ele>
        <time>2010-07-14T11:51:35Z</time>
      </trkpt>
      <trkpt lat="42.67806" lon="1.50452">
        <ele>2130.4189453125</ele>
        <time>2010-07-14T11:51:36Z</time>
      </trkpt>
      <trkpt lat="42.67809" lon="1.50456">
        <ele>2128.4963378906</ele>
        <time>2010-07-14T11:51:42Z</time>
      </trkpt>
      <trkpt lat="42.67813" lon="1.50459">
        <ele>2125.1315917969</ele>
        <time>2010-07-14T11:51:48Z</time>
      </trkpt>
      <trkpt lat="42.67819" lon="1.50464">
        <ele>2123.689453125</ele>
        <time>2010-07-14T11:51:54Z</time>
      </trkpt>
      <trkpt lat="42.67823" lon="1.50469">
        <ele>2121.2861328125</ele>
        <time>2010-07-14T11:51:58Z</time>
      </trkpt>
      <trkpt lat="42.67825" lon="1.50471">
        <ele>2121.7668457031</ele>
        <time>2010-07-14T11:52:00Z</time>
      </trkpt>
      <trkpt lat="42.67826" lon="1.50482">
        <ele>2121.7668457031</ele>
        <time>2010-07-14T11:52:08Z</time>
      </trkpt>
      <trkpt lat="42.67825" lon="1.50486">
        <ele>2120.3249511719</ele>
        <time>2010-07-14T11:52:14Z</time>
      </trkpt>
      <trkpt lat="42.67833" lon="1.50492">
        <ele>2117.4409179688</ele>
        <time>2010-07-14T11:52:21Z</time>
      </trkpt>
      <trkpt lat="42.67838" lon="1.50495">
        <ele>2116.4797363281</ele>
        <time>2010-07-14T11:52:25Z</time>
      </trkpt>
      <trkpt lat="42.67848" lon="1.50502">
        <ele>2114.0764160156</ele>
        <time>2010-07-14T11:52:34Z</time>
      </trkpt>
      <trkpt lat="42.67856" lon="1.50506">
        <ele>2112.1538085938</ele>
        <time>2010-07-14T11:52:41Z</time>
      </trkpt>
      <trkpt lat="42.67863" lon="1.50507">
        <ele>2110.7119140625</ele>
        <time>2010-07-14T11:52:47Z</time>
      </trkpt>
      <trkpt lat="42.6787" lon="1.5051">
        <ele>2109.2700195312</ele>
        <time>2010-07-14T11:52:53Z</time>
      </trkpt>
      <trkpt lat="42.67873" lon="1.50513">
        <ele>2108.7893066406</ele>
        <time>2010-07-14T11:52:57Z</time>
      </trkpt>
      <trkpt lat="42.67877" lon="1.50519">
        <ele>2108.7893066406</ele>
        <time>2010-07-14T11:53:05Z</time>
      </trkpt>
      <trkpt lat="42.67879" lon="1.50522">
        <ele>2108.30859375</ele>
        <time>2010-07-14T11:53:11Z</time>
      </trkpt>
      <trkpt lat="42.67883" lon="1.5053">
        <ele>2107.8278808594</ele>
        <time>2010-07-14T11:53:18Z</time>
      </trkpt>
      <trkpt lat="42.67881" lon="1.50534">
        <ele>2106.8664550781</ele>
        <time>2010-07-14T11:53:23Z</time>
      </trkpt>
      <trkpt lat="42.67878" lon="1.50538">
        <ele>2104.9438476562</ele>
        <time>2010-07-14T11:53:27Z</time>
      </trkpt>
      <trkpt lat="42.67876" lon="1.5054">
        <ele>2104.4631347656</ele>
        <time>2010-07-14T11:53:29Z</time>
      </trkpt>
      <trkpt lat="42.67869" lon="1.50542">
        <ele>2104.9438476562</ele>
        <time>2010-07-14T11:53:34Z</time>
      </trkpt>
      <trkpt lat="42.67865" lon="1.50544">
        <ele>2104.4631347656</ele>
        <time>2010-07-14T11:53:38Z</time>
      </trkpt>
      <trkpt lat="42.6786" lon="1.50544">
        <ele>2103.501953125</ele>
        <time>2010-07-14T11:53:44Z</time>
      </trkpt>
      <trkpt lat="42.67854" lon="1.50551">
        <ele>2096.7727050781</ele>
        <time>2010-07-14T11:53:57Z</time>
      </trkpt>
      <trkpt lat="42.6785" lon="1.50556">
        <ele>2091.9660644531</ele>
        <time>2010-07-14T11:54:02Z</time>
      </trkpt>
      <trkpt lat="42.67849" lon="1.50559">
        <ele>2089.08203125</ele>
        <time>2010-07-14T11:54:05Z</time>
      </trkpt>
      <trkpt lat="42.67844" lon="1.50564">
        <ele>2084.7563476562</ele>
        <time>2010-07-14T11:54:10Z</time>
      </trkpt>
      <trkpt lat="42.6784" lon="1.50571">
        <ele>2087.6401367188</ele>
        <time>2010-07-14T11:54:15Z</time>
      </trkpt>
      <trkpt lat="42.67841" lon="1.50588">
        <ele>2113.115234375</ele>
        <time>2010-07-14T11:54:20Z</time>
      </trkpt>
      <trkpt lat="42.67836" lon="1.50598">
        <ele>2115.0378417969</ele>
        <time>2010-07-14T11:54:27Z</time>
      </trkpt>
      <trkpt lat="42.67834" lon="1.50598">
        <ele>2114.5571289062</ele>
        <time>2010-07-14T11:54:28Z</time>
      </trkpt>
      <trkpt lat="42.67823" lon="1.506">
        <ele>2107.8278808594</ele>
        <time>2010-07-14T11:54:36Z</time>
      </trkpt>
      <trkpt lat="42.67818" lon="1.50601">
        <ele>2102.5405273438</ele>
        <time>2010-07-14T11:54:41Z</time>
      </trkpt>
      <trkpt lat="42.67814" lon="1.50602">
        <ele>2097.2534179688</ele>
        <time>2010-07-14T11:54:47Z</time>
      </trkpt>
      <trkpt lat="42.67811" lon="1.50602">
        <ele>2093.8889160156</ele>
        <time>2010-07-14T11:54:51Z</time>
      </trkpt>
      <trkpt lat="42.67807" lon="1.50602">
        <ele>2090.0434570312</ele>
        <time>2010-07-14T11:54:57Z</time>
      </trkpt>
      <trkpt lat="42.67806" lon="1.50604">
        <ele>2087.6401367188</ele>
        <time>2010-07-14T11:55:01Z</time>
      </trkpt>
      <trkpt lat="42.67809" lon="1.50607">
        <ele>2085.7175292969</ele>
        <time>2010-07-14T11:55:07Z</time>
      </trkpt>
      <trkpt lat="42.6781" lon="1.5061">
        <ele>2083.3142089844</ele>
        <time>2010-07-14T11:55:11Z</time>
      </trkpt>
      <trkpt lat="42.67812" lon="1.50614">
        <ele>2080.4304199219</ele>
        <time>2010-07-14T11:55:16Z</time>
      </trkpt>
      <trkpt lat="42.67818" lon="1.50618">
        <ele>2078.0270996094</ele>
        <time>2010-07-14T11:55:22Z</time>
      </trkpt>
      <trkpt lat="42.6782" lon="1.50618">
        <ele>2077.5463867188</ele>
        <time>2010-07-14T11:55:24Z</time>
      </trkpt>
      <trkpt lat="42.67825" lon="1.5062">
        <ele>2076.5852050781</ele>
        <time>2010-07-14T11:55:30Z</time>
      </trkpt>
      <trkpt lat="42.67829" lon="1.50623">
        <ele>2075.1428222656</ele>
        <time>2010-07-14T11:55:34Z</time>
      </trkpt>
      <trkpt lat="42.67832" lon="1.50626">
        <ele>2074.181640625</ele>
        <time>2010-07-14T11:55:38Z</time>
      </trkpt>
      <trkpt lat="42.67838" lon="1.50626">
        <ele>2074.6623535156</ele>
        <time>2010-07-14T11:55:44Z</time>
      </trkpt>
      <trkpt lat="42.67839" lon="1.50627">
        <ele>2074.181640625</ele>
        <time>2010-07-14T11:55:45Z</time>
      </trkpt>
      <trkpt lat="42.67843" lon="1.50627">
        <ele>2073.7009277344</ele>
        <time>2010-07-14T11:55:49Z</time>
      </trkpt>
      <trkpt lat="42.67847" lon="1.50626">
        <ele>2072.2590332031</ele>
        <time>2010-07-14T11:55:53Z</time>
      </trkpt>
      <trkpt lat="42.67851" lon="1.50625">
        <ele>2070.3364257812</ele>
        <time>2010-07-14T11:55:58Z</time>
      </trkpt>
      <trkpt lat="42.67854" lon="1.50624">
        <ele>2067.9331054688</ele>
        <time>2010-07-14T11:56:03Z</time>
      </trkpt>
      <trkpt lat="42.67857" lon="1.50623">
        <ele>2066.0104980469</ele>
        <time>2010-07-14T11:56:09Z</time>
      </trkpt>
      <trkpt lat="42.67859" lon="1.50623">
        <ele>2064.087890625</ele>
        <time>2010-07-14T11:56:13Z</time>
      </trkpt>
      <trkpt lat="42.67864" lon="1.50622">
        <ele>2062.1652832031</ele>
        <time>2010-07-14T11:56:19Z</time>
      </trkpt>
      <trkpt lat="42.67869" lon="1.50622">
        <ele>2060.7233886719</ele>
        <time>2010-07-14T11:56:25Z</time>
      </trkpt>
      <trkpt lat="42.67874" lon="1.50622">
        <ele>2059.28125</ele>
        <time>2010-07-14T11:56:31Z</time>
      </trkpt>
      <trkpt lat="42.67876" lon="1.50624">
        <ele>2057.3586425781</ele>
        <time>2010-07-14T11:56:35Z</time>
      </trkpt>
      <trkpt lat="42.6788" lon="1.50628">
        <ele>2055.4360351562</ele>
        <time>2010-07-14T11:56:39Z</time>
      </trkpt>
      <trkpt lat="42.67887" lon="1.50628">
        <ele>2053.994140625</ele>
        <time>2010-07-14T11:56:46Z</time>
      </trkpt>
      <trkpt lat="42.67894" lon="1.50626">
        <ele>2051.1101074219</ele>
        <time>2010-07-14T11:56:53Z</time>
      </trkpt>
      <trkpt lat="42.67896" lon="1.50625">
        <ele>2049.1875</ele>
        <time>2010-07-14T11:56:58Z</time>
      </trkpt>
      <trkpt lat="42.67898" lon="1.5062">
        <ele>2048.2260742188</ele>
        <time>2010-07-14T11:57:04Z</time>
      </trkpt>
      <trkpt lat="42.679" lon="1.50617">
        <ele>2047.2648925781</ele>
        <time>2010-07-14T11:57:10Z</time>
      </trkpt>
      <trkpt lat="42.67901" lon="1.50618">
        <ele>2046.3037109375</ele>
        <time>2010-07-14T11:57:14Z</time>
      </trkpt>
      <trkpt lat="42.67903" lon="1.50619">
        <ele>2044.8615722656</ele>
        <time>2010-07-14T11:57:19Z</time>
      </trkpt>
      <trkpt lat="42.67905" lon="1.50621">
        <ele>2043.4194335938</ele>
        <time>2010-07-14T11:57:25Z</time>
      </trkpt>
      <trkpt lat="42.67908" lon="1.50622">
        <ele>2040.5354003906</ele>
        <time>2010-07-14T11:57:31Z</time>
      </trkpt>
      <trkpt lat="42.6791" lon="1.5062">
        <ele>2039.0935058594</ele>
        <time>2010-07-14T11:57:37Z</time>
      </trkpt>
      <trkpt lat="42.67912" lon="1.50614">
        <ele>2038.1323242188</ele>
        <time>2010-07-14T11:57:42Z</time>
      </trkpt>
      <trkpt lat="42.67915" lon="1.50615">
        <ele>2036.6901855469</ele>
        <time>2010-07-14T11:57:47Z</time>
      </trkpt>
      <trkpt lat="42.67917" lon="1.50619">
        <ele>2034.7678222656</ele>
        <time>2010-07-14T11:57:52Z</time>
      </trkpt>
      <trkpt lat="42.6792" lon="1.50627">
        <ele>2032.8449707031</ele>
        <time>2010-07-14T11:57:59Z</time>
      </trkpt>
      <trkpt lat="42.6792" lon="1.50635">
        <ele>2030.9226074219</ele>
        <time>2010-07-14T11:58:05Z</time>
      </trkpt>
      <trkpt lat="42.67917" lon="1.50641">
        <ele>2029.48046875</ele>
        <time>2010-07-14T11:58:12Z</time>
      </trkpt>
      <trkpt lat="42.67917" lon="1.50646">
        <ele>2028.0385742188</ele>
        <time>2010-07-14T11:58:16Z</time>
      </trkpt>
      <trkpt lat="42.67918" lon="1.50647">
        <ele>2028.5192871094</ele>
        <time>2010-07-14T11:58:20Z</time>
      </trkpt>
      <trkpt lat="42.6792" lon="1.5065">
        <ele>2027.0771484375</ele>
        <time>2010-07-14T11:58:26Z</time>
      </trkpt>
      <trkpt lat="42.67923" lon="1.50653">
        <ele>2025.6350097656</ele>
        <time>2010-07-14T11:58:32Z</time>
      </trkpt>
      <trkpt lat="42.67927" lon="1.50655">
        <ele>2025.6350097656</ele>
        <time>2010-07-14T11:58:38Z</time>
      </trkpt>
      <trkpt lat="42.67931" lon="1.50652">
        <ele>2025.6350097656</ele>
        <time>2010-07-14T11:58:43Z</time>
      </trkpt>
      <trkpt lat="42.67932" lon="1.50651">
        <ele>2025.6350097656</ele>
        <time>2010-07-14T11:58:49Z</time>
      </trkpt>
      <trkpt lat="42.67932" lon="1.50649">
        <ele>2024.673828125</ele>
        <time>2010-07-14T11:59:01Z</time>
      </trkpt>
      <trkpt lat="42.67935" lon="1.50646">
        <ele>2023.2319335938</ele>
        <time>2010-07-14T11:59:06Z</time>
      </trkpt>
      <trkpt lat="42.67938" lon="1.50645">
        <ele>2022.2705078125</ele>
        <time>2010-07-14T11:59:10Z</time>
      </trkpt>
      <trkpt lat="42.67941" lon="1.50642">
        <ele>2021.3090820312</ele>
        <time>2010-07-14T11:59:15Z</time>
      </trkpt>
      <trkpt lat="42.67945" lon="1.5064">
        <ele>2019.38671875</ele>
        <time>2010-07-14T11:59:21Z</time>
      </trkpt>
      <trkpt lat="42.67947" lon="1.50637">
        <ele>2018.4252929688</ele>
        <time>2010-07-14T11:59:25Z</time>
      </trkpt>
      <trkpt lat="42.6795" lon="1.50637">
        <ele>2016.9833984375</ele>
        <time>2010-07-14T11:59:30Z</time>
      </trkpt>
      <trkpt lat="42.67954" lon="1.50636">
        <ele>2015.0607910156</ele>
        <time>2010-07-14T11:59:35Z</time>
      </trkpt>
      <trkpt lat="42.67957" lon="1.50635">
        <ele>2013.6186523438</ele>
        <time>2010-07-14T11:59:40Z</time>
      </trkpt>
      <trkpt lat="42.67957" lon="1.50634">
        <ele>2013.6186523438</ele>
        <time>2010-07-14T11:59:49Z</time>
      </trkpt>
      <trkpt lat="42.67958" lon="1.50634">
        <ele>2013.6186523438</ele>
        <time>2010-07-14T11:59:56Z</time>
      </trkpt>
      <trkpt lat="42.67959" lon="1.50635">
        <ele>2012.6574707031</ele>
        <time>2010-07-14T12:00:05Z</time>
      </trkpt>
      <trkpt lat="42.67961" lon="1.50635">
        <ele>2012.6574707031</ele>
        <time>2010-07-14T12:00:11Z</time>
      </trkpt>
      <trkpt lat="42.67963" lon="1.50635">
        <ele>2012.1767578125</ele>
        <time>2010-07-14T12:00:16Z</time>
      </trkpt>
      <trkpt lat="42.67966" lon="1.50634">
        <ele>2011.6960449219</ele>
        <time>2010-07-14T12:00:20Z</time>
      </trkpt>
      <trkpt lat="42.67968" lon="1.50633">
        <ele>2010.7346191406</ele>
        <time>2010-07-14T12:00:27Z</time>
      </trkpt>
      <trkpt lat="42.67969" lon="1.50632">
        <ele>2010.25390625</ele>
        <time>2010-07-14T12:00:33Z</time>
      </trkpt>
      <trkpt lat="42.67972" lon="1.50634">
        <ele>2009.2927246094</ele>
        <time>2010-07-14T12:00:40Z</time>
      </trkpt>
      <trkpt lat="42.67974" lon="1.50635">
        <ele>2008.8120117188</ele>
        <time>2010-07-14T12:00:42Z</time>
      </trkpt>
      <trkpt lat="42.67979" lon="1.50635">
        <ele>2008.3312988281</ele>
        <time>2010-07-14T12:00:47Z</time>
      </trkpt>
      <trkpt lat="42.6798" lon="1.50635">
        <ele>2007.8508300781</ele>
        <time>2010-07-14T12:00:48Z</time>
      </trkpt>
      <trkpt lat="42.67985" lon="1.50632">
        <ele>2006.8894042969</ele>
        <time>2010-07-14T12:00:52Z</time>
      </trkpt>
      <trkpt lat="42.67987" lon="1.50632">
        <ele>2006.8894042969</ele>
        <time>2010-07-14T12:00:53Z</time>
      </trkpt>
      <trkpt lat="42.67994" lon="1.50629">
        <ele>2005.9279785156</ele>
        <time>2010-07-14T12:00:59Z</time>
      </trkpt>
      <trkpt lat="42.67999" lon="1.5063">
        <ele>2005.4475097656</ele>
        <time>2010-07-14T12:01:03Z</time>
      </trkpt>
      <trkpt lat="42.68009" lon="1.50627">
        <ele>2005.4475097656</ele>
        <time>2010-07-14T12:01:10Z</time>
      </trkpt>
      <trkpt lat="42.68012" lon="1.50626">
        <ele>2004.4860839844</ele>
        <time>2010-07-14T12:01:13Z</time>
      </trkpt>
      <trkpt lat="42.68018" lon="1.50627">
        <ele>2004.0056152344</ele>
        <time>2010-07-14T12:01:19Z</time>
      </trkpt>
      <trkpt lat="42.68022" lon="1.50628">
        <ele>2004.0056152344</ele>
        <time>2010-07-14T12:01:24Z</time>
      </trkpt>
      <trkpt lat="42.68026" lon="1.50626">
        <ele>2003.0441894531</ele>
        <time>2010-07-14T12:01:30Z</time>
      </trkpt>
      <trkpt lat="42.68035" lon="1.50624">
        <ele>2001.6022949219</ele>
        <time>2010-07-14T12:01:38Z</time>
      </trkpt>
      <trkpt lat="42.68041" lon="1.50623">
        <ele>2001.1215820312</ele>
        <time>2010-07-14T12:01:43Z</time>
      </trkpt>
      <trkpt lat="42.68049" lon="1.5062">
        <ele>1999.6796875</ele>
        <time>2010-07-14T12:01:49Z</time>
      </trkpt>
      <trkpt lat="42.6805" lon="1.5062">
        <ele>1999.1989746094</ele>
        <time>2010-07-14T12:01:50Z</time>
      </trkpt>
      <trkpt lat="42.68054" lon="1.50617">
        <ele>1997.7570800781</ele>
        <time>2010-07-14T12:01:57Z</time>
      </trkpt>
      <trkpt lat="42.68058" lon="1.50613">
        <ele>1995.8342285156</ele>
        <time>2010-07-14T12:02:02Z</time>
      </trkpt>
      <trkpt lat="42.68063" lon="1.50611">
        <ele>1995.353515625</ele>
        <time>2010-07-14T12:02:09Z</time>
      </trkpt>
      <trkpt lat="42.68068" lon="1.50609">
        <ele>1994.8728027344</ele>
        <time>2010-07-14T12:02:16Z</time>
      </trkpt>
      <trkpt lat="42.68071" lon="1.50608">
        <ele>1993.4309082031</ele>
        <time>2010-07-14T12:02:22Z</time>
      </trkpt>
      <trkpt lat="42.68078" lon="1.50608">
        <ele>1991.0275878906</ele>
        <time>2010-07-14T12:02:29Z</time>
      </trkpt>
      <trkpt lat="42.68084" lon="1.50606">
        <ele>1990.06640625</ele>
        <time>2010-07-14T12:02:35Z</time>
      </trkpt>
      <trkpt lat="42.68087" lon="1.50605">
        <ele>1989.1049804688</ele>
        <time>2010-07-14T12:02:41Z</time>
      </trkpt>
      <trkpt lat="42.68089" lon="1.50604">
        <ele>1988.1437988281</ele>
        <time>2010-07-14T12:02:46Z</time>
      </trkpt>
      <trkpt lat="42.6809" lon="1.50601">
        <ele>1986.2211914062</ele>
        <time>2010-07-14T12:02:51Z</time>
      </trkpt>
      <trkpt lat="42.68093" lon="1.506">
        <ele>1986.2211914062</ele>
        <time>2010-07-14T12:02:56Z</time>
      </trkpt>
      <trkpt lat="42.68094" lon="1.506">
        <ele>1987.1823730469</ele>
        <time>2010-07-14T12:03:03Z</time>
      </trkpt>
      <trkpt lat="42.68097" lon="1.50598">
        <ele>1987.6630859375</ele>
        <time>2010-07-14T12:03:08Z</time>
      </trkpt>
      <trkpt lat="42.68102" lon="1.506">
        <ele>1988.6245117188</ele>
        <time>2010-07-14T12:03:13Z</time>
      </trkpt>
      <trkpt lat="42.68105" lon="1.50598">
        <ele>1987.6630859375</ele>
        <time>2010-07-14T12:03:18Z</time>
      </trkpt>
      <trkpt lat="42.6811" lon="1.50595">
        <ele>1986.7016601562</ele>
        <time>2010-07-14T12:03:23Z</time>
      </trkpt>
      <trkpt lat="42.68113" lon="1.5059">
        <ele>1985.259765625</ele>
        <time>2010-07-14T12:03:29Z</time>
      </trkpt>
      <trkpt lat="42.68116" lon="1.50585">
        <ele>1982.8564453125</ele>
        <time>2010-07-14T12:03:34Z</time>
      </trkpt>
      <trkpt lat="42.68118" lon="1.50582">
        <ele>1982.3759765625</ele>
        <time>2010-07-14T12:03:36Z</time>
      </trkpt>
      <trkpt lat="42.68124" lon="1.5058">
        <ele>1981.8952636719</ele>
        <time>2010-07-14T12:03:42Z</time>
      </trkpt>
      <trkpt lat="42.68129" lon="1.50581">
        <ele>1980.9340820312</ele>
        <time>2010-07-14T12:03:47Z</time>
      </trkpt>
      <trkpt lat="42.68137" lon="1.50583">
        <ele>1979.0109863281</ele>
        <time>2010-07-14T12:03:56Z</time>
      </trkpt>
      <trkpt lat="42.68139" lon="1.50586">
        <ele>1977.0886230469</ele>
        <time>2010-07-14T12:04:02Z</time>
      </trkpt>
      <trkpt lat="42.68145" lon="1.5059">
        <ele>1975.646484375</ele>
        <time>2010-07-14T12:04:07Z</time>
      </trkpt>
      <trkpt lat="42.68146" lon="1.50591">
        <ele>1975.1657714844</ele>
        <time>2010-07-14T12:04:08Z</time>
      </trkpt>
      <trkpt lat="42.68151" lon="1.50602">
        <ele>1973.7238769531</ele>
        <time>2010-07-14T12:04:15Z</time>
      </trkpt>
      <trkpt lat="42.68152" lon="1.50607">
        <ele>1972.7626953125</ele>
        <time>2010-07-14T12:04:20Z</time>
      </trkpt>
      <trkpt lat="42.68154" lon="1.50606">
        <ele>1972.2819824219</ele>
        <time>2010-07-14T12:04:28Z</time>
      </trkpt>
      <trkpt lat="42.68158" lon="1.50605">
        <ele>1972.2819824219</ele>
        <time>2010-07-14T12:04:34Z</time>
      </trkpt>
      <trkpt lat="42.68158" lon="1.50604">
        <ele>1972.2819824219</ele>
        <time>2010-07-14T12:04:53Z</time>
      </trkpt>
      <trkpt lat="42.68158" lon="1.50605">
        <ele>1971.8012695312</ele>
        <time>2010-07-14T12:05:02Z</time>
      </trkpt>
      <trkpt lat="42.68158" lon="1.50604">
        <ele>1971.8012695312</ele>
        <time>2010-07-14T12:05:11Z</time>
      </trkpt>
      <trkpt lat="42.68158" lon="1.50604">
        <ele>1972.2819824219</ele>
        <time>2010-07-14T12:05:24Z</time>
      </trkpt>
      <trkpt lat="42.68158" lon="1.50604">
        <ele>1971.8012695312</ele>
        <time>2010-07-14T12:05:58Z</time>
      </trkpt>
      <trkpt lat="42.68156" lon="1.50606">
        <ele>1971.8012695312</ele>
        <time>2010-07-14T12:06:12Z</time>
      </trkpt>
      <trkpt lat="42.68154" lon="1.50605">
        <ele>1972.2819824219</ele>
        <time>2010-07-14T12:06:18Z</time>
      </trkpt>
      <trkpt lat="42.68154" lon="1.50606">
        <ele>1971.8012695312</ele>
        <time>2010-07-14T12:06:23Z</time>
      </trkpt>
      <trkpt lat="42.68154" lon="1.50606">
        <ele>1972.7626953125</ele>
        <time>2010-07-14T12:06:30Z</time>
      </trkpt>
      <trkpt lat="42.68155" lon="1.50605">
        <ele>1972.7626953125</ele>
        <time>2010-07-14T12:06:36Z</time>
      </trkpt>
      <trkpt lat="42.68154" lon="1.50604">
        <ele>1973.7238769531</ele>
        <time>2010-07-14T12:06:42Z</time>
      </trkpt>
      <trkpt lat="42.68154" lon="1.50605">
        <ele>1975.1657714844</ele>
        <time>2010-07-14T12:06:54Z</time>
      </trkpt>
      <trkpt lat="42.68154" lon="1.50604">
        <ele>1974.6853027344</ele>
        <time>2010-07-14T12:07:01Z</time>
      </trkpt>
      <trkpt lat="42.68155" lon="1.50603">
        <ele>1975.646484375</ele>
        <time>2010-07-14T12:07:11Z</time>
      </trkpt>
      <trkpt lat="42.68156" lon="1.50601">
        <ele>1975.646484375</ele>
        <time>2010-07-14T12:07:17Z</time>
      </trkpt>
      <trkpt lat="42.68157" lon="1.506">
        <ele>1975.1657714844</ele>
        <time>2010-07-14T12:07:27Z</time>
      </trkpt>
      <trkpt lat="42.68156" lon="1.50601">
        <ele>1975.646484375</ele>
        <time>2010-07-14T12:07:34Z</time>
      </trkpt>
      <trkpt lat="42.68155" lon="1.50604">
        <ele>1975.646484375</ele>
        <time>2010-07-14T12:07:39Z</time>
      </trkpt>
      <trkpt lat="42.68153" lon="1.50607">
        <ele>1974.6853027344</ele>
        <time>2010-07-14T12:07:49Z</time>
      </trkpt>
      <trkpt lat="42.68151" lon="1.50609">
        <ele>1974.2045898438</ele>
        <time>2010-07-14T12:07:56Z</time>
      </trkpt>
      <trkpt lat="42.68151" lon="1.50613">
        <ele>1973.2434082031</ele>
        <time>2010-07-14T12:08:03Z</time>
      </trkpt>
      <trkpt lat="42.68151" lon="1.50617">
        <ele>1972.7626953125</ele>
        <time>2010-07-14T12:08:10Z</time>
      </trkpt>
      <trkpt lat="42.68151" lon="1.50617">
        <ele>1973.2434082031</ele>
        <time>2010-07-14T12:08:16Z</time>
      </trkpt>
      <trkpt lat="42.6815" lon="1.50622">
        <ele>1973.2434082031</ele>
        <time>2010-07-14T12:08:24Z</time>
      </trkpt>
      <trkpt lat="42.6815" lon="1.50623">
        <ele>1972.2819824219</ele>
        <time>2010-07-14T12:08:33Z</time>
      </trkpt>
      <trkpt lat="42.68151" lon="1.50624">
        <ele>1970.359375</ele>
        <time>2010-07-14T12:08:49Z</time>
      </trkpt>
      <trkpt lat="42.68155" lon="1.50623">
        <ele>1968.4367675781</ele>
        <time>2010-07-14T12:08:55Z</time>
      </trkpt>
      <trkpt lat="42.68159" lon="1.50619">
        <ele>1965.5529785156</ele>
        <time>2010-07-14T12:09:02Z</time>
      </trkpt>
      <trkpt lat="42.68164" lon="1.50619">
        <ele>1963.1494140625</ele>
        <time>2010-07-14T12:09:08Z</time>
      </trkpt>
      <trkpt lat="42.68166" lon="1.50617">
        <ele>1961.7075195312</ele>
        <time>2010-07-14T12:09:13Z</time>
      </trkpt>
      <trkpt lat="42.6817" lon="1.50616">
        <ele>1959.7846679688</ele>
        <time>2010-07-14T12:09:18Z</time>
      </trkpt>
      <trkpt lat="42.68174" lon="1.50618">
        <ele>1956.9008789062</ele>
        <time>2010-07-14T12:09:24Z</time>
      </trkpt>
      <trkpt lat="42.68177" lon="1.50616">
        <ele>1954.9782714844</ele>
        <time>2010-07-14T12:09:29Z</time>
      </trkpt>
      <trkpt lat="42.6818" lon="1.50617">
        <ele>1953.5363769531</ele>
        <time>2010-07-14T12:09:36Z</time>
      </trkpt>
      <trkpt lat="42.68182" lon="1.50614">
        <ele>1952.5749511719</ele>
        <time>2010-07-14T12:09:42Z</time>
      </trkpt>
      <trkpt lat="42.68182" lon="1.5061">
        <ele>1952.5749511719</ele>
        <time>2010-07-14T12:09:45Z</time>
      </trkpt>
      <trkpt lat="42.68184" lon="1.50609">
        <ele>1950.65234375</ele>
        <time>2010-07-14T12:09:49Z</time>
      </trkpt>
      <trkpt lat="42.68186" lon="1.50609">
        <ele>1948.7297363281</ele>
        <time>2010-07-14T12:09:53Z</time>
      </trkpt>
      <trkpt lat="42.68189" lon="1.50608">
        <ele>1945.845703125</ele>
        <time>2010-07-14T12:10:00Z</time>
      </trkpt>
      <trkpt lat="42.68191" lon="1.50606">
        <ele>1945.3649902344</ele>
        <time>2010-07-14T12:10:04Z</time>
      </trkpt>
      <trkpt lat="42.68194" lon="1.50606">
        <ele>1943.9230957031</ele>
        <time>2010-07-14T12:10:11Z</time>
      </trkpt>
      <trkpt lat="42.68196" lon="1.50605">
        <ele>1942.4812011719</ele>
        <time>2010-07-14T12:10:17Z</time>
      </trkpt>
      <trkpt lat="42.68198" lon="1.50605">
        <ele>1940.0778808594</ele>
        <time>2010-07-14T12:10:23Z</time>
      </trkpt>
      <trkpt lat="42.682" lon="1.50604">
        <ele>1937.1938476562</ele>
        <time>2010-07-14T12:10:30Z</time>
      </trkpt>
      <trkpt lat="42.682" lon="1.50603">
        <ele>1934.7907714844</ele>
        <time>2010-07-14T12:10:35Z</time>
      </trkpt>
      <trkpt lat="42.68201" lon="1.50602">
        <ele>1934.3100585938</ele>
        <time>2010-07-14T12:10:40Z</time>
      </trkpt>
      <trkpt lat="42.68203" lon="1.506">
        <ele>1933.3486328125</ele>
        <time>2010-07-14T12:10:46Z</time>
      </trkpt>
      <trkpt lat="42.68204" lon="1.506">
        <ele>1931.9064941406</ele>
        <time>2010-07-14T12:10:52Z</time>
      </trkpt>
      <trkpt lat="42.68207" lon="1.50599">
        <ele>1929.5031738281</ele>
        <time>2010-07-14T12:11:00Z</time>
      </trkpt>
      <trkpt lat="42.6821" lon="1.50598">
        <ele>1927.5805664062</ele>
        <time>2010-07-14T12:11:05Z</time>
      </trkpt>
      <trkpt lat="42.68212" lon="1.50596">
        <ele>1925.1772460938</ele>
        <time>2010-07-14T12:11:12Z</time>
      </trkpt>
      <trkpt lat="42.68213" lon="1.50595">
        <ele>1924.2160644531</ele>
        <time>2010-07-14T12:11:20Z</time>
      </trkpt>
      <trkpt lat="42.68216" lon="1.50594">
        <ele>1922.2934570312</ele>
        <time>2010-07-14T12:11:28Z</time>
      </trkpt>
      <trkpt lat="42.68218" lon="1.50593">
        <ele>1920.8515625</ele>
        <time>2010-07-14T12:11:34Z</time>
      </trkpt>
      <trkpt lat="42.68222" lon="1.50594">
        <ele>1919.8901367188</ele>
        <time>2010-07-14T12:11:40Z</time>
      </trkpt>
      <trkpt lat="42.68226" lon="1.50594">
        <ele>1918.4482421875</ele>
        <time>2010-07-14T12:11:46Z</time>
      </trkpt>
      <trkpt lat="42.68229" lon="1.50593">
        <ele>1917.4868164062</ele>
        <time>2010-07-14T12:11:51Z</time>
      </trkpt>
      <trkpt lat="42.6823" lon="1.5059">
        <ele>1916.5256347656</ele>
        <time>2010-07-14T12:11:56Z</time>
      </trkpt>
      <trkpt lat="42.68232" lon="1.50589">
        <ele>1917.0063476562</ele>
        <time>2010-07-14T12:12:00Z</time>
      </trkpt>
      <trkpt lat="42.68236" lon="1.50587">
        <ele>1915.5642089844</ele>
        <time>2010-07-14T12:12:06Z</time>
      </trkpt>
      <trkpt lat="42.68237" lon="1.50587">
        <ele>1915.0834960938</ele>
        <time>2010-07-14T12:12:10Z</time>
      </trkpt>
      <trkpt lat="42.68239" lon="1.50585">
        <ele>1912.6801757812</ele>
        <time>2010-07-14T12:12:17Z</time>
      </trkpt>
      <trkpt lat="42.6824" lon="1.50584">
        <ele>1911.23828125</ele>
        <time>2010-07-14T12:12:22Z</time>
      </trkpt>
      <trkpt lat="42.68243" lon="1.50585">
        <ele>1909.7961425781</ele>
        <time>2010-07-14T12:12:27Z</time>
      </trkpt>
      <trkpt lat="42.68244" lon="1.50584">
        <ele>1909.3156738281</ele>
        <time>2010-07-14T12:12:33Z</time>
      </trkpt>
      <trkpt lat="42.68245" lon="1.50583">
        <ele>1908.8349609375</ele>
        <time>2010-07-14T12:12:39Z</time>
      </trkpt>
      <trkpt lat="42.68247" lon="1.50582">
        <ele>1907.8737792969</ele>
        <time>2010-07-14T12:12:44Z</time>
      </trkpt>
      <trkpt lat="42.68249" lon="1.50581">
        <ele>1907.3930664062</ele>
        <time>2010-07-14T12:12:47Z</time>
      </trkpt>
      <trkpt lat="42.68251" lon="1.50581">
        <ele>1904.9897460938</ele>
        <time>2010-07-14T12:12:52Z</time>
      </trkpt>
      <trkpt lat="42.68251" lon="1.50579">
        <ele>1903.0671386719</ele>
        <time>2010-07-14T12:13:00Z</time>
      </trkpt>
      <trkpt lat="42.68251" lon="1.50577">
        <ele>1901.14453125</ele>
        <time>2010-07-14T12:13:07Z</time>
      </trkpt>
      <trkpt lat="42.68253" lon="1.50576">
        <ele>1899.7023925781</ele>
        <time>2010-07-14T12:13:13Z</time>
      </trkpt>
      <trkpt lat="42.68254" lon="1.50576">
        <ele>1898.7409667969</ele>
        <time>2010-07-14T12:13:19Z</time>
      </trkpt>
      <trkpt lat="42.68254" lon="1.50575">
        <ele>1899.7023925781</ele>
        <time>2010-07-14T12:13:29Z</time>
      </trkpt>
      <trkpt lat="42.68255" lon="1.50574">
        <ele>1898.7409667969</ele>
        <time>2010-07-14T12:13:37Z</time>
      </trkpt>
      <trkpt lat="42.68258" lon="1.50574">
        <ele>1897.2990722656</ele>
        <time>2010-07-14T12:13:45Z</time>
      </trkpt>
      <trkpt lat="42.68261" lon="1.50574">
        <ele>1896.337890625</ele>
        <time>2010-07-14T12:13:51Z</time>
      </trkpt>
      <trkpt lat="42.68263" lon="1.50573">
        <ele>1895.8571777344</ele>
        <time>2010-07-14T12:13:58Z</time>
      </trkpt>
      <trkpt lat="42.68264" lon="1.50572">
        <ele>1894.8957519531</ele>
        <time>2010-07-14T12:14:04Z</time>
      </trkpt>
      <trkpt lat="42.68266" lon="1.50571">
        <ele>1893.4538574219</ele>
        <time>2010-07-14T12:14:11Z</time>
      </trkpt>
      <trkpt lat="42.6827" lon="1.50572">
        <ele>1893.4538574219</ele>
        <time>2010-07-14T12:14:18Z</time>
      </trkpt>
      <trkpt lat="42.68271" lon="1.50573">
        <ele>1893.4538574219</ele>
        <time>2010-07-14T12:14:23Z</time>
      </trkpt>
      <trkpt lat="42.68272" lon="1.50571">
        <ele>1891.0505371094</ele>
        <time>2010-07-14T12:14:31Z</time>
      </trkpt>
      <trkpt lat="42.68274" lon="1.50569">
        <ele>1890.0893554688</ele>
        <time>2010-07-14T12:14:37Z</time>
      </trkpt>
      <trkpt lat="42.68276" lon="1.50568">
        <ele>1888.6474609375</ele>
        <time>2010-07-14T12:14:42Z</time>
      </trkpt>
      <trkpt lat="42.6828" lon="1.50567">
        <ele>1889.1279296875</ele>
        <time>2010-07-14T12:14:47Z</time>
      </trkpt>
      <trkpt lat="42.6828" lon="1.50566">
        <ele>1888.1667480469</ele>
        <time>2010-07-14T12:14:58Z</time>
      </trkpt>
      <trkpt lat="42.68281" lon="1.50565">
        <ele>1887.2053222656</ele>
        <time>2010-07-14T12:15:03Z</time>
      </trkpt>
      <trkpt lat="42.68283" lon="1.50563">
        <ele>1886.244140625</ele>
        <time>2010-07-14T12:15:08Z</time>
      </trkpt>
      <trkpt lat="42.68283" lon="1.50561">
        <ele>1885.2827148438</ele>
        <time>2010-07-14T12:15:13Z</time>
      </trkpt>
      <trkpt lat="42.68284" lon="1.50555">
        <ele>1883.8405761719</ele>
        <time>2010-07-14T12:15:19Z</time>
      </trkpt>
      <trkpt lat="42.68283" lon="1.50552">
        <ele>1882.8791503906</ele>
        <time>2010-07-14T12:15:24Z</time>
      </trkpt>
      <trkpt lat="42.68285" lon="1.50551">
        <ele>1880.4760742188</ele>
        <time>2010-07-14T12:15:31Z</time>
      </trkpt>
      <trkpt lat="42.68287" lon="1.50548">
        <ele>1879.0339355469</ele>
        <time>2010-07-14T12:15:36Z</time>
      </trkpt>
      <trkpt lat="42.6829" lon="1.50548">
        <ele>1878.0727539062</ele>
        <time>2010-07-14T12:15:41Z</time>
      </trkpt>
      <trkpt lat="42.68293" lon="1.50547">
        <ele>1876.1501464844</ele>
        <time>2010-07-14T12:15:47Z</time>
      </trkpt>
      <trkpt lat="42.68294" lon="1.5055">
        <ele>1875.1887207031</ele>
        <time>2010-07-14T12:15:54Z</time>
      </trkpt>
      <trkpt lat="42.68296" lon="1.50552">
        <ele>1872.7856445312</ele>
        <time>2010-07-14T12:16:01Z</time>
      </trkpt>
      <trkpt lat="42.68297" lon="1.50552">
        <ele>1872.7856445312</ele>
        <time>2010-07-14T12:16:07Z</time>
      </trkpt>
      <trkpt lat="42.683" lon="1.50551">
        <ele>1872.3049316406</ele>
        <time>2010-07-14T12:16:13Z</time>
      </trkpt>
      <trkpt lat="42.68304" lon="1.5055">
        <ele>1872.7856445312</ele>
        <time>2010-07-14T12:16:18Z</time>
      </trkpt>
      <trkpt lat="42.68306" lon="1.5055">
        <ele>1871.82421875</ele>
        <time>2010-07-14T12:16:21Z</time>
      </trkpt>
      <trkpt lat="42.68306" lon="1.50551">
        <ele>1871.82421875</ele>
        <time>2010-07-14T12:16:29Z</time>
      </trkpt>
      <trkpt lat="42.68309" lon="1.50549">
        <ele>1870.8630371094</ele>
        <time>2010-07-14T12:16:44Z</time>
      </trkpt>
      <trkpt lat="42.6831" lon="1.50545">
        <ele>1867.9787597656</ele>
        <time>2010-07-14T12:16:49Z</time>
      </trkpt>
      <trkpt lat="42.68311" lon="1.50541">
        <ele>1865.5756835938</ele>
        <time>2010-07-14T12:16:54Z</time>
      </trkpt>
      <trkpt lat="42.68313" lon="1.50539">
        <ele>1863.6528320312</ele>
        <time>2010-07-14T12:16:58Z</time>
      </trkpt>
      <trkpt lat="42.68316" lon="1.50537">
        <ele>1861.73046875</ele>
        <time>2010-07-14T12:17:04Z</time>
      </trkpt>
      <trkpt lat="42.68319" lon="1.50533">
        <ele>1858.8464355469</ele>
        <time>2010-07-14T12:17:10Z</time>
      </trkpt>
      <trkpt lat="42.68321" lon="1.50533">
        <ele>1857.8852539062</ele>
        <time>2010-07-14T12:17:16Z</time>
      </trkpt>
      <trkpt lat="42.68323" lon="1.5053">
        <ele>1856.923828125</ele>
        <time>2010-07-14T12:17:23Z</time>
      </trkpt>
      <trkpt lat="42.68325" lon="1.50527">
        <ele>1855.4819335938</ele>
        <time>2010-07-14T12:17:28Z</time>
      </trkpt>
      <trkpt lat="42.68328" lon="1.50523">
        <ele>1852.5979003906</ele>
        <time>2010-07-14T12:17:34Z</time>
      </trkpt>
      <trkpt lat="42.68332" lon="1.50523">
        <ele>1851.6364746094</ele>
        <time>2010-07-14T12:17:39Z</time>
      </trkpt>
      <trkpt lat="42.68334" lon="1.50523">
        <ele>1850.1945800781</ele>
        <time>2010-07-14T12:17:44Z</time>
      </trkpt>
      <trkpt lat="42.68339" lon="1.50524">
        <ele>1848.7524414062</ele>
        <time>2010-07-14T12:17:50Z</time>
      </trkpt>
      <trkpt lat="42.68342" lon="1.50526">
        <ele>1848.2717285156</ele>
        <time>2010-07-14T12:17:54Z</time>
      </trkpt>
      <trkpt lat="42.68346" lon="1.50528">
        <ele>1846.8298339844</ele>
        <time>2010-07-14T12:18:00Z</time>
      </trkpt>
      <trkpt lat="42.68351" lon="1.50529">
        <ele>1844.9072265625</ele>
        <time>2010-07-14T12:18:05Z</time>
      </trkpt>
      <trkpt lat="42.68356" lon="1.50531">
        <ele>1843.4653320312</ele>
        <time>2010-07-14T12:18:11Z</time>
      </trkpt>
      <trkpt lat="42.68359" lon="1.5053">
        <ele>1841.0620117188</ele>
        <time>2010-07-14T12:18:17Z</time>
      </trkpt>
      <trkpt lat="42.68364" lon="1.50528">
        <ele>1838.1782226562</ele>
        <time>2010-07-14T12:18:23Z</time>
      </trkpt>
      <trkpt lat="42.68371" lon="1.50526">
        <ele>1835.2939453125</ele>
        <time>2010-07-14T12:18:29Z</time>
      </trkpt>
      <trkpt lat="42.68376" lon="1.50525">
        <ele>1834.8134765625</ele>
        <time>2010-07-14T12:18:34Z</time>
      </trkpt>
      <trkpt lat="42.6838" lon="1.50527">
        <ele>1833.8520507812</ele>
        <time>2010-07-14T12:18:40Z</time>
      </trkpt>
      <trkpt lat="42.68385" lon="1.50527">
        <ele>1832.890625</ele>
        <time>2010-07-14T12:18:47Z</time>
      </trkpt>
      <trkpt lat="42.6839" lon="1.50526">
        <ele>1832.41015625</ele>
        <time>2010-07-14T12:18:53Z</time>
      </trkpt>
      <trkpt lat="42.68394" lon="1.5052">
        <ele>1830.9682617188</ele>
        <time>2010-07-14T12:18:59Z</time>
      </trkpt>
      <trkpt lat="42.68406" lon="1.50514">
        <ele>1828.0842285156</ele>
        <time>2010-07-14T12:19:06Z</time>
      </trkpt>
      <trkpt lat="42.68412" lon="1.50511">
        <ele>1826.6423339844</ele>
        <time>2010-07-14T12:19:12Z</time>
      </trkpt>
      <trkpt lat="42.6842" lon="1.50508">
        <ele>1823.7583007812</ele>
        <time>2010-07-14T12:19:20Z</time>
      </trkpt>
      <trkpt lat="42.68422" lon="1.50509">
        <ele>1823.2778320312</ele>
        <time>2010-07-14T12:19:22Z</time>
      </trkpt>
      <trkpt lat="42.68426" lon="1.50508">
        <ele>1821.8356933594</ele>
        <time>2010-07-14T12:19:28Z</time>
      </trkpt>
      <trkpt lat="42.68433" lon="1.50508">
        <ele>1819.4323730469</ele>
        <time>2010-07-14T12:19:34Z</time>
      </trkpt>
      <trkpt lat="42.68441" lon="1.50507">
        <ele>1817.0290527344</ele>
        <time>2010-07-14T12:19:40Z</time>
      </trkpt>
      <trkpt lat="42.68448" lon="1.50508">
        <ele>1816.5483398438</ele>
        <time>2010-07-14T12:19:45Z</time>
      </trkpt>
      <trkpt lat="42.68451" lon="1.50502">
        <ele>1817.5095214844</ele>
        <time>2010-07-14T12:19:52Z</time>
      </trkpt>
      <trkpt lat="42.68457" lon="1.50498">
        <ele>1818.9516601562</ele>
        <time>2010-07-14T12:19:59Z</time>
      </trkpt>
      <trkpt lat="42.68461" lon="1.50494">
        <ele>1820.3937988281</ele>
        <time>2010-07-14T12:20:06Z</time>
      </trkpt>
      <trkpt lat="42.68466" lon="1.50494">
        <ele>1818.9516601562</ele>
        <time>2010-07-14T12:20:13Z</time>
      </trkpt>
      <trkpt lat="42.68469" lon="1.50493">
        <ele>1816.5483398438</ele>
        <time>2010-07-14T12:20:19Z</time>
      </trkpt>
      <trkpt lat="42.68471" lon="1.5049">
        <ele>1814.6257324219</ele>
        <time>2010-07-14T12:20:25Z</time>
      </trkpt>
      <trkpt lat="42.68475" lon="1.5049">
        <ele>1813.1838378906</ele>
        <time>2010-07-14T12:20:29Z</time>
      </trkpt>
      <trkpt lat="42.68478" lon="1.50491">
        <ele>1812.703125</ele>
        <time>2010-07-14T12:20:34Z</time>
      </trkpt>
      <trkpt lat="42.68484" lon="1.50487">
        <ele>1810.2998046875</ele>
        <time>2010-07-14T12:20:40Z</time>
      </trkpt>
      <trkpt lat="42.68489" lon="1.50484">
        <ele>1808.8579101562</ele>
        <time>2010-07-14T12:20:46Z</time>
      </trkpt>
      <trkpt lat="42.68494" lon="1.50483">
        <ele>1807.416015625</ele>
        <time>2010-07-14T12:20:51Z</time>
      </trkpt>
      <trkpt lat="42.68499" lon="1.50481">
        <ele>1806.9353027344</ele>
        <time>2010-07-14T12:20:55Z</time>
      </trkpt>
      <trkpt lat="42.68503" lon="1.50483">
        <ele>1805.4934082031</ele>
        <time>2010-07-14T12:21:01Z</time>
      </trkpt>
      <trkpt lat="42.68505" lon="1.50483">
        <ele>1803.08984375</ele>
        <time>2010-07-14T12:21:07Z</time>
      </trkpt>
      <trkpt lat="42.68507" lon="1.5048">
        <ele>1801.6479492188</ele>
        <time>2010-07-14T12:21:13Z</time>
      </trkpt>
      <trkpt lat="42.68511" lon="1.50478">
        <ele>1801.1672363281</ele>
        <time>2010-07-14T12:21:19Z</time>
      </trkpt>
      <trkpt lat="42.68516" lon="1.50473">
        <ele>1803.08984375</ele>
        <time>2010-07-14T12:21:25Z</time>
      </trkpt>
      <trkpt lat="42.68522" lon="1.50471">
        <ele>1804.5319824219</ele>
        <time>2010-07-14T12:21:30Z</time>
      </trkpt>
      <trkpt lat="42.6853" lon="1.5047">
        <ele>1803.08984375</ele>
        <time>2010-07-14T12:21:36Z</time>
      </trkpt>
      <trkpt lat="42.68532" lon="1.50472">
        <ele>1802.6091308594</ele>
        <time>2010-07-14T12:21:39Z</time>
      </trkpt>
      <trkpt lat="42.6854" lon="1.50468">
        <ele>1800.2060546875</ele>
        <time>2010-07-14T12:21:46Z</time>
      </trkpt>
      <trkpt lat="42.68549" lon="1.50462">
        <ele>1797.802734375</ele>
        <time>2010-07-14T12:21:53Z</time>
      </trkpt>
      <trkpt lat="42.68557" lon="1.50458">
        <ele>1795.8801269531</ele>
        <time>2010-07-14T12:21:59Z</time>
      </trkpt>
      <trkpt lat="42.68566" lon="1.50455">
        <ele>1796.3608398438</ele>
        <time>2010-07-14T12:22:05Z</time>
      </trkpt>
      <trkpt lat="42.68573" lon="1.50448">
        <ele>1795.3994140625</ele>
        <time>2010-07-14T12:22:11Z</time>
      </trkpt>
      <trkpt lat="42.68583" lon="1.50439">
        <ele>1794.9187011719</ele>
        <time>2010-07-14T12:22:19Z</time>
      </trkpt>
      <trkpt lat="42.68592" lon="1.50433">
        <ele>1794.4379882812</ele>
        <time>2010-07-14T12:22:26Z</time>
      </trkpt>
      <trkpt lat="42.68599" lon="1.50428">
        <ele>1793.4768066406</ele>
        <time>2010-07-14T12:22:31Z</time>
      </trkpt>
      <trkpt lat="42.68609" lon="1.50423">
        <ele>1790.5927734375</ele>
        <time>2010-07-14T12:22:39Z</time>
      </trkpt>
      <trkpt lat="42.68616" lon="1.50418">
        <ele>1791.0734863281</ele>
        <time>2010-07-14T12:22:46Z</time>
      </trkpt>
      <trkpt lat="42.68622" lon="1.50412">
        <ele>1791.0734863281</ele>
        <time>2010-07-14T12:22:52Z</time>
      </trkpt>
      <trkpt lat="42.68631" lon="1.50405">
        <ele>1788.1896972656</ele>
        <time>2010-07-14T12:22:59Z</time>
      </trkpt>
      <trkpt lat="42.68634" lon="1.50404">
        <ele>1788.1896972656</ele>
        <time>2010-07-14T12:23:01Z</time>
      </trkpt>
      <trkpt lat="42.68637" lon="1.50401">
        <ele>1787.7087402344</ele>
        <time>2010-07-14T12:23:08Z</time>
      </trkpt>
      <trkpt lat="42.68644" lon="1.50395">
        <ele>1786.2668457031</ele>
        <time>2010-07-14T12:23:18Z</time>
      </trkpt>
      <trkpt lat="42.68649" lon="1.5039">
        <ele>1785.3054199219</ele>
        <time>2010-07-14T12:23:24Z</time>
      </trkpt>
      <trkpt lat="42.68657" lon="1.50384">
        <ele>1783.8635253906</ele>
        <time>2010-07-14T12:23:30Z</time>
      </trkpt>
      <trkpt lat="42.68664" lon="1.50382">
        <ele>1782.9020996094</ele>
        <time>2010-07-14T12:23:36Z</time>
      </trkpt>
      <trkpt lat="42.68666" lon="1.5038">
        <ele>1781.9409179688</ele>
        <time>2010-07-14T12:23:41Z</time>
      </trkpt>
      <trkpt lat="42.68671" lon="1.50377">
        <ele>1781.4602050781</ele>
        <time>2010-07-14T12:23:45Z</time>
      </trkpt>
      <trkpt lat="42.68679" lon="1.50372">
        <ele>1779.0568847656</ele>
        <time>2010-07-14T12:23:51Z</time>
      </trkpt>
      <trkpt lat="42.68689" lon="1.50367">
        <ele>1778.095703125</ele>
        <time>2010-07-14T12:23:57Z</time>
      </trkpt>
      <trkpt lat="42.68691" lon="1.50366">
        <ele>1777.6149902344</ele>
        <time>2010-07-14T12:24:02Z</time>
      </trkpt>
      <trkpt lat="42.68692" lon="1.50365">
        <ele>1778.095703125</ele>
        <time>2010-07-14T12:24:03Z</time>
      </trkpt>
      <trkpt lat="42.687" lon="1.50362">
        <ele>1777.1345214844</ele>
        <time>2010-07-14T12:24:09Z</time>
      </trkpt>
      <trkpt lat="42.6871" lon="1.50359">
        <ele>1777.1345214844</ele>
        <time>2010-07-14T12:24:16Z</time>
      </trkpt>
      <trkpt lat="42.68714" lon="1.50358">
        <ele>1775.6923828125</ele>
        <time>2010-07-14T12:24:22Z</time>
      </trkpt>
      <trkpt lat="42.68719" lon="1.50356">
        <ele>1772.80859375</ele>
        <time>2010-07-14T12:24:29Z</time>
      </trkpt>
      <trkpt lat="42.68724" lon="1.50353">
        <ele>1772.80859375</ele>
        <time>2010-07-14T12:24:35Z</time>
      </trkpt>
      <trkpt lat="42.68727" lon="1.50351">
        <ele>1772.80859375</ele>
        <time>2010-07-14T12:24:37Z</time>
      </trkpt>
      <trkpt lat="42.68734" lon="1.50347">
        <ele>1774.2504882812</ele>
        <time>2010-07-14T12:24:43Z</time>
      </trkpt>
      <trkpt lat="42.68735" lon="1.50347">
        <ele>1774.7312011719</ele>
        <time>2010-07-14T12:24:44Z</time>
      </trkpt>
      <trkpt lat="42.68736" lon="1.50343">
        <ele>1774.7312011719</ele>
        <time>2010-07-14T12:24:50Z</time>
      </trkpt>
      <trkpt lat="42.68743" lon="1.50337">
        <ele>1773.7697753906</ele>
        <time>2010-07-14T12:24:56Z</time>
      </trkpt>
      <trkpt lat="42.68748" lon="1.50334">
        <ele>1771.8469238281</ele>
        <time>2010-07-14T12:25:01Z</time>
      </trkpt>
      <trkpt lat="42.68754" lon="1.5033">
        <ele>1771.3662109375</ele>
        <time>2010-07-14T12:25:07Z</time>
      </trkpt>
      <trkpt lat="42.68763" lon="1.50327">
        <ele>1768.0017089844</ele>
        <time>2010-07-14T12:25:14Z</time>
      </trkpt>
      <trkpt lat="42.68768" lon="1.50326">
        <ele>1766.0791015625</ele>
        <time>2010-07-14T12:25:18Z</time>
      </trkpt>
      <trkpt lat="42.68776" lon="1.50323">
        <ele>1764.1564941406</ele>
        <time>2010-07-14T12:25:25Z</time>
      </trkpt>
      <trkpt lat="42.68782" lon="1.50321">
        <ele>1763.67578125</ele>
        <time>2010-07-14T12:25:31Z</time>
      </trkpt>
      <trkpt lat="42.68789" lon="1.50321">
        <ele>1764.6372070312</ele>
        <time>2010-07-14T12:25:38Z</time>
      </trkpt>
      <trkpt lat="42.68795" lon="1.50316">
        <ele>1768.482421875</ele>
        <time>2010-07-14T12:25:45Z</time>
      </trkpt>
      <trkpt lat="42.68797" lon="1.50313">
        <ele>1768.9631347656</ele>
        <time>2010-07-14T12:25:51Z</time>
      </trkpt>
      <trkpt lat="42.68797" lon="1.50313">
        <ele>1768.9631347656</ele>
        <time>2010-07-14T12:25:52Z</time>
      </trkpt>
      <trkpt lat="42.68804" lon="1.50312">
        <ele>1768.482421875</ele>
        <time>2010-07-14T12:25:57Z</time>
      </trkpt>
      <trkpt lat="42.6881" lon="1.50314">
        <ele>1768.9631347656</ele>
        <time>2010-07-14T12:26:02Z</time>
      </trkpt>
      <trkpt lat="42.68817" lon="1.5031">
        <ele>1768.9631347656</ele>
        <time>2010-07-14T12:26:10Z</time>
      </trkpt>
      <trkpt lat="42.6882" lon="1.50307">
        <ele>1768.0017089844</ele>
        <time>2010-07-14T12:26:16Z</time>
      </trkpt>
      <trkpt lat="42.68826" lon="1.50303">
        <ele>1765.1179199219</ele>
        <time>2010-07-14T12:26:21Z</time>
      </trkpt>
      <trkpt lat="42.68833" lon="1.50298">
        <ele>1763.1953125</ele>
        <time>2010-07-14T12:26:27Z</time>
      </trkpt>
      <trkpt lat="42.68834" lon="1.50297">
        <ele>1763.1953125</ele>
        <time>2010-07-14T12:26:28Z</time>
      </trkpt>
      <trkpt lat="42.68842" lon="1.50288">
        <ele>1761.2727050781</ele>
        <time>2010-07-14T12:26:36Z</time>
      </trkpt>
      <trkpt lat="42.68848" lon="1.50285">
        <ele>1759.3500976562</ele>
        <time>2010-07-14T12:26:42Z</time>
      </trkpt>
      <trkpt lat="42.68849" lon="1.50284">
        <ele>1759.3500976562</ele>
        <time>2010-07-14T12:26:43Z</time>
      </trkpt>
      <trkpt lat="42.68855" lon="1.50279">
        <ele>1756.9467773438</ele>
        <time>2010-07-14T12:26:48Z</time>
      </trkpt>
      <trkpt lat="42.68858" lon="1.50277">
        <ele>1755.5046386719</ele>
        <time>2010-07-14T12:26:51Z</time>
      </trkpt>
      <trkpt lat="42.68866" lon="1.50274">
        <ele>1752.6206054688</ele>
        <time>2010-07-14T12:26:57Z</time>
      </trkpt>
      <trkpt lat="42.6887" lon="1.50273">
        <ele>1752.1398925781</ele>
        <time>2010-07-14T12:27:02Z</time>
      </trkpt>
      <trkpt lat="42.68871" lon="1.50271">
        <ele>1752.1398925781</ele>
        <time>2010-07-14T12:27:03Z</time>
      </trkpt>
      <trkpt lat="42.68874" lon="1.50262">
        <ele>1753.58203125</ele>
        <time>2010-07-14T12:27:10Z</time>
      </trkpt>
      <trkpt lat="42.68877" lon="1.50258">
        <ele>1754.0627441406</ele>
        <time>2010-07-14T12:27:14Z</time>
      </trkpt>
      <trkpt lat="42.6888" lon="1.50252">
        <ele>1755.0239257812</ele>
        <time>2010-07-14T12:27:19Z</time>
      </trkpt>
      <trkpt lat="42.68882" lon="1.5025">
        <ele>1754.5432128906</ele>
        <time>2010-07-14T12:27:21Z</time>
      </trkpt>
      <trkpt lat="42.68885" lon="1.50248">
        <ele>1754.0627441406</ele>
        <time>2010-07-14T12:27:24Z</time>
      </trkpt>
      <trkpt lat="42.68891" lon="1.50243">
        <ele>1754.0627441406</ele>
        <time>2010-07-14T12:27:32Z</time>
      </trkpt>
      <trkpt lat="42.68891" lon="1.50243">
        <ele>1754.0627441406</ele>
        <time>2010-07-14T12:27:43Z</time>
      </trkpt>
      <trkpt lat="42.68892" lon="1.50241">
        <ele>1756.4660644531</ele>
        <time>2010-07-14T12:28:33Z</time>
      </trkpt>
      <trkpt lat="42.68892" lon="1.5024">
        <ele>1755.0239257812</ele>
        <time>2010-07-14T12:28:40Z</time>
      </trkpt>
      <trkpt lat="42.68895" lon="1.50236">
        <ele>1754.5432128906</ele>
        <time>2010-07-14T12:28:44Z</time>
      </trkpt>
      <trkpt lat="42.68898" lon="1.50234">
        <ele>1752.6206054688</ele>
        <time>2010-07-14T12:28:50Z</time>
      </trkpt>
      <trkpt lat="42.68901" lon="1.50232">
        <ele>1751.1787109375</ele>
        <time>2010-07-14T12:28:55Z</time>
      </trkpt>
      <trkpt lat="42.68903" lon="1.50234">
        <ele>1750.2175292969</ele>
        <time>2010-07-14T12:29:00Z</time>
      </trkpt>
      <trkpt lat="42.68905" lon="1.50232">
        <ele>1748.2946777344</ele>
        <time>2010-07-14T12:29:04Z</time>
      </trkpt>
      <trkpt lat="42.68906" lon="1.50229">
        <ele>1745.8916015625</ele>
        <time>2010-07-14T12:29:10Z</time>
      </trkpt>
      <trkpt lat="42.68908" lon="1.50226">
        <ele>1743.9689941406</ele>
        <time>2010-07-14T12:29:16Z</time>
      </trkpt>
      <trkpt lat="42.68906" lon="1.5022">
        <ele>1741.0849609375</ele>
        <time>2010-07-14T12:29:22Z</time>
      </trkpt>
      <trkpt lat="42.68912" lon="1.50218">
        <ele>1738.681640625</ele>
        <time>2010-07-14T12:29:27Z</time>
      </trkpt>
      <trkpt lat="42.68913" lon="1.50218">
        <ele>1738.681640625</ele>
        <time>2010-07-14T12:29:28Z</time>
      </trkpt>
      <trkpt lat="42.68917" lon="1.50217">
        <ele>1736.7587890625</ele>
        <time>2010-07-14T12:29:33Z</time>
      </trkpt>
      <trkpt lat="42.68921" lon="1.50214">
        <ele>1734.3557128906</ele>
        <time>2010-07-14T12:29:40Z</time>
      </trkpt>
      <trkpt lat="42.68925" lon="1.50212">
        <ele>1733.3942871094</ele>
        <time>2010-07-14T12:29:46Z</time>
      </trkpt>
      <trkpt lat="42.6893" lon="1.5021">
        <ele>1732.4331054688</ele>
        <time>2010-07-14T12:29:51Z</time>
      </trkpt>
      <trkpt lat="42.68934" lon="1.50207">
        <ele>1730.9912109375</ele>
        <time>2010-07-14T12:29:56Z</time>
      </trkpt>
      <trkpt lat="42.6894" lon="1.50204">
        <ele>1731.4716796875</ele>
        <time>2010-07-14T12:30:02Z</time>
      </trkpt>
      <trkpt lat="42.68943" lon="1.50201">
        <ele>1731.4716796875</ele>
        <time>2010-07-14T12:30:08Z</time>
      </trkpt>
      <trkpt lat="42.68946" lon="1.50196">
        <ele>1730.9912109375</ele>
        <time>2010-07-14T12:30:12Z</time>
      </trkpt>
      <trkpt lat="42.6895" lon="1.50191">
        <ele>1730.5104980469</ele>
        <time>2010-07-14T12:30:17Z</time>
      </trkpt>
      <trkpt lat="42.68951" lon="1.50191">
        <ele>1730.5104980469</ele>
        <time>2010-07-14T12:30:18Z</time>
      </trkpt>
      <trkpt lat="42.68956" lon="1.50189">
        <ele>1729.068359375</ele>
        <time>2010-07-14T12:30:25Z</time>
      </trkpt>
      <trkpt lat="42.6896" lon="1.50183">
        <ele>1729.5490722656</ele>
        <time>2010-07-14T12:30:31Z</time>
      </trkpt>
      <trkpt lat="42.68964" lon="1.50181">
        <ele>1730.5104980469</ele>
        <time>2010-07-14T12:30:36Z</time>
      </trkpt>
      <trkpt lat="42.68967" lon="1.5018">
        <ele>1729.5490722656</ele>
        <time>2010-07-14T12:30:41Z</time>
      </trkpt>
      <trkpt lat="42.68969" lon="1.50177">
        <ele>1729.068359375</ele>
        <time>2010-07-14T12:30:46Z</time>
      </trkpt>
      <trkpt lat="42.68974" lon="1.50177">
        <ele>1728.1071777344</ele>
        <time>2010-07-14T12:30:52Z</time>
      </trkpt>
      <trkpt lat="42.68976" lon="1.50174">
        <ele>1729.5490722656</ele>
        <time>2010-07-14T12:30:58Z</time>
      </trkpt>
      <trkpt lat="42.68979" lon="1.5017">
        <ele>1729.068359375</ele>
        <time>2010-07-14T12:31:04Z</time>
      </trkpt>
      <trkpt lat="42.6898" lon="1.50164">
        <ele>1729.068359375</ele>
        <time>2010-07-14T12:31:10Z</time>
      </trkpt>
      <trkpt lat="42.6898" lon="1.50159">
        <ele>1727.6264648438</ele>
        <time>2010-07-14T12:31:17Z</time>
      </trkpt>
      <trkpt lat="42.6898" lon="1.50157">
        <ele>1727.1459960938</ele>
        <time>2010-07-14T12:31:18Z</time>
      </trkpt>
      <trkpt lat="42.68985" lon="1.50147">
        <ele>1725.2231445312</ele>
        <time>2010-07-14T12:31:25Z</time>
      </trkpt>
      <trkpt lat="42.68991" lon="1.5014">
        <ele>1724.2619628906</ele>
        <time>2010-07-14T12:31:31Z</time>
      </trkpt>
      <trkpt lat="42.68998" lon="1.50133">
        <ele>1723.7810058594</ele>
        <time>2010-07-14T12:31:37Z</time>
      </trkpt>
      <trkpt lat="42.69004" lon="1.50129">
        <ele>1722.3391113281</ele>
        <time>2010-07-14T12:31:42Z</time>
      </trkpt>
      <trkpt lat="42.69011" lon="1.50123">
        <ele>1721.3776855469</ele>
        <time>2010-07-14T12:31:48Z</time>
      </trkpt>
      <trkpt lat="42.69018" lon="1.50115">
        <ele>1719.4553222656</ele>
        <time>2010-07-14T12:31:55Z</time>
      </trkpt>
      <trkpt lat="42.6902" lon="1.50113">
        <ele>1718.974609375</ele>
        <time>2010-07-14T12:31:57Z</time>
      </trkpt>
      <trkpt lat="42.69022" lon="1.50112">
        <ele>1718.974609375</ele>
        <time>2010-07-14T12:31:59Z</time>
      </trkpt>
      <trkpt lat="42.69027" lon="1.50108">
        <ele>1716.5712890625</ele>
        <time>2010-07-14T12:32:05Z</time>
      </trkpt>
      <trkpt lat="42.69028" lon="1.50107">
        <ele>1716.5712890625</ele>
        <time>2010-07-14T12:32:06Z</time>
      </trkpt>
      <trkpt lat="42.69038" lon="1.501">
        <ele>1716.5712890625</ele>
        <time>2010-07-14T12:32:15Z</time>
      </trkpt>
      <trkpt lat="42.69046" lon="1.50096">
        <ele>1716.5712890625</ele>
        <time>2010-07-14T12:32:22Z</time>
      </trkpt>
      <trkpt lat="42.69054" lon="1.50093">
        <ele>1716.5712890625</ele>
        <time>2010-07-14T12:32:29Z</time>
      </trkpt>
      <trkpt lat="42.69061" lon="1.50088">
        <ele>1717.0520019531</ele>
        <time>2010-07-14T12:32:35Z</time>
      </trkpt>
      <trkpt lat="42.69071" lon="1.50084">
        <ele>1716.0905761719</ele>
        <time>2010-07-14T12:32:44Z</time>
      </trkpt>
      <trkpt lat="42.69076" lon="1.50079">
        <ele>1715.1293945312</ele>
        <time>2010-07-14T12:32:50Z</time>
      </trkpt>
      <trkpt lat="42.69078" lon="1.50077">
        <ele>1715.1293945312</ele>
        <time>2010-07-14T12:32:55Z</time>
      </trkpt>
      <trkpt lat="42.69079" lon="1.50076">
        <ele>1714.16796875</ele>
        <time>2010-07-14T12:33:13Z</time>
      </trkpt>
      <trkpt lat="42.69086" lon="1.50076">
        <ele>1711.7648925781</ele>
        <time>2010-07-14T12:33:21Z</time>
      </trkpt>
      <trkpt lat="42.69088" lon="1.50077">
        <ele>1709.8420410156</ele>
        <time>2010-07-14T12:33:28Z</time>
      </trkpt>
      <trkpt lat="42.69093" lon="1.50075">
        <ele>1707.4387207031</ele>
        <time>2010-07-14T12:33:33Z</time>
      </trkpt>
      <trkpt lat="42.69094" lon="1.50071">
        <ele>1705.0354003906</ele>
        <time>2010-07-14T12:33:38Z</time>
      </trkpt>
      <trkpt lat="42.69099" lon="1.50068">
        <ele>1703.5935058594</ele>
        <time>2010-07-14T12:33:43Z</time>
      </trkpt>
      <trkpt lat="42.69104" lon="1.50065">
        <ele>1701.6708984375</ele>
        <time>2010-07-14T12:33:48Z</time>
      </trkpt>
      <trkpt lat="42.69112" lon="1.50062">
        <ele>1701.1901855469</ele>
        <time>2010-07-14T12:33:55Z</time>
      </trkpt>
      <trkpt lat="42.69115" lon="1.50059">
        <ele>1702.1513671875</ele>
        <time>2010-07-14T12:34:01Z</time>
      </trkpt>
      <trkpt lat="42.69121" lon="1.50054">
        <ele>1703.1127929688</ele>
        <time>2010-07-14T12:34:09Z</time>
      </trkpt>
      <trkpt lat="42.69128" lon="1.50048">
        <ele>1701.1901855469</ele>
        <time>2010-07-14T12:34:17Z</time>
      </trkpt>
      <trkpt lat="42.69135" lon="1.50042">
        <ele>1699.267578125</ele>
        <time>2010-07-14T12:34:25Z</time>
      </trkpt>
      <trkpt lat="42.69136" lon="1.50041">
        <ele>1699.267578125</ele>
        <time>2010-07-14T12:34:26Z</time>
      </trkpt>
      <trkpt lat="42.69141" lon="1.50039">
        <ele>1698.3061523438</ele>
        <time>2010-07-14T12:34:31Z</time>
      </trkpt>
      <trkpt lat="42.69143" lon="1.50041">
        <ele>1698.7868652344</ele>
        <time>2010-07-14T12:34:33Z</time>
      </trkpt>
      <trkpt lat="42.69146" lon="1.50041">
        <ele>1699.7482910156</ele>
        <time>2010-07-14T12:34:38Z</time>
      </trkpt>
      <trkpt lat="42.69151" lon="1.5004">
        <ele>1699.267578125</ele>
        <time>2010-07-14T12:34:42Z</time>
      </trkpt>
      <trkpt lat="42.69162" lon="1.50037">
        <ele>1696.8642578125</ele>
        <time>2010-07-14T12:34:49Z</time>
      </trkpt>
      <trkpt lat="42.69169" lon="1.50033">
        <ele>1694.4609375</ele>
        <time>2010-07-14T12:34:55Z</time>
      </trkpt>
      <trkpt lat="42.69178" lon="1.50031">
        <ele>1691.0961914062</ele>
        <time>2010-07-14T12:35:02Z</time>
      </trkpt>
      <trkpt lat="42.69185" lon="1.50028">
        <ele>1690.1350097656</ele>
        <time>2010-07-14T12:35:09Z</time>
      </trkpt>
      <trkpt lat="42.69195" lon="1.5002">
        <ele>1691.5769042969</ele>
        <time>2010-07-14T12:35:18Z</time>
      </trkpt>
      <trkpt lat="42.69204" lon="1.50014">
        <ele>1686.7702636719</ele>
        <time>2010-07-14T12:35:27Z</time>
      </trkpt>
      <trkpt lat="42.69209" lon="1.50011">
        <ele>1687.2509765625</ele>
        <time>2010-07-14T12:35:32Z</time>
      </trkpt>
      <trkpt lat="42.69214" lon="1.50008">
        <ele>1692.5385742188</ele>
        <time>2010-07-14T12:35:38Z</time>
      </trkpt>
      <trkpt lat="42.69217" lon="1.50005">
        <ele>1692.0578613281</ele>
        <time>2010-07-14T12:35:42Z</time>
      </trkpt>
      <trkpt lat="42.69223" lon="1.50003">
        <ele>1691.0961914062</ele>
        <time>2010-07-14T12:35:46Z</time>
      </trkpt>
      <trkpt lat="42.69229" lon="1.50001">
        <ele>1688.2124023438</ele>
        <time>2010-07-14T12:35:52Z</time>
      </trkpt>
      <trkpt lat="42.69231" lon="1.49998">
        <ele>1687.7316894531</ele>
        <time>2010-07-14T12:35:56Z</time>
      </trkpt>
      <trkpt lat="42.69235" lon="1.49994">
        <ele>1683.4057617188</ele>
        <time>2010-07-14T12:36:00Z</time>
      </trkpt>
      <trkpt lat="42.69235" lon="1.49991">
        <ele>1684.3671875</ele>
        <time>2010-07-14T12:36:02Z</time>
      </trkpt>
      <trkpt lat="42.69238" lon="1.49986">
        <ele>1682.9250488281</ele>
        <time>2010-07-14T12:36:06Z</time>
      </trkpt>
      <trkpt lat="42.69242" lon="1.49978">
        <ele>1682.4445800781</ele>
        <time>2010-07-14T12:36:13Z</time>
      </trkpt>
      <trkpt lat="42.69245" lon="1.49971">
        <ele>1682.4445800781</ele>
        <time>2010-07-14T12:36:18Z</time>
      </trkpt>
      <trkpt lat="42.69247" lon="1.49961">
        <ele>1690.1350097656</ele>
        <time>2010-07-14T12:36:25Z</time>
      </trkpt>
      <trkpt lat="42.6925" lon="1.49953">
        <ele>1684.8479003906</ele>
        <time>2010-07-14T12:36:31Z</time>
      </trkpt>
      <trkpt lat="42.69252" lon="1.49943">
        <ele>1681.0026855469</ele>
        <time>2010-07-14T12:36:37Z</time>
      </trkpt>
      <trkpt lat="42.69255" lon="1.4993">
        <ele>1679.0798339844</ele>
        <time>2010-07-14T12:36:45Z</time>
      </trkpt>
      <trkpt lat="42.69259" lon="1.49919">
        <ele>1677.1574707031</ele>
        <time>2010-07-14T12:36:52Z</time>
      </trkpt>
      <trkpt lat="42.69259" lon="1.49908">
        <ele>1679.560546875</ele>
        <time>2010-07-14T12:36:59Z</time>
      </trkpt>
      <trkpt lat="42.69258" lon="1.499">
        <ele>1681.4831542969</ele>
        <time>2010-07-14T12:37:07Z</time>
      </trkpt>
      <trkpt lat="42.69262" lon="1.49892">
        <ele>1679.560546875</ele>
        <time>2010-07-14T12:37:13Z</time>
      </trkpt>
      <trkpt lat="42.69267" lon="1.49887">
        <ele>1679.560546875</ele>
        <time>2010-07-14T12:37:18Z</time>
      </trkpt>
      <trkpt lat="42.69269" lon="1.49884">
        <ele>1679.0798339844</ele>
        <time>2010-07-14T12:37:21Z</time>
      </trkpt>
      <trkpt lat="42.69272" lon="1.49883">
        <ele>1679.560546875</ele>
        <time>2010-07-14T12:37:27Z</time>
      </trkpt>
      <trkpt lat="42.69276" lon="1.49883">
        <ele>1680.0412597656</ele>
        <time>2010-07-14T12:37:34Z</time>
      </trkpt>
      <trkpt lat="42.69282" lon="1.49884">
        <ele>1679.0798339844</ele>
        <time>2010-07-14T12:37:40Z</time>
      </trkpt>
      <trkpt lat="42.69283" lon="1.49885">
        <ele>1679.0798339844</ele>
        <time>2010-07-14T12:37:41Z</time>
      </trkpt>
      <trkpt lat="42.69291" lon="1.49887">
        <ele>1678.1186523438</ele>
        <time>2010-07-14T12:37:48Z</time>
      </trkpt>
      <trkpt lat="42.69293" lon="1.49887">
        <ele>1678.1186523438</ele>
        <time>2010-07-14T12:37:50Z</time>
      </trkpt>
      <trkpt lat="42.69299" lon="1.49889">
        <ele>1678.5993652344</ele>
        <time>2010-07-14T12:37:54Z</time>
      </trkpt>
      <trkpt lat="42.693" lon="1.49889">
        <ele>1680.0412597656</ele>
        <time>2010-07-14T12:37:56Z</time>
      </trkpt>
      <trkpt lat="42.69308" lon="1.49886">
        <ele>1681.0026855469</ele>
        <time>2010-07-14T12:38:02Z</time>
      </trkpt>
      <trkpt lat="42.69309" lon="1.49884">
        <ele>1680.5219726562</ele>
        <time>2010-07-14T12:38:04Z</time>
      </trkpt>
      <trkpt lat="42.69314" lon="1.4988">
        <ele>1679.560546875</ele>
        <time>2010-07-14T12:38:09Z</time>
      </trkpt>
      <trkpt lat="42.69318" lon="1.4988">
        <ele>1678.5993652344</ele>
        <time>2010-07-14T12:38:12Z</time>
      </trkpt>
      <trkpt lat="42.69324" lon="1.49876">
        <ele>1676.6767578125</ele>
        <time>2010-07-14T12:38:17Z</time>
      </trkpt>
      <trkpt lat="42.6933" lon="1.49875">
        <ele>1674.75390625</ele>
        <time>2010-07-14T12:38:22Z</time>
      </trkpt>
      <trkpt lat="42.69331" lon="1.49871">
        <ele>1674.2731933594</ele>
        <time>2010-07-14T12:38:26Z</time>
      </trkpt>
      <trkpt lat="42.69333" lon="1.49872">
        <ele>1672.8312988281</ele>
        <time>2010-07-14T12:38:30Z</time>
      </trkpt>
      <trkpt lat="42.6934" lon="1.4987">
        <ele>1669.947265625</ele>
        <time>2010-07-14T12:38:36Z</time>
      </trkpt>
      <trkpt lat="42.69344" lon="1.49869">
        <ele>1668.9860839844</ele>
        <time>2010-07-14T12:38:39Z</time>
      </trkpt>
      <trkpt lat="42.6935" lon="1.49866">
        <ele>1669.947265625</ele>
        <time>2010-07-14T12:38:44Z</time>
      </trkpt>
      <trkpt lat="42.69355" lon="1.49863">
        <ele>1671.3891601562</ele>
        <time>2010-07-14T12:38:48Z</time>
      </trkpt>
      <trkpt lat="42.69361" lon="1.4986">
        <ele>1671.3891601562</ele>
        <time>2010-07-14T12:38:53Z</time>
      </trkpt>
      <trkpt lat="42.69366" lon="1.49859">
        <ele>1669.466796875</ele>
        <time>2010-07-14T12:38:57Z</time>
      </trkpt>
      <trkpt lat="42.6937" lon="1.49858">
        <ele>1668.0246582031</ele>
        <time>2010-07-14T12:39:00Z</time>
      </trkpt>
      <trkpt lat="42.69376" lon="1.49854">
        <ele>1668.0246582031</ele>
        <time>2010-07-14T12:39:05Z</time>
      </trkpt>
      <trkpt lat="42.69378" lon="1.49849">
        <ele>1667.5439453125</ele>
        <time>2010-07-14T12:39:10Z</time>
      </trkpt>
      <trkpt lat="42.69378" lon="1.49849">
        <ele>1667.0634765625</ele>
        <time>2010-07-14T12:39:11Z</time>
      </trkpt>
      <trkpt lat="42.69384" lon="1.49847">
        <ele>1666.5827636719</ele>
        <time>2010-07-14T12:39:18Z</time>
      </trkpt>
      <trkpt lat="42.69388" lon="1.49847">
        <ele>1666.1020507812</ele>
        <time>2010-07-14T12:39:24Z</time>
      </trkpt>
      <trkpt lat="42.69394" lon="1.49845">
        <ele>1666.1020507812</ele>
        <time>2010-07-14T12:39:29Z</time>
      </trkpt>
      <trkpt lat="42.69395" lon="1.49845">
        <ele>1665.6215820312</ele>
        <time>2010-07-14T12:39:31Z</time>
      </trkpt>
      <trkpt lat="42.69403" lon="1.49846">
        <ele>1665.6215820312</ele>
        <time>2010-07-14T12:39:38Z</time>
      </trkpt>
      <trkpt lat="42.69408" lon="1.49847">
        <ele>1664.66015625</ele>
        <time>2010-07-14T12:39:43Z</time>
      </trkpt>
      <trkpt lat="42.69413" lon="1.49846">
        <ele>1668.9860839844</ele>
        <time>2010-07-14T12:39:49Z</time>
      </trkpt>
      <trkpt lat="42.69415" lon="1.49842">
        <ele>1669.466796875</ele>
        <time>2010-07-14T12:39:53Z</time>
      </trkpt>
      <trkpt lat="42.69416" lon="1.49839">
        <ele>1669.466796875</ele>
        <time>2010-07-14T12:39:55Z</time>
      </trkpt>
      <trkpt lat="42.69422" lon="1.49833">
        <ele>1668.9860839844</ele>
        <time>2010-07-14T12:40:02Z</time>
      </trkpt>
      <trkpt lat="42.69429" lon="1.49829">
        <ele>1667.0634765625</ele>
        <time>2010-07-14T12:40:08Z</time>
      </trkpt>
      <trkpt lat="42.69432" lon="1.49828">
        <ele>1665.6215820312</ele>
        <time>2010-07-14T12:40:11Z</time>
      </trkpt>
      <trkpt lat="42.69435" lon="1.49827">
        <ele>1665.6215820312</ele>
        <time>2010-07-14T12:40:14Z</time>
      </trkpt>
      <trkpt lat="42.69442" lon="1.49824">
        <ele>1663.2182617188</ele>
        <time>2010-07-14T12:40:21Z</time>
      </trkpt>
      <trkpt lat="42.69442" lon="1.49823">
        <ele>1663.2182617188</ele>
        <time>2010-07-14T12:40:22Z</time>
      </trkpt>
      <trkpt lat="42.69448" lon="1.49821">
        <ele>1662.7375488281</ele>
        <time>2010-07-14T12:40:27Z</time>
      </trkpt>
      <trkpt lat="42.69452" lon="1.49819">
        <ele>1661.2956542969</ele>
        <time>2010-07-14T12:40:32Z</time>
      </trkpt>
      <trkpt lat="42.69459" lon="1.49818">
        <ele>1660.8149414062</ele>
        <time>2010-07-14T12:40:39Z</time>
      </trkpt>
      <trkpt lat="42.69463" lon="1.49817">
        <ele>1659.8532714844</ele>
        <time>2010-07-14T12:40:44Z</time>
      </trkpt>
      <trkpt lat="42.69467" lon="1.49818">
        <ele>1658.8920898438</ele>
        <time>2010-07-14T12:40:49Z</time>
      </trkpt>
      <trkpt lat="42.69472" lon="1.49814">
        <ele>1657.9309082031</ele>
        <time>2010-07-14T12:40:53Z</time>
      </trkpt>
      <trkpt lat="42.69477" lon="1.4981">
        <ele>1659.8532714844</ele>
        <time>2010-07-14T12:40:58Z</time>
      </trkpt>
      <trkpt lat="42.69478" lon="1.49809">
        <ele>1657.4501953125</ele>
        <time>2010-07-14T12:41:04Z</time>
      </trkpt>
      <trkpt lat="42.69482" lon="1.49807">
        <ele>1656.4887695312</ele>
        <time>2010-07-14T12:41:20Z</time>
      </trkpt>
      <trkpt lat="42.69485" lon="1.49807">
        <ele>1659.3728027344</ele>
        <time>2010-07-14T12:41:24Z</time>
      </trkpt>
      <trkpt lat="42.69487" lon="1.49806">
        <ele>1663.2182617188</ele>
        <time>2010-07-14T12:41:28Z</time>
      </trkpt>
      <trkpt lat="42.69489" lon="1.49808">
        <ele>1671.3891601562</ele>
        <time>2010-07-14T12:41:33Z</time>
      </trkpt>
      <trkpt lat="42.69489" lon="1.49806">
        <ele>1686.7702636719</ele>
        <time>2010-07-14T12:41:40Z</time>
      </trkpt>
      <trkpt lat="42.69486" lon="1.49803">
        <ele>1698.7868652344</ele>
        <time>2010-07-14T12:41:44Z</time>
      </trkpt>
      <trkpt lat="42.69498" lon="1.49803">
        <ele>1682.9250488281</ele>
        <time>2010-07-14T12:41:50Z</time>
      </trkpt>
      <trkpt lat="42.69503" lon="1.49802">
        <ele>1675.234375</ele>
        <time>2010-07-14T12:41:52Z</time>
      </trkpt>
      <trkpt lat="42.6951" lon="1.49802">
        <ele>1666.1020507812</ele>
        <time>2010-07-14T12:41:56Z</time>
      </trkpt>
      <trkpt lat="42.69516" lon="1.49802">
        <ele>1659.3728027344</ele>
        <time>2010-07-14T12:42:00Z</time>
      </trkpt>
      <trkpt lat="42.69522" lon="1.498">
        <ele>1654.0856933594</ele>
        <time>2010-07-14T12:42:05Z</time>
      </trkpt>
      <trkpt lat="42.69527" lon="1.49799">
        <ele>1650.7209472656</ele>
        <time>2010-07-14T12:42:10Z</time>
      </trkpt>
      <trkpt lat="42.69531" lon="1.49799">
        <ele>1647.8371582031</ele>
        <time>2010-07-14T12:42:14Z</time>
      </trkpt>
      <trkpt lat="42.69532" lon="1.49799">
        <ele>1647.3564453125</ele>
        <time>2010-07-14T12:42:15Z</time>
      </trkpt>
      <trkpt lat="42.69542" lon="1.49798">
        <ele>1645.4338378906</ele>
        <time>2010-07-14T12:42:22Z</time>
      </trkpt>
      <trkpt lat="42.69548" lon="1.49798">
        <ele>1645.4338378906</ele>
        <time>2010-07-14T12:42:27Z</time>
      </trkpt>
      <trkpt lat="42.69552" lon="1.49795">
        <ele>1645.9145507812</ele>
        <time>2010-07-14T12:42:30Z</time>
      </trkpt>
      <trkpt lat="42.69555" lon="1.49791">
        <ele>1648.3176269531</ele>
        <time>2010-07-14T12:42:35Z</time>
      </trkpt>
      <trkpt lat="42.69556" lon="1.49783">
        <ele>1652.1628417969</ele>
        <time>2010-07-14T12:42:40Z</time>
      </trkpt>
      <trkpt lat="42.69556" lon="1.49779">
        <ele>1655.5275878906</ele>
        <time>2010-07-14T12:42:43Z</time>
      </trkpt>
      <trkpt lat="42.69557" lon="1.49778">
        <ele>1662.7375488281</ele>
        <time>2010-07-14T12:42:47Z</time>
      </trkpt>
      <trkpt lat="42.6956" lon="1.49777">
        <ele>1668.9860839844</ele>
        <time>2010-07-14T12:42:51Z</time>
      </trkpt>
      <trkpt lat="42.69566" lon="1.49775">
        <ele>1679.0798339844</ele>
        <time>2010-07-14T12:42:57Z</time>
      </trkpt>
      <trkpt lat="42.69571" lon="1.49774">
        <ele>1677.6379394531</ele>
        <time>2010-07-14T12:43:01Z</time>
      </trkpt>
      <trkpt lat="42.69576" lon="1.49771">
        <ele>1676.6767578125</ele>
        <time>2010-07-14T12:43:07Z</time>
      </trkpt>
      <trkpt lat="42.69579" lon="1.49768">
        <ele>1678.1186523438</ele>
        <time>2010-07-14T12:43:11Z</time>
      </trkpt>
      <trkpt lat="42.69586" lon="1.49766">
        <ele>1673.7924804688</ele>
        <time>2010-07-14T12:43:15Z</time>
      </trkpt>
      <trkpt lat="42.69595" lon="1.4976">
        <ele>1659.8532714844</ele>
        <time>2010-07-14T12:43:21Z</time>
      </trkpt>
      <trkpt lat="42.69598" lon="1.4976">
        <ele>1654.5661621094</ele>
        <time>2010-07-14T12:43:23Z</time>
      </trkpt>
      <trkpt lat="42.69608" lon="1.49757">
        <ele>1644.4724121094</ele>
        <time>2010-07-14T12:43:29Z</time>
      </trkpt>
      <trkpt lat="42.69611" lon="1.49755">
        <ele>1639.6657714844</ele>
        <time>2010-07-14T12:43:32Z</time>
      </trkpt>
      <trkpt lat="42.6962" lon="1.49751">
        <ele>1632.9365234375</ele>
        <time>2010-07-14T12:43:39Z</time>
      </trkpt>
      <trkpt lat="42.69625" lon="1.49749">
        <ele>1632.4560546875</ele>
        <time>2010-07-14T12:43:43Z</time>
      </trkpt>
      <trkpt lat="42.69632" lon="1.49743">
        <ele>1631.9753417969</ele>
        <time>2010-07-14T12:43:50Z</time>
      </trkpt>
      <trkpt lat="42.69637" lon="1.49742">
        <ele>1629.5720214844</ele>
        <time>2010-07-14T12:43:54Z</time>
      </trkpt>
      <trkpt lat="42.69638" lon="1.49741">
        <ele>1629.0913085938</ele>
        <time>2010-07-14T12:43:56Z</time>
      </trkpt>
      <trkpt lat="42.69642" lon="1.49739">
        <ele>1629.5720214844</ele>
        <time>2010-07-14T12:44:01Z</time>
      </trkpt>
      <trkpt lat="42.69645" lon="1.49738">
        <ele>1628.6108398438</ele>
        <time>2010-07-14T12:44:05Z</time>
      </trkpt>
      <trkpt lat="42.69649" lon="1.49734">
        <ele>1630.5334472656</ele>
        <time>2010-07-14T12:44:09Z</time>
      </trkpt>
      <trkpt lat="42.69656" lon="1.49726">
        <ele>1629.5720214844</ele>
        <time>2010-07-14T12:44:17Z</time>
      </trkpt>
      <trkpt lat="42.69662" lon="1.49725">
        <ele>1630.5334472656</ele>
        <time>2010-07-14T12:44:23Z</time>
      </trkpt>
      <trkpt lat="42.69663" lon="1.49724">
        <ele>1630.5334472656</ele>
        <time>2010-07-14T12:44:24Z</time>
      </trkpt>
      <trkpt lat="42.69671" lon="1.49719">
        <ele>1630.5334472656</ele>
        <time>2010-07-14T12:44:31Z</time>
      </trkpt>
      <trkpt lat="42.69678" lon="1.49717">
        <ele>1631.0141601562</ele>
        <time>2010-07-14T12:44:37Z</time>
      </trkpt>
      <trkpt lat="42.69682" lon="1.49714">
        <ele>1631.0141601562</ele>
        <time>2010-07-14T12:44:41Z</time>
      </trkpt>
      <trkpt lat="42.69686" lon="1.49713">
        <ele>1633.4172363281</ele>
        <time>2010-07-14T12:44:46Z</time>
      </trkpt>
      <trkpt lat="42.6969" lon="1.49711">
        <ele>1634.859375</ele>
        <time>2010-07-14T12:44:51Z</time>
      </trkpt>
      <trkpt lat="42.69696" lon="1.49706">
        <ele>1634.859375</ele>
        <time>2010-07-14T12:44:58Z</time>
      </trkpt>
      <trkpt lat="42.69704" lon="1.49703">
        <ele>1631.0141601562</ele>
        <time>2010-07-14T12:45:04Z</time>
      </trkpt>
      <trkpt lat="42.69711" lon="1.49696">
        <ele>1631.4946289062</ele>
        <time>2010-07-14T12:45:11Z</time>
      </trkpt>
      <trkpt lat="42.69715" lon="1.49692">
        <ele>1631.0141601562</ele>
        <time>2010-07-14T12:45:16Z</time>
      </trkpt>
      <trkpt lat="42.69724" lon="1.49684">
        <ele>1626.2072753906</ele>
        <time>2010-07-14T12:45:23Z</time>
      </trkpt>
      <trkpt lat="42.69728" lon="1.49682">
        <ele>1624.2846679688</ele>
        <time>2010-07-14T12:45:26Z</time>
      </trkpt>
      <trkpt lat="42.69733" lon="1.49676">
        <ele>1623.8039550781</ele>
        <time>2010-07-14T12:45:33Z</time>
      </trkpt>
      <trkpt lat="42.69737" lon="1.49673">
        <ele>1623.3234863281</ele>
        <time>2010-07-14T12:45:37Z</time>
      </trkpt>
      <trkpt lat="42.69745" lon="1.4967">
        <ele>1623.3234863281</ele>
        <time>2010-07-14T12:45:43Z</time>
      </trkpt>
      <trkpt lat="42.69749" lon="1.49665">
        <ele>1621.4006347656</ele>
        <time>2010-07-14T12:45:47Z</time>
      </trkpt>
      <trkpt lat="42.69751" lon="1.49664">
        <ele>1621.8813476562</ele>
        <time>2010-07-14T12:45:49Z</time>
      </trkpt>
      <trkpt lat="42.69754" lon="1.49661">
        <ele>1620.9201660156</ele>
        <time>2010-07-14T12:45:52Z</time>
      </trkpt>
      <trkpt lat="42.69759" lon="1.4966">
        <ele>1619.4782714844</ele>
        <time>2010-07-14T12:45:55Z</time>
      </trkpt>
      <trkpt lat="42.69767" lon="1.49659">
        <ele>1616.5942382812</ele>
        <time>2010-07-14T12:46:00Z</time>
      </trkpt>
      <trkpt lat="42.69773" lon="1.49655">
        <ele>1614.1909179688</ele>
        <time>2010-07-14T12:46:06Z</time>
      </trkpt>
      <trkpt lat="42.69775" lon="1.49655">
        <ele>1614.1909179688</ele>
        <time>2010-07-14T12:46:07Z</time>
      </trkpt>
      <trkpt lat="42.6978" lon="1.49654">
        <ele>1613.7102050781</ele>
        <time>2010-07-14T12:46:11Z</time>
      </trkpt>
      <trkpt lat="42.69783" lon="1.49654">
        <ele>1613.7102050781</ele>
        <time>2010-07-14T12:46:14Z</time>
      </trkpt>
      <trkpt lat="42.69787" lon="1.49652">
        <ele>1613.2297363281</ele>
        <time>2010-07-14T12:46:19Z</time>
      </trkpt>
      <trkpt lat="42.69792" lon="1.4965">
        <ele>1613.7102050781</ele>
        <time>2010-07-14T12:46:24Z</time>
      </trkpt>
      <trkpt lat="42.69802" lon="1.49651">
        <ele>1611.3068847656</ele>
        <time>2010-07-14T12:46:29Z</time>
      </trkpt>
      <trkpt lat="42.69809" lon="1.49653">
        <ele>1611.7875976562</ele>
        <time>2010-07-14T12:46:34Z</time>
      </trkpt>
      <trkpt lat="42.69815" lon="1.49654">
        <ele>1612.2683105469</ele>
        <time>2010-07-14T12:46:37Z</time>
      </trkpt>
      <trkpt lat="42.69817" lon="1.49655">
        <ele>1612.7490234375</ele>
        <time>2010-07-14T12:46:39Z</time>
      </trkpt>
      <trkpt lat="42.6982" lon="1.4966">
        <ele>1612.2683105469</ele>
        <time>2010-07-14T12:46:44Z</time>
      </trkpt>
      <trkpt lat="42.69824" lon="1.49663">
        <ele>1612.7490234375</ele>
        <time>2010-07-14T12:46:49Z</time>
      </trkpt>
      <trkpt lat="42.69825" lon="1.49666">
        <ele>1612.7490234375</ele>
        <time>2010-07-14T12:46:53Z</time>
      </trkpt>
      <trkpt lat="42.69828" lon="1.49665">
        <ele>1613.2297363281</ele>
        <time>2010-07-14T12:46:56Z</time>
      </trkpt>
      <trkpt lat="42.69832" lon="1.49666">
        <ele>1611.3068847656</ele>
        <time>2010-07-14T12:47:00Z</time>
      </trkpt>
      <trkpt lat="42.69831" lon="1.49672">
        <ele>1611.3068847656</ele>
        <time>2010-07-14T12:47:04Z</time>
      </trkpt>
      <trkpt lat="42.69832" lon="1.49676">
        <ele>1610.3454589844</ele>
        <time>2010-07-14T12:47:07Z</time>
      </trkpt>
      <trkpt lat="42.69838" lon="1.49678">
        <ele>1607.9423828125</ele>
        <time>2010-07-14T12:47:12Z</time>
      </trkpt>
      <trkpt lat="42.69839" lon="1.49678">
        <ele>1607.4616699219</ele>
        <time>2010-07-14T12:47:13Z</time>
      </trkpt>
      <trkpt lat="42.69842" lon="1.49677">
        <ele>1606.01953125</ele>
        <time>2010-07-14T12:47:17Z</time>
      </trkpt>
      <trkpt lat="42.69847" lon="1.49675">
        <ele>1604.0971679688</ele>
        <time>2010-07-14T12:47:21Z</time>
      </trkpt>
      <trkpt lat="42.69852" lon="1.49674">
        <ele>1601.6938476562</ele>
        <time>2010-07-14T12:47:26Z</time>
      </trkpt>
      <trkpt lat="42.69857" lon="1.49671">
        <ele>1600.732421875</ele>
        <time>2010-07-14T12:47:31Z</time>
      </trkpt>
      <trkpt lat="42.69864" lon="1.49673">
        <ele>1598.3291015625</ele>
        <time>2010-07-14T12:47:37Z</time>
      </trkpt>
      <trkpt lat="42.69866" lon="1.49672">
        <ele>1598.8098144531</ele>
        <time>2010-07-14T12:47:40Z</time>
      </trkpt>
      <trkpt lat="42.69873" lon="1.49672">
        <ele>1597.3679199219</ele>
        <time>2010-07-14T12:47:45Z</time>
      </trkpt>
      <trkpt lat="42.69873" lon="1.49673">
        <ele>1596.8872070312</ele>
        <time>2010-07-14T12:47:46Z</time>
      </trkpt>
      <trkpt lat="42.69876" lon="1.49675">
        <ele>1595.92578125</ele>
        <time>2010-07-14T12:47:49Z</time>
      </trkpt>
      <trkpt lat="42.6988" lon="1.49678">
        <ele>1594.9643554688</ele>
        <time>2010-07-14T12:47:53Z</time>
      </trkpt>
      <trkpt lat="42.69886" lon="1.49676">
        <ele>1594.0031738281</ele>
        <time>2010-07-14T12:47:58Z</time>
      </trkpt>
      <trkpt lat="42.69891" lon="1.49674">
        <ele>1593.0417480469</ele>
        <time>2010-07-14T12:48:02Z</time>
      </trkpt>
      <trkpt lat="42.69894" lon="1.49673">
        <ele>1592.0805664062</ele>
        <time>2010-07-14T12:48:05Z</time>
      </trkpt>
      <trkpt lat="42.69902" lon="1.49672">
        <ele>1590.6384277344</ele>
        <time>2010-07-14T12:48:11Z</time>
      </trkpt>
      <trkpt lat="42.69906" lon="1.49673">
        <ele>1590.6384277344</ele>
        <time>2010-07-14T12:48:15Z</time>
      </trkpt>
      <trkpt lat="42.69909" lon="1.49671">
        <ele>1590.1579589844</ele>
        <time>2010-07-14T12:48:18Z</time>
      </trkpt>
      <trkpt lat="42.69911" lon="1.4967">
        <ele>1590.1579589844</ele>
        <time>2010-07-14T12:48:20Z</time>
      </trkpt>
      <trkpt lat="42.69912" lon="1.49668">
        <ele>1589.1965332031</ele>
        <time>2010-07-14T12:48:22Z</time>
      </trkpt>
      <trkpt lat="42.69919" lon="1.49668">
        <ele>1586.3127441406</ele>
        <time>2010-07-14T12:48:27Z</time>
      </trkpt>
      <trkpt lat="42.69926" lon="1.49669">
        <ele>1585.83203125</ele>
        <time>2010-07-14T12:48:33Z</time>
      </trkpt>
      <trkpt lat="42.6993" lon="1.4967">
        <ele>1586.3127441406</ele>
        <time>2010-07-14T12:48:35Z</time>
      </trkpt>
      <trkpt lat="42.69933" lon="1.49671">
        <ele>1587.2739257812</ele>
        <time>2010-07-14T12:48:37Z</time>
      </trkpt>
      <trkpt lat="42.69939" lon="1.49673">
        <ele>1587.2739257812</ele>
        <time>2010-07-14T12:48:43Z</time>
      </trkpt>
      <trkpt lat="42.69944" lon="1.49672">
        <ele>1585.83203125</ele>
        <time>2010-07-14T12:48:47Z</time>
      </trkpt>
      <trkpt lat="42.69949" lon="1.4967">
        <ele>1584.8708496094</ele>
        <time>2010-07-14T12:48:51Z</time>
      </trkpt>
      <trkpt lat="42.69954" lon="1.49671">
        <ele>1582.9479980469</ele>
        <time>2010-07-14T12:48:56Z</time>
      </trkpt>
      <trkpt lat="42.69954" lon="1.4967">
        <ele>1582.9479980469</ele>
        <time>2010-07-14T12:48:57Z</time>
      </trkpt>
      <trkpt lat="42.69963" lon="1.4967">
        <ele>1581.5061035156</ele>
        <time>2010-07-14T12:49:05Z</time>
      </trkpt>
      <trkpt lat="42.69966" lon="1.49671">
        <ele>1580.0642089844</ele>
        <time>2010-07-14T12:49:10Z</time>
      </trkpt>
      <trkpt lat="42.6997" lon="1.49674">
        <ele>1577.6606445312</ele>
        <time>2010-07-14T12:49:16Z</time>
      </trkpt>
      <trkpt lat="42.69977" lon="1.49675">
        <ele>1576.21875</ele>
        <time>2010-07-14T12:49:22Z</time>
      </trkpt>
      <trkpt lat="42.69985" lon="1.49672">
        <ele>1577.1801757812</ele>
        <time>2010-07-14T12:49:25Z</time>
      </trkpt>
      <trkpt lat="42.6999" lon="1.49671">
        <ele>1575.7380371094</ele>
        <time>2010-07-14T12:49:29Z</time>
      </trkpt>
      <trkpt lat="42.69993" lon="1.49671">
        <ele>1574.7768554688</ele>
        <time>2010-07-14T12:49:32Z</time>
      </trkpt>
      <trkpt lat="42.69996" lon="1.49676">
        <ele>1572.8542480469</ele>
        <time>2010-07-14T12:49:36Z</time>
      </trkpt>
      <trkpt lat="42.69997" lon="1.49676">
        <ele>1571.8928222656</ele>
        <time>2010-07-14T12:49:38Z</time>
      </trkpt>
      <trkpt lat="42.70004" lon="1.49672">
        <ele>1570.4509277344</ele>
        <time>2010-07-14T12:49:44Z</time>
      </trkpt>
      <trkpt lat="42.70008" lon="1.4967">
        <ele>1569.9702148438</ele>
        <time>2010-07-14T12:49:48Z</time>
      </trkpt>
      <trkpt lat="42.70012" lon="1.49671">
        <ele>1568.0476074219</ele>
        <time>2010-07-14T12:49:53Z</time>
      </trkpt>
      <trkpt lat="42.70016" lon="1.49671">
        <ele>1566.125</ele>
        <time>2010-07-14T12:49:57Z</time>
      </trkpt>
      <trkpt lat="42.70023" lon="1.4967">
        <ele>1564.2023925781</ele>
        <time>2010-07-14T12:50:04Z</time>
      </trkpt>
      <trkpt lat="42.70025" lon="1.49671">
        <ele>1563.7214355469</ele>
        <time>2010-07-14T12:50:07Z</time>
      </trkpt>
      <trkpt lat="42.70028" lon="1.49672">
        <ele>1562.7602539062</ele>
        <time>2010-07-14T12:50:09Z</time>
      </trkpt>
      <trkpt lat="42.70031" lon="1.49675">
        <ele>1560.3569335938</ele>
        <time>2010-07-14T12:50:14Z</time>
      </trkpt>
      <trkpt lat="42.70034" lon="1.4968">
        <ele>1558.4343261719</ele>
        <time>2010-07-14T12:50:19Z</time>
      </trkpt>
      <trkpt lat="42.70035" lon="1.49684">
        <ele>1556.9924316406</ele>
        <time>2010-07-14T12:50:24Z</time>
      </trkpt>
      <trkpt lat="42.70036" lon="1.49689">
        <ele>1556.9924316406</ele>
        <time>2010-07-14T12:50:28Z</time>
      </trkpt>
      <trkpt lat="42.70037" lon="1.49691">
        <ele>1556.51171875</ele>
        <time>2010-07-14T12:50:35Z</time>
      </trkpt>
      <trkpt lat="42.70044" lon="1.49694">
        <ele>1556.9924316406</ele>
        <time>2010-07-14T12:50:46Z</time>
      </trkpt>
      <trkpt lat="42.70046" lon="1.49696">
        <ele>1555.5505371094</ele>
        <time>2010-07-14T12:50:50Z</time>
      </trkpt>
      <trkpt lat="42.70048" lon="1.49698">
        <ele>1555.0698242188</ele>
        <time>2010-07-14T12:50:56Z</time>
      </trkpt>
      <trkpt lat="42.70053" lon="1.49698">
        <ele>1554.1086425781</ele>
        <time>2010-07-14T12:51:01Z</time>
      </trkpt>
      <trkpt lat="42.70055" lon="1.49699">
        <ele>1553.6279296875</ele>
        <time>2010-07-14T12:51:05Z</time>
      </trkpt>
      <trkpt lat="42.70058" lon="1.49701">
        <ele>1552.1857910156</ele>
        <time>2010-07-14T12:51:08Z</time>
      </trkpt>
      <trkpt lat="42.7006" lon="1.49704">
        <ele>1551.7053222656</ele>
        <time>2010-07-14T12:51:10Z</time>
      </trkpt>
      <trkpt lat="42.70065" lon="1.49708">
        <ele>1550.2634277344</ele>
        <time>2010-07-14T12:51:14Z</time>
      </trkpt>
      <trkpt lat="42.70071" lon="1.49709">
        <ele>1550.2634277344</ele>
        <time>2010-07-14T12:51:20Z</time>
      </trkpt>
      <trkpt lat="42.70076" lon="1.4971">
        <ele>1548.8212890625</ele>
        <time>2010-07-14T12:51:25Z</time>
      </trkpt>
      <trkpt lat="42.70084" lon="1.49708">
        <ele>1547.3791503906</ele>
        <time>2010-07-14T12:51:30Z</time>
      </trkpt>
      <trkpt lat="42.70094" lon="1.49705">
        <ele>1544.9758300781</ele>
        <time>2010-07-14T12:51:37Z</time>
      </trkpt>
      <trkpt lat="42.70101" lon="1.49703">
        <ele>1544.0146484375</ele>
        <time>2010-07-14T12:51:43Z</time>
      </trkpt>
      <trkpt lat="42.70106" lon="1.49705">
        <ele>1543.5339355469</ele>
        <time>2010-07-14T12:51:49Z</time>
      </trkpt>
      <trkpt lat="42.70109" lon="1.49706">
        <ele>1543.0532226562</ele>
        <time>2010-07-14T12:51:54Z</time>
      </trkpt>
      <trkpt lat="42.70113" lon="1.49705">
        <ele>1542.5727539062</ele>
        <time>2010-07-14T12:51:58Z</time>
      </trkpt>
      <trkpt lat="42.70118" lon="1.49706">
        <ele>1541.611328125</ele>
        <time>2010-07-14T12:52:02Z</time>
      </trkpt>
      <trkpt lat="42.70123" lon="1.49709">
        <ele>1542.0920410156</ele>
        <time>2010-07-14T12:52:07Z</time>
      </trkpt>
      <trkpt lat="42.70127" lon="1.49712">
        <ele>1541.611328125</ele>
        <time>2010-07-14T12:52:10Z</time>
      </trkpt>
      <trkpt lat="42.70132" lon="1.49713">
        <ele>1541.1306152344</ele>
        <time>2010-07-14T12:52:14Z</time>
      </trkpt>
      <trkpt lat="42.70141" lon="1.49714">
        <ele>1541.1306152344</ele>
        <time>2010-07-14T12:52:21Z</time>
      </trkpt>
      <trkpt lat="42.70148" lon="1.4972">
        <ele>1541.1306152344</ele>
        <time>2010-07-14T12:52:25Z</time>
      </trkpt>
      <trkpt lat="42.70152" lon="1.49725">
        <ele>1541.611328125</ele>
        <time>2010-07-14T12:52:30Z</time>
      </trkpt>
      <trkpt lat="42.70154" lon="1.49727">
        <ele>1541.1306152344</ele>
        <time>2010-07-14T12:52:32Z</time>
      </trkpt>
      <trkpt lat="42.70158" lon="1.4973">
        <ele>1541.1306152344</ele>
        <time>2010-07-14T12:52:36Z</time>
      </trkpt>
      <trkpt lat="42.70166" lon="1.49731">
        <ele>1541.1306152344</ele>
        <time>2010-07-14T12:52:42Z</time>
      </trkpt>
      <trkpt lat="42.70168" lon="1.49733">
        <ele>1541.611328125</ele>
        <time>2010-07-14T12:52:45Z</time>
      </trkpt>
      <trkpt lat="42.7017" lon="1.49733">
        <ele>1541.611328125</ele>
        <time>2010-07-14T12:52:47Z</time>
      </trkpt>
      <trkpt lat="42.70175" lon="1.49736">
        <ele>1541.611328125</ele>
        <time>2010-07-14T12:52:52Z</time>
      </trkpt>
      <trkpt lat="42.70181" lon="1.49736">
        <ele>1542.5727539062</ele>
        <time>2010-07-14T12:52:56Z</time>
      </trkpt>
      <trkpt lat="42.70183" lon="1.49735">
        <ele>1542.5727539062</ele>
        <time>2010-07-14T12:52:58Z</time>
      </trkpt>
      <trkpt lat="42.70184" lon="1.49737">
        <ele>1541.611328125</ele>
        <time>2010-07-14T12:53:00Z</time>
      </trkpt>
      <trkpt lat="42.70186" lon="1.4974">
        <ele>1541.1306152344</ele>
        <time>2010-07-14T12:53:03Z</time>
      </trkpt>
      <trkpt lat="42.70192" lon="1.49744">
        <ele>1539.6887207031</ele>
        <time>2010-07-14T12:53:09Z</time>
      </trkpt>
      <trkpt lat="42.70196" lon="1.49747">
        <ele>1538.7275390625</ele>
        <time>2010-07-14T12:53:15Z</time>
      </trkpt>
      <trkpt lat="42.702" lon="1.49743">
        <ele>1537.2854003906</ele>
        <time>2010-07-14T12:53:20Z</time>
      </trkpt>
      <trkpt lat="42.70203" lon="1.49743">
        <ele>1535.8435058594</ele>
        <time>2010-07-14T12:53:24Z</time>
      </trkpt>
      <trkpt lat="42.70205" lon="1.49744">
        <ele>1535.3627929688</ele>
        <time>2010-07-14T12:53:28Z</time>
      </trkpt>
      <trkpt lat="42.70209" lon="1.49743">
        <ele>1534.4016113281</ele>
        <time>2010-07-14T12:53:33Z</time>
      </trkpt>
      <trkpt lat="42.70213" lon="1.49743">
        <ele>1533.9208984375</ele>
        <time>2010-07-14T12:53:38Z</time>
      </trkpt>
      <trkpt lat="42.70214" lon="1.49749">
        <ele>1532.9594726562</ele>
        <time>2010-07-14T12:53:44Z</time>
      </trkpt>
      <trkpt lat="42.70218" lon="1.49752">
        <ele>1533.4401855469</ele>
        <time>2010-07-14T12:53:48Z</time>
      </trkpt>
      <trkpt lat="42.70225" lon="1.49754">
        <ele>1531.998046875</ele>
        <time>2010-07-14T12:53:56Z</time>
      </trkpt>
      <trkpt lat="42.70229" lon="1.49754">
        <ele>1529.5947265625</ele>
        <time>2010-07-14T12:54:02Z</time>
      </trkpt>
      <trkpt lat="42.70232" lon="1.49757">
        <ele>1528.1528320312</ele>
        <time>2010-07-14T12:54:08Z</time>
      </trkpt>
      <trkpt lat="42.70238" lon="1.49758">
        <ele>1527.6721191406</ele>
        <time>2010-07-14T12:54:14Z</time>
      </trkpt>
      <trkpt lat="42.70241" lon="1.49759">
        <ele>1526.7109375</ele>
        <time>2010-07-14T12:54:20Z</time>
      </trkpt>
      <trkpt lat="42.70242" lon="1.49755">
        <ele>1525.7495117188</ele>
        <time>2010-07-14T12:54:25Z</time>
      </trkpt>
      <trkpt lat="42.70246" lon="1.49757">
        <ele>1524.7883300781</ele>
        <time>2010-07-14T12:54:30Z</time>
      </trkpt>
      <trkpt lat="42.7025" lon="1.49759">
        <ele>1521.904296875</ele>
        <time>2010-07-14T12:54:36Z</time>
      </trkpt>
      <trkpt lat="42.70251" lon="1.49756">
        <ele>1519.9816894531</ele>
        <time>2010-07-14T12:54:40Z</time>
      </trkpt>
      <trkpt lat="42.70253" lon="1.49753">
        <ele>1518.0590820312</ele>
        <time>2010-07-14T12:54:45Z</time>
      </trkpt>
      <trkpt lat="42.70256" lon="1.49752">
        <ele>1516.6171875</ele>
        <time>2010-07-14T12:54:51Z</time>
      </trkpt>
      <trkpt lat="42.70261" lon="1.49754">
        <ele>1513.7329101562</ele>
        <time>2010-07-14T12:54:58Z</time>
      </trkpt>
      <trkpt lat="42.70263" lon="1.49755">
        <ele>1512.291015625</ele>
        <time>2010-07-14T12:55:03Z</time>
      </trkpt>
      <trkpt lat="42.70264" lon="1.49753">
        <ele>1510.8491210938</ele>
        <time>2010-07-14T12:55:07Z</time>
      </trkpt>
      <trkpt lat="42.70264" lon="1.49752">
        <ele>1511.810546875</ele>
        <time>2010-07-14T12:55:12Z</time>
      </trkpt>
      <trkpt lat="42.70266" lon="1.49755">
        <ele>1511.810546875</ele>
        <time>2010-07-14T12:55:16Z</time>
      </trkpt>
      <trkpt lat="42.70269" lon="1.49754">
        <ele>1509.8876953125</ele>
        <time>2010-07-14T12:55:21Z</time>
      </trkpt>
      <trkpt lat="42.70271" lon="1.49752">
        <ele>1509.8876953125</ele>
        <time>2010-07-14T12:55:27Z</time>
      </trkpt>
      <trkpt lat="42.70274" lon="1.49755">
        <ele>1509.4072265625</ele>
        <time>2010-07-14T12:55:31Z</time>
      </trkpt>
      <trkpt lat="42.70275" lon="1.49759">
        <ele>1507.00390625</ele>
        <time>2010-07-14T12:55:36Z</time>
      </trkpt>
      <trkpt lat="42.70278" lon="1.49761">
        <ele>1505.0812988281</ele>
        <time>2010-07-14T12:55:41Z</time>
      </trkpt>
      <trkpt lat="42.70282" lon="1.49759">
        <ele>1504.1201171875</ele>
        <time>2010-07-14T12:55:46Z</time>
      </trkpt>
      <trkpt lat="42.70287" lon="1.49757">
        <ele>1502.197265625</ele>
        <time>2010-07-14T12:55:51Z</time>
      </trkpt>
      <trkpt lat="42.70294" lon="1.49753">
        <ele>1501.2360839844</ele>
        <time>2010-07-14T12:55:56Z</time>
      </trkpt>
      <trkpt lat="42.70296" lon="1.49752">
        <ele>1500.2749023438</ele>
        <time>2010-07-14T12:55:58Z</time>
      </trkpt>
      <trkpt lat="42.70304" lon="1.49753">
        <ele>1498.8325195312</ele>
        <time>2010-07-14T12:56:05Z</time>
      </trkpt>
      <trkpt lat="42.70307" lon="1.49755">
        <ele>1498.3518066406</ele>
        <time>2010-07-14T12:56:09Z</time>
      </trkpt>
      <trkpt lat="42.70313" lon="1.49757">
        <ele>1496.9099121094</ele>
        <time>2010-07-14T12:56:14Z</time>
      </trkpt>
      <trkpt lat="42.70317" lon="1.49759">
        <ele>1495.9487304688</ele>
        <time>2010-07-14T12:56:18Z</time>
      </trkpt>
      <trkpt lat="42.70322" lon="1.49759">
        <ele>1494.9873046875</ele>
        <time>2010-07-14T12:56:24Z</time>
      </trkpt>
      <trkpt lat="42.70328" lon="1.4976">
        <ele>1494.5065917969</ele>
        <time>2010-07-14T12:56:30Z</time>
      </trkpt>
      <trkpt lat="42.7033" lon="1.49759">
        <ele>1493.0646972656</ele>
        <time>2010-07-14T12:56:35Z</time>
      </trkpt>
      <trkpt lat="42.70334" lon="1.49759">
        <ele>1492.103515625</ele>
        <time>2010-07-14T12:56:39Z</time>
      </trkpt>
      <trkpt lat="42.7034" lon="1.49756">
        <ele>1491.6228027344</ele>
        <time>2010-07-14T12:56:44Z</time>
      </trkpt>
      <trkpt lat="42.70345" lon="1.49753">
        <ele>1490.1809082031</ele>
        <time>2010-07-14T12:56:49Z</time>
      </trkpt>
      <trkpt lat="42.70349" lon="1.49751">
        <ele>1488.7390136719</ele>
        <time>2010-07-14T12:56:53Z</time>
      </trkpt>
      <trkpt lat="42.7035" lon="1.49751">
        <ele>1488.2583007812</ele>
        <time>2010-07-14T12:56:54Z</time>
      </trkpt>
      <trkpt lat="42.70355" lon="1.49748">
        <ele>1485.3742675781</ele>
        <time>2010-07-14T12:57:01Z</time>
      </trkpt>
      <trkpt lat="42.70359" lon="1.49745">
        <ele>1483.4514160156</ele>
        <time>2010-07-14T12:57:08Z</time>
      </trkpt>
      <trkpt lat="42.70363" lon="1.49745">
        <ele>1482.490234375</ele>
        <time>2010-07-14T12:57:12Z</time>
      </trkpt>
      <trkpt lat="42.70369" lon="1.49742">
        <ele>1480.0869140625</ele>
        <time>2010-07-14T12:57:17Z</time>
      </trkpt>
      <trkpt lat="42.70374" lon="1.49738">
        <ele>1477.203125</ele>
        <time>2010-07-14T12:57:23Z</time>
      </trkpt>
      <trkpt lat="42.70379" lon="1.49732">
        <ele>1475.2802734375</ele>
        <time>2010-07-14T12:57:29Z</time>
      </trkpt>
      <trkpt lat="42.7038" lon="1.49732">
        <ele>1474.7998046875</ele>
        <time>2010-07-14T12:57:30Z</time>
      </trkpt>
      <trkpt lat="42.70385" lon="1.49722">
        <ele>1472.8771972656</ele>
        <time>2010-07-14T12:57:37Z</time>
      </trkpt>
      <trkpt lat="42.70389" lon="1.49717">
        <ele>1471.4350585938</ele>
        <time>2010-07-14T12:57:42Z</time>
      </trkpt>
      <trkpt lat="42.70395" lon="1.49711">
        <ele>1469.9931640625</ele>
        <time>2010-07-14T12:57:48Z</time>
      </trkpt>
      <trkpt lat="42.70399" lon="1.49707">
        <ele>1468.5512695312</ele>
        <time>2010-07-14T12:57:52Z</time>
      </trkpt>
      <trkpt lat="42.70401" lon="1.49711">
        <ele>1468.5512695312</ele>
        <time>2010-07-14T12:57:56Z</time>
      </trkpt>
      <trkpt lat="42.70406" lon="1.49711">
        <ele>1469.0319824219</ele>
        <time>2010-07-14T12:58:02Z</time>
      </trkpt>
      <trkpt lat="42.70411" lon="1.49711">
        <ele>1469.5126953125</ele>
        <time>2010-07-14T12:58:07Z</time>
      </trkpt>
      <trkpt lat="42.70415" lon="1.49707">
        <ele>1467.5895996094</ele>
        <time>2010-07-14T12:58:12Z</time>
      </trkpt>
      <trkpt lat="42.7042" lon="1.49704">
        <ele>1466.6284179688</ele>
        <time>2010-07-14T12:58:17Z</time>
      </trkpt>
      <trkpt lat="42.70427" lon="1.49701">
        <ele>1465.6672363281</ele>
        <time>2010-07-14T12:58:24Z</time>
      </trkpt>
      <trkpt lat="42.7043" lon="1.497">
        <ele>1464.7058105469</ele>
        <time>2010-07-14T12:58:27Z</time>
      </trkpt>
      <trkpt lat="42.70435" lon="1.49697">
        <ele>1462.783203125</ele>
        <time>2010-07-14T12:58:33Z</time>
      </trkpt>
      <trkpt lat="42.70438" lon="1.49695">
        <ele>1460.3798828125</ele>
        <time>2010-07-14T12:58:37Z</time>
      </trkpt>
      <trkpt lat="42.70444" lon="1.49695">
        <ele>1457.9768066406</ele>
        <time>2010-07-14T12:58:43Z</time>
      </trkpt>
      <trkpt lat="42.70448" lon="1.49694">
        <ele>1458.9379882812</ele>
        <time>2010-07-14T12:58:48Z</time>
      </trkpt>
      <trkpt lat="42.70452" lon="1.49695">
        <ele>1459.8991699219</ele>
        <time>2010-07-14T12:58:53Z</time>
      </trkpt>
      <trkpt lat="42.70456" lon="1.49691">
        <ele>1457.49609375</ele>
        <time>2010-07-14T12:58:58Z</time>
      </trkpt>
      <trkpt lat="42.70459" lon="1.49687">
        <ele>1455.0927734375</ele>
        <time>2010-07-14T12:59:05Z</time>
      </trkpt>
      <trkpt lat="42.70462" lon="1.49687">
        <ele>1453.6508789062</ele>
        <time>2010-07-14T12:59:10Z</time>
      </trkpt>
      <trkpt lat="42.70466" lon="1.49684">
        <ele>1452.689453125</ele>
        <time>2010-07-14T12:59:15Z</time>
      </trkpt>
      <trkpt lat="42.70469" lon="1.49679">
        <ele>1450.2861328125</ele>
        <time>2010-07-14T12:59:21Z</time>
      </trkpt>
      <trkpt lat="42.70472" lon="1.49674">
        <ele>1448.8439941406</ele>
        <time>2010-07-14T12:59:27Z</time>
      </trkpt>
      <trkpt lat="42.70476" lon="1.49674">
        <ele>1447.8828125</ele>
        <time>2010-07-14T12:59:31Z</time>
      </trkpt>
      <trkpt lat="42.70479" lon="1.49671">
        <ele>1446.4409179688</ele>
        <time>2010-07-14T12:59:35Z</time>
      </trkpt>
      <trkpt lat="42.70481" lon="1.49668">
        <ele>1444.9987792969</ele>
        <time>2010-07-14T12:59:38Z</time>
      </trkpt>
      <trkpt lat="42.70486" lon="1.49659">
        <ele>1441.6342773438</ele>
        <time>2010-07-14T12:59:44Z</time>
      </trkpt>
      <trkpt lat="42.7049" lon="1.49656">
        <ele>1439.2309570312</ele>
        <time>2010-07-14T12:59:48Z</time>
      </trkpt>
      <trkpt lat="42.70492" lon="1.49653">
        <ele>1437.7890625</ele>
        <time>2010-07-14T12:59:51Z</time>
      </trkpt>
      <trkpt lat="42.70497" lon="1.49652">
        <ele>1436.3471679688</ele>
        <time>2010-07-14T12:59:57Z</time>
      </trkpt>
      <trkpt lat="42.70498" lon="1.4965">
        <ele>1436.3471679688</ele>
        <time>2010-07-14T12:59:59Z</time>
      </trkpt>
      <trkpt lat="42.70504" lon="1.49645">
        <ele>1435.8662109375</ele>
        <time>2010-07-14T13:00:04Z</time>
      </trkpt>
      <trkpt lat="42.7051" lon="1.49645">
        <ele>1435.3854980469</ele>
        <time>2010-07-14T13:00:09Z</time>
      </trkpt>
      <trkpt lat="42.70515" lon="1.49644">
        <ele>1434.4243164062</ele>
        <time>2010-07-14T13:00:14Z</time>
      </trkpt>
      <trkpt lat="42.70518" lon="1.4964">
        <ele>1433.462890625</ele>
        <time>2010-07-14T13:00:19Z</time>
      </trkpt>
      <trkpt lat="42.7052" lon="1.4964">
        <ele>1433.462890625</ele>
        <time>2010-07-14T13:00:20Z</time>
      </trkpt>
      <trkpt lat="42.70525" lon="1.49633">
        <ele>1431.0598144531</ele>
        <time>2010-07-14T13:00:27Z</time>
      </trkpt>
      <trkpt lat="42.70531" lon="1.49629">
        <ele>1428.17578125</ele>
        <time>2010-07-14T13:00:32Z</time>
      </trkpt>
      <trkpt lat="42.70533" lon="1.49628">
        <ele>1427.2145996094</ele>
        <time>2010-07-14T13:00:34Z</time>
      </trkpt>
      <trkpt lat="42.70537" lon="1.49629">
        <ele>1426.7338867188</ele>
        <time>2010-07-14T13:00:40Z</time>
      </trkpt>
      <trkpt lat="42.70541" lon="1.49628">
        <ele>1425.7724609375</ele>
        <time>2010-07-14T13:00:44Z</time>
      </trkpt>
      <trkpt lat="42.70545" lon="1.49625">
        <ele>1425.2917480469</ele>
        <time>2010-07-14T13:00:48Z</time>
      </trkpt>
      <trkpt lat="42.70546" lon="1.49623">
        <ele>1424.8112792969</ele>
        <time>2010-07-14T13:00:50Z</time>
      </trkpt>
      <trkpt lat="42.70554" lon="1.49621">
        <ele>1423.3693847656</ele>
        <time>2010-07-14T13:00:57Z</time>
      </trkpt>
      <trkpt lat="42.70563" lon="1.49618">
        <ele>1424.3305664062</ele>
        <time>2010-07-14T13:01:03Z</time>
      </trkpt>
      <trkpt lat="42.70564" lon="1.49618">
        <ele>1424.3305664062</ele>
        <time>2010-07-14T13:01:04Z</time>
      </trkpt>
      <trkpt lat="42.7057" lon="1.49613">
        <ele>1421.9272460938</ele>
        <time>2010-07-14T13:01:10Z</time>
      </trkpt>
      <trkpt lat="42.70577" lon="1.4961">
        <ele>1420.0046386719</ele>
        <time>2010-07-14T13:01:16Z</time>
      </trkpt>
      <trkpt lat="42.70578" lon="1.49609">
        <ele>1419.5239257812</ele>
        <time>2010-07-14T13:01:17Z</time>
      </trkpt>
      <trkpt lat="42.70581" lon="1.49606">
        <ele>1417.6010742188</ele>
        <time>2010-07-14T13:01:20Z</time>
      </trkpt>
      <trkpt lat="42.70588" lon="1.49605">
        <ele>1416.6398925781</ele>
        <time>2010-07-14T13:01:25Z</time>
      </trkpt>
      <trkpt lat="42.70593" lon="1.49602">
        <ele>1414.2365722656</ele>
        <time>2010-07-14T13:01:30Z</time>
      </trkpt>
      <trkpt lat="42.70594" lon="1.496">
        <ele>1413.275390625</ele>
        <time>2010-07-14T13:01:32Z</time>
      </trkpt>
      <trkpt lat="42.70598" lon="1.49596">
        <ele>1412.3139648438</ele>
        <time>2010-07-14T13:01:36Z</time>
      </trkpt>
      <trkpt lat="42.70601" lon="1.49596">
        <ele>1411.8334960938</ele>
        <time>2010-07-14T13:01:38Z</time>
      </trkpt>
      <trkpt lat="42.70602" lon="1.496">
        <ele>1411.8334960938</ele>
        <time>2010-07-14T13:01:42Z</time>
      </trkpt>
      <trkpt lat="42.70607" lon="1.49601">
        <ele>1411.3527832031</ele>
        <time>2010-07-14T13:01:47Z</time>
      </trkpt>
      <trkpt lat="42.70608" lon="1.496">
        <ele>1410.8720703125</ele>
        <time>2010-07-14T13:01:48Z</time>
      </trkpt>
      <trkpt lat="42.70612" lon="1.496">
        <ele>1412.3139648438</ele>
        <time>2010-07-14T13:01:52Z</time>
      </trkpt>
      <trkpt lat="42.70618" lon="1.49597">
        <ele>1410.8720703125</ele>
        <time>2010-07-14T13:01:58Z</time>
      </trkpt>
      <trkpt lat="42.70622" lon="1.49595">
        <ele>1409.9106445312</ele>
        <time>2010-07-14T13:02:01Z</time>
      </trkpt>
      <trkpt lat="42.70625" lon="1.49589">
        <ele>1409.9106445312</ele>
        <time>2010-07-14T13:02:07Z</time>
      </trkpt>
      <trkpt lat="42.70628" lon="1.49585">
        <ele>1407.5075683594</ele>
        <time>2010-07-14T13:02:12Z</time>
      </trkpt>
      <trkpt lat="42.70631" lon="1.49581">
        <ele>1406.5461425781</ele>
        <time>2010-07-14T13:02:17Z</time>
      </trkpt>
      <trkpt lat="42.70636" lon="1.49581">
        <ele>1405.5849609375</ele>
        <time>2010-07-14T13:02:24Z</time>
      </trkpt>
      <trkpt lat="42.70642" lon="1.49582">
        <ele>1406.0654296875</ele>
        <time>2010-07-14T13:02:30Z</time>
      </trkpt>
      <trkpt lat="42.70648" lon="1.4958">
        <ele>1404.1430664062</ele>
        <time>2010-07-14T13:02:37Z</time>
      </trkpt>
      <trkpt lat="42.70651" lon="1.49578">
        <ele>1402.2199707031</ele>
        <time>2010-07-14T13:02:42Z</time>
      </trkpt>
      <trkpt lat="42.70654" lon="1.49573">
        <ele>1401.2587890625</ele>
        <time>2010-07-14T13:02:47Z</time>
      </trkpt>
      <trkpt lat="42.70657" lon="1.49569">
        <ele>1399.8168945312</ele>
        <time>2010-07-14T13:02:52Z</time>
      </trkpt>
      <trkpt lat="42.7066" lon="1.49564">
        <ele>1398.3747558594</ele>
        <time>2010-07-14T13:02:56Z</time>
      </trkpt>
      <trkpt lat="42.70663" lon="1.49559">
        <ele>1394.0490722656</ele>
        <time>2010-07-14T13:03:03Z</time>
      </trkpt>
      <trkpt lat="42.70667" lon="1.49556">
        <ele>1393.0876464844</ele>
        <time>2010-07-14T13:03:07Z</time>
      </trkpt>
      <trkpt lat="42.70671" lon="1.49552">
        <ele>1392.1264648438</ele>
        <time>2010-07-14T13:03:12Z</time>
      </trkpt>
      <trkpt lat="42.70674" lon="1.49546">
        <ele>1391.6457519531</ele>
        <time>2010-07-14T13:03:16Z</time>
      </trkpt>
      <trkpt lat="42.70675" lon="1.49545">
        <ele>1391.1650390625</ele>
        <time>2010-07-14T13:03:17Z</time>
      </trkpt>
      <trkpt lat="42.70677" lon="1.49542">
        <ele>1390.2038574219</ele>
        <time>2010-07-14T13:03:20Z</time>
      </trkpt>
      <trkpt lat="42.7068" lon="1.49538">
        <ele>1389.7231445312</ele>
        <time>2010-07-14T13:03:23Z</time>
      </trkpt>
      <trkpt lat="42.70686" lon="1.49535">
        <ele>1388.28125</ele>
        <time>2010-07-14T13:03:28Z</time>
      </trkpt>
      <trkpt lat="42.70687" lon="1.49534">
        <ele>1388.28125</ele>
        <time>2010-07-14T13:03:30Z</time>
      </trkpt>
      <trkpt lat="42.70691" lon="1.49529">
        <ele>1386.3583984375</ele>
        <time>2010-07-14T13:03:34Z</time>
      </trkpt>
      <trkpt lat="42.70695" lon="1.49528">
        <ele>1385.3969726562</ele>
        <time>2010-07-14T13:03:38Z</time>
      </trkpt>
      <trkpt lat="42.70698" lon="1.49528">
        <ele>1385.8776855469</ele>
        <time>2010-07-14T13:03:40Z</time>
      </trkpt>
      <trkpt lat="42.707" lon="1.49527">
        <ele>1386.3583984375</ele>
        <time>2010-07-14T13:03:42Z</time>
      </trkpt>
      <trkpt lat="42.70706" lon="1.49521">
        <ele>1385.3969726562</ele>
        <time>2010-07-14T13:03:45Z</time>
      </trkpt>
      <trkpt lat="42.70712" lon="1.49518">
        <ele>1380.5905761719</ele>
        <time>2010-07-14T13:03:50Z</time>
      </trkpt>
      <trkpt lat="42.70714" lon="1.49517">
        <ele>1380.1098632812</ele>
        <time>2010-07-14T13:03:52Z</time>
      </trkpt>
      <trkpt lat="42.70718" lon="1.49512">
        <ele>1377.2260742188</ele>
        <time>2010-07-14T13:03:56Z</time>
      </trkpt>
      <trkpt lat="42.70724" lon="1.49507">
        <ele>1375.3032226562</ele>
        <time>2010-07-14T13:04:01Z</time>
      </trkpt>
      <trkpt lat="42.70729" lon="1.49505">
        <ele>1373.380859375</ele>
        <time>2010-07-14T13:04:06Z</time>
      </trkpt>
      <trkpt lat="42.70732" lon="1.49504">
        <ele>1372.9001464844</ele>
        <time>2010-07-14T13:04:08Z</time>
      </trkpt>
      <trkpt lat="42.70737" lon="1.49502">
        <ele>1371.4577636719</ele>
        <time>2010-07-14T13:04:12Z</time>
      </trkpt>
      <trkpt lat="42.70745" lon="1.49494">
        <ele>1370.0158691406</ele>
        <time>2010-07-14T13:04:18Z</time>
      </trkpt>
      <trkpt lat="42.70746" lon="1.49494">
        <ele>1369.5354003906</ele>
        <time>2010-07-14T13:04:19Z</time>
      </trkpt>
      <trkpt lat="42.70748" lon="1.49492">
        <ele>1369.0546875</ele>
        <time>2010-07-14T13:04:21Z</time>
      </trkpt>
      <trkpt lat="42.70751" lon="1.4949">
        <ele>1368.0932617188</ele>
        <time>2010-07-14T13:04:24Z</time>
      </trkpt>
      <trkpt lat="42.70754" lon="1.49481">
        <ele>1369.0546875</ele>
        <time>2010-07-14T13:04:30Z</time>
      </trkpt>
      <trkpt lat="42.7076" lon="1.49473">
        <ele>1366.6513671875</ele>
        <time>2010-07-14T13:04:37Z</time>
      </trkpt>
      <trkpt lat="42.70768" lon="1.49466">
        <ele>1363.7673339844</ele>
        <time>2010-07-14T13:04:43Z</time>
      </trkpt>
      <trkpt lat="42.70771" lon="1.49464">
        <ele>1363.2868652344</ele>
        <time>2010-07-14T13:04:45Z</time>
      </trkpt>
      <trkpt lat="42.70776" lon="1.49461">
        <ele>1362.8061523438</ele>
        <time>2010-07-14T13:04:49Z</time>
      </trkpt>
      <trkpt lat="42.70781" lon="1.49461">
        <ele>1362.8061523438</ele>
        <time>2010-07-14T13:04:54Z</time>
      </trkpt>
      <trkpt lat="42.70784" lon="1.4946">
        <ele>1362.3254394531</ele>
        <time>2010-07-14T13:04:57Z</time>
      </trkpt>
      <trkpt lat="42.70788" lon="1.49461">
        <ele>1360.8835449219</ele>
        <time>2010-07-14T13:05:01Z</time>
      </trkpt>
      <trkpt lat="42.7079" lon="1.49462">
        <ele>1360.4028320312</ele>
        <time>2010-07-14T13:05:03Z</time>
      </trkpt>
      <trkpt lat="42.70796" lon="1.49461">
        <ele>1359.4416503906</ele>
        <time>2010-07-14T13:05:08Z</time>
      </trkpt>
      <trkpt lat="42.70802" lon="1.49459">
        <ele>1358.4802246094</ele>
        <time>2010-07-14T13:05:13Z</time>
      </trkpt>
      <trkpt lat="42.70805" lon="1.49459">
        <ele>1357.5190429688</ele>
        <time>2010-07-14T13:05:16Z</time>
      </trkpt>
      <trkpt lat="42.7081" lon="1.4946">
        <ele>1355.5961914062</ele>
        <time>2010-07-14T13:05:21Z</time>
      </trkpt>
      <trkpt lat="42.70814" lon="1.49462">
        <ele>1355.5961914062</ele>
        <time>2010-07-14T13:05:26Z</time>
      </trkpt>
      <trkpt lat="42.70818" lon="1.49462">
        <ele>1355.1154785156</ele>
        <time>2010-07-14T13:05:29Z</time>
      </trkpt>
      <trkpt lat="42.70824" lon="1.4946">
        <ele>1355.1154785156</ele>
        <time>2010-07-14T13:05:35Z</time>
      </trkpt>
      <trkpt lat="42.70826" lon="1.4946">
        <ele>1355.1154785156</ele>
        <time>2010-07-14T13:05:37Z</time>
      </trkpt>
      <trkpt lat="42.70833" lon="1.4946">
        <ele>1353.6735839844</ele>
        <time>2010-07-14T13:05:43Z</time>
      </trkpt>
      <trkpt lat="42.70839" lon="1.4946">
        <ele>1352.7121582031</ele>
        <time>2010-07-14T13:05:48Z</time>
      </trkpt>
      <trkpt lat="42.70845" lon="1.49461">
        <ele>1350.7895507812</ele>
        <time>2010-07-14T13:05:53Z</time>
      </trkpt>
      <trkpt lat="42.70848" lon="1.49462">
        <ele>1348.8669433594</ele>
        <time>2010-07-14T13:05:57Z</time>
      </trkpt>
      <trkpt lat="42.70857" lon="1.49462">
        <ele>1347.9057617188</ele>
        <time>2010-07-14T13:06:02Z</time>
      </trkpt>
      <trkpt lat="42.7086" lon="1.49463">
        <ele>1349.8283691406</ele>
        <time>2010-07-14T13:06:06Z</time>
      </trkpt>
      <trkpt lat="42.70871" lon="1.49463">
        <ele>1353.6735839844</ele>
        <time>2010-07-14T13:06:11Z</time>
      </trkpt>
      <trkpt lat="42.70875" lon="1.49461">
        <ele>1356.5576171875</ele>
        <time>2010-07-14T13:06:13Z</time>
      </trkpt>
      <trkpt lat="42.7088" lon="1.49462">
        <ele>1358.4802246094</ele>
        <time>2010-07-14T13:06:16Z</time>
      </trkpt>
      <trkpt lat="42.70883" lon="1.49464">
        <ele>1359.4416503906</ele>
        <time>2010-07-14T13:06:20Z</time>
      </trkpt>
      <trkpt lat="42.70895" lon="1.49464">
        <ele>1366.1706542969</ele>
        <time>2010-07-14T13:06:27Z</time>
      </trkpt>
      <trkpt lat="42.70897" lon="1.49464">
        <ele>1368.0932617188</ele>
        <time>2010-07-14T13:06:28Z</time>
      </trkpt>
      <trkpt lat="42.709" lon="1.49466">
        <ele>1367.1320800781</ele>
        <time>2010-07-14T13:06:32Z</time>
      </trkpt>
      <trkpt lat="42.70904" lon="1.49469">
        <ele>1360.4028320312</ele>
        <time>2010-07-14T13:06:38Z</time>
      </trkpt>
      <trkpt lat="42.70906" lon="1.49463">
        <ele>1357.0383300781</ele>
        <time>2010-07-14T13:06:44Z</time>
      </trkpt>
      <trkpt lat="42.70902" lon="1.49463">
        <ele>1352.2314453125</ele>
        <time>2010-07-14T13:06:48Z</time>
      </trkpt>
      <trkpt lat="42.709" lon="1.49459">
        <ele>1350.7895507812</ele>
        <time>2010-07-14T13:06:52Z</time>
      </trkpt>
      <trkpt lat="42.70897" lon="1.49459">
        <ele>1346.4638671875</ele>
        <time>2010-07-14T13:06:54Z</time>
      </trkpt>
      <trkpt lat="42.70892" lon="1.49458">
        <ele>1340.2153320312</ele>
        <time>2010-07-14T13:06:59Z</time>
      </trkpt>
      <trkpt lat="42.70892" lon="1.49456">
        <ele>1334.447265625</ele>
        <time>2010-07-14T13:07:04Z</time>
      </trkpt>
      <trkpt lat="42.70895" lon="1.49453">
        <ele>1330.6020507812</ele>
        <time>2010-07-14T13:07:09Z</time>
      </trkpt>
      <trkpt lat="42.70896" lon="1.49454">
        <ele>1329.1599121094</ele>
        <time>2010-07-14T13:07:10Z</time>
      </trkpt>
      <trkpt lat="42.70901" lon="1.49456">
        <ele>1327.7180175781</ele>
        <time>2010-07-14T13:07:16Z</time>
      </trkpt>
      <trkpt lat="42.70905" lon="1.4946">
        <ele>1322.9113769531</ele>
        <time>2010-07-14T13:07:24Z</time>
      </trkpt>
      <trkpt lat="42.70906" lon="1.49461">
        <ele>1322.9113769531</ele>
        <time>2010-07-14T13:07:25Z</time>
      </trkpt>
      <trkpt lat="42.70911" lon="1.49463">
        <ele>1323.8725585938</ele>
        <time>2010-07-14T13:07:30Z</time>
      </trkpt>
      <trkpt lat="42.70922" lon="1.49461">
        <ele>1332.0439453125</ele>
        <time>2010-07-14T13:07:36Z</time>
      </trkpt>
      <trkpt lat="42.70927" lon="1.49459">
        <ele>1335.8891601562</ele>
        <time>2010-07-14T13:07:43Z</time>
      </trkpt>
      <trkpt lat="42.70932" lon="1.49463">
        <ele>1329.1599121094</ele>
        <time>2010-07-14T13:07:51Z</time>
      </trkpt>
      <trkpt lat="42.70935" lon="1.49464">
        <ele>1324.8342285156</ele>
        <time>2010-07-14T13:07:56Z</time>
      </trkpt>
      <trkpt lat="42.70938" lon="1.49465">
        <ele>1320.5080566406</ele>
        <time>2010-07-14T13:08:02Z</time>
      </trkpt>
      <trkpt lat="42.70941" lon="1.49466">
        <ele>1319.0661621094</ele>
        <time>2010-07-14T13:08:11Z</time>
      </trkpt>
      <trkpt lat="42.70945" lon="1.49466">
        <ele>1318.5854492188</ele>
        <time>2010-07-14T13:08:15Z</time>
      </trkpt>
      <trkpt lat="42.7095" lon="1.49465">
        <ele>1315.7016601562</ele>
        <time>2010-07-14T13:08:21Z</time>
      </trkpt>
      <trkpt lat="42.70955" lon="1.49462">
        <ele>1313.2983398438</ele>
        <time>2010-07-14T13:08:27Z</time>
      </trkpt>
      <trkpt lat="42.70958" lon="1.49458">
        <ele>1311.8564453125</ele>
        <time>2010-07-14T13:08:31Z</time>
      </trkpt>
      <trkpt lat="42.70961" lon="1.49455">
        <ele>1311.3757324219</ele>
        <time>2010-07-14T13:08:35Z</time>
      </trkpt>
      <trkpt lat="42.70965" lon="1.49455">
        <ele>1310.4143066406</ele>
        <time>2010-07-14T13:08:40Z</time>
      </trkpt>
      <trkpt lat="42.7097" lon="1.49451">
        <ele>1310.4143066406</ele>
        <time>2010-07-14T13:08:45Z</time>
      </trkpt>
      <trkpt lat="42.70972" lon="1.49451">
        <ele>1309.453125</ele>
        <time>2010-07-14T13:08:47Z</time>
      </trkpt>
      <trkpt lat="42.70976" lon="1.49447">
        <ele>1308.9724121094</ele>
        <time>2010-07-14T13:08:52Z</time>
      </trkpt>
      <trkpt lat="42.70985" lon="1.49443">
        <ele>1312.8176269531</ele>
        <time>2010-07-14T13:08:57Z</time>
      </trkpt>
      <trkpt lat="42.70993" lon="1.49438">
        <ele>1313.2983398438</ele>
        <time>2010-07-14T13:09:02Z</time>
      </trkpt>
      <trkpt lat="42.70993" lon="1.49436">
        <ele>1313.2983398438</ele>
        <time>2010-07-14T13:09:03Z</time>
      </trkpt>
      <trkpt lat="42.70996" lon="1.4943">
        <ele>1311.8564453125</ele>
        <time>2010-07-14T13:09:08Z</time>
      </trkpt>
      <trkpt lat="42.71002" lon="1.49425">
        <ele>1308.9724121094</ele>
        <time>2010-07-14T13:09:13Z</time>
      </trkpt>
      <trkpt lat="42.71003" lon="1.49423">
        <ele>1307.5302734375</ele>
        <time>2010-07-14T13:09:15Z</time>
      </trkpt>
      <trkpt lat="42.71006" lon="1.49415">
        <ele>1306.0881347656</ele>
        <time>2010-07-14T13:09:20Z</time>
      </trkpt>
      <trkpt lat="42.71009" lon="1.4941">
        <ele>1305.6076660156</ele>
        <time>2010-07-14T13:09:24Z</time>
      </trkpt>
      <trkpt lat="42.71011" lon="1.49406">
        <ele>1304.6462402344</ele>
        <time>2010-07-14T13:09:28Z</time>
      </trkpt>
      <trkpt lat="42.71014" lon="1.49399">
        <ele>1304.6462402344</ele>
        <time>2010-07-14T13:09:34Z</time>
      </trkpt>
      <trkpt lat="42.71018" lon="1.49395">
        <ele>1306.5688476562</ele>
        <time>2010-07-14T13:09:38Z</time>
      </trkpt>
      <trkpt lat="42.71021" lon="1.49387">
        <ele>1304.6462402344</ele>
        <time>2010-07-14T13:09:45Z</time>
      </trkpt>
      <trkpt lat="42.71025" lon="1.49383">
        <ele>1300.8010253906</ele>
        <time>2010-07-14T13:09:50Z</time>
      </trkpt>
      <trkpt lat="42.71029" lon="1.49377">
        <ele>1296.9558105469</ele>
        <time>2010-07-14T13:09:55Z</time>
      </trkpt>
      <trkpt lat="42.71033" lon="1.49372">
        <ele>1292.1494140625</ele>
        <time>2010-07-14T13:10:00Z</time>
      </trkpt>
      <trkpt lat="42.71038" lon="1.49362">
        <ele>1292.1494140625</ele>
        <time>2010-07-14T13:10:10Z</time>
      </trkpt>
      <trkpt lat="42.71039" lon="1.49361">
        <ele>1291.6684570312</ele>
        <time>2010-07-14T13:10:11Z</time>
      </trkpt>
      <trkpt lat="42.71042" lon="1.49357">
        <ele>1290.2265625</ele>
        <time>2010-07-14T13:10:15Z</time>
      </trkpt>
      <trkpt lat="42.7105" lon="1.49357">
        <ele>1291.1877441406</ele>
        <time>2010-07-14T13:10:20Z</time>
      </trkpt>
      <trkpt lat="42.71057" lon="1.49354">
        <ele>1292.1494140625</ele>
        <time>2010-07-14T13:10:25Z</time>
      </trkpt>
      <trkpt lat="42.71061" lon="1.49352">
        <ele>1292.1494140625</ele>
        <time>2010-07-14T13:10:30Z</time>
      </trkpt>
      <trkpt lat="42.71069" lon="1.49351">
        <ele>1292.1494140625</ele>
        <time>2010-07-14T13:10:37Z</time>
      </trkpt>
      <trkpt lat="42.71072" lon="1.49351">
        <ele>1288.7846679688</ele>
        <time>2010-07-14T13:10:42Z</time>
      </trkpt>
      <trkpt lat="42.71077" lon="1.49348">
        <ele>1285.419921875</ele>
        <time>2010-07-14T13:10:47Z</time>
      </trkpt>
      <trkpt lat="42.71082" lon="1.49345">
        <ele>1283.9780273438</ele>
        <time>2010-07-14T13:10:52Z</time>
      </trkpt>
      <trkpt lat="42.71087" lon="1.4934">
        <ele>1284.939453125</ele>
        <time>2010-07-14T13:10:57Z</time>
      </trkpt>
      <trkpt lat="42.7109" lon="1.49336">
        <ele>1284.939453125</ele>
        <time>2010-07-14T13:11:01Z</time>
      </trkpt>
      <trkpt lat="42.71096" lon="1.49337">
        <ele>1283.4973144531</ele>
        <time>2010-07-14T13:11:10Z</time>
      </trkpt>
      <trkpt lat="42.71098" lon="1.49336">
        <ele>1282.0554199219</ele>
        <time>2010-07-14T13:11:14Z</time>
      </trkpt>
      <trkpt lat="42.711" lon="1.49334">
        <ele>1280.1328125</ele>
        <time>2010-07-14T13:11:18Z</time>
      </trkpt>
      <trkpt lat="42.71104" lon="1.49335">
        <ele>1279.1713867188</ele>
        <time>2010-07-14T13:11:23Z</time>
      </trkpt>
      <trkpt lat="42.71105" lon="1.49332">
        <ele>1277.7294921875</ele>
        <time>2010-07-14T13:11:27Z</time>
      </trkpt>
      <trkpt lat="42.7111" lon="1.49327">
        <ele>1275.806640625</ele>
        <time>2010-07-14T13:11:33Z</time>
      </trkpt>
      <trkpt lat="42.71112" lon="1.49323">
        <ele>1274.3647460938</ele>
        <time>2010-07-14T13:11:37Z</time>
      </trkpt>
      <trkpt lat="42.71112" lon="1.49323">
        <ele>1273.8840332031</ele>
        <time>2010-07-14T13:11:38Z</time>
      </trkpt>
      <trkpt lat="42.71121" lon="1.49319">
        <ele>1272.9228515625</ele>
        <time>2010-07-14T13:11:44Z</time>
      </trkpt>
      <trkpt lat="42.71128" lon="1.49311">
        <ele>1271.4807128906</ele>
        <time>2010-07-14T13:11:49Z</time>
      </trkpt>
      <trkpt lat="42.71134" lon="1.49307">
        <ele>1270.51953125</ele>
        <time>2010-07-14T13:11:55Z</time>
      </trkpt>
      <trkpt lat="42.71135" lon="1.49306">
        <ele>1270.51953125</ele>
        <time>2010-07-14T13:11:56Z</time>
      </trkpt>
      <trkpt lat="42.71142" lon="1.493">
        <ele>1267.6354980469</ele>
        <time>2010-07-14T13:12:03Z</time>
      </trkpt>
      <trkpt lat="42.71148" lon="1.49298">
        <ele>1267.6354980469</ele>
        <time>2010-07-14T13:12:08Z</time>
      </trkpt>
      <trkpt lat="42.71149" lon="1.49297">
        <ele>1268.5969238281</ele>
        <time>2010-07-14T13:12:09Z</time>
      </trkpt>
      <trkpt lat="42.71151" lon="1.49294">
        <ele>1268.5969238281</ele>
        <time>2010-07-14T13:12:13Z</time>
      </trkpt>
      <trkpt lat="42.71156" lon="1.4929">
        <ele>1267.1550292969</ele>
        <time>2010-07-14T13:12:19Z</time>
      </trkpt>
      <trkpt lat="42.7116" lon="1.49283">
        <ele>1264.2709960938</ele>
        <time>2010-07-14T13:12:26Z</time>
      </trkpt>
      <trkpt lat="42.71167" lon="1.4928">
        <ele>1260.9064941406</ele>
        <time>2010-07-14T13:12:34Z</time>
      </trkpt>
      <trkpt lat="42.71173" lon="1.49278">
        <ele>1257.5417480469</ele>
        <time>2010-07-14T13:12:40Z</time>
      </trkpt>
      <trkpt lat="42.71176" lon="1.49279">
        <ele>1256.5803222656</ele>
        <time>2010-07-14T13:12:43Z</time>
      </trkpt>
      <trkpt lat="42.71183" lon="1.49275">
        <ele>1253.2158203125</ele>
        <time>2010-07-14T13:12:50Z</time>
      </trkpt>
      <trkpt lat="42.71188" lon="1.49268">
        <ele>1251.2932128906</ele>
        <time>2010-07-14T13:12:56Z</time>
      </trkpt>
      <trkpt lat="42.71191" lon="1.49267">
        <ele>1250.8125</ele>
        <time>2010-07-14T13:12:58Z</time>
      </trkpt>
      <trkpt lat="42.71196" lon="1.49264">
        <ele>1249.3706054688</ele>
        <time>2010-07-14T13:13:03Z</time>
      </trkpt>
      <trkpt lat="42.71201" lon="1.49258">
        <ele>1247.4479980469</ele>
        <time>2010-07-14T13:13:08Z</time>
      </trkpt>
      <trkpt lat="42.71205" lon="1.49259">
        <ele>1246.4868164062</ele>
        <time>2010-07-14T13:13:11Z</time>
      </trkpt>
      <trkpt lat="42.71209" lon="1.49254">
        <ele>1245.0446777344</ele>
        <time>2010-07-14T13:13:16Z</time>
      </trkpt>
      <trkpt lat="42.71211" lon="1.49253">
        <ele>1245.0446777344</ele>
        <time>2010-07-14T13:13:18Z</time>
      </trkpt>
      <trkpt lat="42.71218" lon="1.49244">
        <ele>1245.0446777344</ele>
        <time>2010-07-14T13:13:24Z</time>
      </trkpt>
      <trkpt lat="42.71219" lon="1.49243">
        <ele>1244.5639648438</ele>
        <time>2010-07-14T13:13:25Z</time>
      </trkpt>
      <trkpt lat="42.71223" lon="1.49236">
        <ele>1243.1218261719</ele>
        <time>2010-07-14T13:13:29Z</time>
      </trkpt>
      <trkpt lat="42.71226" lon="1.49231">
        <ele>1242.1606445312</ele>
        <time>2010-07-14T13:13:33Z</time>
      </trkpt>
      <trkpt lat="42.7123" lon="1.49231">
        <ele>1242.1606445312</ele>
        <time>2010-07-14T13:13:36Z</time>
      </trkpt>
      <trkpt lat="42.71231" lon="1.49231">
        <ele>1242.1606445312</ele>
        <time>2010-07-14T13:13:38Z</time>
      </trkpt>
      <trkpt lat="42.71238" lon="1.49231">
        <ele>1242.1606445312</ele>
        <time>2010-07-14T13:13:45Z</time>
      </trkpt>
      <trkpt lat="42.71241" lon="1.4923">
        <ele>1242.6413574219</ele>
        <time>2010-07-14T13:13:52Z</time>
      </trkpt>
      <trkpt lat="42.71242" lon="1.49227">
        <ele>1242.1606445312</ele>
        <time>2010-07-14T13:13:54Z</time>
      </trkpt>
      <trkpt lat="42.71245" lon="1.49219">
        <ele>1242.1606445312</ele>
        <time>2010-07-14T13:14:00Z</time>
      </trkpt>
      <trkpt lat="42.71248" lon="1.49212">
        <ele>1240.7185058594</ele>
        <time>2010-07-14T13:14:05Z</time>
      </trkpt>
      <trkpt lat="42.71255" lon="1.49206">
        <ele>1237.8347167969</ele>
        <time>2010-07-14T13:14:12Z</time>
      </trkpt>
      <trkpt lat="42.71256" lon="1.49205">
        <ele>1237.3540039062</ele>
        <time>2010-07-14T13:14:13Z</time>
      </trkpt>
      <trkpt lat="42.7126" lon="1.49198">
        <ele>1236.3928222656</ele>
        <time>2010-07-14T13:14:19Z</time>
      </trkpt>
      <trkpt lat="42.71267" lon="1.4919">
        <ele>1234.9509277344</ele>
        <time>2010-07-14T13:14:25Z</time>
      </trkpt>
      <trkpt lat="42.71269" lon="1.49188">
        <ele>1233.9895019531</ele>
        <time>2010-07-14T13:14:27Z</time>
      </trkpt>
      <trkpt lat="42.71273" lon="1.49187">
        <ele>1231.5861816406</ele>
        <time>2010-07-14T13:14:31Z</time>
      </trkpt>
      <trkpt lat="42.71279" lon="1.49182">
        <ele>1229.6635742188</ele>
        <time>2010-07-14T13:14:36Z</time>
      </trkpt>
      <trkpt lat="42.71283" lon="1.49177">
        <ele>1229.1828613281</ele>
        <time>2010-07-14T13:14:40Z</time>
      </trkpt>
      <trkpt lat="42.71285" lon="1.49173">
        <ele>1228.2216796875</ele>
        <time>2010-07-14T13:14:43Z</time>
      </trkpt>
      <trkpt lat="42.71286" lon="1.4917">
        <ele>1227.7407226562</ele>
        <time>2010-07-14T13:14:45Z</time>
      </trkpt>
      <trkpt lat="42.71289" lon="1.49165">
        <ele>1225.8181152344</ele>
        <time>2010-07-14T13:14:50Z</time>
      </trkpt>
      <trkpt lat="42.71289" lon="1.49162">
        <ele>1224.8569335938</ele>
        <time>2010-07-14T13:14:52Z</time>
      </trkpt>
      <trkpt lat="42.71291" lon="1.49155">
        <ele>1222.9343261719</ele>
        <time>2010-07-14T13:14:57Z</time>
      </trkpt>
      <trkpt lat="42.7129" lon="1.49147">
        <ele>1222.9343261719</ele>
        <time>2010-07-14T13:15:02Z</time>
      </trkpt>
      <trkpt lat="42.7129" lon="1.49142">
        <ele>1223.4150390625</ele>
        <time>2010-07-14T13:15:06Z</time>
      </trkpt>
      <trkpt lat="42.7129" lon="1.49141">
        <ele>1222.9343261719</ele>
        <time>2010-07-14T13:15:07Z</time>
      </trkpt>
      <trkpt lat="42.71293" lon="1.49133">
        <ele>1221.4921875</ele>
        <time>2010-07-14T13:15:12Z</time>
      </trkpt>
      <trkpt lat="42.71296" lon="1.49127">
        <ele>1220.0502929688</ele>
        <time>2010-07-14T13:15:17Z</time>
      </trkpt>
      <trkpt lat="42.71298" lon="1.49124">
        <ele>1218.6083984375</ele>
        <time>2010-07-14T13:15:21Z</time>
      </trkpt>
      <trkpt lat="42.71301" lon="1.4912">
        <ele>1217.6469726562</ele>
        <time>2010-07-14T13:15:25Z</time>
      </trkpt>
      <trkpt lat="42.71303" lon="1.49114">
        <ele>1215.2438964844</ele>
        <time>2010-07-14T13:15:30Z</time>
      </trkpt>
      <trkpt lat="42.71305" lon="1.49105">
        <ele>1212.3598632812</ele>
        <time>2010-07-14T13:15:36Z</time>
      </trkpt>
      <trkpt lat="42.71308" lon="1.49102">
        <ele>1210.4370117188</ele>
        <time>2010-07-14T13:15:40Z</time>
      </trkpt>
      <trkpt lat="42.7131" lon="1.49099">
        <ele>1208.5144042969</ele>
        <time>2010-07-14T13:15:44Z</time>
      </trkpt>
      <trkpt lat="42.71307" lon="1.49095">
        <ele>1208.0339355469</ele>
        <time>2010-07-14T13:15:48Z</time>
      </trkpt>
      <trkpt lat="42.71304" lon="1.49093">
        <ele>1207.0725097656</ele>
        <time>2010-07-14T13:15:52Z</time>
      </trkpt>
      <trkpt lat="42.71297" lon="1.49093">
        <ele>1207.0725097656</ele>
        <time>2010-07-14T13:15:58Z</time>
      </trkpt>
      <trkpt lat="42.71289" lon="1.49098">
        <ele>1206.591796875</ele>
        <time>2010-07-14T13:16:07Z</time>
      </trkpt>
      <trkpt lat="42.71281" lon="1.49099">
        <ele>1208.5144042969</ele>
        <time>2010-07-14T13:16:12Z</time>
      </trkpt>
      <trkpt lat="42.71279" lon="1.49095">
        <ele>1209.4758300781</ele>
        <time>2010-07-14T13:16:14Z</time>
      </trkpt>
      <trkpt lat="42.71278" lon="1.49092">
        <ele>1208.9951171875</ele>
        <time>2010-07-14T13:16:16Z</time>
      </trkpt>
      <trkpt lat="42.7128" lon="1.49089">
        <ele>1208.5144042969</ele>
        <time>2010-07-14T13:16:18Z</time>
      </trkpt>
      <trkpt lat="42.71285" lon="1.49081">
        <ele>1204.1887207031</ele>
        <time>2010-07-14T13:16:24Z</time>
      </trkpt>
      <trkpt lat="42.71286" lon="1.49079">
        <ele>1203.2272949219</ele>
        <time>2010-07-14T13:16:26Z</time>
      </trkpt>
      <trkpt lat="42.71291" lon="1.49075">
        <ele>1202.2658691406</ele>
        <time>2010-07-14T13:16:31Z</time>
      </trkpt>
      <trkpt lat="42.71294" lon="1.49073">
        <ele>1201.7854003906</ele>
        <time>2010-07-14T13:16:34Z</time>
      </trkpt>
      <trkpt lat="42.71301" lon="1.49068">
        <ele>1199.8627929688</ele>
        <time>2010-07-14T13:16:40Z</time>
      </trkpt>
      <trkpt lat="42.71306" lon="1.49062">
        <ele>1197.4594726562</ele>
        <time>2010-07-14T13:16:46Z</time>
      </trkpt>
      <trkpt lat="42.71308" lon="1.4906">
        <ele>1196.9787597656</ele>
        <time>2010-07-14T13:16:48Z</time>
      </trkpt>
      <trkpt lat="42.71313" lon="1.49051">
        <ele>1194.5751953125</ele>
        <time>2010-07-14T13:16:55Z</time>
      </trkpt>
      <trkpt lat="42.71314" lon="1.4905">
        <ele>1194.0947265625</ele>
        <time>2010-07-14T13:16:56Z</time>
      </trkpt>
      <trkpt lat="42.71323" lon="1.49045">
        <ele>1192.1721191406</ele>
        <time>2010-07-14T13:17:03Z</time>
      </trkpt>
      <trkpt lat="42.71325" lon="1.49043">
        <ele>1192.6528320312</ele>
        <time>2010-07-14T13:17:05Z</time>
      </trkpt>
      <trkpt lat="42.71331" lon="1.49037">
        <ele>1193.1333007812</ele>
        <time>2010-07-14T13:17:10Z</time>
      </trkpt>
      <trkpt lat="42.71331" lon="1.49036">
        <ele>1193.1333007812</ele>
        <time>2010-07-14T13:17:11Z</time>
      </trkpt>
      <trkpt lat="42.71337" lon="1.49031">
        <ele>1194.5751953125</ele>
        <time>2010-07-14T13:17:16Z</time>
      </trkpt>
      <trkpt lat="42.71342" lon="1.49028">
        <ele>1196.017578125</ele>
        <time>2010-07-14T13:17:20Z</time>
      </trkpt>
      <trkpt lat="42.71348" lon="1.49025">
        <ele>1197.9401855469</ele>
        <time>2010-07-14T13:17:24Z</time>
      </trkpt>
      <trkpt lat="42.7135" lon="1.49024">
        <ele>1198.4206542969</ele>
        <time>2010-07-14T13:17:26Z</time>
      </trkpt>
      <trkpt lat="42.71351" lon="1.49022">
        <ele>1198.4206542969</ele>
        <time>2010-07-14T13:17:28Z</time>
      </trkpt>
      <trkpt lat="42.71357" lon="1.49022">
        <ele>1195.0559082031</ele>
        <time>2010-07-14T13:17:34Z</time>
      </trkpt>
      <trkpt lat="42.71365" lon="1.49018">
        <ele>1192.1721191406</ele>
        <time>2010-07-14T13:17:40Z</time>
      </trkpt>
      <trkpt lat="42.71366" lon="1.49017">
        <ele>1191.2106933594</ele>
        <time>2010-07-14T13:17:42Z</time>
      </trkpt>
      <trkpt lat="42.71374" lon="1.49011">
        <ele>1190.2495117188</ele>
        <time>2010-07-14T13:17:49Z</time>
      </trkpt>
      <trkpt lat="42.71381" lon="1.49007">
        <ele>1191.2106933594</ele>
        <time>2010-07-14T13:17:55Z</time>
      </trkpt>
      <trkpt lat="42.71386" lon="1.49009">
        <ele>1191.2106933594</ele>
        <time>2010-07-14T13:17:59Z</time>
      </trkpt>
      <trkpt lat="42.7139" lon="1.49011">
        <ele>1195.0559082031</ele>
        <time>2010-07-14T13:18:03Z</time>
      </trkpt>
      <trkpt lat="42.71394" lon="1.49013">
        <ele>1204.1887207031</ele>
        <time>2010-07-14T13:18:09Z</time>
      </trkpt>
      <trkpt lat="42.71403" lon="1.49014">
        <ele>1206.591796875</ele>
        <time>2010-07-14T13:18:16Z</time>
      </trkpt>
      <trkpt lat="42.71406" lon="1.49013">
        <ele>1205.6306152344</ele>
        <time>2010-07-14T13:18:19Z</time>
      </trkpt>
      <trkpt lat="42.71416" lon="1.49011">
        <ele>1198.9013671875</ele>
        <time>2010-07-14T13:18:25Z</time>
      </trkpt>
      <trkpt lat="42.71424" lon="1.49006">
        <ele>1195.0559082031</ele>
        <time>2010-07-14T13:18:31Z</time>
      </trkpt>
      <trkpt lat="42.71432" lon="1.48998">
        <ele>1193.6140136719</ele>
        <time>2010-07-14T13:18:38Z</time>
      </trkpt>
      <trkpt lat="42.71434" lon="1.48997">
        <ele>1193.6140136719</ele>
        <time>2010-07-14T13:18:40Z</time>
      </trkpt>
      <trkpt lat="42.71442" lon="1.48989">
        <ele>1192.1721191406</ele>
        <time>2010-07-14T13:18:48Z</time>
      </trkpt>
      <trkpt lat="42.71453" lon="1.48981">
        <ele>1190.7299804688</ele>
        <time>2010-07-14T13:18:58Z</time>
      </trkpt>
      <trkpt lat="42.71461" lon="1.48977">
        <ele>1190.2495117188</ele>
        <time>2010-07-14T13:19:05Z</time>
      </trkpt>
      <trkpt lat="42.71471" lon="1.4897">
        <ele>1190.2495117188</ele>
        <time>2010-07-14T13:19:15Z</time>
      </trkpt>
      <trkpt lat="42.7148" lon="1.48963">
        <ele>1190.2495117188</ele>
        <time>2010-07-14T13:19:24Z</time>
      </trkpt>
      <trkpt lat="42.71485" lon="1.48966">
        <ele>1190.7299804688</ele>
        <time>2010-07-14T13:19:29Z</time>
      </trkpt>
      <trkpt lat="42.71486" lon="1.48967">
        <ele>1190.2495117188</ele>
        <time>2010-07-14T13:19:30Z</time>
      </trkpt>
      <trkpt lat="42.7149" lon="1.48972">
        <ele>1190.2495117188</ele>
        <time>2010-07-14T13:19:34Z</time>
      </trkpt>
      <trkpt lat="42.71499" lon="1.48976">
        <ele>1192.6528320312</ele>
        <time>2010-07-14T13:19:40Z</time>
      </trkpt>
      <trkpt lat="42.71506" lon="1.48981">
        <ele>1193.1333007812</ele>
        <time>2010-07-14T13:19:47Z</time>
      </trkpt>
      <trkpt lat="42.71512" lon="1.48985">
        <ele>1190.2495117188</ele>
        <time>2010-07-14T13:19:53Z</time>
      </trkpt>
      <trkpt lat="42.71518" lon="1.48987">
        <ele>1190.7299804688</ele>
        <time>2010-07-14T13:19:58Z</time>
      </trkpt>
      <trkpt lat="42.71524" lon="1.48987">
        <ele>1190.2495117188</ele>
        <time>2010-07-14T13:20:03Z</time>
      </trkpt>
      <trkpt lat="42.71531" lon="1.48989">
        <ele>1187.3654785156</ele>
        <time>2010-07-14T13:20:08Z</time>
      </trkpt>
      <trkpt lat="42.71536" lon="1.48987">
        <ele>1185.9235839844</ele>
        <time>2010-07-14T13:20:14Z</time>
      </trkpt>
      <trkpt lat="42.71544" lon="1.48987">
        <ele>1185.4428710938</ele>
        <time>2010-07-14T13:20:20Z</time>
      </trkpt>
      <trkpt lat="42.71547" lon="1.48984">
        <ele>1184.0009765625</ele>
        <time>2010-07-14T13:20:23Z</time>
      </trkpt>
      <trkpt lat="42.71551" lon="1.48984">
        <ele>1184.0009765625</ele>
        <time>2010-07-14T13:20:26Z</time>
      </trkpt>
      <trkpt lat="42.71557" lon="1.48976">
        <ele>1182.0783691406</ele>
        <time>2010-07-14T13:20:34Z</time>
      </trkpt>
      <trkpt lat="42.7156" lon="1.48972">
        <ele>1181.1171875</ele>
        <time>2010-07-14T13:20:38Z</time>
      </trkpt>
      <trkpt lat="42.71567" lon="1.48966">
        <ele>1181.59765625</ele>
        <time>2010-07-14T13:20:43Z</time>
      </trkpt>
      <trkpt lat="42.71573" lon="1.48961">
        <ele>1181.1171875</ele>
        <time>2010-07-14T13:20:49Z</time>
      </trkpt>
      <trkpt lat="42.71577" lon="1.48957">
        <ele>1178.7136230469</ele>
        <time>2010-07-14T13:20:53Z</time>
      </trkpt>
      <trkpt lat="42.71582" lon="1.4895">
        <ele>1176.791015625</ele>
        <time>2010-07-14T13:20:59Z</time>
      </trkpt>
      <trkpt lat="42.7159" lon="1.48945">
        <ele>1176.3103027344</ele>
        <time>2010-07-14T13:21:06Z</time>
      </trkpt>
      <trkpt lat="42.716" lon="1.48939">
        <ele>1175.3488769531</ele>
        <time>2010-07-14T13:21:15Z</time>
      </trkpt>
      <trkpt lat="42.71608" lon="1.48933">
        <ele>1174.8684082031</ele>
        <time>2010-07-14T13:21:22Z</time>
      </trkpt>
      <trkpt lat="42.71612" lon="1.48929">
        <ele>1172.9458007812</ele>
        <time>2010-07-14T13:21:27Z</time>
      </trkpt>
      <trkpt lat="42.7162" lon="1.48923">
        <ele>1173.4265136719</ele>
        <time>2010-07-14T13:21:34Z</time>
      </trkpt>
      <trkpt lat="42.71627" lon="1.48917">
        <ele>1172.4650878906</ele>
        <time>2010-07-14T13:21:41Z</time>
      </trkpt>
      <trkpt lat="42.71636" lon="1.48908">
        <ele>1172.4650878906</ele>
        <time>2010-07-14T13:21:49Z</time>
      </trkpt>
      <trkpt lat="42.71643" lon="1.48902">
        <ele>1172.9458007812</ele>
        <time>2010-07-14T13:21:56Z</time>
      </trkpt>
      <trkpt lat="42.71647" lon="1.48899">
        <ele>1172.9458007812</ele>
        <time>2010-07-14T13:22:00Z</time>
      </trkpt>
      <trkpt lat="42.71655" lon="1.48889">
        <ele>1172.4650878906</ele>
        <time>2010-07-14T13:22:08Z</time>
      </trkpt>
      <trkpt lat="42.71658" lon="1.48886">
        <ele>1172.9458007812</ele>
        <time>2010-07-14T13:22:11Z</time>
      </trkpt>
      <trkpt lat="42.71664" lon="1.48879">
        <ele>1172.9458007812</ele>
        <time>2010-07-14T13:22:17Z</time>
      </trkpt>
      <trkpt lat="42.71672" lon="1.48871">
        <ele>1171.984375</ele>
        <time>2010-07-14T13:22:25Z</time>
      </trkpt>
      <trkpt lat="42.71678" lon="1.48866">
        <ele>1172.4650878906</ele>
        <time>2010-07-14T13:22:31Z</time>
      </trkpt>
      <trkpt lat="42.71685" lon="1.48861">
        <ele>1171.0231933594</ele>
        <time>2010-07-14T13:22:37Z</time>
      </trkpt>
      <trkpt lat="42.71694" lon="1.48855">
        <ele>1174.3876953125</ele>
        <time>2010-07-14T13:22:43Z</time>
      </trkpt>
      <trkpt lat="42.71703" lon="1.48848">
        <ele>1172.9458007812</ele>
        <time>2010-07-14T13:22:51Z</time>
      </trkpt>
      <trkpt lat="42.71703" lon="1.48846">
        <ele>1172.4650878906</ele>
        <time>2010-07-14T13:22:53Z</time>
      </trkpt>
      <trkpt lat="42.71705" lon="1.48841">
        <ele>1170.5424804688</ele>
        <time>2010-07-14T13:22:59Z</time>
      </trkpt>
      <trkpt lat="42.71705" lon="1.48831">
        <ele>1170.0617675781</ele>
        <time>2010-07-14T13:23:05Z</time>
      </trkpt>
      <trkpt lat="42.71703" lon="1.4882">
        <ele>1169.5812988281</ele>
        <time>2010-07-14T13:23:10Z</time>
      </trkpt>
      <trkpt lat="42.71702" lon="1.48818">
        <ele>1169.1005859375</ele>
        <time>2010-07-14T13:23:11Z</time>
      </trkpt>
      <trkpt lat="42.71695" lon="1.48809">
        <ele>1166.2165527344</ele>
        <time>2010-07-14T13:23:18Z</time>
      </trkpt>
      <trkpt lat="42.71691" lon="1.48802">
        <ele>1163.8129882812</ele>
        <time>2010-07-14T13:23:22Z</time>
      </trkpt>
      <trkpt lat="42.71691" lon="1.48789">
        <ele>1160.9291992188</ele>
        <time>2010-07-14T13:23:29Z</time>
      </trkpt>
      <trkpt lat="42.71693" lon="1.48783">
        <ele>1159.9677734375</ele>
        <time>2010-07-14T13:23:33Z</time>
      </trkpt>
      <trkpt lat="42.71699" lon="1.48778">
        <ele>1159.0065917969</ele>
        <time>2010-07-14T13:23:39Z</time>
      </trkpt>
      <trkpt lat="42.71706" lon="1.48775">
        <ele>1159.0065917969</ele>
        <time>2010-07-14T13:23:45Z</time>
      </trkpt>
      <trkpt lat="42.71716" lon="1.48774">
        <ele>1160.4484863281</ele>
        <time>2010-07-14T13:23:52Z</time>
      </trkpt>
      <trkpt lat="42.71727" lon="1.48773">
        <ele>1160.9291992188</ele>
        <time>2010-07-14T13:24:01Z</time>
      </trkpt>
      <trkpt lat="42.71732" lon="1.48775">
        <ele>1159.9677734375</ele>
        <time>2010-07-14T13:24:06Z</time>
      </trkpt>
      <trkpt lat="42.71739" lon="1.48776">
        <ele>1159.4873046875</ele>
        <time>2010-07-14T13:24:12Z</time>
      </trkpt>
      <trkpt lat="42.71743" lon="1.48779">
        <ele>1157.5646972656</ele>
        <time>2010-07-14T13:24:20Z</time>
      </trkpt>
      <trkpt lat="42.71743" lon="1.48779">
        <ele>1155.6420898438</ele>
        <time>2010-07-14T13:24:32Z</time>
      </trkpt>
    </trkseg>
  </trk>
</gpx>